<?xml version="1.0" encoding="UTF-8" standalone="no" ?>
<gpx xmlns="http://www.topografix.com/GPX/1/1" xmlns:xsi="http://www.w3.org/2001/XMLSchema-instance" xsi:schemaLocation="http://www.topografix.com/GPX/1/1 http://www.topografix.com/GPX/1/1/gpx.xsd" version="1.1" creator="VisuGPX - https://www.visugpx.com">
  <metadata>
    <name>Autour de Cuzorn (47)</name>
    <desc><![CDATA[Une sympathique boucle autour de Cuzorn avec des chemins roulants et agréables.

Notre blog vtt : http://les4fantastiques.over-blog.org/]]></desc>
  </metadata>
  <trk>
    <name><![CDATA[Autour de Cuzorn (47)_1]]></name>
    <trkseg>
      <trkpt lat="44.5453" lon="0.94868">
        <ele>91</ele>
        <time>2011-12-26T08:00:05Z</time>
      </trkpt>
      <trkpt lat="44.54528" lon="0.94908">
        <ele>94</ele>
        <time>2011-12-26T08:01:04Z</time>
      </trkpt>
      <trkpt lat="44.54525" lon="0.94912">
        <ele>94</ele>
        <time>2011-12-26T08:01:04Z</time>
      </trkpt>
      <trkpt lat="44.54523" lon="0.94916">
        <ele>94</ele>
        <time>2011-12-26T08:01:05Z</time>
      </trkpt>
      <trkpt lat="44.54523" lon="0.94919">
        <ele>94</ele>
        <time>2011-12-26T08:01:07Z</time>
      </trkpt>
      <trkpt lat="44.54529" lon="0.94927">
        <ele>94</ele>
        <time>2011-12-26T08:01:11Z</time>
      </trkpt>
      <trkpt lat="44.54531" lon="0.94928">
        <ele>93</ele>
        <time>2011-12-26T08:01:12Z</time>
      </trkpt>
      <trkpt lat="44.54533" lon="0.94929">
        <ele>93</ele>
        <time>2011-12-26T08:01:12Z</time>
      </trkpt>
      <trkpt lat="44.54539" lon="0.94932">
        <ele>93</ele>
        <time>2011-12-26T08:01:16Z</time>
      </trkpt>
      <trkpt lat="44.54545" lon="0.94935">
        <ele>93</ele>
        <time>2011-12-26T08:01:16Z</time>
      </trkpt>
      <trkpt lat="44.54549" lon="0.94937">
        <ele>93</ele>
        <time>2011-12-26T08:01:17Z</time>
      </trkpt>
      <trkpt lat="44.54556" lon="0.94941">
        <ele>93</ele>
        <time>2011-12-26T08:01:21Z</time>
      </trkpt>
      <trkpt lat="44.54563" lon="0.94945">
        <ele>93</ele>
        <time>2011-12-26T08:01:21Z</time>
      </trkpt>
      <trkpt lat="44.54567" lon="0.94947">
        <ele>92</ele>
        <time>2011-12-26T08:01:22Z</time>
      </trkpt>
      <trkpt lat="44.54575" lon="0.94951">
        <ele>92</ele>
        <time>2011-12-26T08:01:26Z</time>
      </trkpt>
      <trkpt lat="44.54583" lon="0.94956">
        <ele>92</ele>
        <time>2011-12-26T08:01:26Z</time>
      </trkpt>
      <trkpt lat="44.54586" lon="0.94959">
        <ele>92</ele>
        <time>2011-12-26T08:01:27Z</time>
      </trkpt>
      <trkpt lat="44.54593" lon="0.94963">
        <ele>92</ele>
        <time>2011-12-26T08:01:31Z</time>
      </trkpt>
      <trkpt lat="44.54599" lon="0.94967">
        <ele>91</ele>
        <time>2011-12-26T08:01:31Z</time>
      </trkpt>
      <trkpt lat="44.546" lon="0.9497">
        <ele>91</ele>
        <time>2011-12-26T08:01:32Z</time>
      </trkpt>
      <trkpt lat="44.54601" lon="0.94973">
        <ele>91</ele>
        <time>2011-12-26T08:01:34Z</time>
      </trkpt>
      <trkpt lat="44.546" lon="0.94977">
        <ele>91</ele>
        <time>2011-12-26T08:01:34Z</time>
      </trkpt>
      <trkpt lat="44.54596" lon="0.94989">
        <ele>91</ele>
        <time>2011-12-26T08:01:39Z</time>
      </trkpt>
      <trkpt lat="44.54596" lon="0.94991">
        <ele>91</ele>
        <time>2011-12-26T08:01:40Z</time>
      </trkpt>
      <trkpt lat="44.54598" lon="0.94994">
        <ele>91</ele>
        <time>2011-12-26T08:01:40Z</time>
      </trkpt>
      <trkpt lat="44.54602" lon="0.94995">
        <ele>91</ele>
        <time>2011-12-26T08:01:45Z</time>
      </trkpt>
      <trkpt lat="44.54609" lon="0.94996">
        <ele>91</ele>
        <time>2011-12-26T08:01:46Z</time>
      </trkpt>
      <trkpt lat="44.54612" lon="0.94996">
        <ele>91</ele>
        <time>2011-12-26T08:01:47Z</time>
      </trkpt>
      <trkpt lat="44.54622" lon="0.94997">
        <ele>91</ele>
        <time>2011-12-26T08:01:51Z</time>
      </trkpt>
      <trkpt lat="44.54624" lon="0.94997">
        <ele>91</ele>
        <time>2011-12-26T08:01:51Z</time>
      </trkpt>
      <trkpt lat="44.54627" lon="0.94997">
        <ele>91</ele>
        <time>2011-12-26T08:01:52Z</time>
      </trkpt>
      <trkpt lat="44.54631" lon="0.94996">
        <ele>91</ele>
        <time>2011-12-26T08:01:56Z</time>
      </trkpt>
      <trkpt lat="44.54637" lon="0.94995">
        <ele>91</ele>
        <time>2011-12-26T08:01:57Z</time>
      </trkpt>
      <trkpt lat="44.54641" lon="0.94994">
        <ele>91</ele>
        <time>2011-12-26T08:01:57Z</time>
      </trkpt>
      <trkpt lat="44.54647" lon="0.94993">
        <ele>91</ele>
        <time>2011-12-26T08:02:02Z</time>
      </trkpt>
      <trkpt lat="44.54657" lon="0.94993">
        <ele>91</ele>
        <time>2011-12-26T08:02:02Z</time>
      </trkpt>
      <trkpt lat="44.5466" lon="0.94994">
        <ele>91</ele>
        <time>2011-12-26T08:02:03Z</time>
      </trkpt>
      <trkpt lat="44.54672" lon="0.94997">
        <ele>91</ele>
        <time>2011-12-26T08:02:08Z</time>
      </trkpt>
      <trkpt lat="44.54675" lon="0.94997">
        <ele>91</ele>
        <time>2011-12-26T08:02:08Z</time>
      </trkpt>
      <trkpt lat="44.54678" lon="0.94997">
        <ele>91</ele>
        <time>2011-12-26T08:02:09Z</time>
      </trkpt>
      <trkpt lat="44.54689" lon="0.94995">
        <ele>91</ele>
        <time>2011-12-26T08:02:13Z</time>
      </trkpt>
      <trkpt lat="44.54692" lon="0.94995">
        <ele>91</ele>
        <time>2011-12-26T08:02:14Z</time>
      </trkpt>
      <trkpt lat="44.54697" lon="0.94994">
        <ele>91</ele>
        <time>2011-12-26T08:02:19Z</time>
      </trkpt>
      <trkpt lat="44.54705" lon="0.94995">
        <ele>91</ele>
        <time>2011-12-26T08:02:19Z</time>
      </trkpt>
      <trkpt lat="44.54707" lon="0.94995">
        <ele>91</ele>
        <time>2011-12-26T08:02:20Z</time>
      </trkpt>
      <trkpt lat="44.5471" lon="0.94995">
        <ele>92</ele>
        <time>2011-12-26T08:02:22Z</time>
      </trkpt>
      <trkpt lat="44.54715" lon="0.94995">
        <ele>92</ele>
        <time>2011-12-26T08:02:26Z</time>
      </trkpt>
      <trkpt lat="44.54722" lon="0.94992">
        <ele>93</ele>
        <time>2011-12-26T08:02:27Z</time>
      </trkpt>
      <trkpt lat="44.54724" lon="0.94991">
        <ele>94</ele>
        <time>2011-12-26T08:02:28Z</time>
      </trkpt>
      <trkpt lat="44.54726" lon="0.9499">
        <ele>94</ele>
        <time>2011-12-26T08:02:29Z</time>
      </trkpt>
      <trkpt lat="44.5473" lon="0.94988">
        <ele>95</ele>
        <time>2011-12-26T08:02:33Z</time>
      </trkpt>
      <trkpt lat="44.54736" lon="0.94986">
        <ele>95</ele>
        <time>2011-12-26T08:02:33Z</time>
      </trkpt>
      <trkpt lat="44.54738" lon="0.94985">
        <ele>96</ele>
        <time>2011-12-26T08:02:34Z</time>
      </trkpt>
      <trkpt lat="44.54742" lon="0.94983">
        <ele>96</ele>
        <time>2011-12-26T08:02:39Z</time>
      </trkpt>
      <trkpt lat="44.54748" lon="0.94981">
        <ele>97</ele>
        <time>2011-12-26T08:02:39Z</time>
      </trkpt>
      <trkpt lat="44.5475" lon="0.9498">
        <ele>98</ele>
        <time>2011-12-26T08:02:40Z</time>
      </trkpt>
      <trkpt lat="44.54754" lon="0.94979">
        <ele>99</ele>
        <time>2011-12-26T08:02:45Z</time>
      </trkpt>
      <trkpt lat="44.5476" lon="0.94978">
        <ele>100</ele>
        <time>2011-12-26T08:02:45Z</time>
      </trkpt>
      <trkpt lat="44.54762" lon="0.94978">
        <ele>100</ele>
        <time>2011-12-26T08:02:46Z</time>
      </trkpt>
      <trkpt lat="44.54765" lon="0.94978">
        <ele>101</ele>
        <time>2011-12-26T08:02:51Z</time>
      </trkpt>
      <trkpt lat="44.54771" lon="0.94977">
        <ele>102</ele>
        <time>2011-12-26T08:02:51Z</time>
      </trkpt>
      <trkpt lat="44.54773" lon="0.94976">
        <ele>103</ele>
        <time>2011-12-26T08:02:52Z</time>
      </trkpt>
      <trkpt lat="44.54774" lon="0.94975">
        <ele>103</ele>
        <time>2011-12-26T08:02:53Z</time>
      </trkpt>
      <trkpt lat="44.54776" lon="0.94976">
        <ele>104</ele>
        <time>2011-12-26T08:02:54Z</time>
      </trkpt>
      <trkpt lat="44.54778" lon="0.94976">
        <ele>105</ele>
        <time>2011-12-26T08:02:55Z</time>
      </trkpt>
      <trkpt lat="44.54781" lon="0.94977">
        <ele>106</ele>
        <time>2011-12-26T08:03:00Z</time>
      </trkpt>
      <trkpt lat="44.54786" lon="0.94979">
        <ele>107</ele>
        <time>2011-12-26T08:03:00Z</time>
      </trkpt>
      <trkpt lat="44.54788" lon="0.94979">
        <ele>107</ele>
        <time>2011-12-26T08:03:01Z</time>
      </trkpt>
      <trkpt lat="44.54797" lon="0.9498">
        <ele>108</ele>
        <time>2011-12-26T08:03:07Z</time>
      </trkpt>
      <trkpt lat="44.54799" lon="0.94981">
        <ele>109</ele>
        <time>2011-12-26T08:03:07Z</time>
      </trkpt>
      <trkpt lat="44.54801" lon="0.94981">
        <ele>110</ele>
        <time>2011-12-26T08:03:08Z</time>
      </trkpt>
      <trkpt lat="44.54804" lon="0.94982">
        <ele>111</ele>
        <time>2011-12-26T08:03:13Z</time>
      </trkpt>
      <trkpt lat="44.54809" lon="0.94983">
        <ele>112</ele>
        <time>2011-12-26T08:03:13Z</time>
      </trkpt>
      <trkpt lat="44.54811" lon="0.94983">
        <ele>112</ele>
        <time>2011-12-26T08:03:14Z</time>
      </trkpt>
      <trkpt lat="44.54815" lon="0.94984">
        <ele>113</ele>
        <time>2011-12-26T08:03:20Z</time>
      </trkpt>
      <trkpt lat="44.54822" lon="0.94984">
        <ele>113</ele>
        <time>2011-12-26T08:03:20Z</time>
      </trkpt>
      <trkpt lat="44.54824" lon="0.94984">
        <ele>114</ele>
        <time>2011-12-26T08:03:21Z</time>
      </trkpt>
      <trkpt lat="44.54825" lon="0.94984">
        <ele>114</ele>
        <time>2011-12-26T08:03:22Z</time>
      </trkpt>
      <trkpt lat="44.54834" lon="0.94984">
        <ele>115</ele>
        <time>2011-12-26T08:03:27Z</time>
      </trkpt>
      <trkpt lat="44.54836" lon="0.94984">
        <ele>115</ele>
        <time>2011-12-26T08:03:28Z</time>
      </trkpt>
      <trkpt lat="44.54839" lon="0.94984">
        <ele>115</ele>
        <time>2011-12-26T08:03:34Z</time>
      </trkpt>
      <trkpt lat="44.54847" lon="0.94986">
        <ele>115</ele>
        <time>2011-12-26T08:03:34Z</time>
      </trkpt>
      <trkpt lat="44.54848" lon="0.94987">
        <ele>115</ele>
        <time>2011-12-26T08:03:35Z</time>
      </trkpt>
      <trkpt lat="44.5485" lon="0.94988">
        <ele>115</ele>
        <time>2011-12-26T08:03:37Z</time>
      </trkpt>
      <trkpt lat="44.54853" lon="0.9499">
        <ele>116</ele>
        <time>2011-12-26T08:03:42Z</time>
      </trkpt>
      <trkpt lat="44.5486" lon="0.94994">
        <ele>116</ele>
        <time>2011-12-26T08:03:42Z</time>
      </trkpt>
      <trkpt lat="44.54861" lon="0.94995">
        <ele>116</ele>
        <time>2011-12-26T08:03:43Z</time>
      </trkpt>
      <trkpt lat="44.54865" lon="0.94997">
        <ele>116</ele>
        <time>2011-12-26T08:03:49Z</time>
      </trkpt>
      <trkpt lat="44.54872" lon="0.94999">
        <ele>116</ele>
        <time>2011-12-26T08:03:49Z</time>
      </trkpt>
      <trkpt lat="44.54874" lon="0.95">
        <ele>116</ele>
        <time>2011-12-26T08:03:50Z</time>
      </trkpt>
      <trkpt lat="44.54876" lon="0.95">
        <ele>116</ele>
        <time>2011-12-26T08:03:51Z</time>
      </trkpt>
      <trkpt lat="44.54879" lon="0.95001">
        <ele>116</ele>
        <time>2011-12-26T08:03:57Z</time>
      </trkpt>
      <trkpt lat="44.54885" lon="0.95004">
        <ele>116</ele>
        <time>2011-12-26T08:03:57Z</time>
      </trkpt>
      <trkpt lat="44.54887" lon="0.95005">
        <ele>116</ele>
        <time>2011-12-26T08:03:58Z</time>
      </trkpt>
      <trkpt lat="44.5489" lon="0.95006">
        <ele>116</ele>
        <time>2011-12-26T08:04:04Z</time>
      </trkpt>
      <trkpt lat="44.54895" lon="0.95009">
        <ele>116</ele>
        <time>2011-12-26T08:04:04Z</time>
      </trkpt>
      <trkpt lat="44.54897" lon="0.9501">
        <ele>116</ele>
        <time>2011-12-26T08:04:05Z</time>
      </trkpt>
      <trkpt lat="44.549" lon="0.95012">
        <ele>116</ele>
        <time>2011-12-26T08:04:11Z</time>
      </trkpt>
      <trkpt lat="44.54906" lon="0.95014">
        <ele>116</ele>
        <time>2011-12-26T08:04:11Z</time>
      </trkpt>
      <trkpt lat="44.54907" lon="0.95015">
        <ele>116</ele>
        <time>2011-12-26T08:04:13Z</time>
      </trkpt>
      <trkpt lat="44.54909" lon="0.95016">
        <ele>116</ele>
        <time>2011-12-26T08:04:14Z</time>
      </trkpt>
      <trkpt lat="44.5491" lon="0.95017">
        <ele>116</ele>
        <time>2011-12-26T08:04:15Z</time>
      </trkpt>
      <trkpt lat="44.54913" lon="0.9502">
        <ele>116</ele>
        <time>2011-12-26T08:04:20Z</time>
      </trkpt>
      <trkpt lat="44.54918" lon="0.95022">
        <ele>117</ele>
        <time>2011-12-26T08:04:20Z</time>
      </trkpt>
      <trkpt lat="44.54919" lon="0.95022">
        <ele>118</ele>
        <time>2011-12-26T08:04:24Z</time>
      </trkpt>
      <trkpt lat="44.54921" lon="0.95023">
        <ele>119</ele>
        <time>2011-12-26T08:04:30Z</time>
      </trkpt>
      <trkpt lat="44.54929" lon="0.95025">
        <ele>119</ele>
        <time>2011-12-26T08:04:31Z</time>
      </trkpt>
      <trkpt lat="44.54933" lon="0.95026">
        <ele>120</ele>
        <time>2011-12-26T08:04:33Z</time>
      </trkpt>
      <trkpt lat="44.54937" lon="0.95027">
        <ele>120</ele>
        <time>2011-12-26T08:04:37Z</time>
      </trkpt>
      <trkpt lat="44.54941" lon="0.95028">
        <ele>120</ele>
        <time>2011-12-26T08:04:37Z</time>
      </trkpt>
      <trkpt lat="44.54943" lon="0.95029">
        <ele>121</ele>
        <time>2011-12-26T08:04:38Z</time>
      </trkpt>
      <trkpt lat="44.54955" lon="0.95033">
        <ele>121</ele>
        <time>2011-12-26T08:04:44Z</time>
      </trkpt>
      <trkpt lat="44.54958" lon="0.95034">
        <ele>121</ele>
        <time>2011-12-26T08:04:44Z</time>
      </trkpt>
      <trkpt lat="44.54961" lon="0.95035">
        <ele>121</ele>
        <time>2011-12-26T08:04:45Z</time>
      </trkpt>
      <trkpt lat="44.54967" lon="0.95036">
        <ele>121</ele>
        <time>2011-12-26T08:04:50Z</time>
      </trkpt>
      <trkpt lat="44.54973" lon="0.95042">
        <ele>121</ele>
        <time>2011-12-26T08:04:50Z</time>
      </trkpt>
      <trkpt lat="44.54975" lon="0.95043">
        <ele>121</ele>
        <time>2011-12-26T08:04:52Z</time>
      </trkpt>
      <trkpt lat="44.54977" lon="0.95044">
        <ele>121</ele>
        <time>2011-12-26T08:04:53Z</time>
      </trkpt>
      <trkpt lat="44.54979" lon="0.95045">
        <ele>121</ele>
        <time>2011-12-26T08:04:54Z</time>
      </trkpt>
      <trkpt lat="44.54985" lon="0.95045">
        <ele>121</ele>
        <time>2011-12-26T08:04:59Z</time>
      </trkpt>
      <trkpt lat="44.54998" lon="0.95045">
        <ele>121</ele>
        <time>2011-12-26T08:04:59Z</time>
      </trkpt>
      <trkpt lat="44.55005" lon="0.95046">
        <ele>121</ele>
        <time>2011-12-26T08:05:05Z</time>
      </trkpt>
      <trkpt lat="44.55013" lon="0.95046">
        <ele>121</ele>
        <time>2011-12-26T08:05:05Z</time>
      </trkpt>
      <trkpt lat="44.55014" lon="0.95047">
        <ele>121</ele>
        <time>2011-12-26T08:05:39Z</time>
      </trkpt>
      <trkpt lat="44.55016" lon="0.95048">
        <ele>123</ele>
        <time>2011-12-26T08:05:48Z</time>
      </trkpt>
      <trkpt lat="44.55017" lon="0.95048">
        <ele>123</ele>
        <time>2011-12-26T08:05:49Z</time>
      </trkpt>
      <trkpt lat="44.55019" lon="0.95049">
        <ele>123</ele>
        <time>2011-12-26T08:05:49Z</time>
      </trkpt>
      <trkpt lat="44.55024" lon="0.95049">
        <ele>123</ele>
        <time>2011-12-26T08:05:55Z</time>
      </trkpt>
      <trkpt lat="44.55035" lon="0.95048">
        <ele>123</ele>
        <time>2011-12-26T08:05:55Z</time>
      </trkpt>
      <trkpt lat="44.5504" lon="0.95048">
        <ele>123</ele>
        <time>2011-12-26T08:06:01Z</time>
      </trkpt>
      <trkpt lat="44.55055" lon="0.95045">
        <ele>123</ele>
        <time>2011-12-26T08:06:01Z</time>
      </trkpt>
      <trkpt lat="44.5506" lon="0.95044">
        <ele>123</ele>
        <time>2011-12-26T08:06:02Z</time>
      </trkpt>
      <trkpt lat="44.55069" lon="0.95042">
        <ele>123</ele>
        <time>2011-12-26T08:06:08Z</time>
      </trkpt>
      <trkpt lat="44.55092" lon="0.95034">
        <ele>123</ele>
        <time>2011-12-26T08:06:08Z</time>
      </trkpt>
      <trkpt lat="44.55099" lon="0.95033">
        <ele>123</ele>
        <time>2011-12-26T08:06:09Z</time>
      </trkpt>
      <trkpt lat="44.55134" lon="0.9503">
        <ele>123</ele>
        <time>2011-12-26T08:06:14Z</time>
      </trkpt>
      <trkpt lat="44.55141" lon="0.95031">
        <ele>123</ele>
        <time>2011-12-26T08:06:16Z</time>
      </trkpt>
      <trkpt lat="44.55148" lon="0.95034">
        <ele>123</ele>
        <time>2011-12-26T08:06:17Z</time>
      </trkpt>
      <trkpt lat="44.55166" lon="0.95038">
        <ele>123</ele>
        <time>2011-12-26T08:06:22Z</time>
      </trkpt>
      <trkpt lat="44.55203" lon="0.95043">
        <ele>122</ele>
        <time>2011-12-26T08:06:22Z</time>
      </trkpt>
      <trkpt lat="44.55212" lon="0.95044">
        <ele>121</ele>
        <time>2011-12-26T08:06:23Z</time>
      </trkpt>
      <trkpt lat="44.55261" lon="0.95041">
        <ele>120</ele>
        <time>2011-12-26T08:06:29Z</time>
      </trkpt>
      <trkpt lat="44.5527" lon="0.95037">
        <ele>119</ele>
        <time>2011-12-26T08:06:30Z</time>
      </trkpt>
      <trkpt lat="44.55279" lon="0.95031">
        <ele>118</ele>
        <time>2011-12-26T08:06:31Z</time>
      </trkpt>
      <trkpt lat="44.55299" lon="0.95021">
        <ele>116</ele>
        <time>2011-12-26T08:06:36Z</time>
      </trkpt>
      <trkpt lat="44.55332" lon="0.95007">
        <ele>114</ele>
        <time>2011-12-26T08:06:36Z</time>
      </trkpt>
      <trkpt lat="44.55338" lon="0.95002">
        <ele>112</ele>
        <time>2011-12-26T08:06:37Z</time>
      </trkpt>
      <trkpt lat="44.55342" lon="0.94997">
        <ele>110</ele>
        <time>2011-12-26T08:06:38Z</time>
      </trkpt>
      <trkpt lat="44.55345" lon="0.94991">
        <ele>109</ele>
        <time>2011-12-26T08:06:39Z</time>
      </trkpt>
      <trkpt lat="44.55351" lon="0.94983">
        <ele>108</ele>
        <time>2011-12-26T08:06:45Z</time>
      </trkpt>
      <trkpt lat="44.55364" lon="0.94973">
        <ele>107</ele>
        <time>2011-12-26T08:06:45Z</time>
      </trkpt>
      <trkpt lat="44.55367" lon="0.94972">
        <ele>106</ele>
        <time>2011-12-26T08:06:46Z</time>
      </trkpt>
      <trkpt lat="44.5537" lon="0.9497">
        <ele>105</ele>
        <time>2011-12-26T08:06:48Z</time>
      </trkpt>
      <trkpt lat="44.55376" lon="0.94967">
        <ele>104</ele>
        <time>2011-12-26T08:06:53Z</time>
      </trkpt>
      <trkpt lat="44.55389" lon="0.94958">
        <ele>103</ele>
        <time>2011-12-26T08:06:53Z</time>
      </trkpt>
      <trkpt lat="44.55392" lon="0.94957">
        <ele>102</ele>
        <time>2011-12-26T08:06:54Z</time>
      </trkpt>
      <trkpt lat="44.55399" lon="0.94957">
        <ele>101</ele>
        <time>2011-12-26T08:07:00Z</time>
      </trkpt>
      <trkpt lat="44.55413" lon="0.94959">
        <ele>100</ele>
        <time>2011-12-26T08:07:01Z</time>
      </trkpt>
      <trkpt lat="44.55416" lon="0.9496">
        <ele>99</ele>
        <time>2011-12-26T08:07:02Z</time>
      </trkpt>
      <trkpt lat="44.55423" lon="0.94962">
        <ele>99</ele>
        <time>2011-12-26T08:07:08Z</time>
      </trkpt>
      <trkpt lat="44.55439" lon="0.94967">
        <ele>99</ele>
        <time>2011-12-26T08:07:08Z</time>
      </trkpt>
      <trkpt lat="44.55442" lon="0.94968">
        <ele>99</ele>
        <time>2011-12-26T08:07:09Z</time>
      </trkpt>
      <trkpt lat="44.55449" lon="0.9497">
        <ele>99</ele>
        <time>2011-12-26T08:07:15Z</time>
      </trkpt>
      <trkpt lat="44.55462" lon="0.94974">
        <ele>99</ele>
        <time>2011-12-26T08:07:15Z</time>
      </trkpt>
      <trkpt lat="44.55465" lon="0.94975">
        <ele>99</ele>
        <time>2011-12-26T08:07:16Z</time>
      </trkpt>
      <trkpt lat="44.55472" lon="0.94977">
        <ele>99</ele>
        <time>2011-12-26T08:07:22Z</time>
      </trkpt>
      <trkpt lat="44.55484" lon="0.94981">
        <ele>99</ele>
        <time>2011-12-26T08:07:22Z</time>
      </trkpt>
      <trkpt lat="44.55487" lon="0.94981">
        <ele>99</ele>
        <time>2011-12-26T08:07:23Z</time>
      </trkpt>
      <trkpt lat="44.55493" lon="0.94983">
        <ele>99</ele>
        <time>2011-12-26T08:07:30Z</time>
      </trkpt>
      <trkpt lat="44.55509" lon="0.94989">
        <ele>99</ele>
        <time>2011-12-26T08:07:30Z</time>
      </trkpt>
      <trkpt lat="44.55512" lon="0.9499">
        <ele>99</ele>
        <time>2011-12-26T08:07:32Z</time>
      </trkpt>
      <trkpt lat="44.55519" lon="0.94993">
        <ele>99</ele>
        <time>2011-12-26T08:07:36Z</time>
      </trkpt>
      <trkpt lat="44.55529" lon="0.94997">
        <ele>99</ele>
        <time>2011-12-26T08:07:36Z</time>
      </trkpt>
      <trkpt lat="44.55532" lon="0.94999">
        <ele>99</ele>
        <time>2011-12-26T08:07:37Z</time>
      </trkpt>
      <trkpt lat="44.55549" lon="0.95011">
        <ele>99</ele>
        <time>2011-12-26T08:07:43Z</time>
      </trkpt>
      <trkpt lat="44.55552" lon="0.95014">
        <ele>99</ele>
        <time>2011-12-26T08:07:43Z</time>
      </trkpt>
      <trkpt lat="44.55555" lon="0.95018">
        <ele>99</ele>
        <time>2011-12-26T08:07:44Z</time>
      </trkpt>
      <trkpt lat="44.55561" lon="0.95025">
        <ele>99</ele>
        <time>2011-12-26T08:07:49Z</time>
      </trkpt>
      <trkpt lat="44.55568" lon="0.95037">
        <ele>99</ele>
        <time>2011-12-26T08:07:49Z</time>
      </trkpt>
      <trkpt lat="44.55571" lon="0.95041">
        <ele>99</ele>
        <time>2011-12-26T08:07:50Z</time>
      </trkpt>
      <trkpt lat="44.55576" lon="0.95049">
        <ele>99</ele>
        <time>2011-12-26T08:07:55Z</time>
      </trkpt>
      <trkpt lat="44.55582" lon="0.9506">
        <ele>99</ele>
        <time>2011-12-26T08:07:55Z</time>
      </trkpt>
      <trkpt lat="44.55585" lon="0.95065">
        <ele>99</ele>
        <time>2011-12-26T08:07:56Z</time>
      </trkpt>
      <trkpt lat="44.5559" lon="0.95073">
        <ele>99</ele>
        <time>2011-12-26T08:08:02Z</time>
      </trkpt>
      <trkpt lat="44.556" lon="0.95089">
        <ele>99</ele>
        <time>2011-12-26T08:08:02Z</time>
      </trkpt>
      <trkpt lat="44.55603" lon="0.95092">
        <ele>99</ele>
        <time>2011-12-26T08:08:03Z</time>
      </trkpt>
      <trkpt lat="44.55609" lon="0.951">
        <ele>99</ele>
        <time>2011-12-26T08:08:08Z</time>
      </trkpt>
      <trkpt lat="44.55618" lon="0.95111">
        <ele>99</ele>
        <time>2011-12-26T08:08:08Z</time>
      </trkpt>
      <trkpt lat="44.55621" lon="0.95115">
        <ele>99</ele>
        <time>2011-12-26T08:08:09Z</time>
      </trkpt>
      <trkpt lat="44.55627" lon="0.95122">
        <ele>99</ele>
        <time>2011-12-26T08:08:15Z</time>
      </trkpt>
      <trkpt lat="44.55639" lon="0.95135">
        <ele>99</ele>
        <time>2011-12-26T08:08:15Z</time>
      </trkpt>
      <trkpt lat="44.55642" lon="0.95138">
        <ele>99</ele>
        <time>2011-12-26T08:08:16Z</time>
      </trkpt>
      <trkpt lat="44.55648" lon="0.95145">
        <ele>99</ele>
        <time>2011-12-26T08:08:21Z</time>
      </trkpt>
      <trkpt lat="44.55657" lon="0.95155">
        <ele>100</ele>
        <time>2011-12-26T08:08:21Z</time>
      </trkpt>
      <trkpt lat="44.55661" lon="0.95158">
        <ele>100</ele>
        <time>2011-12-26T08:08:22Z</time>
      </trkpt>
      <trkpt lat="44.55667" lon="0.95165">
        <ele>100</ele>
        <time>2011-12-26T08:08:28Z</time>
      </trkpt>
      <trkpt lat="44.5568" lon="0.95177">
        <ele>101</ele>
        <time>2011-12-26T08:08:28Z</time>
      </trkpt>
      <trkpt lat="44.55684" lon="0.95179">
        <ele>101</ele>
        <time>2011-12-26T08:08:29Z</time>
      </trkpt>
      <trkpt lat="44.5569" lon="0.95185">
        <ele>101</ele>
        <time>2011-12-26T08:08:34Z</time>
      </trkpt>
      <trkpt lat="44.55699" lon="0.95193">
        <ele>102</ele>
        <time>2011-12-26T08:08:34Z</time>
      </trkpt>
      <trkpt lat="44.55703" lon="0.95196">
        <ele>102</ele>
        <time>2011-12-26T08:08:35Z</time>
      </trkpt>
      <trkpt lat="44.55709" lon="0.95201">
        <ele>102</ele>
        <time>2011-12-26T08:08:41Z</time>
      </trkpt>
      <trkpt lat="44.55722" lon="0.95213">
        <ele>103</ele>
        <time>2011-12-26T08:08:41Z</time>
      </trkpt>
      <trkpt lat="44.55725" lon="0.95215">
        <ele>104</ele>
        <time>2011-12-26T08:08:42Z</time>
      </trkpt>
      <trkpt lat="44.55732" lon="0.95221">
        <ele>104</ele>
        <time>2011-12-26T08:08:48Z</time>
      </trkpt>
      <trkpt lat="44.55745" lon="0.95232">
        <ele>105</ele>
        <time>2011-12-26T08:08:48Z</time>
      </trkpt>
      <trkpt lat="44.55748" lon="0.95235">
        <ele>105</ele>
        <time>2011-12-26T08:08:49Z</time>
      </trkpt>
      <trkpt lat="44.55764" lon="0.95249">
        <ele>106</ele>
        <time>2011-12-26T08:08:55Z</time>
      </trkpt>
      <trkpt lat="44.55767" lon="0.95252">
        <ele>106</ele>
        <time>2011-12-26T08:08:55Z</time>
      </trkpt>
      <trkpt lat="44.5577" lon="0.95255">
        <ele>107</ele>
        <time>2011-12-26T08:08:56Z</time>
      </trkpt>
      <trkpt lat="44.55786" lon="0.9527">
        <ele>107</ele>
        <time>2011-12-26T08:09:02Z</time>
      </trkpt>
      <trkpt lat="44.55789" lon="0.95274">
        <ele>108</ele>
        <time>2011-12-26T08:09:02Z</time>
      </trkpt>
      <trkpt lat="44.55792" lon="0.95277">
        <ele>108</ele>
        <time>2011-12-26T08:09:03Z</time>
      </trkpt>
      <trkpt lat="44.55798" lon="0.95284">
        <ele>108</ele>
        <time>2011-12-26T08:09:09Z</time>
      </trkpt>
      <trkpt lat="44.55809" lon="0.95299">
        <ele>109</ele>
        <time>2011-12-26T08:09:09Z</time>
      </trkpt>
      <trkpt lat="44.55812" lon="0.95302">
        <ele>109</ele>
        <time>2011-12-26T08:09:10Z</time>
      </trkpt>
      <trkpt lat="44.55818" lon="0.9531">
        <ele>109</ele>
        <time>2011-12-26T08:09:16Z</time>
      </trkpt>
      <trkpt lat="44.55828" lon="0.95324">
        <ele>109</ele>
        <time>2011-12-26T08:09:16Z</time>
      </trkpt>
      <trkpt lat="44.55831" lon="0.95328">
        <ele>110</ele>
        <time>2011-12-26T08:09:17Z</time>
      </trkpt>
      <trkpt lat="44.55836" lon="0.95335">
        <ele>110</ele>
        <time>2011-12-26T08:09:23Z</time>
      </trkpt>
      <trkpt lat="44.55846" lon="0.95349">
        <ele>110</ele>
        <time>2011-12-26T08:09:23Z</time>
      </trkpt>
      <trkpt lat="44.55848" lon="0.95352">
        <ele>110</ele>
        <time>2011-12-26T08:09:24Z</time>
      </trkpt>
      <trkpt lat="44.55852" lon="0.95358">
        <ele>110</ele>
        <time>2011-12-26T08:09:30Z</time>
      </trkpt>
      <trkpt lat="44.55861" lon="0.95371">
        <ele>110</ele>
        <time>2011-12-26T08:09:30Z</time>
      </trkpt>
      <trkpt lat="44.55864" lon="0.95375">
        <ele>110</ele>
        <time>2011-12-26T08:09:31Z</time>
      </trkpt>
      <trkpt lat="44.55869" lon="0.95383">
        <ele>110</ele>
        <time>2011-12-26T08:09:37Z</time>
      </trkpt>
      <trkpt lat="44.5588" lon="0.954">
        <ele>110</ele>
        <time>2011-12-26T08:09:37Z</time>
      </trkpt>
      <trkpt lat="44.55883" lon="0.95404">
        <ele>110</ele>
        <time>2011-12-26T08:09:38Z</time>
      </trkpt>
      <trkpt lat="44.5589" lon="0.95412">
        <ele>110</ele>
        <time>2011-12-26T08:09:44Z</time>
      </trkpt>
      <trkpt lat="44.55903" lon="0.95428">
        <ele>110</ele>
        <time>2011-12-26T08:09:44Z</time>
      </trkpt>
      <trkpt lat="44.55906" lon="0.95432">
        <ele>110</ele>
        <time>2011-12-26T08:09:45Z</time>
      </trkpt>
      <trkpt lat="44.55914" lon="0.9544">
        <ele>110</ele>
        <time>2011-12-26T08:09:51Z</time>
      </trkpt>
      <trkpt lat="44.55932" lon="0.95461">
        <ele>110</ele>
        <time>2011-12-26T08:09:51Z</time>
      </trkpt>
      <trkpt lat="44.55937" lon="0.95467">
        <ele>110</ele>
        <time>2011-12-26T08:09:52Z</time>
      </trkpt>
      <trkpt lat="44.55947" lon="0.95479">
        <ele>110</ele>
        <time>2011-12-26T08:09:58Z</time>
      </trkpt>
      <trkpt lat="44.5597" lon="0.95498">
        <ele>110</ele>
        <time>2011-12-26T08:09:58Z</time>
      </trkpt>
      <trkpt lat="44.55975" lon="0.95501">
        <ele>110</ele>
        <time>2011-12-26T08:09:59Z</time>
      </trkpt>
      <trkpt lat="44.55981" lon="0.95503">
        <ele>110</ele>
        <time>2011-12-26T08:10:01Z</time>
      </trkpt>
      <trkpt lat="44.56014" lon="0.95498">
        <ele>110</ele>
        <time>2011-12-26T08:10:07Z</time>
      </trkpt>
      <trkpt lat="44.5602" lon="0.95496">
        <ele>110</ele>
        <time>2011-12-26T08:10:08Z</time>
      </trkpt>
      <trkpt lat="44.56026" lon="0.95495">
        <ele>110</ele>
        <time>2011-12-26T08:10:08Z</time>
      </trkpt>
      <trkpt lat="44.56038" lon="0.95494">
        <ele>110</ele>
        <time>2011-12-26T08:10:14Z</time>
      </trkpt>
      <trkpt lat="44.56059" lon="0.95501">
        <ele>109</ele>
        <time>2011-12-26T08:10:14Z</time>
      </trkpt>
      <trkpt lat="44.56065" lon="0.95504">
        <ele>109</ele>
        <time>2011-12-26T08:10:16Z</time>
      </trkpt>
      <trkpt lat="44.5607" lon="0.95506">
        <ele>109</ele>
        <time>2011-12-26T08:10:17Z</time>
      </trkpt>
      <trkpt lat="44.56081" lon="0.95512">
        <ele>109</ele>
        <time>2011-12-26T08:10:22Z</time>
      </trkpt>
      <trkpt lat="44.56101" lon="0.95524">
        <ele>109</ele>
        <time>2011-12-26T08:10:22Z</time>
      </trkpt>
      <trkpt lat="44.56106" lon="0.95526">
        <ele>109</ele>
        <time>2011-12-26T08:10:23Z</time>
      </trkpt>
      <trkpt lat="44.56116" lon="0.95531">
        <ele>109</ele>
        <time>2011-12-26T08:10:30Z</time>
      </trkpt>
      <trkpt lat="44.56136" lon="0.95541">
        <ele>109</ele>
        <time>2011-12-26T08:10:31Z</time>
      </trkpt>
      <trkpt lat="44.56139" lon="0.95542">
        <ele>109</ele>
        <time>2011-12-26T08:10:31Z</time>
      </trkpt>
      <trkpt lat="44.56146" lon="0.95545">
        <ele>109</ele>
        <time>2011-12-26T08:10:36Z</time>
      </trkpt>
      <trkpt lat="44.56155" lon="0.95548">
        <ele>109</ele>
        <time>2011-12-26T08:10:36Z</time>
      </trkpt>
      <trkpt lat="44.56158" lon="0.9555">
        <ele>109</ele>
        <time>2011-12-26T08:10:37Z</time>
      </trkpt>
      <trkpt lat="44.5616" lon="0.95553">
        <ele>109</ele>
        <time>2011-12-26T08:10:38Z</time>
      </trkpt>
      <trkpt lat="44.5616" lon="0.9556">
        <ele>109</ele>
        <time>2011-12-26T08:10:44Z</time>
      </trkpt>
      <trkpt lat="44.56156" lon="0.95576">
        <ele>109</ele>
        <time>2011-12-26T08:10:45Z</time>
      </trkpt>
      <trkpt lat="44.56154" lon="0.9558">
        <ele>109</ele>
        <time>2011-12-26T08:10:45Z</time>
      </trkpt>
      <trkpt lat="44.56153" lon="0.95584">
        <ele>109</ele>
        <time>2011-12-26T08:10:47Z</time>
      </trkpt>
      <trkpt lat="44.5615" lon="0.95592">
        <ele>109</ele>
        <time>2011-12-26T08:10:51Z</time>
      </trkpt>
      <trkpt lat="44.56146" lon="0.95604">
        <ele>109</ele>
        <time>2011-12-26T08:10:51Z</time>
      </trkpt>
      <trkpt lat="44.56144" lon="0.95608">
        <ele>109</ele>
        <time>2011-12-26T08:10:52Z</time>
      </trkpt>
      <trkpt lat="44.56141" lon="0.95615">
        <ele>109</ele>
        <time>2011-12-26T08:10:58Z</time>
      </trkpt>
      <trkpt lat="44.56136" lon="0.95631">
        <ele>109</ele>
        <time>2011-12-26T08:10:58Z</time>
      </trkpt>
      <trkpt lat="44.56134" lon="0.95635">
        <ele>109</ele>
        <time>2011-12-26T08:10:59Z</time>
      </trkpt>
      <trkpt lat="44.56131" lon="0.95643">
        <ele>109</ele>
        <time>2011-12-26T08:11:04Z</time>
      </trkpt>
      <trkpt lat="44.56127" lon="0.95655">
        <ele>109</ele>
        <time>2011-12-26T08:11:04Z</time>
      </trkpt>
      <trkpt lat="44.56126" lon="0.9566">
        <ele>109</ele>
        <time>2011-12-26T08:11:05Z</time>
      </trkpt>
      <trkpt lat="44.56118" lon="0.95679">
        <ele>109</ele>
        <time>2011-12-26T08:11:10Z</time>
      </trkpt>
      <trkpt lat="44.56117" lon="0.95683">
        <ele>109</ele>
        <time>2011-12-26T08:11:11Z</time>
      </trkpt>
      <trkpt lat="44.56114" lon="0.95691">
        <ele>110</ele>
        <time>2011-12-26T08:11:17Z</time>
      </trkpt>
      <trkpt lat="44.56108" lon="0.95706">
        <ele>110</ele>
        <time>2011-12-26T08:11:17Z</time>
      </trkpt>
      <trkpt lat="44.56107" lon="0.9571">
        <ele>111</ele>
        <time>2011-12-26T08:11:18Z</time>
      </trkpt>
      <trkpt lat="44.56104" lon="0.95718">
        <ele>111</ele>
        <time>2011-12-26T08:11:23Z</time>
      </trkpt>
      <trkpt lat="44.561" lon="0.95729">
        <ele>112</ele>
        <time>2011-12-26T08:11:23Z</time>
      </trkpt>
      <trkpt lat="44.56099" lon="0.95732">
        <ele>113</ele>
        <time>2011-12-26T08:11:24Z</time>
      </trkpt>
      <trkpt lat="44.56097" lon="0.95738">
        <ele>113</ele>
        <time>2011-12-26T08:11:30Z</time>
      </trkpt>
      <trkpt lat="44.56091" lon="0.95751">
        <ele>114</ele>
        <time>2011-12-26T08:11:30Z</time>
      </trkpt>
      <trkpt lat="44.5609" lon="0.95754">
        <ele>115</ele>
        <time>2011-12-26T08:11:31Z</time>
      </trkpt>
      <trkpt lat="44.56087" lon="0.95758">
        <ele>115</ele>
        <time>2011-12-26T08:11:36Z</time>
      </trkpt>
      <trkpt lat="44.56084" lon="0.95764">
        <ele>116</ele>
        <time>2011-12-26T08:11:36Z</time>
      </trkpt>
      <trkpt lat="44.56082" lon="0.95766">
        <ele>117</ele>
        <time>2011-12-26T08:11:38Z</time>
      </trkpt>
      <trkpt lat="44.56081" lon="0.95768">
        <ele>118</ele>
        <time>2011-12-26T08:11:39Z</time>
      </trkpt>
      <trkpt lat="44.56078" lon="0.95772">
        <ele>118</ele>
        <time>2011-12-26T08:11:44Z</time>
      </trkpt>
      <trkpt lat="44.56073" lon="0.95779">
        <ele>119</ele>
        <time>2011-12-26T08:11:44Z</time>
      </trkpt>
      <trkpt lat="44.56072" lon="0.95781">
        <ele>120</ele>
        <time>2011-12-26T08:11:45Z</time>
      </trkpt>
      <trkpt lat="44.56069" lon="0.95785">
        <ele>121</ele>
        <time>2011-12-26T08:11:50Z</time>
      </trkpt>
      <trkpt lat="44.56064" lon="0.95789">
        <ele>122</ele>
        <time>2011-12-26T08:11:50Z</time>
      </trkpt>
      <trkpt lat="44.56062" lon="0.9579">
        <ele>122</ele>
        <time>2011-12-26T08:11:51Z</time>
      </trkpt>
      <trkpt lat="44.56059" lon="0.95793">
        <ele>123</ele>
        <time>2011-12-26T08:11:57Z</time>
      </trkpt>
      <trkpt lat="44.56054" lon="0.958">
        <ele>124</ele>
        <time>2011-12-26T08:11:57Z</time>
      </trkpt>
      <trkpt lat="44.56053" lon="0.95802">
        <ele>125</ele>
        <time>2011-12-26T08:11:58Z</time>
      </trkpt>
      <trkpt lat="44.56046" lon="0.95811">
        <ele>126</ele>
        <time>2011-12-26T08:12:03Z</time>
      </trkpt>
      <trkpt lat="44.56044" lon="0.95813">
        <ele>127</ele>
        <time>2011-12-26T08:12:04Z</time>
      </trkpt>
      <trkpt lat="44.56041" lon="0.95818">
        <ele>127</ele>
        <time>2011-12-26T08:12:10Z</time>
      </trkpt>
      <trkpt lat="44.56035" lon="0.95827">
        <ele>128</ele>
        <time>2011-12-26T08:12:10Z</time>
      </trkpt>
      <trkpt lat="44.56033" lon="0.95829">
        <ele>128</ele>
        <time>2011-12-26T08:12:11Z</time>
      </trkpt>
      <trkpt lat="44.5603" lon="0.95833">
        <ele>128</ele>
        <time>2011-12-26T08:12:17Z</time>
      </trkpt>
      <trkpt lat="44.56022" lon="0.95839">
        <ele>128</ele>
        <time>2011-12-26T08:12:17Z</time>
      </trkpt>
      <trkpt lat="44.56021" lon="0.9584">
        <ele>128</ele>
        <time>2011-12-26T08:12:18Z</time>
      </trkpt>
      <trkpt lat="44.56017" lon="0.95844">
        <ele>129</ele>
        <time>2011-12-26T08:12:23Z</time>
      </trkpt>
      <trkpt lat="44.56012" lon="0.9585">
        <ele>130</ele>
        <time>2011-12-26T08:12:23Z</time>
      </trkpt>
      <trkpt lat="44.5601" lon="0.95851">
        <ele>131</ele>
        <time>2011-12-26T08:12:24Z</time>
      </trkpt>
      <trkpt lat="44.56007" lon="0.95855">
        <ele>131</ele>
        <time>2011-12-26T08:12:30Z</time>
      </trkpt>
      <trkpt lat="44.55999" lon="0.9586">
        <ele>132</ele>
        <time>2011-12-26T08:12:30Z</time>
      </trkpt>
      <trkpt lat="44.55997" lon="0.95862">
        <ele>133</ele>
        <time>2011-12-26T08:12:31Z</time>
      </trkpt>
      <trkpt lat="44.55994" lon="0.95865">
        <ele>133</ele>
        <time>2011-12-26T08:12:37Z</time>
      </trkpt>
      <trkpt lat="44.55986" lon="0.9587">
        <ele>134</ele>
        <time>2011-12-26T08:12:37Z</time>
      </trkpt>
      <trkpt lat="44.55984" lon="0.95871">
        <ele>134</ele>
        <time>2011-12-26T08:12:38Z</time>
      </trkpt>
      <trkpt lat="44.55975" lon="0.95875">
        <ele>135</ele>
        <time>2011-12-26T08:12:43Z</time>
      </trkpt>
      <trkpt lat="44.55973" lon="0.95875">
        <ele>135</ele>
        <time>2011-12-26T08:12:44Z</time>
      </trkpt>
      <trkpt lat="44.55969" lon="0.95876">
        <ele>135</ele>
        <time>2011-12-26T08:12:50Z</time>
      </trkpt>
      <trkpt lat="44.55961" lon="0.95878">
        <ele>136</ele>
        <time>2011-12-26T08:12:50Z</time>
      </trkpt>
      <trkpt lat="44.55959" lon="0.95878">
        <ele>136</ele>
        <time>2011-12-26T08:12:51Z</time>
      </trkpt>
      <trkpt lat="44.55954" lon="0.9588">
        <ele>136</ele>
        <time>2011-12-26T08:12:57Z</time>
      </trkpt>
      <trkpt lat="44.55945" lon="0.95882">
        <ele>136</ele>
        <time>2011-12-26T08:12:57Z</time>
      </trkpt>
      <trkpt lat="44.55943" lon="0.95883">
        <ele>137</ele>
        <time>2011-12-26T08:12:58Z</time>
      </trkpt>
      <trkpt lat="44.55931" lon="0.95887">
        <ele>137</ele>
        <time>2011-12-26T08:13:03Z</time>
      </trkpt>
      <trkpt lat="44.55929" lon="0.95888">
        <ele>137</ele>
        <time>2011-12-26T08:13:04Z</time>
      </trkpt>
      <trkpt lat="44.55924" lon="0.9589">
        <ele>137</ele>
        <time>2011-12-26T08:13:10Z</time>
      </trkpt>
      <trkpt lat="44.55915" lon="0.95894">
        <ele>137</ele>
        <time>2011-12-26T08:13:10Z</time>
      </trkpt>
      <trkpt lat="44.55913" lon="0.95896">
        <ele>137</ele>
        <time>2011-12-26T08:13:11Z</time>
      </trkpt>
      <trkpt lat="44.55909" lon="0.95898">
        <ele>137</ele>
        <time>2011-12-26T08:13:17Z</time>
      </trkpt>
      <trkpt lat="44.559" lon="0.95903">
        <ele>137</ele>
        <time>2011-12-26T08:13:17Z</time>
      </trkpt>
      <trkpt lat="44.55898" lon="0.95904">
        <ele>137</ele>
        <time>2011-12-26T08:13:18Z</time>
      </trkpt>
      <trkpt lat="44.55893" lon="0.95907">
        <ele>137</ele>
        <time>2011-12-26T08:13:24Z</time>
      </trkpt>
      <trkpt lat="44.55885" lon="0.95911">
        <ele>137</ele>
        <time>2011-12-26T08:13:24Z</time>
      </trkpt>
      <trkpt lat="44.55883" lon="0.95912">
        <ele>137</ele>
        <time>2011-12-26T08:13:25Z</time>
      </trkpt>
      <trkpt lat="44.55873" lon="0.95919">
        <ele>137</ele>
        <time>2011-12-26T08:13:30Z</time>
      </trkpt>
      <trkpt lat="44.55872" lon="0.95921">
        <ele>138</ele>
        <time>2011-12-26T08:13:31Z</time>
      </trkpt>
      <trkpt lat="44.5587" lon="0.95923">
        <ele>139</ele>
        <time>2011-12-26T08:13:32Z</time>
      </trkpt>
      <trkpt lat="44.55868" lon="0.95927">
        <ele>139</ele>
        <time>2011-12-26T08:13:37Z</time>
      </trkpt>
      <trkpt lat="44.55863" lon="0.95935">
        <ele>139</ele>
        <time>2011-12-26T08:13:38Z</time>
      </trkpt>
      <trkpt lat="44.55861" lon="0.95937">
        <ele>140</ele>
        <time>2011-12-26T08:13:39Z</time>
      </trkpt>
      <trkpt lat="44.55852" lon="0.9595">
        <ele>140</ele>
        <time>2011-12-26T08:13:45Z</time>
      </trkpt>
      <trkpt lat="44.5585" lon="0.95951">
        <ele>140</ele>
        <time>2011-12-26T08:13:46Z</time>
      </trkpt>
      <trkpt lat="44.55847" lon="0.95955">
        <ele>141</ele>
        <time>2011-12-26T08:13:52Z</time>
      </trkpt>
      <trkpt lat="44.55842" lon="0.95964">
        <ele>142</ele>
        <time>2011-12-26T08:13:52Z</time>
      </trkpt>
      <trkpt lat="44.55841" lon="0.95967">
        <ele>143</ele>
        <time>2011-12-26T08:13:54Z</time>
      </trkpt>
      <trkpt lat="44.5584" lon="0.95969">
        <ele>144</ele>
        <time>2011-12-26T08:13:55Z</time>
      </trkpt>
      <trkpt lat="44.55839" lon="0.95974">
        <ele>145</ele>
        <time>2011-12-26T08:14:00Z</time>
      </trkpt>
      <trkpt lat="44.55837" lon="0.95985">
        <ele>146</ele>
        <time>2011-12-26T08:14:00Z</time>
      </trkpt>
      <trkpt lat="44.55837" lon="0.95988">
        <ele>146</ele>
        <time>2011-12-26T08:14:02Z</time>
      </trkpt>
      <trkpt lat="44.55836" lon="0.95994">
        <ele>146</ele>
        <time>2011-12-26T08:14:07Z</time>
      </trkpt>
      <trkpt lat="44.55835" lon="0.96006">
        <ele>147</ele>
        <time>2011-12-26T08:14:07Z</time>
      </trkpt>
      <trkpt lat="44.55835" lon="0.96009">
        <ele>147</ele>
        <time>2011-12-26T08:14:08Z</time>
      </trkpt>
      <trkpt lat="44.55834" lon="0.96014">
        <ele>147</ele>
        <time>2011-12-26T08:14:14Z</time>
      </trkpt>
      <trkpt lat="44.55834" lon="0.96027">
        <ele>148</ele>
        <time>2011-12-26T08:14:14Z</time>
      </trkpt>
      <trkpt lat="44.55833" lon="0.9603">
        <ele>148</ele>
        <time>2011-12-26T08:14:15Z</time>
      </trkpt>
      <trkpt lat="44.55833" lon="0.96036">
        <ele>148</ele>
        <time>2011-12-26T08:14:21Z</time>
      </trkpt>
      <trkpt lat="44.55832" lon="0.96048">
        <ele>149</ele>
        <time>2011-12-26T08:14:21Z</time>
      </trkpt>
      <trkpt lat="44.55832" lon="0.9605">
        <ele>149</ele>
        <time>2011-12-26T08:14:22Z</time>
      </trkpt>
      <trkpt lat="44.55832" lon="0.96056">
        <ele>149</ele>
        <time>2011-12-26T08:14:28Z</time>
      </trkpt>
      <trkpt lat="44.5583" lon="0.96069">
        <ele>150</ele>
        <time>2011-12-26T08:14:28Z</time>
      </trkpt>
      <trkpt lat="44.5583" lon="0.96071">
        <ele>150</ele>
        <time>2011-12-26T08:14:29Z</time>
      </trkpt>
      <trkpt lat="44.55828" lon="0.96077">
        <ele>150</ele>
        <time>2011-12-26T08:14:35Z</time>
      </trkpt>
      <trkpt lat="44.55824" lon="0.96087">
        <ele>151</ele>
        <time>2011-12-26T08:14:35Z</time>
      </trkpt>
      <trkpt lat="44.55823" lon="0.96089">
        <ele>151</ele>
        <time>2011-12-26T08:14:37Z</time>
      </trkpt>
      <trkpt lat="44.55821" lon="0.96091">
        <ele>151</ele>
        <time>2011-12-26T08:14:38Z</time>
      </trkpt>
      <trkpt lat="44.55819" lon="0.96096">
        <ele>152</ele>
        <time>2011-12-26T08:14:43Z</time>
      </trkpt>
      <trkpt lat="44.55812" lon="0.96102">
        <ele>152</ele>
        <time>2011-12-26T08:14:43Z</time>
      </trkpt>
      <trkpt lat="44.55811" lon="0.96104">
        <ele>152</ele>
        <time>2011-12-26T08:14:45Z</time>
      </trkpt>
      <trkpt lat="44.55808" lon="0.96108">
        <ele>153</ele>
        <time>2011-12-26T08:14:50Z</time>
      </trkpt>
      <trkpt lat="44.55801" lon="0.96114">
        <ele>153</ele>
        <time>2011-12-26T08:14:50Z</time>
      </trkpt>
      <trkpt lat="44.55799" lon="0.96115">
        <ele>154</ele>
        <time>2011-12-26T08:14:51Z</time>
      </trkpt>
      <trkpt lat="44.55796" lon="0.96119">
        <ele>154</ele>
        <time>2011-12-26T08:14:57Z</time>
      </trkpt>
      <trkpt lat="44.5579" lon="0.96127">
        <ele>155</ele>
        <time>2011-12-26T08:14:57Z</time>
      </trkpt>
      <trkpt lat="44.55788" lon="0.96129">
        <ele>155</ele>
        <time>2011-12-26T08:14:58Z</time>
      </trkpt>
      <trkpt lat="44.5578" lon="0.96141">
        <ele>156</ele>
        <time>2011-12-26T08:15:04Z</time>
      </trkpt>
      <trkpt lat="44.55778" lon="0.96143">
        <ele>156</ele>
        <time>2011-12-26T08:15:05Z</time>
      </trkpt>
      <trkpt lat="44.55772" lon="0.96158">
        <ele>157</ele>
        <time>2011-12-26T08:15:11Z</time>
      </trkpt>
      <trkpt lat="44.55772" lon="0.96161">
        <ele>158</ele>
        <time>2011-12-26T08:15:13Z</time>
      </trkpt>
      <trkpt lat="44.55771" lon="0.96163">
        <ele>158</ele>
        <time>2011-12-26T08:15:14Z</time>
      </trkpt>
      <trkpt lat="44.55769" lon="0.96168">
        <ele>159</ele>
        <time>2011-12-26T08:15:19Z</time>
      </trkpt>
      <trkpt lat="44.55765" lon="0.96178">
        <ele>160</ele>
        <time>2011-12-26T08:15:19Z</time>
      </trkpt>
      <trkpt lat="44.55764" lon="0.9618">
        <ele>160</ele>
        <time>2011-12-26T08:15:20Z</time>
      </trkpt>
      <trkpt lat="44.55762" lon="0.96184">
        <ele>161</ele>
        <time>2011-12-26T08:15:26Z</time>
      </trkpt>
      <trkpt lat="44.55757" lon="0.96193">
        <ele>161</ele>
        <time>2011-12-26T08:15:26Z</time>
      </trkpt>
      <trkpt lat="44.55756" lon="0.96196">
        <ele>162</ele>
        <time>2011-12-26T08:15:27Z</time>
      </trkpt>
      <trkpt lat="44.55754" lon="0.962">
        <ele>162</ele>
        <time>2011-12-26T08:15:33Z</time>
      </trkpt>
      <trkpt lat="44.55751" lon="0.9621">
        <ele>163</ele>
        <time>2011-12-26T08:15:33Z</time>
      </trkpt>
      <trkpt lat="44.55751" lon="0.96213">
        <ele>164</ele>
        <time>2011-12-26T08:15:35Z</time>
      </trkpt>
      <trkpt lat="44.55751" lon="0.96216">
        <ele>164</ele>
        <time>2011-12-26T08:15:36Z</time>
      </trkpt>
      <trkpt lat="44.55751" lon="0.96232">
        <ele>165</ele>
        <time>2011-12-26T08:15:41Z</time>
      </trkpt>
      <trkpt lat="44.55751" lon="0.96235">
        <ele>166</ele>
        <time>2011-12-26T08:15:43Z</time>
      </trkpt>
      <trkpt lat="44.55751" lon="0.96237">
        <ele>166</ele>
        <time>2011-12-26T08:15:43Z</time>
      </trkpt>
      <trkpt lat="44.5575" lon="0.96252">
        <ele>167</ele>
        <time>2011-12-26T08:15:49Z</time>
      </trkpt>
      <trkpt lat="44.5575" lon="0.96255">
        <ele>168</ele>
        <time>2011-12-26T08:15:50Z</time>
      </trkpt>
      <trkpt lat="44.55749" lon="0.96257">
        <ele>169</ele>
        <time>2011-12-26T08:15:51Z</time>
      </trkpt>
      <trkpt lat="44.55746" lon="0.96262">
        <ele>170</ele>
        <time>2011-12-26T08:15:57Z</time>
      </trkpt>
      <trkpt lat="44.55742" lon="0.96271">
        <ele>171</ele>
        <time>2011-12-26T08:15:57Z</time>
      </trkpt>
      <trkpt lat="44.55742" lon="0.96273">
        <ele>172</ele>
        <time>2011-12-26T08:15:58Z</time>
      </trkpt>
      <trkpt lat="44.5574" lon="0.96278">
        <ele>172</ele>
        <time>2011-12-26T08:16:04Z</time>
      </trkpt>
      <trkpt lat="44.55735" lon="0.96287">
        <ele>173</ele>
        <time>2011-12-26T08:16:04Z</time>
      </trkpt>
      <trkpt lat="44.55734" lon="0.9629">
        <ele>174</ele>
        <time>2011-12-26T08:16:05Z</time>
      </trkpt>
      <trkpt lat="44.55732" lon="0.96294">
        <ele>174</ele>
        <time>2011-12-26T08:16:11Z</time>
      </trkpt>
      <trkpt lat="44.55728" lon="0.96303">
        <ele>175</ele>
        <time>2011-12-26T08:16:11Z</time>
      </trkpt>
      <trkpt lat="44.55727" lon="0.96305">
        <ele>175</ele>
        <time>2011-12-26T08:16:12Z</time>
      </trkpt>
      <trkpt lat="44.55726" lon="0.96307">
        <ele>175</ele>
        <time>2011-12-26T08:16:14Z</time>
      </trkpt>
      <trkpt lat="44.55724" lon="0.96311">
        <ele>176</ele>
        <time>2011-12-26T08:16:19Z</time>
      </trkpt>
      <trkpt lat="44.55716" lon="0.96315">
        <ele>176</ele>
        <time>2011-12-26T08:16:19Z</time>
      </trkpt>
      <trkpt lat="44.55714" lon="0.96315">
        <ele>176</ele>
        <time>2011-12-26T08:16:20Z</time>
      </trkpt>
      <trkpt lat="44.55713" lon="0.96314">
        <ele>176</ele>
        <time>2011-12-26T08:16:22Z</time>
      </trkpt>
      <trkpt lat="44.55701" lon="0.96311">
        <ele>177</ele>
        <time>2011-12-26T08:16:27Z</time>
      </trkpt>
      <trkpt lat="44.55699" lon="0.96311">
        <ele>177</ele>
        <time>2011-12-26T08:16:28Z</time>
      </trkpt>
      <trkpt lat="44.55696" lon="0.9631">
        <ele>177</ele>
        <time>2011-12-26T08:16:29Z</time>
      </trkpt>
      <trkpt lat="44.55692" lon="0.96308">
        <ele>177</ele>
        <time>2011-12-26T08:16:35Z</time>
      </trkpt>
      <trkpt lat="44.55683" lon="0.96306">
        <ele>177</ele>
        <time>2011-12-26T08:16:35Z</time>
      </trkpt>
      <trkpt lat="44.55681" lon="0.96305">
        <ele>177</ele>
        <time>2011-12-26T08:16:36Z</time>
      </trkpt>
      <trkpt lat="44.55678" lon="0.96303">
        <ele>177</ele>
        <time>2011-12-26T08:16:42Z</time>
      </trkpt>
      <trkpt lat="44.55671" lon="0.963">
        <ele>177</ele>
        <time>2011-12-26T08:16:42Z</time>
      </trkpt>
      <trkpt lat="44.55669" lon="0.96299">
        <ele>177</ele>
        <time>2011-12-26T08:16:43Z</time>
      </trkpt>
      <trkpt lat="44.55657" lon="0.96295">
        <ele>177</ele>
        <time>2011-12-26T08:16:49Z</time>
      </trkpt>
      <trkpt lat="44.55655" lon="0.96294">
        <ele>177</ele>
        <time>2011-12-26T08:16:50Z</time>
      </trkpt>
      <trkpt lat="44.55652" lon="0.96294">
        <ele>177</ele>
        <time>2011-12-26T08:16:52Z</time>
      </trkpt>
      <trkpt lat="44.55646" lon="0.96294">
        <ele>177</ele>
        <time>2011-12-26T08:16:57Z</time>
      </trkpt>
      <trkpt lat="44.55631" lon="0.9629">
        <ele>177</ele>
        <time>2011-12-26T08:16:57Z</time>
      </trkpt>
      <trkpt lat="44.55627" lon="0.96289">
        <ele>177</ele>
        <time>2011-12-26T08:16:58Z</time>
      </trkpt>
      <trkpt lat="44.55618" lon="0.96288">
        <ele>177</ele>
        <time>2011-12-26T08:17:05Z</time>
      </trkpt>
      <trkpt lat="44.55597" lon="0.96286">
        <ele>177</ele>
        <time>2011-12-26T08:17:05Z</time>
      </trkpt>
      <trkpt lat="44.55593" lon="0.96286">
        <ele>177</ele>
        <time>2011-12-26T08:17:06Z</time>
      </trkpt>
      <trkpt lat="44.55586" lon="0.96284">
        <ele>177</ele>
        <time>2011-12-26T08:17:12Z</time>
      </trkpt>
      <trkpt lat="44.55576" lon="0.96277">
        <ele>177</ele>
        <time>2011-12-26T08:17:12Z</time>
      </trkpt>
      <trkpt lat="44.55574" lon="0.96274">
        <ele>177</ele>
        <time>2011-12-26T08:17:14Z</time>
      </trkpt>
      <trkpt lat="44.55572" lon="0.96272">
        <ele>177</ele>
        <time>2011-12-26T08:17:15Z</time>
      </trkpt>
      <trkpt lat="44.55568" lon="0.96266">
        <ele>177</ele>
        <time>2011-12-26T08:17:20Z</time>
      </trkpt>
      <trkpt lat="44.5556" lon="0.96254">
        <ele>177</ele>
        <time>2011-12-26T08:17:20Z</time>
      </trkpt>
      <trkpt lat="44.55558" lon="0.9625">
        <ele>177</ele>
        <time>2011-12-26T08:17:21Z</time>
      </trkpt>
      <trkpt lat="44.55553" lon="0.96244">
        <ele>177</ele>
        <time>2011-12-26T08:17:28Z</time>
      </trkpt>
      <trkpt lat="44.55543" lon="0.9623">
        <ele>176</ele>
        <time>2011-12-26T08:17:28Z</time>
      </trkpt>
      <trkpt lat="44.55542" lon="0.96228">
        <ele>175</ele>
        <time>2011-12-26T08:17:35Z</time>
      </trkpt>
      <trkpt lat="44.55541" lon="0.96226">
        <ele>174</ele>
        <time>2011-12-26T08:17:45Z</time>
      </trkpt>
      <trkpt lat="44.5554" lon="0.96225">
        <ele>174</ele>
        <time>2011-12-26T08:17:57Z</time>
      </trkpt>
      <trkpt lat="44.5554" lon="0.96228">
        <ele>174</ele>
        <time>2011-12-26T08:18:06Z</time>
      </trkpt>
      <trkpt lat="44.55547" lon="0.96236">
        <ele>174</ele>
        <time>2011-12-26T08:18:07Z</time>
      </trkpt>
      <trkpt lat="44.55548" lon="0.96239">
        <ele>174</ele>
        <time>2011-12-26T08:18:08Z</time>
      </trkpt>
      <trkpt lat="44.55552" lon="0.96244">
        <ele>174</ele>
        <time>2011-12-26T08:18:13Z</time>
      </trkpt>
      <trkpt lat="44.5556" lon="0.96257">
        <ele>174</ele>
        <time>2011-12-26T08:18:15Z</time>
      </trkpt>
      <trkpt lat="44.55562" lon="0.9626">
        <ele>174</ele>
        <time>2011-12-26T08:18:15Z</time>
      </trkpt>
      <trkpt lat="44.55565" lon="0.96266">
        <ele>174</ele>
        <time>2011-12-26T08:18:20Z</time>
      </trkpt>
      <trkpt lat="44.55571" lon="0.96275">
        <ele>174</ele>
        <time>2011-12-26T08:18:20Z</time>
      </trkpt>
      <trkpt lat="44.55573" lon="0.96278">
        <ele>174</ele>
        <time>2011-12-26T08:18:21Z</time>
      </trkpt>
      <trkpt lat="44.55574" lon="0.96282">
        <ele>174</ele>
        <time>2011-12-26T08:18:26Z</time>
      </trkpt>
      <trkpt lat="44.55572" lon="0.96283">
        <ele>174</ele>
        <time>2011-12-26T08:18:28Z</time>
      </trkpt>
      <trkpt lat="44.55569" lon="0.96284">
        <ele>174</ele>
        <time>2011-12-26T08:18:34Z</time>
      </trkpt>
      <trkpt lat="44.55569" lon="0.96282">
        <ele>174</ele>
        <time>2011-12-26T08:18:46Z</time>
      </trkpt>
      <trkpt lat="44.55567" lon="0.96282">
        <ele>174</ele>
        <time>2011-12-26T08:18:53Z</time>
      </trkpt>
      <trkpt lat="44.55561" lon="0.96285">
        <ele>174</ele>
        <time>2011-12-26T08:18:54Z</time>
      </trkpt>
      <trkpt lat="44.5556" lon="0.96286">
        <ele>174</ele>
        <time>2011-12-26T08:18:55Z</time>
      </trkpt>
      <trkpt lat="44.55557" lon="0.96287">
        <ele>174</ele>
        <time>2011-12-26T08:19:00Z</time>
      </trkpt>
      <trkpt lat="44.55555" lon="0.96288">
        <ele>174</ele>
        <time>2011-12-26T08:19:00Z</time>
      </trkpt>
      <trkpt lat="44.55548" lon="0.96289">
        <ele>175</ele>
        <time>2011-12-26T08:19:08Z</time>
      </trkpt>
      <trkpt lat="44.55546" lon="0.9629">
        <ele>175</ele>
        <time>2011-12-26T08:19:08Z</time>
      </trkpt>
      <trkpt lat="44.55541" lon="0.96292">
        <ele>176</ele>
        <time>2011-12-26T08:19:13Z</time>
      </trkpt>
      <trkpt lat="44.55533" lon="0.96295">
        <ele>176</ele>
        <time>2011-12-26T08:19:13Z</time>
      </trkpt>
      <trkpt lat="44.55531" lon="0.96295">
        <ele>176</ele>
        <time>2011-12-26T08:19:14Z</time>
      </trkpt>
      <trkpt lat="44.55528" lon="0.96296">
        <ele>176</ele>
        <time>2011-12-26T08:19:19Z</time>
      </trkpt>
      <trkpt lat="44.55524" lon="0.96298">
        <ele>176</ele>
        <time>2011-12-26T08:19:19Z</time>
      </trkpt>
      <trkpt lat="44.55523" lon="0.96299">
        <ele>176</ele>
        <time>2011-12-26T08:19:20Z</time>
      </trkpt>
      <trkpt lat="44.55521" lon="0.963">
        <ele>176</ele>
        <time>2011-12-26T08:19:22Z</time>
      </trkpt>
      <trkpt lat="44.55518" lon="0.96303">
        <ele>176</ele>
        <time>2011-12-26T08:19:26Z</time>
      </trkpt>
      <trkpt lat="44.55513" lon="0.96307">
        <ele>176</ele>
        <time>2011-12-26T08:19:26Z</time>
      </trkpt>
      <trkpt lat="44.55511" lon="0.96309">
        <ele>175</ele>
        <time>2011-12-26T08:19:27Z</time>
      </trkpt>
      <trkpt lat="44.55508" lon="0.96312">
        <ele>174</ele>
        <time>2011-12-26T08:19:33Z</time>
      </trkpt>
      <trkpt lat="44.55502" lon="0.96311">
        <ele>173</ele>
        <time>2011-12-26T08:19:33Z</time>
      </trkpt>
      <trkpt lat="44.55501" lon="0.96311">
        <ele>172</ele>
        <time>2011-12-26T08:19:35Z</time>
      </trkpt>
      <trkpt lat="44.55492" lon="0.96299">
        <ele>172</ele>
        <time>2011-12-26T08:19:40Z</time>
      </trkpt>
      <trkpt lat="44.55489" lon="0.96297">
        <ele>171</ele>
        <time>2011-12-26T08:19:41Z</time>
      </trkpt>
      <trkpt lat="44.55486" lon="0.96293">
        <ele>171</ele>
        <time>2011-12-26T08:19:46Z</time>
      </trkpt>
      <trkpt lat="44.55481" lon="0.9629">
        <ele>171</ele>
        <time>2011-12-26T08:19:46Z</time>
      </trkpt>
      <trkpt lat="44.55479" lon="0.96291">
        <ele>171</ele>
        <time>2011-12-26T08:19:48Z</time>
      </trkpt>
      <trkpt lat="44.55478" lon="0.96292">
        <ele>171</ele>
        <time>2011-12-26T08:19:49Z</time>
      </trkpt>
      <trkpt lat="44.55475" lon="0.96295">
        <ele>171</ele>
        <time>2011-12-26T08:19:54Z</time>
      </trkpt>
      <trkpt lat="44.5547" lon="0.96303">
        <ele>171</ele>
        <time>2011-12-26T08:19:55Z</time>
      </trkpt>
      <trkpt lat="44.5547" lon="0.96305">
        <ele>171</ele>
        <time>2011-12-26T08:19:56Z</time>
      </trkpt>
      <trkpt lat="44.55469" lon="0.96307">
        <ele>171</ele>
        <time>2011-12-26T08:19:57Z</time>
      </trkpt>
      <trkpt lat="44.55468" lon="0.96312">
        <ele>170</ele>
        <time>2011-12-26T08:20:01Z</time>
      </trkpt>
      <trkpt lat="44.55466" lon="0.96321">
        <ele>169</ele>
        <time>2011-12-26T08:20:01Z</time>
      </trkpt>
      <trkpt lat="44.55465" lon="0.96324">
        <ele>168</ele>
        <time>2011-12-26T08:20:02Z</time>
      </trkpt>
      <trkpt lat="44.55465" lon="0.96329">
        <ele>167</ele>
        <time>2011-12-26T08:20:08Z</time>
      </trkpt>
      <trkpt lat="44.55465" lon="0.96343">
        <ele>166</ele>
        <time>2011-12-26T08:20:08Z</time>
      </trkpt>
      <trkpt lat="44.55465" lon="0.9635">
        <ele>165</ele>
        <time>2011-12-26T08:20:09Z</time>
      </trkpt>
      <trkpt lat="44.55466" lon="0.96362">
        <ele>164</ele>
        <time>2011-12-26T08:20:14Z</time>
      </trkpt>
      <trkpt lat="44.5547" lon="0.96379">
        <ele>163</ele>
        <time>2011-12-26T08:20:14Z</time>
      </trkpt>
      <trkpt lat="44.55472" lon="0.96384">
        <ele>162</ele>
        <time>2011-12-26T08:20:15Z</time>
      </trkpt>
      <trkpt lat="44.55474" lon="0.9639">
        <ele>161</ele>
        <time>2011-12-26T08:20:17Z</time>
      </trkpt>
      <trkpt lat="44.5548" lon="0.96417">
        <ele>160</ele>
        <time>2011-12-26T08:20:21Z</time>
      </trkpt>
      <trkpt lat="44.55478" lon="0.96421">
        <ele>159</ele>
        <time>2011-12-26T08:20:23Z</time>
      </trkpt>
      <trkpt lat="44.55475" lon="0.96425">
        <ele>158</ele>
        <time>2011-12-26T08:20:24Z</time>
      </trkpt>
      <trkpt lat="44.55472" lon="0.96429">
        <ele>157</ele>
        <time>2011-12-26T08:20:25Z</time>
      </trkpt>
      <trkpt lat="44.55465" lon="0.96434">
        <ele>157</ele>
        <time>2011-12-26T08:20:30Z</time>
      </trkpt>
      <trkpt lat="44.55453" lon="0.96447">
        <ele>156</ele>
        <time>2011-12-26T08:20:31Z</time>
      </trkpt>
      <trkpt lat="44.55451" lon="0.96451">
        <ele>155</ele>
        <time>2011-12-26T08:20:32Z</time>
      </trkpt>
      <trkpt lat="44.55448" lon="0.96455">
        <ele>154</ele>
        <time>2011-12-26T08:20:33Z</time>
      </trkpt>
      <trkpt lat="44.55442" lon="0.96461">
        <ele>153</ele>
        <time>2011-12-26T08:20:37Z</time>
      </trkpt>
      <trkpt lat="44.55433" lon="0.96472">
        <ele>152</ele>
        <time>2011-12-26T08:20:37Z</time>
      </trkpt>
      <trkpt lat="44.5543" lon="0.96476">
        <ele>151</ele>
        <time>2011-12-26T08:20:38Z</time>
      </trkpt>
      <trkpt lat="44.55423" lon="0.96485">
        <ele>150</ele>
        <time>2011-12-26T08:20:43Z</time>
      </trkpt>
      <trkpt lat="44.55424" lon="0.96488">
        <ele>150</ele>
        <time>2011-12-26T08:20:47Z</time>
      </trkpt>
      <trkpt lat="44.55424" lon="0.96489">
        <ele>150</ele>
        <time>2011-12-26T08:20:53Z</time>
      </trkpt>
      <trkpt lat="44.55423" lon="0.96487">
        <ele>150</ele>
        <time>2011-12-26T08:21:00Z</time>
      </trkpt>
      <trkpt lat="44.55421" lon="0.96481">
        <ele>150</ele>
        <time>2011-12-26T08:21:07Z</time>
      </trkpt>
      <trkpt lat="44.5542" lon="0.9648">
        <ele>150</ele>
        <time>2011-12-26T08:21:10Z</time>
      </trkpt>
      <trkpt lat="44.5542" lon="0.96482">
        <ele>150</ele>
        <time>2011-12-26T08:21:24Z</time>
      </trkpt>
      <trkpt lat="44.5542" lon="0.96484">
        <ele>150</ele>
        <time>2011-12-26T08:21:25Z</time>
      </trkpt>
      <trkpt lat="44.55421" lon="0.96484">
        <ele>150</ele>
        <time>2011-12-26T08:21:40Z</time>
      </trkpt>
      <trkpt lat="44.55418" lon="0.96496">
        <ele>149</ele>
        <time>2011-12-26T08:21:49Z</time>
      </trkpt>
      <trkpt lat="44.55418" lon="0.965">
        <ele>149</ele>
        <time>2011-12-26T08:21:50Z</time>
      </trkpt>
      <trkpt lat="44.55418" lon="0.96504">
        <ele>149</ele>
        <time>2011-12-26T08:21:51Z</time>
      </trkpt>
      <trkpt lat="44.55419" lon="0.9651">
        <ele>149</ele>
        <time>2011-12-26T08:21:56Z</time>
      </trkpt>
      <trkpt lat="44.55419" lon="0.96512">
        <ele>149</ele>
        <time>2011-12-26T08:21:56Z</time>
      </trkpt>
      <trkpt lat="44.55419" lon="0.96514">
        <ele>149</ele>
        <time>2011-12-26T08:22:05Z</time>
      </trkpt>
      <trkpt lat="44.55419" lon="0.96516">
        <ele>149</ele>
        <time>2011-12-26T08:22:12Z</time>
      </trkpt>
      <trkpt lat="44.55418" lon="0.96525">
        <ele>152</ele>
        <time>2011-12-26T08:22:21Z</time>
      </trkpt>
      <trkpt lat="44.55419" lon="0.96529">
        <ele>153</ele>
        <time>2011-12-26T08:22:22Z</time>
      </trkpt>
      <trkpt lat="44.55419" lon="0.96538">
        <ele>153</ele>
        <time>2011-12-26T08:22:27Z</time>
      </trkpt>
      <trkpt lat="44.55419" lon="0.96557">
        <ele>153</ele>
        <time>2011-12-26T08:22:27Z</time>
      </trkpt>
      <trkpt lat="44.5542" lon="0.96561">
        <ele>153</ele>
        <time>2011-12-26T08:22:28Z</time>
      </trkpt>
      <trkpt lat="44.55419" lon="0.96569">
        <ele>153</ele>
        <time>2011-12-26T08:22:33Z</time>
      </trkpt>
      <trkpt lat="44.5542" lon="0.96583">
        <ele>153</ele>
        <time>2011-12-26T08:22:33Z</time>
      </trkpt>
      <trkpt lat="44.55421" lon="0.96588">
        <ele>153</ele>
        <time>2011-12-26T08:22:34Z</time>
      </trkpt>
      <trkpt lat="44.55423" lon="0.96594">
        <ele>153</ele>
        <time>2011-12-26T08:22:36Z</time>
      </trkpt>
      <trkpt lat="44.55429" lon="0.96603">
        <ele>152</ele>
        <time>2011-12-26T08:22:41Z</time>
      </trkpt>
      <trkpt lat="44.55444" lon="0.96621">
        <ele>151</ele>
        <time>2011-12-26T08:22:41Z</time>
      </trkpt>
      <trkpt lat="44.55447" lon="0.96626">
        <ele>150</ele>
        <time>2011-12-26T08:22:42Z</time>
      </trkpt>
      <trkpt lat="44.5545" lon="0.96631">
        <ele>150</ele>
        <time>2011-12-26T08:22:43Z</time>
      </trkpt>
      <trkpt lat="44.55452" lon="0.96636">
        <ele>149</ele>
        <time>2011-12-26T08:22:44Z</time>
      </trkpt>
      <trkpt lat="44.55465" lon="0.96655">
        <ele>149</ele>
        <time>2011-12-26T08:22:49Z</time>
      </trkpt>
      <trkpt lat="44.55469" lon="0.96658">
        <ele>148</ele>
        <time>2011-12-26T08:22:51Z</time>
      </trkpt>
      <trkpt lat="44.55473" lon="0.96659">
        <ele>148</ele>
        <time>2011-12-26T08:22:51Z</time>
      </trkpt>
      <trkpt lat="44.55481" lon="0.96661">
        <ele>147</ele>
        <time>2011-12-26T08:22:57Z</time>
      </trkpt>
      <trkpt lat="44.55495" lon="0.96664">
        <ele>147</ele>
        <time>2011-12-26T08:22:57Z</time>
      </trkpt>
      <trkpt lat="44.55494" lon="0.96667">
        <ele>145</ele>
        <time>2011-12-26T08:23:06Z</time>
      </trkpt>
      <trkpt lat="44.55492" lon="0.96667">
        <ele>145</ele>
        <time>2011-12-26T08:23:07Z</time>
      </trkpt>
      <trkpt lat="44.5549" lon="0.96667">
        <ele>145</ele>
        <time>2011-12-26T08:23:07Z</time>
      </trkpt>
      <trkpt lat="44.55483" lon="0.96669">
        <ele>145</ele>
        <time>2011-12-26T08:23:12Z</time>
      </trkpt>
      <trkpt lat="44.55473" lon="0.96671">
        <ele>145</ele>
        <time>2011-12-26T08:23:12Z</time>
      </trkpt>
      <trkpt lat="44.5547" lon="0.96672">
        <ele>145</ele>
        <time>2011-12-26T08:23:13Z</time>
      </trkpt>
      <trkpt lat="44.55462" lon="0.96672">
        <ele>145</ele>
        <time>2011-12-26T08:23:19Z</time>
      </trkpt>
      <trkpt lat="44.55446" lon="0.96666">
        <ele>145</ele>
        <time>2011-12-26T08:23:19Z</time>
      </trkpt>
      <trkpt lat="44.55442" lon="0.96666">
        <ele>145</ele>
        <time>2011-12-26T08:23:20Z</time>
      </trkpt>
      <trkpt lat="44.55423" lon="0.96668">
        <ele>145</ele>
        <time>2011-12-26T08:23:25Z</time>
      </trkpt>
      <trkpt lat="44.55419" lon="0.96669">
        <ele>145</ele>
        <time>2011-12-26T08:23:26Z</time>
      </trkpt>
      <trkpt lat="44.55411" lon="0.96671">
        <ele>145</ele>
        <time>2011-12-26T08:23:32Z</time>
      </trkpt>
      <trkpt lat="44.55394" lon="0.96676">
        <ele>145</ele>
        <time>2011-12-26T08:23:32Z</time>
      </trkpt>
      <trkpt lat="44.55391" lon="0.96677">
        <ele>144</ele>
        <time>2011-12-26T08:23:33Z</time>
      </trkpt>
      <trkpt lat="44.55371" lon="0.96684">
        <ele>143</ele>
        <time>2011-12-26T08:23:38Z</time>
      </trkpt>
      <trkpt lat="44.55366" lon="0.96685">
        <ele>142</ele>
        <time>2011-12-26T08:23:39Z</time>
      </trkpt>
      <trkpt lat="44.55357" lon="0.96688">
        <ele>141</ele>
        <time>2011-12-26T08:23:45Z</time>
      </trkpt>
      <trkpt lat="44.55343" lon="0.9669">
        <ele>140</ele>
        <time>2011-12-26T08:23:45Z</time>
      </trkpt>
      <trkpt lat="44.55341" lon="0.96692">
        <ele>140</ele>
        <time>2011-12-26T08:23:46Z</time>
      </trkpt>
      <trkpt lat="44.55336" lon="0.96692">
        <ele>139</ele>
        <time>2011-12-26T08:23:51Z</time>
      </trkpt>
      <trkpt lat="44.55337" lon="0.96694">
        <ele>137</ele>
        <time>2011-12-26T08:23:54Z</time>
      </trkpt>
      <trkpt lat="44.55336" lon="0.96696">
        <ele>132</ele>
        <time>2011-12-26T08:24:02Z</time>
      </trkpt>
      <trkpt lat="44.55334" lon="0.96699">
        <ele>129</ele>
        <time>2011-12-26T08:24:09Z</time>
      </trkpt>
      <trkpt lat="44.55334" lon="0.96702">
        <ele>129</ele>
        <time>2011-12-26T08:24:12Z</time>
      </trkpt>
      <trkpt lat="44.55335" lon="0.96704">
        <ele>129</ele>
        <time>2011-12-26T08:24:17Z</time>
      </trkpt>
      <trkpt lat="44.55339" lon="0.96712">
        <ele>129</ele>
        <time>2011-12-26T08:24:18Z</time>
      </trkpt>
      <trkpt lat="44.5534" lon="0.96713">
        <ele>129</ele>
        <time>2011-12-26T08:24:18Z</time>
      </trkpt>
      <trkpt lat="44.55344" lon="0.96724">
        <ele>130</ele>
        <time>2011-12-26T08:24:23Z</time>
      </trkpt>
      <trkpt lat="44.55342" lon="0.96726">
        <ele>130</ele>
        <time>2011-12-26T08:24:24Z</time>
      </trkpt>
      <trkpt lat="44.5534" lon="0.96727">
        <ele>130</ele>
        <time>2011-12-26T08:24:26Z</time>
      </trkpt>
      <trkpt lat="44.55338" lon="0.96728">
        <ele>130</ele>
        <time>2011-12-26T08:24:27Z</time>
      </trkpt>
      <trkpt lat="44.55333" lon="0.9673">
        <ele>130</ele>
        <time>2011-12-26T08:24:32Z</time>
      </trkpt>
      <trkpt lat="44.55324" lon="0.9674">
        <ele>130</ele>
        <time>2011-12-26T08:24:32Z</time>
      </trkpt>
      <trkpt lat="44.55322" lon="0.96743">
        <ele>130</ele>
        <time>2011-12-26T08:24:34Z</time>
      </trkpt>
      <trkpt lat="44.5532" lon="0.96745">
        <ele>130</ele>
        <time>2011-12-26T08:24:35Z</time>
      </trkpt>
      <trkpt lat="44.55318" lon="0.96747">
        <ele>130</ele>
        <time>2011-12-26T08:24:35Z</time>
      </trkpt>
      <trkpt lat="44.55311" lon="0.9676">
        <ele>130</ele>
        <time>2011-12-26T08:24:40Z</time>
      </trkpt>
      <trkpt lat="44.55309" lon="0.96763">
        <ele>130</ele>
        <time>2011-12-26T08:24:41Z</time>
      </trkpt>
      <trkpt lat="44.55308" lon="0.96767">
        <ele>130</ele>
        <time>2011-12-26T08:24:43Z</time>
      </trkpt>
      <trkpt lat="44.55305" lon="0.96773">
        <ele>130</ele>
        <time>2011-12-26T08:24:48Z</time>
      </trkpt>
      <trkpt lat="44.55299" lon="0.96787">
        <ele>129</ele>
        <time>2011-12-26T08:24:48Z</time>
      </trkpt>
      <trkpt lat="44.55299" lon="0.96791">
        <ele>128</ele>
        <time>2011-12-26T08:24:49Z</time>
      </trkpt>
      <trkpt lat="44.55298" lon="0.96794">
        <ele>127</ele>
        <time>2011-12-26T08:24:50Z</time>
      </trkpt>
      <trkpt lat="44.55288" lon="0.96811">
        <ele>126</ele>
        <time>2011-12-26T08:24:55Z</time>
      </trkpt>
      <trkpt lat="44.55286" lon="0.96815">
        <ele>124</ele>
        <time>2011-12-26T08:24:57Z</time>
      </trkpt>
      <trkpt lat="44.55283" lon="0.96819">
        <ele>122</ele>
        <time>2011-12-26T08:24:58Z</time>
      </trkpt>
      <trkpt lat="44.55276" lon="0.96828">
        <ele>121</ele>
        <time>2011-12-26T08:25:03Z</time>
      </trkpt>
      <trkpt lat="44.55264" lon="0.96838">
        <ele>120</ele>
        <time>2011-12-26T08:25:03Z</time>
      </trkpt>
      <trkpt lat="44.55262" lon="0.96839">
        <ele>119</ele>
        <time>2011-12-26T08:25:05Z</time>
      </trkpt>
      <trkpt lat="44.55257" lon="0.96843">
        <ele>118</ele>
        <time>2011-12-26T08:25:10Z</time>
      </trkpt>
      <trkpt lat="44.55251" lon="0.96854">
        <ele>117</ele>
        <time>2011-12-26T08:25:10Z</time>
      </trkpt>
      <trkpt lat="44.55248" lon="0.96857">
        <ele>116</ele>
        <time>2011-12-26T08:25:12Z</time>
      </trkpt>
      <trkpt lat="44.55244" lon="0.96863">
        <ele>115</ele>
        <time>2011-12-26T08:25:17Z</time>
      </trkpt>
      <trkpt lat="44.55234" lon="0.96875">
        <ele>114</ele>
        <time>2011-12-26T08:25:17Z</time>
      </trkpt>
      <trkpt lat="44.55231" lon="0.96879">
        <ele>113</ele>
        <time>2011-12-26T08:25:18Z</time>
      </trkpt>
      <trkpt lat="44.55226" lon="0.96886">
        <ele>112</ele>
        <time>2011-12-26T08:25:24Z</time>
      </trkpt>
      <trkpt lat="44.55217" lon="0.96901">
        <ele>111</ele>
        <time>2011-12-26T08:25:24Z</time>
      </trkpt>
      <trkpt lat="44.55214" lon="0.96906">
        <ele>110</ele>
        <time>2011-12-26T08:25:26Z</time>
      </trkpt>
      <trkpt lat="44.55212" lon="0.9691">
        <ele>109</ele>
        <time>2011-12-26T08:25:27Z</time>
      </trkpt>
      <trkpt lat="44.55209" lon="0.96919">
        <ele>108</ele>
        <time>2011-12-26T08:25:31Z</time>
      </trkpt>
      <trkpt lat="44.55205" lon="0.9694">
        <ele>108</ele>
        <time>2011-12-26T08:25:32Z</time>
      </trkpt>
      <trkpt lat="44.55205" lon="0.96946">
        <ele>108</ele>
        <time>2011-12-26T08:25:33Z</time>
      </trkpt>
      <trkpt lat="44.55206" lon="0.96951">
        <ele>108</ele>
        <time>2011-12-26T08:25:34Z</time>
      </trkpt>
      <trkpt lat="44.55206" lon="0.96977">
        <ele>108</ele>
        <time>2011-12-26T08:25:39Z</time>
      </trkpt>
      <trkpt lat="44.55207" lon="0.96983">
        <ele>108</ele>
        <time>2011-12-26T08:25:40Z</time>
      </trkpt>
      <trkpt lat="44.55208" lon="0.96995">
        <ele>108</ele>
        <time>2011-12-26T08:25:46Z</time>
      </trkpt>
      <trkpt lat="44.5521" lon="0.97016">
        <ele>108</ele>
        <time>2011-12-26T08:25:46Z</time>
      </trkpt>
      <trkpt lat="44.55211" lon="0.9702">
        <ele>108</ele>
        <time>2011-12-26T08:25:47Z</time>
      </trkpt>
      <trkpt lat="44.55214" lon="0.9703">
        <ele>108</ele>
        <time>2011-12-26T08:25:53Z</time>
      </trkpt>
      <trkpt lat="44.55219" lon="0.97042">
        <ele>109</ele>
        <time>2011-12-26T08:25:54Z</time>
      </trkpt>
      <trkpt lat="44.5522" lon="0.97044">
        <ele>110</ele>
        <time>2011-12-26T08:25:54Z</time>
      </trkpt>
      <trkpt lat="44.55224" lon="0.9705">
        <ele>111</ele>
        <time>2011-12-26T08:26:00Z</time>
      </trkpt>
      <trkpt lat="44.55226" lon="0.97063">
        <ele>112</ele>
        <time>2011-12-26T08:26:00Z</time>
      </trkpt>
      <trkpt lat="44.55225" lon="0.97067">
        <ele>113</ele>
        <time>2011-12-26T08:26:01Z</time>
      </trkpt>
      <trkpt lat="44.55224" lon="0.9707">
        <ele>114</ele>
        <time>2011-12-26T08:26:02Z</time>
      </trkpt>
      <trkpt lat="44.55221" lon="0.97073">
        <ele>115</ele>
        <time>2011-12-26T08:26:08Z</time>
      </trkpt>
      <trkpt lat="44.55212" lon="0.97083">
        <ele>116</ele>
        <time>2011-12-26T08:26:09Z</time>
      </trkpt>
      <trkpt lat="44.5521" lon="0.97085">
        <ele>117</ele>
        <time>2011-12-26T08:26:10Z</time>
      </trkpt>
      <trkpt lat="44.55207" lon="0.97086">
        <ele>118</ele>
        <time>2011-12-26T08:26:11Z</time>
      </trkpt>
      <trkpt lat="44.55201" lon="0.97089">
        <ele>120</ele>
        <time>2011-12-26T08:26:16Z</time>
      </trkpt>
      <trkpt lat="44.5519" lon="0.97093">
        <ele>122</ele>
        <time>2011-12-26T08:26:16Z</time>
      </trkpt>
      <trkpt lat="44.55187" lon="0.97094">
        <ele>124</ele>
        <time>2011-12-26T08:26:17Z</time>
      </trkpt>
      <trkpt lat="44.55184" lon="0.97094">
        <ele>126</ele>
        <time>2011-12-26T08:26:18Z</time>
      </trkpt>
      <trkpt lat="44.55173" lon="0.97113">
        <ele>128</ele>
        <time>2011-12-26T08:26:24Z</time>
      </trkpt>
      <trkpt lat="44.55171" lon="0.97116">
        <ele>130</ele>
        <time>2011-12-26T08:26:26Z</time>
      </trkpt>
      <trkpt lat="44.5517" lon="0.9712">
        <ele>131</ele>
        <time>2011-12-26T08:26:27Z</time>
      </trkpt>
      <trkpt lat="44.55167" lon="0.9713">
        <ele>132</ele>
        <time>2011-12-26T08:26:32Z</time>
      </trkpt>
      <trkpt lat="44.55159" lon="0.97146">
        <ele>133</ele>
        <time>2011-12-26T08:26:32Z</time>
      </trkpt>
      <trkpt lat="44.55157" lon="0.97149">
        <ele>134</ele>
        <time>2011-12-26T08:26:34Z</time>
      </trkpt>
      <trkpt lat="44.55155" lon="0.97151">
        <ele>134</ele>
        <time>2011-12-26T08:26:34Z</time>
      </trkpt>
      <trkpt lat="44.55152" lon="0.97158">
        <ele>134</ele>
        <time>2011-12-26T08:26:39Z</time>
      </trkpt>
      <trkpt lat="44.55149" lon="0.97175">
        <ele>134</ele>
        <time>2011-12-26T08:26:40Z</time>
      </trkpt>
      <trkpt lat="44.55149" lon="0.97178">
        <ele>134</ele>
        <time>2011-12-26T08:26:42Z</time>
      </trkpt>
      <trkpt lat="44.55149" lon="0.97182">
        <ele>134</ele>
        <time>2011-12-26T08:26:42Z</time>
      </trkpt>
      <trkpt lat="44.55149" lon="0.9719">
        <ele>134</ele>
        <time>2011-12-26T08:26:48Z</time>
      </trkpt>
      <trkpt lat="44.55151" lon="0.97208">
        <ele>134</ele>
        <time>2011-12-26T08:26:48Z</time>
      </trkpt>
      <trkpt lat="44.55151" lon="0.97211">
        <ele>134</ele>
        <time>2011-12-26T08:26:49Z</time>
      </trkpt>
      <trkpt lat="44.55151" lon="0.97215">
        <ele>134</ele>
        <time>2011-12-26T08:26:50Z</time>
      </trkpt>
      <trkpt lat="44.55153" lon="0.97222">
        <ele>133</ele>
        <time>2011-12-26T08:26:56Z</time>
      </trkpt>
      <trkpt lat="44.55153" lon="0.97233">
        <ele>133</ele>
        <time>2011-12-26T08:26:56Z</time>
      </trkpt>
      <trkpt lat="44.55153" lon="0.97235">
        <ele>133</ele>
        <time>2011-12-26T08:26:57Z</time>
      </trkpt>
      <trkpt lat="44.55152" lon="0.97238">
        <ele>133</ele>
        <time>2011-12-26T08:26:59Z</time>
      </trkpt>
      <trkpt lat="44.55151" lon="0.97243">
        <ele>133</ele>
        <time>2011-12-26T08:27:05Z</time>
      </trkpt>
      <trkpt lat="44.55152" lon="0.97261">
        <ele>133</ele>
        <time>2011-12-26T08:27:05Z</time>
      </trkpt>
      <trkpt lat="44.55152" lon="0.97264">
        <ele>133</ele>
        <time>2011-12-26T08:27:07Z</time>
      </trkpt>
      <trkpt lat="44.55151" lon="0.97272">
        <ele>133</ele>
        <time>2011-12-26T08:27:12Z</time>
      </trkpt>
      <trkpt lat="44.55151" lon="0.97286">
        <ele>133</ele>
        <time>2011-12-26T08:27:13Z</time>
      </trkpt>
      <trkpt lat="44.55151" lon="0.97293">
        <ele>133</ele>
        <time>2011-12-26T08:27:19Z</time>
      </trkpt>
      <trkpt lat="44.55151" lon="0.97308">
        <ele>133</ele>
        <time>2011-12-26T08:27:19Z</time>
      </trkpt>
      <trkpt lat="44.55151" lon="0.97312">
        <ele>133</ele>
        <time>2011-12-26T08:27:20Z</time>
      </trkpt>
      <trkpt lat="44.55152" lon="0.9732">
        <ele>133</ele>
        <time>2011-12-26T08:27:26Z</time>
      </trkpt>
      <trkpt lat="44.55151" lon="0.97333">
        <ele>133</ele>
        <time>2011-12-26T08:27:26Z</time>
      </trkpt>
      <trkpt lat="44.55151" lon="0.97336">
        <ele>132</ele>
        <time>2011-12-26T08:27:28Z</time>
      </trkpt>
      <trkpt lat="44.5515" lon="0.97342">
        <ele>132</ele>
        <time>2011-12-26T08:27:34Z</time>
      </trkpt>
      <trkpt lat="44.55149" lon="0.97358">
        <ele>132</ele>
        <time>2011-12-26T08:27:34Z</time>
      </trkpt>
      <trkpt lat="44.55147" lon="0.97378">
        <ele>132</ele>
        <time>2011-12-26T08:27:40Z</time>
      </trkpt>
      <trkpt lat="44.55147" lon="0.97381">
        <ele>132</ele>
        <time>2011-12-26T08:27:42Z</time>
      </trkpt>
      <trkpt lat="44.55147" lon="0.97384">
        <ele>132</ele>
        <time>2011-12-26T08:27:43Z</time>
      </trkpt>
      <trkpt lat="44.55148" lon="0.97389">
        <ele>131</ele>
        <time>2011-12-26T08:27:48Z</time>
      </trkpt>
      <trkpt lat="44.55146" lon="0.97399">
        <ele>131</ele>
        <time>2011-12-26T08:27:48Z</time>
      </trkpt>
      <trkpt lat="44.55146" lon="0.97401">
        <ele>130</ele>
        <time>2011-12-26T08:27:49Z</time>
      </trkpt>
      <trkpt lat="44.55146" lon="0.97404">
        <ele>130</ele>
        <time>2011-12-26T08:27:50Z</time>
      </trkpt>
      <trkpt lat="44.55145" lon="0.97409">
        <ele>129</ele>
        <time>2011-12-26T08:27:56Z</time>
      </trkpt>
      <trkpt lat="44.55143" lon="0.97419">
        <ele>128</ele>
        <time>2011-12-26T08:27:56Z</time>
      </trkpt>
      <trkpt lat="44.55143" lon="0.97421">
        <ele>127</ele>
        <time>2011-12-26T08:27:58Z</time>
      </trkpt>
      <trkpt lat="44.55143" lon="0.97425">
        <ele>127</ele>
        <time>2011-12-26T08:27:59Z</time>
      </trkpt>
      <trkpt lat="44.55142" lon="0.9743">
        <ele>126</ele>
        <time>2011-12-26T08:28:04Z</time>
      </trkpt>
      <trkpt lat="44.55139" lon="0.97445">
        <ele>125</ele>
        <time>2011-12-26T08:28:05Z</time>
      </trkpt>
      <trkpt lat="44.55138" lon="0.97449">
        <ele>125</ele>
        <time>2011-12-26T08:28:06Z</time>
      </trkpt>
      <trkpt lat="44.55137" lon="0.97455">
        <ele>125</ele>
        <time>2011-12-26T08:28:12Z</time>
      </trkpt>
      <trkpt lat="44.55135" lon="0.97468">
        <ele>125</ele>
        <time>2011-12-26T08:28:12Z</time>
      </trkpt>
      <trkpt lat="44.55134" lon="0.97471">
        <ele>125</ele>
        <time>2011-12-26T08:28:13Z</time>
      </trkpt>
      <trkpt lat="44.55134" lon="0.97475">
        <ele>124</ele>
        <time>2011-12-26T08:28:14Z</time>
      </trkpt>
      <trkpt lat="44.55135" lon="0.97482">
        <ele>123</ele>
        <time>2011-12-26T08:28:21Z</time>
      </trkpt>
      <trkpt lat="44.55143" lon="0.97499">
        <ele>123</ele>
        <time>2011-12-26T08:28:21Z</time>
      </trkpt>
      <trkpt lat="44.55144" lon="0.97502">
        <ele>123</ele>
        <time>2011-12-26T08:28:22Z</time>
      </trkpt>
      <trkpt lat="44.55153" lon="0.97521">
        <ele>123</ele>
        <time>2011-12-26T08:28:28Z</time>
      </trkpt>
      <trkpt lat="44.55154" lon="0.97524">
        <ele>123</ele>
        <time>2011-12-26T08:28:30Z</time>
      </trkpt>
      <trkpt lat="44.55154" lon="0.97527">
        <ele>123</ele>
        <time>2011-12-26T08:28:31Z</time>
      </trkpt>
      <trkpt lat="44.55155" lon="0.97534">
        <ele>123</ele>
        <time>2011-12-26T08:28:36Z</time>
      </trkpt>
      <trkpt lat="44.55157" lon="0.97547">
        <ele>123</ele>
        <time>2011-12-26T08:28:36Z</time>
      </trkpt>
      <trkpt lat="44.55157" lon="0.97549">
        <ele>124</ele>
        <time>2011-12-26T08:28:38Z</time>
      </trkpt>
      <trkpt lat="44.55158" lon="0.9755">
        <ele>125</ele>
        <time>2011-12-26T08:28:39Z</time>
      </trkpt>
      <trkpt lat="44.55158" lon="0.97558">
        <ele>127</ele>
        <time>2011-12-26T08:28:46Z</time>
      </trkpt>
      <trkpt lat="44.55157" lon="0.97561">
        <ele>129</ele>
        <time>2011-12-26T08:28:47Z</time>
      </trkpt>
      <trkpt lat="44.55159" lon="0.97563">
        <ele>137</ele>
        <time>2011-12-26T08:28:54Z</time>
      </trkpt>
      <trkpt lat="44.55159" lon="0.97565">
        <ele>144</ele>
        <time>2011-12-26T08:28:56Z</time>
      </trkpt>
      <trkpt lat="44.55159" lon="0.97567">
        <ele>149</ele>
        <time>2011-12-26T08:29:03Z</time>
      </trkpt>
      <trkpt lat="44.55159" lon="0.97566">
        <ele>153</ele>
        <time>2011-12-26T08:29:04Z</time>
      </trkpt>
      <trkpt lat="44.55159" lon="0.97564">
        <ele>155</ele>
        <time>2011-12-26T08:29:11Z</time>
      </trkpt>
      <trkpt lat="44.55159" lon="0.97562">
        <ele>159</ele>
        <time>2011-12-26T08:29:21Z</time>
      </trkpt>
      <trkpt lat="44.55158" lon="0.97564">
        <ele>162</ele>
        <time>2011-12-26T08:29:23Z</time>
      </trkpt>
      <trkpt lat="44.55157" lon="0.97566">
        <ele>162</ele>
        <time>2011-12-26T08:29:29Z</time>
      </trkpt>
      <trkpt lat="44.55156" lon="0.97573">
        <ele>162</ele>
        <time>2011-12-26T08:29:30Z</time>
      </trkpt>
      <trkpt lat="44.55156" lon="0.97575">
        <ele>162</ele>
        <time>2011-12-26T08:29:31Z</time>
      </trkpt>
      <trkpt lat="44.55156" lon="0.97579">
        <ele>162</ele>
        <time>2011-12-26T08:29:31Z</time>
      </trkpt>
      <trkpt lat="44.55156" lon="0.97581">
        <ele>162</ele>
        <time>2011-12-26T08:29:32Z</time>
      </trkpt>
      <trkpt lat="44.55155" lon="0.97586">
        <ele>161</ele>
        <time>2011-12-26T08:29:38Z</time>
      </trkpt>
      <trkpt lat="44.55157" lon="0.97598">
        <ele>160</ele>
        <time>2011-12-26T08:29:38Z</time>
      </trkpt>
      <trkpt lat="44.55157" lon="0.97601">
        <ele>159</ele>
        <time>2011-12-26T08:29:40Z</time>
      </trkpt>
      <trkpt lat="44.55161" lon="0.97623">
        <ele>158</ele>
        <time>2011-12-26T08:29:45Z</time>
      </trkpt>
      <trkpt lat="44.55162" lon="0.97627">
        <ele>156</ele>
        <time>2011-12-26T08:29:46Z</time>
      </trkpt>
      <trkpt lat="44.55163" lon="0.9763">
        <ele>154</ele>
        <time>2011-12-26T08:29:48Z</time>
      </trkpt>
      <trkpt lat="44.55166" lon="0.97641">
        <ele>152</ele>
        <time>2011-12-26T08:29:53Z</time>
      </trkpt>
      <trkpt lat="44.55168" lon="0.97657">
        <ele>150</ele>
        <time>2011-12-26T08:29:53Z</time>
      </trkpt>
      <trkpt lat="44.55169" lon="0.9766">
        <ele>149</ele>
        <time>2011-12-26T08:29:55Z</time>
      </trkpt>
      <trkpt lat="44.5517" lon="0.97664">
        <ele>148</ele>
        <time>2011-12-26T08:29:55Z</time>
      </trkpt>
      <trkpt lat="44.55172" lon="0.97672">
        <ele>147</ele>
        <time>2011-12-26T08:30:02Z</time>
      </trkpt>
      <trkpt lat="44.5518" lon="0.97692">
        <ele>146</ele>
        <time>2011-12-26T08:30:03Z</time>
      </trkpt>
      <trkpt lat="44.5519" lon="0.97716">
        <ele>144</ele>
        <time>2011-12-26T08:30:08Z</time>
      </trkpt>
      <trkpt lat="44.55193" lon="0.97719">
        <ele>143</ele>
        <time>2011-12-26T08:30:10Z</time>
      </trkpt>
      <trkpt lat="44.55196" lon="0.97721">
        <ele>142</ele>
        <time>2011-12-26T08:30:11Z</time>
      </trkpt>
      <trkpt lat="44.55202" lon="0.97726">
        <ele>141</ele>
        <time>2011-12-26T08:30:16Z</time>
      </trkpt>
      <trkpt lat="44.55214" lon="0.97742">
        <ele>141</ele>
        <time>2011-12-26T08:30:16Z</time>
      </trkpt>
      <trkpt lat="44.55217" lon="0.97745">
        <ele>141</ele>
        <time>2011-12-26T08:30:17Z</time>
      </trkpt>
      <trkpt lat="44.55235" lon="0.97759">
        <ele>142</ele>
        <time>2011-12-26T08:30:23Z</time>
      </trkpt>
      <trkpt lat="44.55238" lon="0.9776">
        <ele>143</ele>
        <time>2011-12-26T08:30:24Z</time>
      </trkpt>
      <trkpt lat="44.55243" lon="0.97766">
        <ele>144</ele>
        <time>2011-12-26T08:30:30Z</time>
      </trkpt>
      <trkpt lat="44.55255" lon="0.97782">
        <ele>146</ele>
        <time>2011-12-26T08:30:32Z</time>
      </trkpt>
      <trkpt lat="44.55257" lon="0.97786">
        <ele>147</ele>
        <time>2011-12-26T08:30:33Z</time>
      </trkpt>
      <trkpt lat="44.55272" lon="0.97806">
        <ele>149</ele>
        <time>2011-12-26T08:30:38Z</time>
      </trkpt>
      <trkpt lat="44.55275" lon="0.9781">
        <ele>150</ele>
        <time>2011-12-26T08:30:39Z</time>
      </trkpt>
      <trkpt lat="44.5528" lon="0.97818">
        <ele>151</ele>
        <time>2011-12-26T08:30:45Z</time>
      </trkpt>
      <trkpt lat="44.55291" lon="0.97838">
        <ele>152</ele>
        <time>2011-12-26T08:30:46Z</time>
      </trkpt>
      <trkpt lat="44.55293" lon="0.97842">
        <ele>153</ele>
        <time>2011-12-26T08:30:47Z</time>
      </trkpt>
      <trkpt lat="44.55294" lon="0.97845">
        <ele>154</ele>
        <time>2011-12-26T08:30:49Z</time>
      </trkpt>
      <trkpt lat="44.55295" lon="0.97853">
        <ele>155</ele>
        <time>2011-12-26T08:30:54Z</time>
      </trkpt>
      <trkpt lat="44.55293" lon="0.97866">
        <ele>156</ele>
        <time>2011-12-26T08:30:55Z</time>
      </trkpt>
      <trkpt lat="44.55292" lon="0.97868">
        <ele>157</ele>
        <time>2011-12-26T08:30:55Z</time>
      </trkpt>
      <trkpt lat="44.55291" lon="0.97871">
        <ele>158</ele>
        <time>2011-12-26T08:30:56Z</time>
      </trkpt>
      <trkpt lat="44.55291" lon="0.9788">
        <ele>159</ele>
        <time>2011-12-26T08:31:02Z</time>
      </trkpt>
      <trkpt lat="44.55292" lon="0.97902">
        <ele>160</ele>
        <time>2011-12-26T08:31:03Z</time>
      </trkpt>
      <trkpt lat="44.55291" lon="0.97909">
        <ele>160</ele>
        <time>2011-12-26T08:31:03Z</time>
      </trkpt>
      <trkpt lat="44.55292" lon="0.97919">
        <ele>160</ele>
        <time>2011-12-26T08:31:04Z</time>
      </trkpt>
      <trkpt lat="44.55293" lon="0.97938">
        <ele>160</ele>
        <time>2011-12-26T08:31:10Z</time>
      </trkpt>
      <trkpt lat="44.55289" lon="0.97964">
        <ele>160</ele>
        <time>2011-12-26T08:31:10Z</time>
      </trkpt>
      <trkpt lat="44.55288" lon="0.97969">
        <ele>160</ele>
        <time>2011-12-26T08:31:12Z</time>
      </trkpt>
      <trkpt lat="44.55287" lon="0.97979">
        <ele>160</ele>
        <time>2011-12-26T08:31:17Z</time>
      </trkpt>
      <trkpt lat="44.5529" lon="0.97998">
        <ele>160</ele>
        <time>2011-12-26T08:31:18Z</time>
      </trkpt>
      <trkpt lat="44.55291" lon="0.98001">
        <ele>160</ele>
        <time>2011-12-26T08:31:19Z</time>
      </trkpt>
      <trkpt lat="44.55292" lon="0.98004">
        <ele>159</ele>
        <time>2011-12-26T08:31:20Z</time>
      </trkpt>
      <trkpt lat="44.55294" lon="0.98009">
        <ele>159</ele>
        <time>2011-12-26T08:31:27Z</time>
      </trkpt>
      <trkpt lat="44.55288" lon="0.98016">
        <ele>159</ele>
        <time>2011-12-26T08:31:28Z</time>
      </trkpt>
      <trkpt lat="44.55287" lon="0.98017">
        <ele>159</ele>
        <time>2011-12-26T08:31:29Z</time>
      </trkpt>
      <trkpt lat="44.55285" lon="0.98018">
        <ele>159</ele>
        <time>2011-12-26T08:31:30Z</time>
      </trkpt>
      <trkpt lat="44.55283" lon="0.9802">
        <ele>160</ele>
        <time>2011-12-26T08:31:35Z</time>
      </trkpt>
      <trkpt lat="44.55277" lon="0.98024">
        <ele>161</ele>
        <time>2011-12-26T08:31:35Z</time>
      </trkpt>
      <trkpt lat="44.55275" lon="0.98025">
        <ele>162</ele>
        <time>2011-12-26T08:31:36Z</time>
      </trkpt>
      <trkpt lat="44.55266" lon="0.98037">
        <ele>163</ele>
        <time>2011-12-26T08:31:42Z</time>
      </trkpt>
      <trkpt lat="44.55264" lon="0.98039">
        <ele>164</ele>
        <time>2011-12-26T08:31:43Z</time>
      </trkpt>
      <trkpt lat="44.5526" lon="0.98044">
        <ele>165</ele>
        <time>2011-12-26T08:31:50Z</time>
      </trkpt>
      <trkpt lat="44.5525" lon="0.98048">
        <ele>166</ele>
        <time>2011-12-26T08:31:50Z</time>
      </trkpt>
      <trkpt lat="44.55247" lon="0.98049">
        <ele>167</ele>
        <time>2011-12-26T08:31:51Z</time>
      </trkpt>
      <trkpt lat="44.55244" lon="0.98051">
        <ele>168</ele>
        <time>2011-12-26T08:31:57Z</time>
      </trkpt>
      <trkpt lat="44.55237" lon="0.98053">
        <ele>169</ele>
        <time>2011-12-26T08:31:57Z</time>
      </trkpt>
      <trkpt lat="44.55235" lon="0.98054">
        <ele>170</ele>
        <time>2011-12-26T08:31:58Z</time>
      </trkpt>
      <trkpt lat="44.55222" lon="0.98065">
        <ele>171</ele>
        <time>2011-12-26T08:32:04Z</time>
      </trkpt>
      <trkpt lat="44.55221" lon="0.98067">
        <ele>171</ele>
        <time>2011-12-26T08:32:06Z</time>
      </trkpt>
      <trkpt lat="44.55219" lon="0.98068">
        <ele>171</ele>
        <time>2011-12-26T08:32:07Z</time>
      </trkpt>
      <trkpt lat="44.55216" lon="0.9807">
        <ele>172</ele>
        <time>2011-12-26T08:32:08Z</time>
      </trkpt>
      <trkpt lat="44.55212" lon="0.98075">
        <ele>173</ele>
        <time>2011-12-26T08:32:14Z</time>
      </trkpt>
      <trkpt lat="44.55203" lon="0.98083">
        <ele>174</ele>
        <time>2011-12-26T08:32:15Z</time>
      </trkpt>
      <trkpt lat="44.55201" lon="0.98085">
        <ele>175</ele>
        <time>2011-12-26T08:32:15Z</time>
      </trkpt>
      <trkpt lat="44.55199" lon="0.98087">
        <ele>177</ele>
        <time>2011-12-26T08:32:16Z</time>
      </trkpt>
      <trkpt lat="44.55195" lon="0.98091">
        <ele>179</ele>
        <time>2011-12-26T08:32:22Z</time>
      </trkpt>
      <trkpt lat="44.55191" lon="0.98102">
        <ele>180</ele>
        <time>2011-12-26T08:32:22Z</time>
      </trkpt>
      <trkpt lat="44.5519" lon="0.98103">
        <ele>181</ele>
        <time>2011-12-26T08:32:23Z</time>
      </trkpt>
      <trkpt lat="44.55189" lon="0.98105">
        <ele>182</ele>
        <time>2011-12-26T08:32:25Z</time>
      </trkpt>
      <trkpt lat="44.5519" lon="0.98111">
        <ele>183</ele>
        <time>2011-12-26T08:32:31Z</time>
      </trkpt>
      <trkpt lat="44.55189" lon="0.98124">
        <ele>184</ele>
        <time>2011-12-26T08:32:32Z</time>
      </trkpt>
      <trkpt lat="44.55189" lon="0.98126">
        <ele>185</ele>
        <time>2011-12-26T08:32:33Z</time>
      </trkpt>
      <trkpt lat="44.55189" lon="0.98128">
        <ele>186</ele>
        <time>2011-12-26T08:32:34Z</time>
      </trkpt>
      <trkpt lat="44.55188" lon="0.98132">
        <ele>187</ele>
        <time>2011-12-26T08:32:40Z</time>
      </trkpt>
      <trkpt lat="44.55186" lon="0.98139">
        <ele>188</ele>
        <time>2011-12-26T08:32:41Z</time>
      </trkpt>
      <trkpt lat="44.55184" lon="0.98141">
        <ele>189</ele>
        <time>2011-12-26T08:32:41Z</time>
      </trkpt>
      <trkpt lat="44.55183" lon="0.98143">
        <ele>189</ele>
        <time>2011-12-26T08:32:43Z</time>
      </trkpt>
      <trkpt lat="44.55176" lon="0.9815">
        <ele>189</ele>
        <time>2011-12-26T08:32:48Z</time>
      </trkpt>
      <trkpt lat="44.55174" lon="0.9815">
        <ele>189</ele>
        <time>2011-12-26T08:32:49Z</time>
      </trkpt>
      <trkpt lat="44.55173" lon="0.98151">
        <ele>189</ele>
        <time>2011-12-26T08:32:56Z</time>
      </trkpt>
      <trkpt lat="44.55167" lon="0.98151">
        <ele>189</ele>
        <time>2011-12-26T08:32:56Z</time>
      </trkpt>
      <trkpt lat="44.55165" lon="0.98152">
        <ele>190</ele>
        <time>2011-12-26T08:32:58Z</time>
      </trkpt>
      <trkpt lat="44.55164" lon="0.98152">
        <ele>191</ele>
        <time>2011-12-26T08:32:59Z</time>
      </trkpt>
      <trkpt lat="44.55161" lon="0.98151">
        <ele>191</ele>
        <time>2011-12-26T08:33:04Z</time>
      </trkpt>
      <trkpt lat="44.55153" lon="0.98152">
        <ele>192</ele>
        <time>2011-12-26T08:33:04Z</time>
      </trkpt>
      <trkpt lat="44.55151" lon="0.98153">
        <ele>193</ele>
        <time>2011-12-26T08:33:06Z</time>
      </trkpt>
      <trkpt lat="44.55149" lon="0.98153">
        <ele>194</ele>
        <time>2011-12-26T08:33:06Z</time>
      </trkpt>
      <trkpt lat="44.55146" lon="0.98155">
        <ele>194</ele>
        <time>2011-12-26T08:33:12Z</time>
      </trkpt>
      <trkpt lat="44.5514" lon="0.98157">
        <ele>194</ele>
        <time>2011-12-26T08:33:12Z</time>
      </trkpt>
      <trkpt lat="44.55138" lon="0.98157">
        <ele>194</ele>
        <time>2011-12-26T08:33:13Z</time>
      </trkpt>
      <trkpt lat="44.55134" lon="0.98159">
        <ele>194</ele>
        <time>2011-12-26T08:33:20Z</time>
      </trkpt>
      <trkpt lat="44.55122" lon="0.98163">
        <ele>194</ele>
        <time>2011-12-26T08:33:20Z</time>
      </trkpt>
      <trkpt lat="44.5512" lon="0.98163">
        <ele>194</ele>
        <time>2011-12-26T08:33:21Z</time>
      </trkpt>
      <trkpt lat="44.55116" lon="0.98165">
        <ele>195</ele>
        <time>2011-12-26T08:33:27Z</time>
      </trkpt>
      <trkpt lat="44.55107" lon="0.98167">
        <ele>196</ele>
        <time>2011-12-26T08:33:27Z</time>
      </trkpt>
      <trkpt lat="44.55106" lon="0.98167">
        <ele>197</ele>
        <time>2011-12-26T08:33:28Z</time>
      </trkpt>
      <trkpt lat="44.55104" lon="0.98167">
        <ele>198</ele>
        <time>2011-12-26T08:33:30Z</time>
      </trkpt>
      <trkpt lat="44.55102" lon="0.98167">
        <ele>199</ele>
        <time>2011-12-26T08:33:34Z</time>
      </trkpt>
      <trkpt lat="44.55095" lon="0.98165">
        <ele>199</ele>
        <time>2011-12-26T08:33:36Z</time>
      </trkpt>
      <trkpt lat="44.55093" lon="0.98166">
        <ele>199</ele>
        <time>2011-12-26T08:33:36Z</time>
      </trkpt>
      <trkpt lat="44.55086" lon="0.98167">
        <ele>199</ele>
        <time>2011-12-26T08:33:41Z</time>
      </trkpt>
      <trkpt lat="44.55084" lon="0.98166">
        <ele>199</ele>
        <time>2011-12-26T08:33:43Z</time>
      </trkpt>
      <trkpt lat="44.55082" lon="0.98166">
        <ele>200</ele>
        <time>2011-12-26T08:33:43Z</time>
      </trkpt>
      <trkpt lat="44.5508" lon="0.98166">
        <ele>200</ele>
        <time>2011-12-26T08:33:44Z</time>
      </trkpt>
      <trkpt lat="44.55077" lon="0.98165">
        <ele>200</ele>
        <time>2011-12-26T08:33:49Z</time>
      </trkpt>
      <trkpt lat="44.55072" lon="0.98166">
        <ele>200</ele>
        <time>2011-12-26T08:33:49Z</time>
      </trkpt>
      <trkpt lat="44.5507" lon="0.98166">
        <ele>200</ele>
        <time>2011-12-26T08:33:50Z</time>
      </trkpt>
      <trkpt lat="44.55065" lon="0.98164">
        <ele>200</ele>
        <time>2011-12-26T08:33:55Z</time>
      </trkpt>
      <trkpt lat="44.55059" lon="0.98163">
        <ele>200</ele>
        <time>2011-12-26T08:33:55Z</time>
      </trkpt>
      <trkpt lat="44.55057" lon="0.98164">
        <ele>200</ele>
        <time>2011-12-26T08:33:56Z</time>
      </trkpt>
      <trkpt lat="44.55055" lon="0.98164">
        <ele>200</ele>
        <time>2011-12-26T08:33:57Z</time>
      </trkpt>
      <trkpt lat="44.55051" lon="0.98163">
        <ele>200</ele>
        <time>2011-12-26T08:34:02Z</time>
      </trkpt>
      <trkpt lat="44.55047" lon="0.98162">
        <ele>200</ele>
        <time>2011-12-26T08:34:03Z</time>
      </trkpt>
      <trkpt lat="44.55045" lon="0.98161">
        <ele>200</ele>
        <time>2011-12-26T08:34:03Z</time>
      </trkpt>
      <trkpt lat="44.55043" lon="0.98159">
        <ele>200</ele>
        <time>2011-12-26T08:34:04Z</time>
      </trkpt>
      <trkpt lat="44.55033" lon="0.98156">
        <ele>200</ele>
        <time>2011-12-26T08:34:09Z</time>
      </trkpt>
      <trkpt lat="44.55031" lon="0.98157">
        <ele>200</ele>
        <time>2011-12-26T08:34:10Z</time>
      </trkpt>
      <trkpt lat="44.55029" lon="0.98156">
        <ele>200</ele>
        <time>2011-12-26T08:34:12Z</time>
      </trkpt>
      <trkpt lat="44.55025" lon="0.98155">
        <ele>200</ele>
        <time>2011-12-26T08:34:16Z</time>
      </trkpt>
      <trkpt lat="44.5502" lon="0.98153">
        <ele>200</ele>
        <time>2011-12-26T08:34:16Z</time>
      </trkpt>
      <trkpt lat="44.55018" lon="0.98153">
        <ele>200</ele>
        <time>2011-12-26T08:34:17Z</time>
      </trkpt>
      <trkpt lat="44.55008" lon="0.9815">
        <ele>200</ele>
        <time>2011-12-26T08:34:22Z</time>
      </trkpt>
      <trkpt lat="44.55006" lon="0.98149">
        <ele>200</ele>
        <time>2011-12-26T08:34:23Z</time>
      </trkpt>
      <trkpt lat="44.55004" lon="0.98148">
        <ele>200</ele>
        <time>2011-12-26T08:34:24Z</time>
      </trkpt>
      <trkpt lat="44.55" lon="0.98147">
        <ele>200</ele>
        <time>2011-12-26T08:34:29Z</time>
      </trkpt>
      <trkpt lat="44.54994" lon="0.98146">
        <ele>200</ele>
        <time>2011-12-26T08:34:29Z</time>
      </trkpt>
      <trkpt lat="44.54992" lon="0.98146">
        <ele>200</ele>
        <time>2011-12-26T08:34:31Z</time>
      </trkpt>
      <trkpt lat="44.5498" lon="0.98141">
        <ele>200</ele>
        <time>2011-12-26T08:34:35Z</time>
      </trkpt>
      <trkpt lat="44.54978" lon="0.9814">
        <ele>200</ele>
        <time>2011-12-26T08:34:37Z</time>
      </trkpt>
      <trkpt lat="44.54977" lon="0.98138">
        <ele>200</ele>
        <time>2011-12-26T08:34:38Z</time>
      </trkpt>
      <trkpt lat="44.54973" lon="0.98135">
        <ele>200</ele>
        <time>2011-12-26T08:34:43Z</time>
      </trkpt>
      <trkpt lat="44.54967" lon="0.98133">
        <ele>200</ele>
        <time>2011-12-26T08:34:44Z</time>
      </trkpt>
      <trkpt lat="44.54965" lon="0.98131">
        <ele>200</ele>
        <time>2011-12-26T08:34:44Z</time>
      </trkpt>
      <trkpt lat="44.5496" lon="0.98129">
        <ele>200</ele>
        <time>2011-12-26T08:34:49Z</time>
      </trkpt>
      <trkpt lat="44.54954" lon="0.98125">
        <ele>200</ele>
        <time>2011-12-26T08:34:49Z</time>
      </trkpt>
      <trkpt lat="44.54951" lon="0.98123">
        <ele>200</ele>
        <time>2011-12-26T08:34:50Z</time>
      </trkpt>
      <trkpt lat="44.54945" lon="0.98119">
        <ele>200</ele>
        <time>2011-12-26T08:34:55Z</time>
      </trkpt>
      <trkpt lat="44.54931" lon="0.98112">
        <ele>200</ele>
        <time>2011-12-26T08:34:56Z</time>
      </trkpt>
      <trkpt lat="44.54926" lon="0.98108">
        <ele>200</ele>
        <time>2011-12-26T08:34:57Z</time>
      </trkpt>
      <trkpt lat="44.54916" lon="0.98101">
        <ele>200</ele>
        <time>2011-12-26T08:35:02Z</time>
      </trkpt>
      <trkpt lat="44.549" lon="0.98087">
        <ele>200</ele>
        <time>2011-12-26T08:35:02Z</time>
      </trkpt>
      <trkpt lat="44.54895" lon="0.98082">
        <ele>200</ele>
        <time>2011-12-26T08:35:03Z</time>
      </trkpt>
      <trkpt lat="44.54885" lon="0.98073">
        <ele>200</ele>
        <time>2011-12-26T08:35:08Z</time>
      </trkpt>
      <trkpt lat="44.54872" lon="0.98059">
        <ele>200</ele>
        <time>2011-12-26T08:35:08Z</time>
      </trkpt>
      <trkpt lat="44.54868" lon="0.98054">
        <ele>200</ele>
        <time>2011-12-26T08:35:09Z</time>
      </trkpt>
      <trkpt lat="44.54836" lon="0.9803">
        <ele>200</ele>
        <time>2011-12-26T08:35:14Z</time>
      </trkpt>
      <trkpt lat="44.54829" lon="0.98025">
        <ele>199</ele>
        <time>2011-12-26T08:35:15Z</time>
      </trkpt>
      <trkpt lat="44.54816" lon="0.98012">
        <ele>198</ele>
        <time>2011-12-26T08:35:21Z</time>
      </trkpt>
      <trkpt lat="44.54792" lon="0.97992">
        <ele>197</ele>
        <time>2011-12-26T08:35:21Z</time>
      </trkpt>
      <trkpt lat="44.54786" lon="0.97989">
        <ele>196</ele>
        <time>2011-12-26T08:35:22Z</time>
      </trkpt>
      <trkpt lat="44.54778" lon="0.97987">
        <ele>195</ele>
        <time>2011-12-26T08:35:24Z</time>
      </trkpt>
      <trkpt lat="44.54764" lon="0.97985">
        <ele>194</ele>
        <time>2011-12-26T08:35:28Z</time>
      </trkpt>
      <trkpt lat="44.54744" lon="0.97976">
        <ele>192</ele>
        <time>2011-12-26T08:35:28Z</time>
      </trkpt>
      <trkpt lat="44.54738" lon="0.9797">
        <ele>190</ele>
        <time>2011-12-26T08:35:29Z</time>
      </trkpt>
      <trkpt lat="44.54731" lon="0.97964">
        <ele>188</ele>
        <time>2011-12-26T08:35:30Z</time>
      </trkpt>
      <trkpt lat="44.5472" lon="0.97952">
        <ele>186</ele>
        <time>2011-12-26T08:35:35Z</time>
      </trkpt>
      <trkpt lat="44.54704" lon="0.97936">
        <ele>185</ele>
        <time>2011-12-26T08:35:35Z</time>
      </trkpt>
      <trkpt lat="44.54699" lon="0.97931">
        <ele>184</ele>
        <time>2011-12-26T08:35:36Z</time>
      </trkpt>
      <trkpt lat="44.54684" lon="0.97917">
        <ele>183</ele>
        <time>2011-12-26T08:35:41Z</time>
      </trkpt>
      <trkpt lat="44.54682" lon="0.97913">
        <ele>181</ele>
        <time>2011-12-26T08:35:43Z</time>
      </trkpt>
      <trkpt lat="44.54672" lon="0.97903">
        <ele>181</ele>
        <time>2011-12-26T08:35:48Z</time>
      </trkpt>
      <trkpt lat="44.54669" lon="0.97901">
        <ele>181</ele>
        <time>2011-12-26T08:35:49Z</time>
      </trkpt>
      <trkpt lat="44.54668" lon="0.979">
        <ele>181</ele>
        <time>2011-12-26T08:35:50Z</time>
      </trkpt>
      <trkpt lat="44.54665" lon="0.97898">
        <ele>181</ele>
        <time>2011-12-26T08:35:55Z</time>
      </trkpt>
      <trkpt lat="44.54662" lon="0.97896">
        <ele>181</ele>
        <time>2011-12-26T08:35:55Z</time>
      </trkpt>
      <trkpt lat="44.5466" lon="0.97895">
        <ele>181</ele>
        <time>2011-12-26T08:35:56Z</time>
      </trkpt>
      <trkpt lat="44.54653" lon="0.97891">
        <ele>181</ele>
        <time>2011-12-26T08:36:01Z</time>
      </trkpt>
      <trkpt lat="44.5465" lon="0.9789">
        <ele>181</ele>
        <time>2011-12-26T08:36:02Z</time>
      </trkpt>
      <trkpt lat="44.54645" lon="0.97886">
        <ele>181</ele>
        <time>2011-12-26T08:36:08Z</time>
      </trkpt>
      <trkpt lat="44.54636" lon="0.97882">
        <ele>181</ele>
        <time>2011-12-26T08:36:08Z</time>
      </trkpt>
      <trkpt lat="44.54633" lon="0.97879">
        <ele>181</ele>
        <time>2011-12-26T08:36:14Z</time>
      </trkpt>
      <trkpt lat="44.5463" lon="0.97875">
        <ele>181</ele>
        <time>2011-12-26T08:36:15Z</time>
      </trkpt>
      <trkpt lat="44.54629" lon="0.97874">
        <ele>181</ele>
        <time>2011-12-26T08:36:17Z</time>
      </trkpt>
      <trkpt lat="44.54626" lon="0.97871">
        <ele>181</ele>
        <time>2011-12-26T08:36:24Z</time>
      </trkpt>
      <trkpt lat="44.54628" lon="0.9787">
        <ele>182</ele>
        <time>2011-12-26T08:36:31Z</time>
      </trkpt>
      <trkpt lat="44.54628" lon="0.97867">
        <ele>186</ele>
        <time>2011-12-26T08:36:39Z</time>
      </trkpt>
      <trkpt lat="44.54626" lon="0.97867">
        <ele>188</ele>
        <time>2011-12-26T08:36:41Z</time>
      </trkpt>
      <trkpt lat="44.54623" lon="0.97867">
        <ele>190</ele>
        <time>2011-12-26T08:36:46Z</time>
      </trkpt>
      <trkpt lat="44.54623" lon="0.97869">
        <ele>191</ele>
        <time>2011-12-26T08:36:54Z</time>
      </trkpt>
      <trkpt lat="44.54623" lon="0.97871">
        <ele>190</ele>
        <time>2011-12-26T08:37:03Z</time>
      </trkpt>
      <trkpt lat="44.54621" lon="0.9787">
        <ele>187</ele>
        <time>2011-12-26T08:37:09Z</time>
      </trkpt>
      <trkpt lat="44.54619" lon="0.97875">
        <ele>181</ele>
        <time>2011-12-26T08:37:18Z</time>
      </trkpt>
      <trkpt lat="44.54617" lon="0.97877">
        <ele>179</ele>
        <time>2011-12-26T08:37:24Z</time>
      </trkpt>
      <trkpt lat="44.54616" lon="0.97878">
        <ele>177</ele>
        <time>2011-12-26T08:37:32Z</time>
      </trkpt>
      <trkpt lat="44.54617" lon="0.9788">
        <ele>177</ele>
        <time>2011-12-26T08:37:39Z</time>
      </trkpt>
      <trkpt lat="44.54618" lon="0.97879">
        <ele>178</ele>
        <time>2011-12-26T08:37:47Z</time>
      </trkpt>
      <trkpt lat="44.54619" lon="0.97878">
        <ele>180</ele>
        <time>2011-12-26T08:37:56Z</time>
      </trkpt>
      <trkpt lat="44.54618" lon="0.97876">
        <ele>180</ele>
        <time>2011-12-26T08:38:12Z</time>
      </trkpt>
      <trkpt lat="44.54617" lon="0.97875">
        <ele>180</ele>
        <time>2011-12-26T08:38:26Z</time>
      </trkpt>
      <trkpt lat="44.54618" lon="0.97874">
        <ele>179</ele>
        <time>2011-12-26T08:38:33Z</time>
      </trkpt>
      <trkpt lat="44.5462" lon="0.97875">
        <ele>179</ele>
        <time>2011-12-26T08:38:41Z</time>
      </trkpt>
      <trkpt lat="44.54621" lon="0.97875">
        <ele>180</ele>
        <time>2011-12-26T08:38:48Z</time>
      </trkpt>
      <trkpt lat="44.5462" lon="0.97879">
        <ele>181</ele>
        <time>2011-12-26T08:38:49Z</time>
      </trkpt>
      <trkpt lat="44.5462" lon="0.9788">
        <ele>185</ele>
        <time>2011-12-26T08:38:56Z</time>
      </trkpt>
      <trkpt lat="44.54621" lon="0.97878">
        <ele>187</ele>
        <time>2011-12-26T08:38:56Z</time>
      </trkpt>
      <trkpt lat="44.54621" lon="0.97876">
        <ele>190</ele>
        <time>2011-12-26T08:39:04Z</time>
      </trkpt>
      <trkpt lat="44.54621" lon="0.97871">
        <ele>191</ele>
        <time>2011-12-26T08:39:04Z</time>
      </trkpt>
      <trkpt lat="44.54622" lon="0.9787">
        <ele>191</ele>
        <time>2011-12-26T08:39:12Z</time>
      </trkpt>
      <trkpt lat="44.54617" lon="0.97866">
        <ele>191</ele>
        <time>2011-12-26T08:39:13Z</time>
      </trkpt>
      <trkpt lat="44.54613" lon="0.97864">
        <ele>191</ele>
        <time>2011-12-26T08:39:18Z</time>
      </trkpt>
      <trkpt lat="44.54606" lon="0.97859">
        <ele>191</ele>
        <time>2011-12-26T08:39:18Z</time>
      </trkpt>
      <trkpt lat="44.54604" lon="0.97857">
        <ele>191</ele>
        <time>2011-12-26T08:39:19Z</time>
      </trkpt>
      <trkpt lat="44.54599" lon="0.97854">
        <ele>191</ele>
        <time>2011-12-26T08:39:24Z</time>
      </trkpt>
      <trkpt lat="44.54592" lon="0.97849">
        <ele>191</ele>
        <time>2011-12-26T08:39:24Z</time>
      </trkpt>
      <trkpt lat="44.5459" lon="0.97847">
        <ele>191</ele>
        <time>2011-12-26T08:39:25Z</time>
      </trkpt>
      <trkpt lat="44.54578" lon="0.97837">
        <ele>191</ele>
        <time>2011-12-26T08:39:30Z</time>
      </trkpt>
      <trkpt lat="44.54575" lon="0.97834">
        <ele>190</ele>
        <time>2011-12-26T08:39:31Z</time>
      </trkpt>
      <trkpt lat="44.54573" lon="0.97833">
        <ele>189</ele>
        <time>2011-12-26T08:39:32Z</time>
      </trkpt>
      <trkpt lat="44.54568" lon="0.97829">
        <ele>189</ele>
        <time>2011-12-26T08:39:37Z</time>
      </trkpt>
      <trkpt lat="44.5456" lon="0.9782">
        <ele>189</ele>
        <time>2011-12-26T08:39:37Z</time>
      </trkpt>
      <trkpt lat="44.54557" lon="0.97816">
        <ele>189</ele>
        <time>2011-12-26T08:39:38Z</time>
      </trkpt>
      <trkpt lat="44.54552" lon="0.9781">
        <ele>189</ele>
        <time>2011-12-26T08:39:43Z</time>
      </trkpt>
      <trkpt lat="44.54542" lon="0.978">
        <ele>189</ele>
        <time>2011-12-26T08:39:44Z</time>
      </trkpt>
      <trkpt lat="44.5454" lon="0.97799">
        <ele>189</ele>
        <time>2011-12-26T08:39:45Z</time>
      </trkpt>
      <trkpt lat="44.54538" lon="0.97795">
        <ele>189</ele>
        <time>2011-12-26T08:39:50Z</time>
      </trkpt>
      <trkpt lat="44.54535" lon="0.97791">
        <ele>189</ele>
        <time>2011-12-26T08:39:59Z</time>
      </trkpt>
      <trkpt lat="44.54534" lon="0.97791">
        <ele>189</ele>
        <time>2011-12-26T08:40:06Z</time>
      </trkpt>
      <trkpt lat="44.54534" lon="0.97789">
        <ele>190</ele>
        <time>2011-12-26T08:40:10Z</time>
      </trkpt>
      <trkpt lat="44.54534" lon="0.97787">
        <ele>191</ele>
        <time>2011-12-26T08:40:15Z</time>
      </trkpt>
      <trkpt lat="44.54531" lon="0.97777">
        <ele>191</ele>
        <time>2011-12-26T08:40:16Z</time>
      </trkpt>
      <trkpt lat="44.54531" lon="0.97773">
        <ele>191</ele>
        <time>2011-12-26T08:40:17Z</time>
      </trkpt>
      <trkpt lat="44.54531" lon="0.97767">
        <ele>191</ele>
        <time>2011-12-26T08:40:22Z</time>
      </trkpt>
      <trkpt lat="44.5453" lon="0.97752">
        <ele>192</ele>
        <time>2011-12-26T08:40:22Z</time>
      </trkpt>
      <trkpt lat="44.54529" lon="0.97746">
        <ele>192</ele>
        <time>2011-12-26T08:40:23Z</time>
      </trkpt>
      <trkpt lat="44.54526" lon="0.97735">
        <ele>192</ele>
        <time>2011-12-26T08:40:28Z</time>
      </trkpt>
      <trkpt lat="44.54522" lon="0.97721">
        <ele>192</ele>
        <time>2011-12-26T08:40:28Z</time>
      </trkpt>
      <trkpt lat="44.54521" lon="0.97716">
        <ele>192</ele>
        <time>2011-12-26T08:40:29Z</time>
      </trkpt>
      <trkpt lat="44.54519" lon="0.97709">
        <ele>192</ele>
        <time>2011-12-26T08:40:34Z</time>
      </trkpt>
      <trkpt lat="44.54515" lon="0.97699">
        <ele>192</ele>
        <time>2011-12-26T08:40:35Z</time>
      </trkpt>
      <trkpt lat="44.54514" lon="0.97697">
        <ele>192</ele>
        <time>2011-12-26T08:40:36Z</time>
      </trkpt>
      <trkpt lat="44.54513" lon="0.97688">
        <ele>192</ele>
        <time>2011-12-26T08:40:41Z</time>
      </trkpt>
      <trkpt lat="44.5451" lon="0.97674">
        <ele>192</ele>
        <time>2011-12-26T08:40:41Z</time>
      </trkpt>
      <trkpt lat="44.5451" lon="0.97668">
        <ele>192</ele>
        <time>2011-12-26T08:40:42Z</time>
      </trkpt>
      <trkpt lat="44.54506" lon="0.97643">
        <ele>192</ele>
        <time>2011-12-26T08:40:47Z</time>
      </trkpt>
      <trkpt lat="44.54505" lon="0.97637">
        <ele>192</ele>
        <time>2011-12-26T08:40:48Z</time>
      </trkpt>
      <trkpt lat="44.54504" lon="0.97632">
        <ele>192</ele>
        <time>2011-12-26T08:40:49Z</time>
      </trkpt>
      <trkpt lat="44.54502" lon="0.97618">
        <ele>192</ele>
        <time>2011-12-26T08:40:54Z</time>
      </trkpt>
      <trkpt lat="44.54501" lon="0.97601">
        <ele>192</ele>
        <time>2011-12-26T08:40:54Z</time>
      </trkpt>
      <trkpt lat="44.54501" lon="0.97596">
        <ele>192</ele>
        <time>2011-12-26T08:40:55Z</time>
      </trkpt>
      <trkpt lat="44.54501" lon="0.97587">
        <ele>192</ele>
        <time>2011-12-26T08:41:00Z</time>
      </trkpt>
      <trkpt lat="44.54501" lon="0.97568">
        <ele>192</ele>
        <time>2011-12-26T08:41:01Z</time>
      </trkpt>
      <trkpt lat="44.54501" lon="0.97563">
        <ele>193</ele>
        <time>2011-12-26T08:41:02Z</time>
      </trkpt>
      <trkpt lat="44.54502" lon="0.97551">
        <ele>194</ele>
        <time>2011-12-26T08:41:07Z</time>
      </trkpt>
      <trkpt lat="44.54502" lon="0.97534">
        <ele>195</ele>
        <time>2011-12-26T08:41:07Z</time>
      </trkpt>
      <trkpt lat="44.54502" lon="0.9753">
        <ele>195</ele>
        <time>2011-12-26T08:41:08Z</time>
      </trkpt>
      <trkpt lat="44.54503" lon="0.97518">
        <ele>195</ele>
        <time>2011-12-26T08:41:13Z</time>
      </trkpt>
      <trkpt lat="44.54505" lon="0.97497">
        <ele>195</ele>
        <time>2011-12-26T08:41:14Z</time>
      </trkpt>
      <trkpt lat="44.54505" lon="0.97491">
        <ele>194</ele>
        <time>2011-12-26T08:41:15Z</time>
      </trkpt>
      <trkpt lat="44.54504" lon="0.97479">
        <ele>193</ele>
        <time>2011-12-26T08:41:20Z</time>
      </trkpt>
      <trkpt lat="44.54504" lon="0.97462">
        <ele>192</ele>
        <time>2011-12-26T08:41:20Z</time>
      </trkpt>
      <trkpt lat="44.54503" lon="0.97457">
        <ele>191</ele>
        <time>2011-12-26T08:41:21Z</time>
      </trkpt>
      <trkpt lat="44.54503" lon="0.97452">
        <ele>190</ele>
        <time>2011-12-26T08:41:22Z</time>
      </trkpt>
      <trkpt lat="44.54502" lon="0.97444">
        <ele>189</ele>
        <time>2011-12-26T08:41:27Z</time>
      </trkpt>
      <trkpt lat="44.545" lon="0.97429">
        <ele>188</ele>
        <time>2011-12-26T08:41:27Z</time>
      </trkpt>
      <trkpt lat="44.54499" lon="0.97423">
        <ele>187</ele>
        <time>2011-12-26T08:41:28Z</time>
      </trkpt>
      <trkpt lat="44.54498" lon="0.9741">
        <ele>186</ele>
        <time>2011-12-26T08:41:34Z</time>
      </trkpt>
      <trkpt lat="44.54496" lon="0.97385">
        <ele>185</ele>
        <time>2011-12-26T08:41:34Z</time>
      </trkpt>
      <trkpt lat="44.54495" lon="0.97377">
        <ele>184</ele>
        <time>2011-12-26T08:41:35Z</time>
      </trkpt>
      <trkpt lat="44.54494" lon="0.97364">
        <ele>184</ele>
        <time>2011-12-26T08:41:40Z</time>
      </trkpt>
      <trkpt lat="44.54493" lon="0.97346">
        <ele>184</ele>
        <time>2011-12-26T08:41:40Z</time>
      </trkpt>
      <trkpt lat="44.54493" lon="0.97339">
        <ele>184</ele>
        <time>2011-12-26T08:41:41Z</time>
      </trkpt>
      <trkpt lat="44.54491" lon="0.97326">
        <ele>184</ele>
        <time>2011-12-26T08:41:47Z</time>
      </trkpt>
      <trkpt lat="44.54488" lon="0.973">
        <ele>184</ele>
        <time>2011-12-26T08:41:47Z</time>
      </trkpt>
      <trkpt lat="44.54487" lon="0.97293">
        <ele>184</ele>
        <time>2011-12-26T08:41:48Z</time>
      </trkpt>
      <trkpt lat="44.54486" lon="0.97277">
        <ele>184</ele>
        <time>2011-12-26T08:41:53Z</time>
      </trkpt>
      <trkpt lat="44.54486" lon="0.97253">
        <ele>184</ele>
        <time>2011-12-26T08:41:53Z</time>
      </trkpt>
      <trkpt lat="44.54485" lon="0.97245">
        <ele>184</ele>
        <time>2011-12-26T08:41:54Z</time>
      </trkpt>
      <trkpt lat="44.54486" lon="0.97229">
        <ele>184</ele>
        <time>2011-12-26T08:42:00Z</time>
      </trkpt>
      <trkpt lat="44.54484" lon="0.972">
        <ele>184</ele>
        <time>2011-12-26T08:42:00Z</time>
      </trkpt>
      <trkpt lat="44.54483" lon="0.97194">
        <ele>184</ele>
        <time>2011-12-26T08:42:02Z</time>
      </trkpt>
      <trkpt lat="44.54481" lon="0.97189">
        <ele>184</ele>
        <time>2011-12-26T08:42:03Z</time>
      </trkpt>
      <trkpt lat="44.54478" lon="0.97183">
        <ele>184</ele>
        <time>2011-12-26T08:42:07Z</time>
      </trkpt>
      <trkpt lat="44.54475" lon="0.97179">
        <ele>183</ele>
        <time>2011-12-26T08:42:08Z</time>
      </trkpt>
      <trkpt lat="44.54474" lon="0.97177">
        <ele>183</ele>
        <time>2011-12-26T08:42:16Z</time>
      </trkpt>
      <trkpt lat="44.54478" lon="0.97187">
        <ele>183</ele>
        <time>2011-12-26T08:42:23Z</time>
      </trkpt>
      <trkpt lat="44.54479" lon="0.9719">
        <ele>183</ele>
        <time>2011-12-26T08:42:25Z</time>
      </trkpt>
      <trkpt lat="44.5448" lon="0.97193">
        <ele>183</ele>
        <time>2011-12-26T08:42:25Z</time>
      </trkpt>
      <trkpt lat="44.54483" lon="0.97199">
        <ele>183</ele>
        <time>2011-12-26T08:42:30Z</time>
      </trkpt>
      <trkpt lat="44.54491" lon="0.97208">
        <ele>183</ele>
        <time>2011-12-26T08:42:30Z</time>
      </trkpt>
      <trkpt lat="44.54493" lon="0.9721">
        <ele>183</ele>
        <time>2011-12-26T08:42:32Z</time>
      </trkpt>
      <trkpt lat="44.54496" lon="0.97211">
        <ele>183</ele>
        <time>2011-12-26T08:42:32Z</time>
      </trkpt>
      <trkpt lat="44.54512" lon="0.97216">
        <ele>183</ele>
        <time>2011-12-26T08:42:37Z</time>
      </trkpt>
      <trkpt lat="44.54515" lon="0.97216">
        <ele>183</ele>
        <time>2011-12-26T08:42:38Z</time>
      </trkpt>
      <trkpt lat="44.54517" lon="0.97216">
        <ele>183</ele>
        <time>2011-12-26T08:42:40Z</time>
      </trkpt>
      <trkpt lat="44.54522" lon="0.97216">
        <ele>183</ele>
        <time>2011-12-26T08:42:45Z</time>
      </trkpt>
      <trkpt lat="44.54533" lon="0.97218">
        <ele>183</ele>
        <time>2011-12-26T08:42:45Z</time>
      </trkpt>
      <trkpt lat="44.54536" lon="0.97218">
        <ele>183</ele>
        <time>2011-12-26T08:42:46Z</time>
      </trkpt>
      <trkpt lat="44.54543" lon="0.97216">
        <ele>183</ele>
        <time>2011-12-26T08:42:51Z</time>
      </trkpt>
      <trkpt lat="44.5455" lon="0.97215">
        <ele>183</ele>
        <time>2011-12-26T08:42:51Z</time>
      </trkpt>
      <trkpt lat="44.54553" lon="0.97215">
        <ele>183</ele>
        <time>2011-12-26T08:42:52Z</time>
      </trkpt>
      <trkpt lat="44.54559" lon="0.97215">
        <ele>183</ele>
        <time>2011-12-26T08:42:58Z</time>
      </trkpt>
      <trkpt lat="44.54564" lon="0.97217">
        <ele>184</ele>
        <time>2011-12-26T08:42:58Z</time>
      </trkpt>
      <trkpt lat="44.54565" lon="0.97218">
        <ele>186</ele>
        <time>2011-12-26T08:43:01Z</time>
      </trkpt>
      <trkpt lat="44.54563" lon="0.97218">
        <ele>188</ele>
        <time>2011-12-26T08:43:16Z</time>
      </trkpt>
      <trkpt lat="44.54559" lon="0.97216">
        <ele>191</ele>
        <time>2011-12-26T08:43:24Z</time>
      </trkpt>
      <trkpt lat="44.54549" lon="0.97215">
        <ele>191</ele>
        <time>2011-12-26T08:43:24Z</time>
      </trkpt>
      <trkpt lat="44.54546" lon="0.97215">
        <ele>191</ele>
        <time>2011-12-26T08:43:26Z</time>
      </trkpt>
      <trkpt lat="44.5454" lon="0.97215">
        <ele>191</ele>
        <time>2011-12-26T08:43:30Z</time>
      </trkpt>
      <trkpt lat="44.54523" lon="0.97215">
        <ele>191</ele>
        <time>2011-12-26T08:43:31Z</time>
      </trkpt>
      <trkpt lat="44.54518" lon="0.97217">
        <ele>190</ele>
        <time>2011-12-26T08:43:32Z</time>
      </trkpt>
      <trkpt lat="44.54509" lon="0.97218">
        <ele>189</ele>
        <time>2011-12-26T08:43:37Z</time>
      </trkpt>
      <trkpt lat="44.54497" lon="0.97213">
        <ele>188</ele>
        <time>2011-12-26T08:43:37Z</time>
      </trkpt>
      <trkpt lat="44.54493" lon="0.97212">
        <ele>187</ele>
        <time>2011-12-26T08:43:38Z</time>
      </trkpt>
      <trkpt lat="44.5449" lon="0.9721">
        <ele>186</ele>
        <time>2011-12-26T08:43:39Z</time>
      </trkpt>
      <trkpt lat="44.54486" lon="0.97203">
        <ele>185</ele>
        <time>2011-12-26T08:43:45Z</time>
      </trkpt>
      <trkpt lat="44.5448" lon="0.97188">
        <ele>184</ele>
        <time>2011-12-26T08:43:46Z</time>
      </trkpt>
      <trkpt lat="44.5448" lon="0.97185">
        <ele>183</ele>
        <time>2011-12-26T08:43:48Z</time>
      </trkpt>
      <trkpt lat="44.5448" lon="0.97179">
        <ele>182</ele>
        <time>2011-12-26T08:43:53Z</time>
      </trkpt>
      <trkpt lat="44.5448" lon="0.97163">
        <ele>182</ele>
        <time>2011-12-26T08:43:54Z</time>
      </trkpt>
      <trkpt lat="44.54482" lon="0.9716">
        <ele>182</ele>
        <time>2011-12-26T08:43:54Z</time>
      </trkpt>
      <trkpt lat="44.54483" lon="0.97156">
        <ele>182</ele>
        <time>2011-12-26T08:43:56Z</time>
      </trkpt>
      <trkpt lat="44.54486" lon="0.97149">
        <ele>182</ele>
        <time>2011-12-26T08:44:00Z</time>
      </trkpt>
      <trkpt lat="44.54491" lon="0.97131">
        <ele>183</ele>
        <time>2011-12-26T08:44:01Z</time>
      </trkpt>
      <trkpt lat="44.54492" lon="0.97127">
        <ele>184</ele>
        <time>2011-12-26T08:44:02Z</time>
      </trkpt>
      <trkpt lat="44.54494" lon="0.97117">
        <ele>185</ele>
        <time>2011-12-26T08:44:07Z</time>
      </trkpt>
      <trkpt lat="44.54499" lon="0.97103">
        <ele>186</ele>
        <time>2011-12-26T08:44:07Z</time>
      </trkpt>
      <trkpt lat="44.545" lon="0.97098">
        <ele>187</ele>
        <time>2011-12-26T08:44:08Z</time>
      </trkpt>
      <trkpt lat="44.54502" lon="0.97088">
        <ele>188</ele>
        <time>2011-12-26T08:44:14Z</time>
      </trkpt>
      <trkpt lat="44.54511" lon="0.97064">
        <ele>189</ele>
        <time>2011-12-26T08:44:14Z</time>
      </trkpt>
      <trkpt lat="44.54512" lon="0.97058">
        <ele>190</ele>
        <time>2011-12-26T08:44:15Z</time>
      </trkpt>
      <trkpt lat="44.54517" lon="0.97048">
        <ele>191</ele>
        <time>2011-12-26T08:44:20Z</time>
      </trkpt>
      <trkpt lat="44.54525" lon="0.97023">
        <ele>192</ele>
        <time>2011-12-26T08:44:21Z</time>
      </trkpt>
      <trkpt lat="44.54527" lon="0.97018">
        <ele>192</ele>
        <time>2011-12-26T08:44:22Z</time>
      </trkpt>
      <trkpt lat="44.54535" lon="0.96986">
        <ele>192</ele>
        <time>2011-12-26T08:44:27Z</time>
      </trkpt>
      <trkpt lat="44.54537" lon="0.9698">
        <ele>192</ele>
        <time>2011-12-26T08:44:28Z</time>
      </trkpt>
      <trkpt lat="44.5454" lon="0.96968">
        <ele>192</ele>
        <time>2011-12-26T08:44:34Z</time>
      </trkpt>
      <trkpt lat="44.54546" lon="0.96943">
        <ele>192</ele>
        <time>2011-12-26T08:44:34Z</time>
      </trkpt>
      <trkpt lat="44.54548" lon="0.96937">
        <ele>192</ele>
        <time>2011-12-26T08:44:35Z</time>
      </trkpt>
      <trkpt lat="44.5455" lon="0.96925">
        <ele>192</ele>
        <time>2011-12-26T08:44:41Z</time>
      </trkpt>
      <trkpt lat="44.54555" lon="0.96904">
        <ele>192</ele>
        <time>2011-12-26T08:44:41Z</time>
      </trkpt>
      <trkpt lat="44.54556" lon="0.969">
        <ele>192</ele>
        <time>2011-12-26T08:44:42Z</time>
      </trkpt>
      <trkpt lat="44.54558" lon="0.96881">
        <ele>192</ele>
        <time>2011-12-26T08:44:47Z</time>
      </trkpt>
      <trkpt lat="44.54559" lon="0.96878">
        <ele>193</ele>
        <time>2011-12-26T08:44:48Z</time>
      </trkpt>
      <trkpt lat="44.5456" lon="0.96875">
        <ele>194</ele>
        <time>2011-12-26T08:44:49Z</time>
      </trkpt>
      <trkpt lat="44.54564" lon="0.9686">
        <ele>195</ele>
        <time>2011-12-26T08:44:55Z</time>
      </trkpt>
      <trkpt lat="44.54565" lon="0.96855">
        <ele>195</ele>
        <time>2011-12-26T08:44:56Z</time>
      </trkpt>
      <trkpt lat="44.54565" lon="0.96852">
        <ele>195</ele>
        <time>2011-12-26T08:44:57Z</time>
      </trkpt>
      <trkpt lat="44.54566" lon="0.96844">
        <ele>195</ele>
        <time>2011-12-26T08:45:02Z</time>
      </trkpt>
      <trkpt lat="44.54571" lon="0.96821">
        <ele>195</ele>
        <time>2011-12-26T08:45:03Z</time>
      </trkpt>
      <trkpt lat="44.54572" lon="0.96814">
        <ele>195</ele>
        <time>2011-12-26T08:45:04Z</time>
      </trkpt>
      <trkpt lat="44.54576" lon="0.96781">
        <ele>195</ele>
        <time>2011-12-26T08:45:09Z</time>
      </trkpt>
      <trkpt lat="44.54577" lon="0.96775">
        <ele>194</ele>
        <time>2011-12-26T08:45:10Z</time>
      </trkpt>
      <trkpt lat="44.5458" lon="0.96761">
        <ele>193</ele>
        <time>2011-12-26T08:45:16Z</time>
      </trkpt>
      <trkpt lat="44.54585" lon="0.96735">
        <ele>193</ele>
        <time>2011-12-26T08:45:16Z</time>
      </trkpt>
      <trkpt lat="44.54586" lon="0.96729">
        <ele>193</ele>
        <time>2011-12-26T08:45:17Z</time>
      </trkpt>
      <trkpt lat="44.54588" lon="0.96717">
        <ele>193</ele>
        <time>2011-12-26T08:45:23Z</time>
      </trkpt>
      <trkpt lat="44.54591" lon="0.9669">
        <ele>193</ele>
        <time>2011-12-26T08:45:23Z</time>
      </trkpt>
      <trkpt lat="44.54591" lon="0.96684">
        <ele>193</ele>
        <time>2011-12-26T08:45:24Z</time>
      </trkpt>
      <trkpt lat="44.54592" lon="0.96671">
        <ele>193</ele>
        <time>2011-12-26T08:45:29Z</time>
      </trkpt>
      <trkpt lat="44.54591" lon="0.96647">
        <ele>193</ele>
        <time>2011-12-26T08:45:30Z</time>
      </trkpt>
      <trkpt lat="44.5459" lon="0.96639">
        <ele>193</ele>
        <time>2011-12-26T08:45:31Z</time>
      </trkpt>
      <trkpt lat="44.54591" lon="0.96605">
        <ele>193</ele>
        <time>2011-12-26T08:45:36Z</time>
      </trkpt>
      <trkpt lat="44.5459" lon="0.96597">
        <ele>193</ele>
        <time>2011-12-26T08:45:37Z</time>
      </trkpt>
      <trkpt lat="44.54589" lon="0.96584">
        <ele>193</ele>
        <time>2011-12-26T08:45:43Z</time>
      </trkpt>
      <trkpt lat="44.54599" lon="0.96573">
        <ele>193</ele>
        <time>2011-12-26T08:45:43Z</time>
      </trkpt>
      <trkpt lat="44.54603" lon="0.96574">
        <ele>193</ele>
        <time>2011-12-26T08:45:44Z</time>
      </trkpt>
      <trkpt lat="44.54607" lon="0.96576">
        <ele>193</ele>
        <time>2011-12-26T08:45:45Z</time>
      </trkpt>
      <trkpt lat="44.54626" lon="0.96583">
        <ele>192</ele>
        <time>2011-12-26T08:45:50Z</time>
      </trkpt>
      <trkpt lat="44.5463" lon="0.96583">
        <ele>191</ele>
        <time>2011-12-26T08:45:51Z</time>
      </trkpt>
      <trkpt lat="44.54638" lon="0.96585">
        <ele>190</ele>
        <time>2011-12-26T08:45:57Z</time>
      </trkpt>
      <trkpt lat="44.54655" lon="0.96584">
        <ele>189</ele>
        <time>2011-12-26T08:45:57Z</time>
      </trkpt>
      <trkpt lat="44.54659" lon="0.96582">
        <ele>188</ele>
        <time>2011-12-26T08:45:58Z</time>
      </trkpt>
      <trkpt lat="44.54663" lon="0.96578">
        <ele>187</ele>
        <time>2011-12-26T08:45:59Z</time>
      </trkpt>
      <trkpt lat="44.5467" lon="0.96569">
        <ele>187</ele>
        <time>2011-12-26T08:46:06Z</time>
      </trkpt>
      <trkpt lat="44.54688" lon="0.96547">
        <ele>187</ele>
        <time>2011-12-26T08:46:06Z</time>
      </trkpt>
      <trkpt lat="44.54696" lon="0.96535">
        <ele>187</ele>
        <time>2011-12-26T08:46:12Z</time>
      </trkpt>
      <trkpt lat="44.54708" lon="0.96507">
        <ele>187</ele>
        <time>2011-12-26T08:46:12Z</time>
      </trkpt>
      <trkpt lat="44.54711" lon="0.965">
        <ele>186</ele>
        <time>2011-12-26T08:46:13Z</time>
      </trkpt>
      <trkpt lat="44.54714" lon="0.96493">
        <ele>185</ele>
        <time>2011-12-26T08:46:14Z</time>
      </trkpt>
      <trkpt lat="44.54718" lon="0.96458">
        <ele>184</ele>
        <time>2011-12-26T08:46:19Z</time>
      </trkpt>
      <trkpt lat="44.54716" lon="0.96451">
        <ele>183</ele>
        <time>2011-12-26T08:46:21Z</time>
      </trkpt>
      <trkpt lat="44.54713" lon="0.96445">
        <ele>182</ele>
        <time>2011-12-26T08:46:21Z</time>
      </trkpt>
      <trkpt lat="44.54706" lon="0.96432">
        <ele>181</ele>
        <time>2011-12-26T08:46:27Z</time>
      </trkpt>
      <trkpt lat="44.54692" lon="0.96405">
        <ele>181</ele>
        <time>2011-12-26T08:46:27Z</time>
      </trkpt>
      <trkpt lat="44.54689" lon="0.96399">
        <ele>181</ele>
        <time>2011-12-26T08:46:28Z</time>
      </trkpt>
      <trkpt lat="44.54679" lon="0.96383">
        <ele>181</ele>
        <time>2011-12-26T08:46:33Z</time>
      </trkpt>
      <trkpt lat="44.54662" lon="0.96342">
        <ele>181</ele>
        <time>2011-12-26T08:46:34Z</time>
      </trkpt>
      <trkpt lat="44.54659" lon="0.96332">
        <ele>181</ele>
        <time>2011-12-26T08:46:35Z</time>
      </trkpt>
      <trkpt lat="44.54641" lon="0.96295">
        <ele>180</ele>
        <time>2011-12-26T08:46:40Z</time>
      </trkpt>
      <trkpt lat="44.54636" lon="0.96291">
        <ele>179</ele>
        <time>2011-12-26T08:46:41Z</time>
      </trkpt>
      <trkpt lat="44.54631" lon="0.96288">
        <ele>179</ele>
        <time>2011-12-26T08:46:43Z</time>
      </trkpt>
      <trkpt lat="44.54624" lon="0.9628">
        <ele>179</ele>
        <time>2011-12-26T08:46:48Z</time>
      </trkpt>
      <trkpt lat="44.54618" lon="0.9626">
        <ele>179</ele>
        <time>2011-12-26T08:46:48Z</time>
      </trkpt>
      <trkpt lat="44.54616" lon="0.96254">
        <ele>179</ele>
        <time>2011-12-26T08:46:49Z</time>
      </trkpt>
      <trkpt lat="44.54615" lon="0.96249">
        <ele>179</ele>
        <time>2011-12-26T08:46:51Z</time>
      </trkpt>
      <trkpt lat="44.54612" lon="0.9624">
        <ele>179</ele>
        <time>2011-12-26T08:46:56Z</time>
      </trkpt>
      <trkpt lat="44.54606" lon="0.96222">
        <ele>179</ele>
        <time>2011-12-26T08:46:56Z</time>
      </trkpt>
      <trkpt lat="44.54605" lon="0.96218">
        <ele>180</ele>
        <time>2011-12-26T08:46:57Z</time>
      </trkpt>
      <trkpt lat="44.54604" lon="0.9621">
        <ele>181</ele>
        <time>2011-12-26T08:47:03Z</time>
      </trkpt>
      <trkpt lat="44.54602" lon="0.96187">
        <ele>182</ele>
        <time>2011-12-26T08:47:03Z</time>
      </trkpt>
      <trkpt lat="44.54601" lon="0.96181">
        <ele>183</ele>
        <time>2011-12-26T08:47:04Z</time>
      </trkpt>
      <trkpt lat="44.546" lon="0.9617">
        <ele>184</ele>
        <time>2011-12-26T08:47:10Z</time>
      </trkpt>
      <trkpt lat="44.54599" lon="0.9615">
        <ele>185</ele>
        <time>2011-12-26T08:47:10Z</time>
      </trkpt>
      <trkpt lat="44.546" lon="0.96147">
        <ele>186</ele>
        <time>2011-12-26T08:47:12Z</time>
      </trkpt>
      <trkpt lat="44.54602" lon="0.96143">
        <ele>187</ele>
        <time>2011-12-26T08:47:12Z</time>
      </trkpt>
      <trkpt lat="44.54608" lon="0.9614">
        <ele>188</ele>
        <time>2011-12-26T08:47:19Z</time>
      </trkpt>
      <trkpt lat="44.54625" lon="0.96137">
        <ele>189</ele>
        <time>2011-12-26T08:47:20Z</time>
      </trkpt>
      <trkpt lat="44.54628" lon="0.96137">
        <ele>190</ele>
        <time>2011-12-26T08:47:21Z</time>
      </trkpt>
      <trkpt lat="44.54631" lon="0.96137">
        <ele>191</ele>
        <time>2011-12-26T08:47:22Z</time>
      </trkpt>
      <trkpt lat="44.54639" lon="0.96139">
        <ele>192</ele>
        <time>2011-12-26T08:47:27Z</time>
      </trkpt>
      <trkpt lat="44.54652" lon="0.96139">
        <ele>193</ele>
        <time>2011-12-26T08:47:27Z</time>
      </trkpt>
      <trkpt lat="44.54654" lon="0.96138">
        <ele>194</ele>
        <time>2011-12-26T08:47:29Z</time>
      </trkpt>
      <trkpt lat="44.54655" lon="0.96138">
        <ele>194</ele>
        <time>2011-12-26T08:47:34Z</time>
      </trkpt>
      <trkpt lat="44.54656" lon="0.96137">
        <ele>194</ele>
        <time>2011-12-26T08:47:37Z</time>
      </trkpt>
      <trkpt lat="44.54649" lon="0.96134">
        <ele>194</ele>
        <time>2011-12-26T08:47:43Z</time>
      </trkpt>
      <trkpt lat="44.54647" lon="0.96133">
        <ele>193</ele>
        <time>2011-12-26T08:47:45Z</time>
      </trkpt>
      <trkpt lat="44.54644" lon="0.96132">
        <ele>192</ele>
        <time>2011-12-26T08:47:45Z</time>
      </trkpt>
      <trkpt lat="44.54638" lon="0.96131">
        <ele>191</ele>
        <time>2011-12-26T08:47:51Z</time>
      </trkpt>
      <trkpt lat="44.54624" lon="0.9613">
        <ele>190</ele>
        <time>2011-12-26T08:47:51Z</time>
      </trkpt>
      <trkpt lat="44.5462" lon="0.9613">
        <ele>189</ele>
        <time>2011-12-26T08:47:52Z</time>
      </trkpt>
      <trkpt lat="44.54614" lon="0.96131">
        <ele>188</ele>
        <time>2011-12-26T08:47:58Z</time>
      </trkpt>
      <trkpt lat="44.54605" lon="0.96127">
        <ele>187</ele>
        <time>2011-12-26T08:47:59Z</time>
      </trkpt>
      <trkpt lat="44.54604" lon="0.96122">
        <ele>186</ele>
        <time>2011-12-26T08:47:59Z</time>
      </trkpt>
      <trkpt lat="44.54602" lon="0.96119">
        <ele>185</ele>
        <time>2011-12-26T08:48:00Z</time>
      </trkpt>
      <trkpt lat="44.54597" lon="0.96111">
        <ele>184</ele>
        <time>2011-12-26T08:48:05Z</time>
      </trkpt>
      <trkpt lat="44.54586" lon="0.96092">
        <ele>183</ele>
        <time>2011-12-26T08:48:07Z</time>
      </trkpt>
      <trkpt lat="44.54585" lon="0.96087">
        <ele>183</ele>
        <time>2011-12-26T08:48:08Z</time>
      </trkpt>
      <trkpt lat="44.54584" lon="0.9608">
        <ele>182</ele>
        <time>2011-12-26T08:48:08Z</time>
      </trkpt>
      <trkpt lat="44.54582" lon="0.96067">
        <ele>182</ele>
        <time>2011-12-26T08:48:15Z</time>
      </trkpt>
      <trkpt lat="44.54579" lon="0.96036">
        <ele>182</ele>
        <time>2011-12-26T08:48:15Z</time>
      </trkpt>
      <trkpt lat="44.54576" lon="0.96024">
        <ele>182</ele>
        <time>2011-12-26T08:48:21Z</time>
      </trkpt>
      <trkpt lat="44.54571" lon="0.96003">
        <ele>182</ele>
        <time>2011-12-26T08:48:21Z</time>
      </trkpt>
      <trkpt lat="44.54569" lon="0.95996">
        <ele>182</ele>
        <time>2011-12-26T08:48:22Z</time>
      </trkpt>
      <trkpt lat="44.54568" lon="0.95982">
        <ele>183</ele>
        <time>2011-12-26T08:48:28Z</time>
      </trkpt>
      <trkpt lat="44.54572" lon="0.95947">
        <ele>184</ele>
        <time>2011-12-26T08:48:28Z</time>
      </trkpt>
      <trkpt lat="44.54575" lon="0.95938">
        <ele>184</ele>
        <time>2011-12-26T08:48:29Z</time>
      </trkpt>
      <trkpt lat="44.54577" lon="0.95927">
        <ele>184</ele>
        <time>2011-12-26T08:48:31Z</time>
      </trkpt>
      <trkpt lat="44.54583" lon="0.95906">
        <ele>184</ele>
        <time>2011-12-26T08:48:36Z</time>
      </trkpt>
      <trkpt lat="44.54593" lon="0.9587">
        <ele>184</ele>
        <time>2011-12-26T08:48:36Z</time>
      </trkpt>
      <trkpt lat="44.54595" lon="0.95863">
        <ele>184</ele>
        <time>2011-12-26T08:48:37Z</time>
      </trkpt>
      <trkpt lat="44.54599" lon="0.95857">
        <ele>184</ele>
        <time>2011-12-26T08:48:39Z</time>
      </trkpt>
      <trkpt lat="44.54604" lon="0.95843">
        <ele>185</ele>
        <time>2011-12-26T08:48:44Z</time>
      </trkpt>
      <trkpt lat="44.54617" lon="0.95813">
        <ele>186</ele>
        <time>2011-12-26T08:48:44Z</time>
      </trkpt>
      <trkpt lat="44.54621" lon="0.95806">
        <ele>186</ele>
        <time>2011-12-26T08:48:45Z</time>
      </trkpt>
      <trkpt lat="44.54626" lon="0.95792">
        <ele>186</ele>
        <time>2011-12-26T08:48:51Z</time>
      </trkpt>
      <trkpt lat="44.54628" lon="0.95772">
        <ele>186</ele>
        <time>2011-12-26T08:48:51Z</time>
      </trkpt>
      <trkpt lat="44.54628" lon="0.9577">
        <ele>185</ele>
        <time>2011-12-26T08:48:52Z</time>
      </trkpt>
      <trkpt lat="44.54627" lon="0.95767">
        <ele>184</ele>
        <time>2011-12-26T08:48:54Z</time>
      </trkpt>
      <trkpt lat="44.54626" lon="0.95765">
        <ele>183</ele>
        <time>2011-12-26T08:49:00Z</time>
      </trkpt>
      <trkpt lat="44.54625" lon="0.95762">
        <ele>182</ele>
        <time>2011-12-26T08:49:01Z</time>
      </trkpt>
      <trkpt lat="44.54627" lon="0.95762">
        <ele>180</ele>
        <time>2011-12-26T08:49:17Z</time>
      </trkpt>
      <trkpt lat="44.54625" lon="0.95762">
        <ele>180</ele>
        <time>2011-12-26T08:49:19Z</time>
      </trkpt>
      <trkpt lat="44.54623" lon="0.95763">
        <ele>181</ele>
        <time>2011-12-26T08:49:27Z</time>
      </trkpt>
      <trkpt lat="44.54624" lon="0.95765">
        <ele>182</ele>
        <time>2011-12-26T08:49:35Z</time>
      </trkpt>
      <trkpt lat="44.54627" lon="0.95765">
        <ele>182</ele>
        <time>2011-12-26T08:50:03Z</time>
      </trkpt>
      <trkpt lat="44.54631" lon="0.95754">
        <ele>182</ele>
        <time>2011-12-26T08:50:11Z</time>
      </trkpt>
      <trkpt lat="44.54631" lon="0.95751">
        <ele>182</ele>
        <time>2011-12-26T08:50:11Z</time>
      </trkpt>
      <trkpt lat="44.54633" lon="0.95748">
        <ele>182</ele>
        <time>2011-12-26T08:50:12Z</time>
      </trkpt>
      <trkpt lat="44.54635" lon="0.95741">
        <ele>182</ele>
        <time>2011-12-26T08:50:18Z</time>
      </trkpt>
      <trkpt lat="44.54641" lon="0.95722">
        <ele>182</ele>
        <time>2011-12-26T08:50:18Z</time>
      </trkpt>
      <trkpt lat="44.54644" lon="0.95717">
        <ele>182</ele>
        <time>2011-12-26T08:50:19Z</time>
      </trkpt>
      <trkpt lat="44.54649" lon="0.95708">
        <ele>182</ele>
        <time>2011-12-26T08:50:25Z</time>
      </trkpt>
      <trkpt lat="44.5466" lon="0.95684">
        <ele>182</ele>
        <time>2011-12-26T08:50:26Z</time>
      </trkpt>
      <trkpt lat="44.54663" lon="0.95678">
        <ele>181</ele>
        <time>2011-12-26T08:50:26Z</time>
      </trkpt>
      <trkpt lat="44.54666" lon="0.95672">
        <ele>180</ele>
        <time>2011-12-26T08:50:27Z</time>
      </trkpt>
      <trkpt lat="44.5467" lon="0.9566">
        <ele>179</ele>
        <time>2011-12-26T08:50:33Z</time>
      </trkpt>
      <trkpt lat="44.5468" lon="0.95634">
        <ele>178</ele>
        <time>2011-12-26T08:50:33Z</time>
      </trkpt>
      <trkpt lat="44.54682" lon="0.95627">
        <ele>177</ele>
        <time>2011-12-26T08:50:34Z</time>
      </trkpt>
      <trkpt lat="44.54686" lon="0.95615">
        <ele>176</ele>
        <time>2011-12-26T08:50:40Z</time>
      </trkpt>
      <trkpt lat="44.54697" lon="0.95587">
        <ele>175</ele>
        <time>2011-12-26T08:50:40Z</time>
      </trkpt>
      <trkpt lat="44.54699" lon="0.95579">
        <ele>173</ele>
        <time>2011-12-26T08:50:41Z</time>
      </trkpt>
      <trkpt lat="44.54705" lon="0.95565">
        <ele>171</ele>
        <time>2011-12-26T08:50:47Z</time>
      </trkpt>
      <trkpt lat="44.54714" lon="0.95529">
        <ele>169</ele>
        <time>2011-12-26T08:50:47Z</time>
      </trkpt>
      <trkpt lat="44.54716" lon="0.95519">
        <ele>168</ele>
        <time>2011-12-26T08:50:48Z</time>
      </trkpt>
      <trkpt lat="44.54718" lon="0.95502">
        <ele>166</ele>
        <time>2011-12-26T08:50:54Z</time>
      </trkpt>
      <trkpt lat="44.54719" lon="0.95469">
        <ele>165</ele>
        <time>2011-12-26T08:50:54Z</time>
      </trkpt>
      <trkpt lat="44.54719" lon="0.9546">
        <ele>163</ele>
        <time>2011-12-26T08:50:55Z</time>
      </trkpt>
      <trkpt lat="44.54721" lon="0.95444">
        <ele>162</ele>
        <time>2011-12-26T08:51:01Z</time>
      </trkpt>
      <trkpt lat="44.54722" lon="0.95407">
        <ele>161</ele>
        <time>2011-12-26T08:51:01Z</time>
      </trkpt>
      <trkpt lat="44.54723" lon="0.95398">
        <ele>160</ele>
        <time>2011-12-26T08:51:02Z</time>
      </trkpt>
      <trkpt lat="44.54724" lon="0.95383">
        <ele>159</ele>
        <time>2011-12-26T08:51:08Z</time>
      </trkpt>
      <trkpt lat="44.54726" lon="0.95354">
        <ele>158</ele>
        <time>2011-12-26T08:51:08Z</time>
      </trkpt>
      <trkpt lat="44.54726" lon="0.95346">
        <ele>157</ele>
        <time>2011-12-26T08:51:09Z</time>
      </trkpt>
      <trkpt lat="44.54736" lon="0.95308">
        <ele>156</ele>
        <time>2011-12-26T08:51:15Z</time>
      </trkpt>
      <trkpt lat="44.54739" lon="0.95301">
        <ele>155</ele>
        <time>2011-12-26T08:51:17Z</time>
      </trkpt>
      <trkpt lat="44.54741" lon="0.95295">
        <ele>155</ele>
        <time>2011-12-26T08:51:17Z</time>
      </trkpt>
      <trkpt lat="44.54745" lon="0.9528">
        <ele>155</ele>
        <time>2011-12-26T08:51:23Z</time>
      </trkpt>
      <trkpt lat="44.54751" lon="0.95248">
        <ele>155</ele>
        <time>2011-12-26T08:51:23Z</time>
      </trkpt>
      <trkpt lat="44.54752" lon="0.9524">
        <ele>155</ele>
        <time>2011-12-26T08:51:24Z</time>
      </trkpt>
      <trkpt lat="44.54746" lon="0.95206">
        <ele>155</ele>
        <time>2011-12-26T08:51:30Z</time>
      </trkpt>
      <trkpt lat="44.54744" lon="0.95203">
        <ele>154</ele>
        <time>2011-12-26T08:51:32Z</time>
      </trkpt>
      <trkpt lat="44.54741" lon="0.95199">
        <ele>153</ele>
        <time>2011-12-26T08:51:33Z</time>
      </trkpt>
      <trkpt lat="44.54728" lon="0.95171">
        <ele>152</ele>
        <time>2011-12-26T08:51:38Z</time>
      </trkpt>
      <trkpt lat="44.54726" lon="0.95165">
        <ele>151</ele>
        <time>2011-12-26T08:51:40Z</time>
      </trkpt>
      <trkpt lat="44.54726" lon="0.9516">
        <ele>150</ele>
        <time>2011-12-26T08:51:40Z</time>
      </trkpt>
      <trkpt lat="44.54724" lon="0.95152">
        <ele>149</ele>
        <time>2011-12-26T08:51:46Z</time>
      </trkpt>
      <trkpt lat="44.54726" lon="0.95136">
        <ele>148</ele>
        <time>2011-12-26T08:51:46Z</time>
      </trkpt>
      <trkpt lat="44.54728" lon="0.95133">
        <ele>147</ele>
        <time>2011-12-26T08:51:47Z</time>
      </trkpt>
      <trkpt lat="44.54729" lon="0.9513">
        <ele>146</ele>
        <time>2011-12-26T08:51:48Z</time>
      </trkpt>
      <trkpt lat="44.54731" lon="0.95125">
        <ele>145</ele>
        <time>2011-12-26T08:51:54Z</time>
      </trkpt>
      <trkpt lat="44.54722" lon="0.9512">
        <ele>144</ele>
        <time>2011-12-26T08:51:54Z</time>
      </trkpt>
      <trkpt lat="44.54718" lon="0.95121">
        <ele>143</ele>
        <time>2011-12-26T08:51:55Z</time>
      </trkpt>
      <trkpt lat="44.54714" lon="0.9512">
        <ele>142</ele>
        <time>2011-12-26T08:51:56Z</time>
      </trkpt>
      <trkpt lat="44.54706" lon="0.95118">
        <ele>141</ele>
        <time>2011-12-26T08:52:02Z</time>
      </trkpt>
      <trkpt lat="44.54689" lon="0.95114">
        <ele>140</ele>
        <time>2011-12-26T08:52:02Z</time>
      </trkpt>
      <trkpt lat="44.54685" lon="0.95112">
        <ele>139</ele>
        <time>2011-12-26T08:52:03Z</time>
      </trkpt>
      <trkpt lat="44.54675" lon="0.95108">
        <ele>138</ele>
        <time>2011-12-26T08:52:09Z</time>
      </trkpt>
      <trkpt lat="44.54657" lon="0.95095">
        <ele>138</ele>
        <time>2011-12-26T08:52:09Z</time>
      </trkpt>
      <trkpt lat="44.54652" lon="0.95092">
        <ele>137</ele>
        <time>2011-12-26T08:52:10Z</time>
      </trkpt>
      <trkpt lat="44.54625" lon="0.95109">
        <ele>136</ele>
        <time>2011-12-26T08:52:16Z</time>
      </trkpt>
      <trkpt lat="44.5462" lon="0.95113">
        <ele>135</ele>
        <time>2011-12-26T08:52:18Z</time>
      </trkpt>
      <trkpt lat="44.54614" lon="0.95117">
        <ele>135</ele>
        <time>2011-12-26T08:52:18Z</time>
      </trkpt>
      <trkpt lat="44.54604" lon="0.95123">
        <ele>134</ele>
        <time>2011-12-26T08:52:24Z</time>
      </trkpt>
      <trkpt lat="44.54581" lon="0.95126">
        <ele>133</ele>
        <time>2011-12-26T08:52:24Z</time>
      </trkpt>
      <trkpt lat="44.54576" lon="0.95125">
        <ele>133</ele>
        <time>2011-12-26T08:52:25Z</time>
      </trkpt>
      <trkpt lat="44.5457" lon="0.95124">
        <ele>132</ele>
        <time>2011-12-26T08:52:27Z</time>
      </trkpt>
      <trkpt lat="44.54561" lon="0.95122">
        <ele>131</ele>
        <time>2011-12-26T08:52:32Z</time>
      </trkpt>
      <trkpt lat="44.54536" lon="0.95117">
        <ele>131</ele>
        <time>2011-12-26T08:52:33Z</time>
      </trkpt>
      <trkpt lat="44.5453" lon="0.95116">
        <ele>130</ele>
        <time>2011-12-26T08:52:34Z</time>
      </trkpt>
      <trkpt lat="44.54518" lon="0.95115">
        <ele>129</ele>
        <time>2011-12-26T08:52:40Z</time>
      </trkpt>
      <trkpt lat="44.54493" lon="0.95118">
        <ele>128</ele>
        <time>2011-12-26T08:52:40Z</time>
      </trkpt>
      <trkpt lat="44.54486" lon="0.95121">
        <ele>127</ele>
        <time>2011-12-26T08:52:41Z</time>
      </trkpt>
      <trkpt lat="44.54479" lon="0.95123">
        <ele>127</ele>
        <time>2011-12-26T08:52:43Z</time>
      </trkpt>
      <trkpt lat="44.54441" lon="0.95112">
        <ele>126</ele>
        <time>2011-12-26T08:52:48Z</time>
      </trkpt>
      <trkpt lat="44.54437" lon="0.95108">
        <ele>125</ele>
        <time>2011-12-26T08:52:50Z</time>
      </trkpt>
      <trkpt lat="44.54433" lon="0.95106">
        <ele>125</ele>
        <time>2011-12-26T08:52:51Z</time>
      </trkpt>
      <trkpt lat="44.5443" lon="0.95107">
        <ele>125</ele>
        <time>2011-12-26T08:52:52Z</time>
      </trkpt>
      <trkpt lat="44.54428" lon="0.9511">
        <ele>125</ele>
        <time>2011-12-26T08:52:53Z</time>
      </trkpt>
      <trkpt lat="44.54427" lon="0.9512">
        <ele>125</ele>
        <time>2011-12-26T08:52:59Z</time>
      </trkpt>
      <trkpt lat="44.54423" lon="0.95147">
        <ele>125</ele>
        <time>2011-12-26T08:52:59Z</time>
      </trkpt>
      <trkpt lat="44.54422" lon="0.95152">
        <ele>125</ele>
        <time>2011-12-26T08:53:00Z</time>
      </trkpt>
      <trkpt lat="44.54421" lon="0.95157">
        <ele>125</ele>
        <time>2011-12-26T08:53:01Z</time>
      </trkpt>
      <trkpt lat="44.54419" lon="0.95166">
        <ele>125</ele>
        <time>2011-12-26T08:53:07Z</time>
      </trkpt>
      <trkpt lat="44.54416" lon="0.95184">
        <ele>125</ele>
        <time>2011-12-26T08:53:07Z</time>
      </trkpt>
      <trkpt lat="44.54415" lon="0.95188">
        <ele>125</ele>
        <time>2011-12-26T08:53:08Z</time>
      </trkpt>
      <trkpt lat="44.54407" lon="0.95214">
        <ele>125</ele>
        <time>2011-12-26T08:53:14Z</time>
      </trkpt>
      <trkpt lat="44.54406" lon="0.95218">
        <ele>125</ele>
        <time>2011-12-26T08:53:15Z</time>
      </trkpt>
      <trkpt lat="44.54404" lon="0.95227">
        <ele>125</ele>
        <time>2011-12-26T08:53:22Z</time>
      </trkpt>
      <trkpt lat="44.54398" lon="0.95247">
        <ele>125</ele>
        <time>2011-12-26T08:53:22Z</time>
      </trkpt>
      <trkpt lat="44.54398" lon="0.95251">
        <ele>125</ele>
        <time>2011-12-26T08:53:23Z</time>
      </trkpt>
      <trkpt lat="44.54395" lon="0.9526">
        <ele>126</ele>
        <time>2011-12-26T08:53:29Z</time>
      </trkpt>
      <trkpt lat="44.54392" lon="0.95278">
        <ele>127</ele>
        <time>2011-12-26T08:53:29Z</time>
      </trkpt>
      <trkpt lat="44.5439" lon="0.95281">
        <ele>128</ele>
        <time>2011-12-26T08:53:30Z</time>
      </trkpt>
      <trkpt lat="44.54389" lon="0.9531">
        <ele>129</ele>
        <time>2011-12-26T08:53:36Z</time>
      </trkpt>
      <trkpt lat="44.54388" lon="0.95315">
        <ele>129</ele>
        <time>2011-12-26T08:53:37Z</time>
      </trkpt>
      <trkpt lat="44.54387" lon="0.95326">
        <ele>130</ele>
        <time>2011-12-26T08:53:44Z</time>
      </trkpt>
      <trkpt lat="44.54385" lon="0.95352">
        <ele>130</ele>
        <time>2011-12-26T08:53:44Z</time>
      </trkpt>
      <trkpt lat="44.54385" lon="0.95358">
        <ele>130</ele>
        <time>2011-12-26T08:53:45Z</time>
      </trkpt>
      <trkpt lat="44.54384" lon="0.95369">
        <ele>130</ele>
        <time>2011-12-26T08:53:51Z</time>
      </trkpt>
      <trkpt lat="44.5438" lon="0.95389">
        <ele>130</ele>
        <time>2011-12-26T08:53:51Z</time>
      </trkpt>
      <trkpt lat="44.54378" lon="0.95393">
        <ele>130</ele>
        <time>2011-12-26T08:53:52Z</time>
      </trkpt>
      <trkpt lat="44.54377" lon="0.95397">
        <ele>130</ele>
        <time>2011-12-26T08:53:54Z</time>
      </trkpt>
      <trkpt lat="44.54373" lon="0.95403">
        <ele>130</ele>
        <time>2011-12-26T08:53:59Z</time>
      </trkpt>
      <trkpt lat="44.54364" lon="0.9541">
        <ele>130</ele>
        <time>2011-12-26T08:54:00Z</time>
      </trkpt>
      <trkpt lat="44.54362" lon="0.95411">
        <ele>130</ele>
        <time>2011-12-26T08:54:01Z</time>
      </trkpt>
      <trkpt lat="44.54358" lon="0.95413">
        <ele>130</ele>
        <time>2011-12-26T08:54:08Z</time>
      </trkpt>
      <trkpt lat="44.54347" lon="0.95417">
        <ele>130</ele>
        <time>2011-12-26T08:54:08Z</time>
      </trkpt>
      <trkpt lat="44.54342" lon="0.95418">
        <ele>130</ele>
        <time>2011-12-26T08:54:15Z</time>
      </trkpt>
      <trkpt lat="44.54329" lon="0.95423">
        <ele>130</ele>
        <time>2011-12-26T08:54:15Z</time>
      </trkpt>
      <trkpt lat="44.54327" lon="0.95423">
        <ele>130</ele>
        <time>2011-12-26T08:54:16Z</time>
      </trkpt>
      <trkpt lat="44.54322" lon="0.95423">
        <ele>130</ele>
        <time>2011-12-26T08:54:22Z</time>
      </trkpt>
      <trkpt lat="44.54308" lon="0.95428">
        <ele>131</ele>
        <time>2011-12-26T08:54:23Z</time>
      </trkpt>
      <trkpt lat="44.54305" lon="0.95429">
        <ele>131</ele>
        <time>2011-12-26T08:54:24Z</time>
      </trkpt>
      <trkpt lat="44.54297" lon="0.95431">
        <ele>131</ele>
        <time>2011-12-26T08:54:30Z</time>
      </trkpt>
      <trkpt lat="44.54277" lon="0.95441">
        <ele>131</ele>
        <time>2011-12-26T08:54:30Z</time>
      </trkpt>
      <trkpt lat="44.54271" lon="0.95444">
        <ele>132</ele>
        <time>2011-12-26T08:54:31Z</time>
      </trkpt>
      <trkpt lat="44.54232" lon="0.95468">
        <ele>132</ele>
        <time>2011-12-26T08:54:37Z</time>
      </trkpt>
      <trkpt lat="44.54225" lon="0.95473">
        <ele>132</ele>
        <time>2011-12-26T08:54:38Z</time>
      </trkpt>
      <trkpt lat="44.54212" lon="0.95482">
        <ele>132</ele>
        <time>2011-12-26T08:54:45Z</time>
      </trkpt>
      <trkpt lat="44.54183" lon="0.95497">
        <ele>133</ele>
        <time>2011-12-26T08:54:45Z</time>
      </trkpt>
      <trkpt lat="44.54178" lon="0.955">
        <ele>134</ele>
        <time>2011-12-26T08:54:46Z</time>
      </trkpt>
      <trkpt lat="44.54169" lon="0.95506">
        <ele>135</ele>
        <time>2011-12-26T08:54:52Z</time>
      </trkpt>
      <trkpt lat="44.54152" lon="0.95517">
        <ele>136</ele>
        <time>2011-12-26T08:54:52Z</time>
      </trkpt>
      <trkpt lat="44.54148" lon="0.95517">
        <ele>136</ele>
        <time>2011-12-26T08:54:53Z</time>
      </trkpt>
      <trkpt lat="44.54143" lon="0.95517">
        <ele>136</ele>
        <time>2011-12-26T08:54:54Z</time>
      </trkpt>
      <trkpt lat="44.54133" lon="0.95515">
        <ele>136</ele>
        <time>2011-12-26T08:55:01Z</time>
      </trkpt>
      <trkpt lat="44.54109" lon="0.95495">
        <ele>136</ele>
        <time>2011-12-26T08:55:01Z</time>
      </trkpt>
      <trkpt lat="44.54104" lon="0.9549">
        <ele>136</ele>
        <time>2011-12-26T08:55:02Z</time>
      </trkpt>
      <trkpt lat="44.541" lon="0.95486">
        <ele>136</ele>
        <time>2011-12-26T08:55:03Z</time>
      </trkpt>
      <trkpt lat="44.54091" lon="0.95477">
        <ele>136</ele>
        <time>2011-12-26T08:55:09Z</time>
      </trkpt>
      <trkpt lat="44.54071" lon="0.95479">
        <ele>136</ele>
        <time>2011-12-26T08:55:09Z</time>
      </trkpt>
      <trkpt lat="44.54066" lon="0.95484">
        <ele>136</ele>
        <time>2011-12-26T08:55:10Z</time>
      </trkpt>
      <trkpt lat="44.54062" lon="0.9549">
        <ele>136</ele>
        <time>2011-12-26T08:55:12Z</time>
      </trkpt>
      <trkpt lat="44.54046" lon="0.95549">
        <ele>136</ele>
        <time>2011-12-26T08:55:17Z</time>
      </trkpt>
      <trkpt lat="44.54042" lon="0.95559">
        <ele>136</ele>
        <time>2011-12-26T08:55:19Z</time>
      </trkpt>
      <trkpt lat="44.54037" lon="0.95568">
        <ele>135</ele>
        <time>2011-12-26T08:55:19Z</time>
      </trkpt>
      <trkpt lat="44.54032" lon="0.95575">
        <ele>134</ele>
        <time>2011-12-26T08:55:20Z</time>
      </trkpt>
      <trkpt lat="44.54026" lon="0.9558">
        <ele>133</ele>
        <time>2011-12-26T08:55:21Z</time>
      </trkpt>
      <trkpt lat="44.54015" lon="0.95587">
        <ele>132</ele>
        <time>2011-12-26T08:55:27Z</time>
      </trkpt>
      <trkpt lat="44.53996" lon="0.9561">
        <ele>131</ele>
        <time>2011-12-26T08:55:27Z</time>
      </trkpt>
      <trkpt lat="44.53991" lon="0.95617">
        <ele>130</ele>
        <time>2011-12-26T08:55:29Z</time>
      </trkpt>
      <trkpt lat="44.53961" lon="0.95657">
        <ele>129</ele>
        <time>2011-12-26T08:55:33Z</time>
      </trkpt>
      <trkpt lat="44.53954" lon="0.95666">
        <ele>128</ele>
        <time>2011-12-26T08:55:34Z</time>
      </trkpt>
      <trkpt lat="44.53947" lon="0.95676">
        <ele>128</ele>
        <time>2011-12-26T08:55:35Z</time>
      </trkpt>
      <trkpt lat="44.53932" lon="0.95697">
        <ele>127</ele>
        <time>2011-12-26T08:55:40Z</time>
      </trkpt>
      <trkpt lat="44.53912" lon="0.95731">
        <ele>126</ele>
        <time>2011-12-26T08:55:40Z</time>
      </trkpt>
      <trkpt lat="44.53906" lon="0.95742">
        <ele>125</ele>
        <time>2011-12-26T08:55:41Z</time>
      </trkpt>
      <trkpt lat="44.53896" lon="0.95759">
        <ele>124</ele>
        <time>2011-12-26T08:55:46Z</time>
      </trkpt>
      <trkpt lat="44.53886" lon="0.95774">
        <ele>122</ele>
        <time>2011-12-26T08:55:46Z</time>
      </trkpt>
      <trkpt lat="44.53883" lon="0.95779">
        <ele>120</ele>
        <time>2011-12-26T08:55:47Z</time>
      </trkpt>
      <trkpt lat="44.53878" lon="0.95783">
        <ele>119</ele>
        <time>2011-12-26T08:55:52Z</time>
      </trkpt>
      <trkpt lat="44.5387" lon="0.95791">
        <ele>118</ele>
        <time>2011-12-26T08:55:52Z</time>
      </trkpt>
      <trkpt lat="44.53868" lon="0.95794">
        <ele>117</ele>
        <time>2011-12-26T08:55:53Z</time>
      </trkpt>
      <trkpt lat="44.53849" lon="0.95809">
        <ele>116</ele>
        <time>2011-12-26T08:55:58Z</time>
      </trkpt>
      <trkpt lat="44.53845" lon="0.95812">
        <ele>115</ele>
        <time>2011-12-26T08:55:59Z</time>
      </trkpt>
      <trkpt lat="44.5384" lon="0.95815">
        <ele>114</ele>
        <time>2011-12-26T08:56:00Z</time>
      </trkpt>
      <trkpt lat="44.5383" lon="0.95822">
        <ele>113</ele>
        <time>2011-12-26T08:56:05Z</time>
      </trkpt>
      <trkpt lat="44.53815" lon="0.9583">
        <ele>112</ele>
        <time>2011-12-26T08:56:05Z</time>
      </trkpt>
      <trkpt lat="44.5381" lon="0.95832">
        <ele>112</ele>
        <time>2011-12-26T08:56:06Z</time>
      </trkpt>
      <trkpt lat="44.53787" lon="0.9584">
        <ele>112</ele>
        <time>2011-12-26T08:56:11Z</time>
      </trkpt>
      <trkpt lat="44.53782" lon="0.95842">
        <ele>112</ele>
        <time>2011-12-26T08:56:12Z</time>
      </trkpt>
      <trkpt lat="44.53773" lon="0.95845">
        <ele>112</ele>
        <time>2011-12-26T08:56:17Z</time>
      </trkpt>
      <trkpt lat="44.53757" lon="0.95851">
        <ele>112</ele>
        <time>2011-12-26T08:56:18Z</time>
      </trkpt>
      <trkpt lat="44.53753" lon="0.95853">
        <ele>112</ele>
        <time>2011-12-26T08:56:19Z</time>
      </trkpt>
      <trkpt lat="44.53746" lon="0.95855">
        <ele>112</ele>
        <time>2011-12-26T08:56:24Z</time>
      </trkpt>
      <trkpt lat="44.53737" lon="0.95855">
        <ele>112</ele>
        <time>2011-12-26T08:56:24Z</time>
      </trkpt>
      <trkpt lat="44.53734" lon="0.95855">
        <ele>112</ele>
        <time>2011-12-26T08:56:25Z</time>
      </trkpt>
      <trkpt lat="44.53729" lon="0.95854">
        <ele>112</ele>
        <time>2011-12-26T08:56:30Z</time>
      </trkpt>
      <trkpt lat="44.53722" lon="0.95853">
        <ele>112</ele>
        <time>2011-12-26T08:56:30Z</time>
      </trkpt>
      <trkpt lat="44.53719" lon="0.95853">
        <ele>112</ele>
        <time>2011-12-26T08:56:31Z</time>
      </trkpt>
      <trkpt lat="44.53708" lon="0.9585">
        <ele>112</ele>
        <time>2011-12-26T08:56:36Z</time>
      </trkpt>
      <trkpt lat="44.53705" lon="0.95849">
        <ele>112</ele>
        <time>2011-12-26T08:56:37Z</time>
      </trkpt>
      <trkpt lat="44.53703" lon="0.95849">
        <ele>112</ele>
        <time>2011-12-26T08:56:38Z</time>
      </trkpt>
      <trkpt lat="44.53698" lon="0.95847">
        <ele>112</ele>
        <time>2011-12-26T08:56:43Z</time>
      </trkpt>
      <trkpt lat="44.53691" lon="0.95845">
        <ele>112</ele>
        <time>2011-12-26T08:56:43Z</time>
      </trkpt>
      <trkpt lat="44.53689" lon="0.95844">
        <ele>113</ele>
        <time>2011-12-26T08:56:44Z</time>
      </trkpt>
      <trkpt lat="44.53684" lon="0.95842">
        <ele>114</ele>
        <time>2011-12-26T08:56:49Z</time>
      </trkpt>
      <trkpt lat="44.53678" lon="0.9584">
        <ele>114</ele>
        <time>2011-12-26T08:56:49Z</time>
      </trkpt>
      <trkpt lat="44.53676" lon="0.9584">
        <ele>115</ele>
        <time>2011-12-26T08:56:50Z</time>
      </trkpt>
      <trkpt lat="44.53665" lon="0.95834">
        <ele>116</ele>
        <time>2011-12-26T08:56:55Z</time>
      </trkpt>
      <trkpt lat="44.53663" lon="0.95833">
        <ele>116</ele>
        <time>2011-12-26T08:56:56Z</time>
      </trkpt>
      <trkpt lat="44.53661" lon="0.95833">
        <ele>117</ele>
        <time>2011-12-26T08:56:57Z</time>
      </trkpt>
      <trkpt lat="44.53657" lon="0.95831">
        <ele>118</ele>
        <time>2011-12-26T08:57:02Z</time>
      </trkpt>
      <trkpt lat="44.5365" lon="0.95826">
        <ele>118</ele>
        <time>2011-12-26T08:57:02Z</time>
      </trkpt>
      <trkpt lat="44.53648" lon="0.95825">
        <ele>119</ele>
        <time>2011-12-26T08:57:03Z</time>
      </trkpt>
      <trkpt lat="44.53643" lon="0.95823">
        <ele>119</ele>
        <time>2011-12-26T08:57:08Z</time>
      </trkpt>
      <trkpt lat="44.53636" lon="0.9582">
        <ele>120</ele>
        <time>2011-12-26T08:57:08Z</time>
      </trkpt>
      <trkpt lat="44.53635" lon="0.95819">
        <ele>120</ele>
        <time>2011-12-26T08:57:09Z</time>
      </trkpt>
      <trkpt lat="44.53632" lon="0.95819">
        <ele>120</ele>
        <time>2011-12-26T08:57:14Z</time>
      </trkpt>
      <trkpt lat="44.53625" lon="0.95816">
        <ele>121</ele>
        <time>2011-12-26T08:57:15Z</time>
      </trkpt>
      <trkpt lat="44.53623" lon="0.95816">
        <ele>121</ele>
        <time>2011-12-26T08:57:16Z</time>
      </trkpt>
      <trkpt lat="44.53619" lon="0.95815">
        <ele>121</ele>
        <time>2011-12-26T08:57:21Z</time>
      </trkpt>
      <trkpt lat="44.53613" lon="0.95813">
        <ele>122</ele>
        <time>2011-12-26T08:57:21Z</time>
      </trkpt>
      <trkpt lat="44.53611" lon="0.95813">
        <ele>122</ele>
        <time>2011-12-26T08:57:22Z</time>
      </trkpt>
      <trkpt lat="44.53607" lon="0.95812">
        <ele>122</ele>
        <time>2011-12-26T08:57:27Z</time>
      </trkpt>
      <trkpt lat="44.53602" lon="0.9581">
        <ele>123</ele>
        <time>2011-12-26T08:57:27Z</time>
      </trkpt>
      <trkpt lat="44.536" lon="0.9581">
        <ele>123</ele>
        <time>2011-12-26T08:57:28Z</time>
      </trkpt>
      <trkpt lat="44.53598" lon="0.9581">
        <ele>124</ele>
        <time>2011-12-26T08:57:29Z</time>
      </trkpt>
      <trkpt lat="44.53596" lon="0.95812">
        <ele>124</ele>
        <time>2011-12-26T08:57:35Z</time>
      </trkpt>
      <trkpt lat="44.53592" lon="0.9582">
        <ele>124</ele>
        <time>2011-12-26T08:57:35Z</time>
      </trkpt>
      <trkpt lat="44.53591" lon="0.95823">
        <ele>125</ele>
        <time>2011-12-26T08:57:36Z</time>
      </trkpt>
      <trkpt lat="44.53591" lon="0.95826">
        <ele>125</ele>
        <time>2011-12-26T08:57:38Z</time>
      </trkpt>
      <trkpt lat="44.5359" lon="0.95833">
        <ele>125</ele>
        <time>2011-12-26T08:57:42Z</time>
      </trkpt>
      <trkpt lat="44.53587" lon="0.95847">
        <ele>125</ele>
        <time>2011-12-26T08:57:43Z</time>
      </trkpt>
      <trkpt lat="44.53585" lon="0.9585">
        <ele>125</ele>
        <time>2011-12-26T08:57:44Z</time>
      </trkpt>
      <trkpt lat="44.53584" lon="0.95857">
        <ele>125</ele>
        <time>2011-12-26T08:57:49Z</time>
      </trkpt>
      <trkpt lat="44.53582" lon="0.95868">
        <ele>126</ele>
        <time>2011-12-26T08:57:49Z</time>
      </trkpt>
      <trkpt lat="44.53581" lon="0.95872">
        <ele>127</ele>
        <time>2011-12-26T08:57:50Z</time>
      </trkpt>
      <trkpt lat="44.5358" lon="0.95878">
        <ele>127</ele>
        <time>2011-12-26T08:57:55Z</time>
      </trkpt>
      <trkpt lat="44.53579" lon="0.9589">
        <ele>128</ele>
        <time>2011-12-26T08:57:55Z</time>
      </trkpt>
      <trkpt lat="44.53579" lon="0.95894">
        <ele>128</ele>
        <time>2011-12-26T08:57:56Z</time>
      </trkpt>
      <trkpt lat="44.53578" lon="0.95896">
        <ele>128</ele>
        <time>2011-12-26T08:57:57Z</time>
      </trkpt>
      <trkpt lat="44.53577" lon="0.95899">
        <ele>129</ele>
        <time>2011-12-26T08:57:59Z</time>
      </trkpt>
      <trkpt lat="44.53575" lon="0.95906">
        <ele>129</ele>
        <time>2011-12-26T08:58:03Z</time>
      </trkpt>
      <trkpt lat="44.5357" lon="0.9592">
        <ele>130</ele>
        <time>2011-12-26T08:58:04Z</time>
      </trkpt>
      <trkpt lat="44.53568" lon="0.95926">
        <ele>131</ele>
        <time>2011-12-26T08:58:09Z</time>
      </trkpt>
      <trkpt lat="44.53563" lon="0.95939">
        <ele>131</ele>
        <time>2011-12-26T08:58:10Z</time>
      </trkpt>
      <trkpt lat="44.53562" lon="0.95943">
        <ele>132</ele>
        <time>2011-12-26T08:58:11Z</time>
      </trkpt>
      <trkpt lat="44.53559" lon="0.9595">
        <ele>133</ele>
        <time>2011-12-26T08:58:16Z</time>
      </trkpt>
      <trkpt lat="44.53556" lon="0.9596">
        <ele>133</ele>
        <time>2011-12-26T08:58:17Z</time>
      </trkpt>
      <trkpt lat="44.53555" lon="0.95963">
        <ele>133</ele>
        <time>2011-12-26T08:58:17Z</time>
      </trkpt>
      <trkpt lat="44.53553" lon="0.95969">
        <ele>133</ele>
        <time>2011-12-26T08:58:22Z</time>
      </trkpt>
      <trkpt lat="44.53548" lon="0.95979">
        <ele>133</ele>
        <time>2011-12-26T08:58:22Z</time>
      </trkpt>
      <trkpt lat="44.53547" lon="0.95982">
        <ele>133</ele>
        <time>2011-12-26T08:58:23Z</time>
      </trkpt>
      <trkpt lat="44.53545" lon="0.95988">
        <ele>133</ele>
        <time>2011-12-26T08:58:28Z</time>
      </trkpt>
      <trkpt lat="44.53539" lon="0.96002">
        <ele>133</ele>
        <time>2011-12-26T08:58:29Z</time>
      </trkpt>
      <trkpt lat="44.53538" lon="0.96006">
        <ele>134</ele>
        <time>2011-12-26T08:58:30Z</time>
      </trkpt>
      <trkpt lat="44.53536" lon="0.96012">
        <ele>135</ele>
        <time>2011-12-26T08:58:35Z</time>
      </trkpt>
      <trkpt lat="44.53532" lon="0.96021">
        <ele>135</ele>
        <time>2011-12-26T08:58:35Z</time>
      </trkpt>
      <trkpt lat="44.53531" lon="0.96025">
        <ele>136</ele>
        <time>2011-12-26T08:58:36Z</time>
      </trkpt>
      <trkpt lat="44.53529" lon="0.96033">
        <ele>136</ele>
        <time>2011-12-26T08:58:41Z</time>
      </trkpt>
      <trkpt lat="44.53526" lon="0.96046">
        <ele>136</ele>
        <time>2011-12-26T08:58:41Z</time>
      </trkpt>
      <trkpt lat="44.53524" lon="0.96051">
        <ele>137</ele>
        <time>2011-12-26T08:58:42Z</time>
      </trkpt>
      <trkpt lat="44.53522" lon="0.96059">
        <ele>137</ele>
        <time>2011-12-26T08:58:47Z</time>
      </trkpt>
      <trkpt lat="44.53516" lon="0.96078">
        <ele>137</ele>
        <time>2011-12-26T08:58:48Z</time>
      </trkpt>
      <trkpt lat="44.53514" lon="0.96082">
        <ele>138</ele>
        <time>2011-12-26T08:58:49Z</time>
      </trkpt>
      <trkpt lat="44.53511" lon="0.9609">
        <ele>139</ele>
        <time>2011-12-26T08:58:54Z</time>
      </trkpt>
      <trkpt lat="44.53505" lon="0.961">
        <ele>140</ele>
        <time>2011-12-26T08:58:54Z</time>
      </trkpt>
      <trkpt lat="44.53504" lon="0.96104">
        <ele>141</ele>
        <time>2011-12-26T08:58:55Z</time>
      </trkpt>
      <trkpt lat="44.535" lon="0.96111">
        <ele>142</ele>
        <time>2011-12-26T08:59:00Z</time>
      </trkpt>
      <trkpt lat="44.53497" lon="0.96122">
        <ele>143</ele>
        <time>2011-12-26T08:59:00Z</time>
      </trkpt>
      <trkpt lat="44.53495" lon="0.96126">
        <ele>144</ele>
        <time>2011-12-26T08:59:01Z</time>
      </trkpt>
      <trkpt lat="44.53492" lon="0.96133">
        <ele>145</ele>
        <time>2011-12-26T08:59:06Z</time>
      </trkpt>
      <trkpt lat="44.53487" lon="0.96147">
        <ele>146</ele>
        <time>2011-12-26T08:59:07Z</time>
      </trkpt>
      <trkpt lat="44.53485" lon="0.9615">
        <ele>147</ele>
        <time>2011-12-26T08:59:08Z</time>
      </trkpt>
      <trkpt lat="44.53483" lon="0.96158">
        <ele>148</ele>
        <time>2011-12-26T08:59:13Z</time>
      </trkpt>
      <trkpt lat="44.53479" lon="0.96171">
        <ele>149</ele>
        <time>2011-12-26T08:59:13Z</time>
      </trkpt>
      <trkpt lat="44.53479" lon="0.96177">
        <ele>150</ele>
        <time>2011-12-26T08:59:14Z</time>
      </trkpt>
      <trkpt lat="44.53473" lon="0.962">
        <ele>151</ele>
        <time>2011-12-26T08:59:19Z</time>
      </trkpt>
      <trkpt lat="44.53472" lon="0.96206">
        <ele>152</ele>
        <time>2011-12-26T08:59:20Z</time>
      </trkpt>
      <trkpt lat="44.53471" lon="0.96211">
        <ele>152</ele>
        <time>2011-12-26T08:59:21Z</time>
      </trkpt>
      <trkpt lat="44.53472" lon="0.96216">
        <ele>152</ele>
        <time>2011-12-26T08:59:22Z</time>
      </trkpt>
      <trkpt lat="44.53473" lon="0.96224">
        <ele>152</ele>
        <time>2011-12-26T08:59:27Z</time>
      </trkpt>
      <trkpt lat="44.53476" lon="0.96236">
        <ele>152</ele>
        <time>2011-12-26T08:59:27Z</time>
      </trkpt>
      <trkpt lat="44.53476" lon="0.96241">
        <ele>152</ele>
        <time>2011-12-26T08:59:28Z</time>
      </trkpt>
      <trkpt lat="44.53476" lon="0.96266">
        <ele>152</ele>
        <time>2011-12-26T08:59:33Z</time>
      </trkpt>
      <trkpt lat="44.53476" lon="0.96272">
        <ele>152</ele>
        <time>2011-12-26T08:59:34Z</time>
      </trkpt>
      <trkpt lat="44.53476" lon="0.96282">
        <ele>152</ele>
        <time>2011-12-26T08:59:40Z</time>
      </trkpt>
      <trkpt lat="44.53477" lon="0.96304">
        <ele>152</ele>
        <time>2011-12-26T08:59:40Z</time>
      </trkpt>
      <trkpt lat="44.53478" lon="0.9631">
        <ele>152</ele>
        <time>2011-12-26T08:59:41Z</time>
      </trkpt>
      <trkpt lat="44.53478" lon="0.96321">
        <ele>152</ele>
        <time>2011-12-26T08:59:46Z</time>
      </trkpt>
      <trkpt lat="44.53479" lon="0.96338">
        <ele>152</ele>
        <time>2011-12-26T08:59:46Z</time>
      </trkpt>
      <trkpt lat="44.53478" lon="0.96344">
        <ele>151</ele>
        <time>2011-12-26T08:59:48Z</time>
      </trkpt>
      <trkpt lat="44.53477" lon="0.96349">
        <ele>151</ele>
        <time>2011-12-26T08:59:48Z</time>
      </trkpt>
      <trkpt lat="44.53473" lon="0.96358">
        <ele>151</ele>
        <time>2011-12-26T08:59:53Z</time>
      </trkpt>
      <trkpt lat="44.53467" lon="0.96369">
        <ele>151</ele>
        <time>2011-12-26T08:59:53Z</time>
      </trkpt>
      <trkpt lat="44.53465" lon="0.96373">
        <ele>151</ele>
        <time>2011-12-26T08:59:55Z</time>
      </trkpt>
      <trkpt lat="44.5346" lon="0.96381">
        <ele>151</ele>
        <time>2011-12-26T08:59:59Z</time>
      </trkpt>
      <trkpt lat="44.53455" lon="0.9639">
        <ele>151</ele>
        <time>2011-12-26T09:00:00Z</time>
      </trkpt>
      <trkpt lat="44.53454" lon="0.96392">
        <ele>151</ele>
        <time>2011-12-26T09:00:07Z</time>
      </trkpt>
      <trkpt lat="44.53454" lon="0.96394">
        <ele>151</ele>
        <time>2011-12-26T09:00:16Z</time>
      </trkpt>
      <trkpt lat="44.53456" lon="0.96397">
        <ele>154</ele>
        <time>2011-12-26T09:00:23Z</time>
      </trkpt>
      <trkpt lat="44.53456" lon="0.96393">
        <ele>154</ele>
        <time>2011-12-26T09:00:32Z</time>
      </trkpt>
      <trkpt lat="44.53456" lon="0.96391">
        <ele>154</ele>
        <time>2011-12-26T09:00:33Z</time>
      </trkpt>
      <trkpt lat="44.53458" lon="0.96389">
        <ele>154</ele>
        <time>2011-12-26T09:00:34Z</time>
      </trkpt>
      <trkpt lat="44.53465" lon="0.96376">
        <ele>154</ele>
        <time>2011-12-26T09:00:38Z</time>
      </trkpt>
      <trkpt lat="44.53466" lon="0.96373">
        <ele>154</ele>
        <time>2011-12-26T09:00:39Z</time>
      </trkpt>
      <trkpt lat="44.53468" lon="0.9637">
        <ele>154</ele>
        <time>2011-12-26T09:00:40Z</time>
      </trkpt>
      <trkpt lat="44.53471" lon="0.96363">
        <ele>154</ele>
        <time>2011-12-26T09:00:45Z</time>
      </trkpt>
      <trkpt lat="44.53477" lon="0.9636">
        <ele>154</ele>
        <time>2011-12-26T09:00:45Z</time>
      </trkpt>
      <trkpt lat="44.53478" lon="0.96362">
        <ele>154</ele>
        <time>2011-12-26T09:00:47Z</time>
      </trkpt>
      <trkpt lat="44.53479" lon="0.96364">
        <ele>154</ele>
        <time>2011-12-26T09:00:48Z</time>
      </trkpt>
      <trkpt lat="44.53479" lon="0.96366">
        <ele>154</ele>
        <time>2011-12-26T09:00:49Z</time>
      </trkpt>
      <trkpt lat="44.53481" lon="0.96371">
        <ele>154</ele>
        <time>2011-12-26T09:00:54Z</time>
      </trkpt>
      <trkpt lat="44.53481" lon="0.96382">
        <ele>154</ele>
        <time>2011-12-26T09:00:54Z</time>
      </trkpt>
      <trkpt lat="44.53482" lon="0.96388">
        <ele>154</ele>
        <time>2011-12-26T09:01:00Z</time>
      </trkpt>
      <trkpt lat="44.53483" lon="0.964">
        <ele>154</ele>
        <time>2011-12-26T09:01:00Z</time>
      </trkpt>
      <trkpt lat="44.53483" lon="0.96403">
        <ele>154</ele>
        <time>2011-12-26T09:01:01Z</time>
      </trkpt>
      <trkpt lat="44.53484" lon="0.9641">
        <ele>154</ele>
        <time>2011-12-26T09:01:06Z</time>
      </trkpt>
      <trkpt lat="44.53485" lon="0.9642">
        <ele>154</ele>
        <time>2011-12-26T09:01:06Z</time>
      </trkpt>
      <trkpt lat="44.53485" lon="0.96425">
        <ele>154</ele>
        <time>2011-12-26T09:01:07Z</time>
      </trkpt>
      <trkpt lat="44.5349" lon="0.96446">
        <ele>154</ele>
        <time>2011-12-26T09:01:12Z</time>
      </trkpt>
      <trkpt lat="44.53491" lon="0.9645">
        <ele>154</ele>
        <time>2011-12-26T09:01:13Z</time>
      </trkpt>
      <trkpt lat="44.53492" lon="0.96454">
        <ele>154</ele>
        <time>2011-12-26T09:01:15Z</time>
      </trkpt>
      <trkpt lat="44.53494" lon="0.96472">
        <ele>154</ele>
        <time>2011-12-26T09:01:19Z</time>
      </trkpt>
      <trkpt lat="44.53493" lon="0.96475">
        <ele>154</ele>
        <time>2011-12-26T09:01:21Z</time>
      </trkpt>
      <trkpt lat="44.53491" lon="0.96479">
        <ele>154</ele>
        <time>2011-12-26T09:01:21Z</time>
      </trkpt>
      <trkpt lat="44.53488" lon="0.96501">
        <ele>154</ele>
        <time>2011-12-26T09:01:26Z</time>
      </trkpt>
      <trkpt lat="44.53487" lon="0.96505">
        <ele>155</ele>
        <time>2011-12-26T09:01:28Z</time>
      </trkpt>
      <trkpt lat="44.53487" lon="0.9651">
        <ele>155</ele>
        <time>2011-12-26T09:01:28Z</time>
      </trkpt>
      <trkpt lat="44.53484" lon="0.96531">
        <ele>155</ele>
        <time>2011-12-26T09:01:33Z</time>
      </trkpt>
      <trkpt lat="44.53484" lon="0.96535">
        <ele>156</ele>
        <time>2011-12-26T09:01:34Z</time>
      </trkpt>
      <trkpt lat="44.53483" lon="0.96539">
        <ele>156</ele>
        <time>2011-12-26T09:01:35Z</time>
      </trkpt>
      <trkpt lat="44.53482" lon="0.96548">
        <ele>157</ele>
        <time>2011-12-26T09:01:40Z</time>
      </trkpt>
      <trkpt lat="44.53478" lon="0.9656">
        <ele>157</ele>
        <time>2011-12-26T09:01:40Z</time>
      </trkpt>
      <trkpt lat="44.53476" lon="0.96564">
        <ele>157</ele>
        <time>2011-12-26T09:01:42Z</time>
      </trkpt>
      <trkpt lat="44.53474" lon="0.96567">
        <ele>157</ele>
        <time>2011-12-26T09:01:43Z</time>
      </trkpt>
      <trkpt lat="44.53463" lon="0.96585">
        <ele>157</ele>
        <time>2011-12-26T09:01:47Z</time>
      </trkpt>
      <trkpt lat="44.53461" lon="0.96589">
        <ele>157</ele>
        <time>2011-12-26T09:01:48Z</time>
      </trkpt>
      <trkpt lat="44.53456" lon="0.96598">
        <ele>158</ele>
        <time>2011-12-26T09:01:54Z</time>
      </trkpt>
      <trkpt lat="44.5345" lon="0.96612">
        <ele>159</ele>
        <time>2011-12-26T09:01:54Z</time>
      </trkpt>
      <trkpt lat="44.53449" lon="0.96616">
        <ele>159</ele>
        <time>2011-12-26T09:01:55Z</time>
      </trkpt>
      <trkpt lat="44.53446" lon="0.96624">
        <ele>160</ele>
        <time>2011-12-26T09:02:00Z</time>
      </trkpt>
      <trkpt lat="44.53442" lon="0.96635">
        <ele>160</ele>
        <time>2011-12-26T09:02:00Z</time>
      </trkpt>
      <trkpt lat="44.5344" lon="0.96636">
        <ele>160</ele>
        <time>2011-12-26T09:02:01Z</time>
      </trkpt>
      <trkpt lat="44.53439" lon="0.96635">
        <ele>160</ele>
        <time>2011-12-26T09:02:02Z</time>
      </trkpt>
      <trkpt lat="44.53436" lon="0.96634">
        <ele>160</ele>
        <time>2011-12-26T09:02:04Z</time>
      </trkpt>
      <trkpt lat="44.53432" lon="0.96631">
        <ele>160</ele>
        <time>2011-12-26T09:02:09Z</time>
      </trkpt>
      <trkpt lat="44.53419" lon="0.96625">
        <ele>160</ele>
        <time>2011-12-26T09:02:09Z</time>
      </trkpt>
      <trkpt lat="44.53416" lon="0.96623">
        <ele>160</ele>
        <time>2011-12-26T09:02:11Z</time>
      </trkpt>
      <trkpt lat="44.53399" lon="0.96616">
        <ele>160</ele>
        <time>2011-12-26T09:02:15Z</time>
      </trkpt>
      <trkpt lat="44.53396" lon="0.96614">
        <ele>160</ele>
        <time>2011-12-26T09:02:16Z</time>
      </trkpt>
      <trkpt lat="44.53392" lon="0.96612">
        <ele>160</ele>
        <time>2011-12-26T09:02:17Z</time>
      </trkpt>
      <trkpt lat="44.53385" lon="0.96607">
        <ele>160</ele>
        <time>2011-12-26T09:02:22Z</time>
      </trkpt>
      <trkpt lat="44.53376" lon="0.96602">
        <ele>160</ele>
        <time>2011-12-26T09:02:22Z</time>
      </trkpt>
      <trkpt lat="44.53372" lon="0.966">
        <ele>160</ele>
        <time>2011-12-26T09:02:23Z</time>
      </trkpt>
      <trkpt lat="44.53364" lon="0.96596">
        <ele>160</ele>
        <time>2011-12-26T09:02:28Z</time>
      </trkpt>
      <trkpt lat="44.53349" lon="0.96588">
        <ele>160</ele>
        <time>2011-12-26T09:02:29Z</time>
      </trkpt>
      <trkpt lat="44.53345" lon="0.96585">
        <ele>160</ele>
        <time>2011-12-26T09:02:30Z</time>
      </trkpt>
      <trkpt lat="44.53338" lon="0.96578">
        <ele>160</ele>
        <time>2011-12-26T09:02:35Z</time>
      </trkpt>
      <trkpt lat="44.53329" lon="0.9657">
        <ele>160</ele>
        <time>2011-12-26T09:02:35Z</time>
      </trkpt>
      <trkpt lat="44.53327" lon="0.9657">
        <ele>160</ele>
        <time>2011-12-26T09:02:36Z</time>
      </trkpt>
      <trkpt lat="44.53325" lon="0.96571">
        <ele>160</ele>
        <time>2011-12-26T09:02:37Z</time>
      </trkpt>
      <trkpt lat="44.53321" lon="0.96577">
        <ele>160</ele>
        <time>2011-12-26T09:02:43Z</time>
      </trkpt>
      <trkpt lat="44.53303" lon="0.96598">
        <ele>160</ele>
        <time>2011-12-26T09:02:45Z</time>
      </trkpt>
      <trkpt lat="44.53299" lon="0.96601">
        <ele>160</ele>
        <time>2011-12-26T09:02:45Z</time>
      </trkpt>
      <trkpt lat="44.53289" lon="0.96607">
        <ele>160</ele>
        <time>2011-12-26T09:02:50Z</time>
      </trkpt>
      <trkpt lat="44.5327" lon="0.96614">
        <ele>160</ele>
        <time>2011-12-26T09:02:51Z</time>
      </trkpt>
      <trkpt lat="44.53245" lon="0.96623">
        <ele>160</ele>
        <time>2011-12-26T09:02:56Z</time>
      </trkpt>
      <trkpt lat="44.53241" lon="0.96624">
        <ele>160</ele>
        <time>2011-12-26T09:02:57Z</time>
      </trkpt>
      <trkpt lat="44.53237" lon="0.96624">
        <ele>160</ele>
        <time>2011-12-26T09:02:58Z</time>
      </trkpt>
      <trkpt lat="44.53231" lon="0.96623">
        <ele>160</ele>
        <time>2011-12-26T09:03:03Z</time>
      </trkpt>
      <trkpt lat="44.5322" lon="0.96623">
        <ele>160</ele>
        <time>2011-12-26T09:03:03Z</time>
      </trkpt>
      <trkpt lat="44.53217" lon="0.96622">
        <ele>160</ele>
        <time>2011-12-26T09:03:04Z</time>
      </trkpt>
      <trkpt lat="44.5321" lon="0.96619">
        <ele>159</ele>
        <time>2011-12-26T09:03:09Z</time>
      </trkpt>
      <trkpt lat="44.53196" lon="0.96618">
        <ele>159</ele>
        <time>2011-12-26T09:03:10Z</time>
      </trkpt>
      <trkpt lat="44.53193" lon="0.96619">
        <ele>158</ele>
        <time>2011-12-26T09:03:11Z</time>
      </trkpt>
      <trkpt lat="44.53189" lon="0.96621">
        <ele>158</ele>
        <time>2011-12-26T09:03:12Z</time>
      </trkpt>
      <trkpt lat="44.53184" lon="0.96624">
        <ele>158</ele>
        <time>2011-12-26T09:03:17Z</time>
      </trkpt>
      <trkpt lat="44.53174" lon="0.96629">
        <ele>158</ele>
        <time>2011-12-26T09:03:17Z</time>
      </trkpt>
      <trkpt lat="44.53171" lon="0.96631">
        <ele>157</ele>
        <time>2011-12-26T09:03:18Z</time>
      </trkpt>
      <trkpt lat="44.53165" lon="0.96633">
        <ele>157</ele>
        <time>2011-12-26T09:03:23Z</time>
      </trkpt>
      <trkpt lat="44.53153" lon="0.96642">
        <ele>157</ele>
        <time>2011-12-26T09:03:24Z</time>
      </trkpt>
      <trkpt lat="44.53151" lon="0.96644">
        <ele>156</ele>
        <time>2011-12-26T09:03:25Z</time>
      </trkpt>
      <trkpt lat="44.53144" lon="0.96648">
        <ele>156</ele>
        <time>2011-12-26T09:03:30Z</time>
      </trkpt>
      <trkpt lat="44.53135" lon="0.96654">
        <ele>156</ele>
        <time>2011-12-26T09:03:30Z</time>
      </trkpt>
      <trkpt lat="44.53132" lon="0.96657">
        <ele>156</ele>
        <time>2011-12-26T09:03:31Z</time>
      </trkpt>
      <trkpt lat="44.53127" lon="0.96661">
        <ele>156</ele>
        <time>2011-12-26T09:03:36Z</time>
      </trkpt>
      <trkpt lat="44.53117" lon="0.9667">
        <ele>156</ele>
        <time>2011-12-26T09:03:37Z</time>
      </trkpt>
      <trkpt lat="44.53113" lon="0.96672">
        <ele>156</ele>
        <time>2011-12-26T09:03:38Z</time>
      </trkpt>
      <trkpt lat="44.53106" lon="0.96677">
        <ele>156</ele>
        <time>2011-12-26T09:03:44Z</time>
      </trkpt>
      <trkpt lat="44.53095" lon="0.96694">
        <ele>156</ele>
        <time>2011-12-26T09:03:44Z</time>
      </trkpt>
      <trkpt lat="44.53093" lon="0.96698">
        <ele>155</ele>
        <time>2011-12-26T09:03:45Z</time>
      </trkpt>
      <trkpt lat="44.5309" lon="0.96703">
        <ele>154</ele>
        <time>2011-12-26T09:03:47Z</time>
      </trkpt>
      <trkpt lat="44.5308" lon="0.96731">
        <ele>153</ele>
        <time>2011-12-26T09:03:51Z</time>
      </trkpt>
      <trkpt lat="44.53078" lon="0.96736">
        <ele>152</ele>
        <time>2011-12-26T09:03:52Z</time>
      </trkpt>
      <trkpt lat="44.53075" lon="0.96742">
        <ele>151</ele>
        <time>2011-12-26T09:03:53Z</time>
      </trkpt>
      <trkpt lat="44.53051" lon="0.96756">
        <ele>150</ele>
        <time>2011-12-26T09:03:59Z</time>
      </trkpt>
      <trkpt lat="44.53046" lon="0.96755">
        <ele>150</ele>
        <time>2011-12-26T09:04:00Z</time>
      </trkpt>
      <trkpt lat="44.53042" lon="0.96754">
        <ele>150</ele>
        <time>2011-12-26T09:04:02Z</time>
      </trkpt>
      <trkpt lat="44.53033" lon="0.96752">
        <ele>150</ele>
        <time>2011-12-26T09:04:06Z</time>
      </trkpt>
      <trkpt lat="44.53014" lon="0.96757">
        <ele>150</ele>
        <time>2011-12-26T09:04:07Z</time>
      </trkpt>
      <trkpt lat="44.53009" lon="0.96758">
        <ele>150</ele>
        <time>2011-12-26T09:04:09Z</time>
      </trkpt>
      <trkpt lat="44.53004" lon="0.96759">
        <ele>150</ele>
        <time>2011-12-26T09:04:09Z</time>
      </trkpt>
      <trkpt lat="44.5298" lon="0.96758">
        <ele>150</ele>
        <time>2011-12-26T09:04:14Z</time>
      </trkpt>
      <trkpt lat="44.52976" lon="0.96758">
        <ele>150</ele>
        <time>2011-12-26T09:04:15Z</time>
      </trkpt>
      <trkpt lat="44.52969" lon="0.96758">
        <ele>150</ele>
        <time>2011-12-26T09:04:21Z</time>
      </trkpt>
      <trkpt lat="44.52958" lon="0.96752">
        <ele>150</ele>
        <time>2011-12-26T09:04:21Z</time>
      </trkpt>
      <trkpt lat="44.52956" lon="0.96751">
        <ele>150</ele>
        <time>2011-12-26T09:04:22Z</time>
      </trkpt>
      <trkpt lat="44.52951" lon="0.9675">
        <ele>150</ele>
        <time>2011-12-26T09:04:27Z</time>
      </trkpt>
      <trkpt lat="44.52943" lon="0.96745">
        <ele>151</ele>
        <time>2011-12-26T09:04:28Z</time>
      </trkpt>
      <trkpt lat="44.52941" lon="0.96745">
        <ele>152</ele>
        <time>2011-12-26T09:04:29Z</time>
      </trkpt>
      <trkpt lat="44.52939" lon="0.96744">
        <ele>153</ele>
        <time>2011-12-26T09:04:31Z</time>
      </trkpt>
      <trkpt lat="44.52935" lon="0.96741">
        <ele>154</ele>
        <time>2011-12-26T09:04:35Z</time>
      </trkpt>
      <trkpt lat="44.52929" lon="0.96734">
        <ele>155</ele>
        <time>2011-12-26T09:04:36Z</time>
      </trkpt>
      <trkpt lat="44.52927" lon="0.96732">
        <ele>155</ele>
        <time>2011-12-26T09:04:37Z</time>
      </trkpt>
      <trkpt lat="44.52922" lon="0.96728">
        <ele>156</ele>
        <time>2011-12-26T09:04:42Z</time>
      </trkpt>
      <trkpt lat="44.52916" lon="0.96724">
        <ele>157</ele>
        <time>2011-12-26T09:04:42Z</time>
      </trkpt>
      <trkpt lat="44.52913" lon="0.96723">
        <ele>158</ele>
        <time>2011-12-26T09:04:43Z</time>
      </trkpt>
      <trkpt lat="44.52908" lon="0.96721">
        <ele>158</ele>
        <time>2011-12-26T09:04:48Z</time>
      </trkpt>
      <trkpt lat="44.52895" lon="0.96718">
        <ele>159</ele>
        <time>2011-12-26T09:04:49Z</time>
      </trkpt>
      <trkpt lat="44.52891" lon="0.96716">
        <ele>159</ele>
        <time>2011-12-26T09:04:50Z</time>
      </trkpt>
      <trkpt lat="44.52883" lon="0.96713">
        <ele>159</ele>
        <time>2011-12-26T09:04:55Z</time>
      </trkpt>
      <trkpt lat="44.52872" lon="0.96712">
        <ele>159</ele>
        <time>2011-12-26T09:04:55Z</time>
      </trkpt>
      <trkpt lat="44.52869" lon="0.96713">
        <ele>160</ele>
        <time>2011-12-26T09:04:57Z</time>
      </trkpt>
      <trkpt lat="44.52866" lon="0.96712">
        <ele>160</ele>
        <time>2011-12-26T09:04:58Z</time>
      </trkpt>
      <trkpt lat="44.5286" lon="0.96711">
        <ele>160</ele>
        <time>2011-12-26T09:05:02Z</time>
      </trkpt>
      <trkpt lat="44.52848" lon="0.96706">
        <ele>160</ele>
        <time>2011-12-26T09:05:03Z</time>
      </trkpt>
      <trkpt lat="44.52845" lon="0.96704">
        <ele>160</ele>
        <time>2011-12-26T09:05:05Z</time>
      </trkpt>
      <trkpt lat="44.52841" lon="0.96703">
        <ele>160</ele>
        <time>2011-12-26T09:05:06Z</time>
      </trkpt>
      <trkpt lat="44.52835" lon="0.96699">
        <ele>160</ele>
        <time>2011-12-26T09:05:10Z</time>
      </trkpt>
      <trkpt lat="44.52822" lon="0.96691">
        <ele>160</ele>
        <time>2011-12-26T09:05:11Z</time>
      </trkpt>
      <trkpt lat="44.52819" lon="0.96689">
        <ele>160</ele>
        <time>2011-12-26T09:05:12Z</time>
      </trkpt>
      <trkpt lat="44.52813" lon="0.96685">
        <ele>160</ele>
        <time>2011-12-26T09:05:17Z</time>
      </trkpt>
      <trkpt lat="44.52804" lon="0.96681">
        <ele>160</ele>
        <time>2011-12-26T09:05:17Z</time>
      </trkpt>
      <trkpt lat="44.52801" lon="0.96679">
        <ele>160</ele>
        <time>2011-12-26T09:05:18Z</time>
      </trkpt>
      <trkpt lat="44.52795" lon="0.96676">
        <ele>160</ele>
        <time>2011-12-26T09:05:23Z</time>
      </trkpt>
      <trkpt lat="44.52781" lon="0.9667">
        <ele>161</ele>
        <time>2011-12-26T09:05:24Z</time>
      </trkpt>
      <trkpt lat="44.52778" lon="0.96668">
        <ele>161</ele>
        <time>2011-12-26T09:05:25Z</time>
      </trkpt>
      <trkpt lat="44.52771" lon="0.96664">
        <ele>162</ele>
        <time>2011-12-26T09:05:30Z</time>
      </trkpt>
      <trkpt lat="44.52761" lon="0.96656">
        <ele>163</ele>
        <time>2011-12-26T09:05:30Z</time>
      </trkpt>
      <trkpt lat="44.52758" lon="0.96653">
        <ele>164</ele>
        <time>2011-12-26T09:05:31Z</time>
      </trkpt>
      <trkpt lat="44.52751" lon="0.96647">
        <ele>165</ele>
        <time>2011-12-26T09:05:37Z</time>
      </trkpt>
      <trkpt lat="44.52738" lon="0.96638">
        <ele>165</ele>
        <time>2011-12-26T09:05:37Z</time>
      </trkpt>
      <trkpt lat="44.52734" lon="0.96636">
        <ele>166</ele>
        <time>2011-12-26T09:05:38Z</time>
      </trkpt>
      <trkpt lat="44.52716" lon="0.96631">
        <ele>166</ele>
        <time>2011-12-26T09:05:43Z</time>
      </trkpt>
      <trkpt lat="44.52713" lon="0.96631">
        <ele>166</ele>
        <time>2011-12-26T09:05:45Z</time>
      </trkpt>
      <trkpt lat="44.5271" lon="0.96632">
        <ele>166</ele>
        <time>2011-12-26T09:05:46Z</time>
      </trkpt>
      <trkpt lat="44.52708" lon="0.96633">
        <ele>166</ele>
        <time>2011-12-26T09:05:47Z</time>
      </trkpt>
      <trkpt lat="44.52704" lon="0.96636">
        <ele>166</ele>
        <time>2011-12-26T09:05:51Z</time>
      </trkpt>
      <trkpt lat="44.52693" lon="0.96642">
        <ele>166</ele>
        <time>2011-12-26T09:05:53Z</time>
      </trkpt>
      <trkpt lat="44.52691" lon="0.96643">
        <ele>166</ele>
        <time>2011-12-26T09:05:53Z</time>
      </trkpt>
      <trkpt lat="44.52685" lon="0.96647">
        <ele>166</ele>
        <time>2011-12-26T09:05:59Z</time>
      </trkpt>
      <trkpt lat="44.52665" lon="0.96665">
        <ele>165</ele>
        <time>2011-12-26T09:05:59Z</time>
      </trkpt>
      <trkpt lat="44.52658" lon="0.96673">
        <ele>164</ele>
        <time>2011-12-26T09:06:00Z</time>
      </trkpt>
      <trkpt lat="44.52616" lon="0.96714">
        <ele>163</ele>
        <time>2011-12-26T09:06:05Z</time>
      </trkpt>
      <trkpt lat="44.52607" lon="0.96724">
        <ele>161</ele>
        <time>2011-12-26T09:06:06Z</time>
      </trkpt>
      <trkpt lat="44.52596" lon="0.96734">
        <ele>159</ele>
        <time>2011-12-26T09:06:07Z</time>
      </trkpt>
      <trkpt lat="44.52574" lon="0.96759">
        <ele>156</ele>
        <time>2011-12-26T09:06:12Z</time>
      </trkpt>
      <trkpt lat="44.52541" lon="0.96791">
        <ele>152</ele>
        <time>2011-12-26T09:06:12Z</time>
      </trkpt>
      <trkpt lat="44.5253" lon="0.96801">
        <ele>148</ele>
        <time>2011-12-26T09:06:13Z</time>
      </trkpt>
      <trkpt lat="44.52507" lon="0.96819">
        <ele>144</ele>
        <time>2011-12-26T09:06:18Z</time>
      </trkpt>
      <trkpt lat="44.52481" lon="0.96846">
        <ele>140</ele>
        <time>2011-12-26T09:06:19Z</time>
      </trkpt>
      <trkpt lat="44.52476" lon="0.96848">
        <ele>136</ele>
        <time>2011-12-26T09:06:20Z</time>
      </trkpt>
      <trkpt lat="44.52471" lon="0.96848">
        <ele>132</ele>
        <time>2011-12-26T09:06:21Z</time>
      </trkpt>
      <trkpt lat="44.52464" lon="0.96847">
        <ele>129</ele>
        <time>2011-12-26T09:06:27Z</time>
      </trkpt>
      <trkpt lat="44.52456" lon="0.96845">
        <ele>127</ele>
        <time>2011-12-26T09:06:27Z</time>
      </trkpt>
      <trkpt lat="44.52453" lon="0.96844">
        <ele>125</ele>
        <time>2011-12-26T09:06:33Z</time>
      </trkpt>
      <trkpt lat="44.52449" lon="0.96844">
        <ele>124</ele>
        <time>2011-12-26T09:06:34Z</time>
      </trkpt>
      <trkpt lat="44.5245" lon="0.96845">
        <ele>123</ele>
        <time>2011-12-26T09:06:35Z</time>
      </trkpt>
      <trkpt lat="44.52453" lon="0.96847">
        <ele>123</ele>
        <time>2011-12-26T09:06:41Z</time>
      </trkpt>
      <trkpt lat="44.52456" lon="0.9685">
        <ele>123</ele>
        <time>2011-12-26T09:06:51Z</time>
      </trkpt>
      <trkpt lat="44.52457" lon="0.9685">
        <ele>123</ele>
        <time>2011-12-26T09:06:51Z</time>
      </trkpt>
      <trkpt lat="44.52459" lon="0.96851">
        <ele>123</ele>
        <time>2011-12-26T09:06:52Z</time>
      </trkpt>
      <trkpt lat="44.52475" lon="0.96856">
        <ele>123</ele>
        <time>2011-12-26T09:06:57Z</time>
      </trkpt>
      <trkpt lat="44.5248" lon="0.96856">
        <ele>123</ele>
        <time>2011-12-26T09:06:58Z</time>
      </trkpt>
      <trkpt lat="44.52486" lon="0.96854">
        <ele>123</ele>
        <time>2011-12-26T09:07:04Z</time>
      </trkpt>
      <trkpt lat="44.52496" lon="0.96843">
        <ele>123</ele>
        <time>2011-12-26T09:07:05Z</time>
      </trkpt>
      <trkpt lat="44.52498" lon="0.96841">
        <ele>123</ele>
        <time>2011-12-26T09:07:05Z</time>
      </trkpt>
      <trkpt lat="44.52501" lon="0.96838">
        <ele>123</ele>
        <time>2011-12-26T09:07:06Z</time>
      </trkpt>
      <trkpt lat="44.52514" lon="0.96825">
        <ele>124</ele>
        <time>2011-12-26T09:07:11Z</time>
      </trkpt>
      <trkpt lat="44.52517" lon="0.96824">
        <ele>124</ele>
        <time>2011-12-26T09:07:12Z</time>
      </trkpt>
      <trkpt lat="44.5252" lon="0.96822">
        <ele>125</ele>
        <time>2011-12-26T09:07:13Z</time>
      </trkpt>
      <trkpt lat="44.5253" lon="0.96805">
        <ele>126</ele>
        <time>2011-12-26T09:07:18Z</time>
      </trkpt>
      <trkpt lat="44.52529" lon="0.96802">
        <ele>126</ele>
        <time>2011-12-26T09:07:19Z</time>
      </trkpt>
      <trkpt lat="44.52528" lon="0.96798">
        <ele>126</ele>
        <time>2011-12-26T09:07:21Z</time>
      </trkpt>
      <trkpt lat="44.52526" lon="0.96794">
        <ele>126</ele>
        <time>2011-12-26T09:07:21Z</time>
      </trkpt>
      <trkpt lat="44.52524" lon="0.96785">
        <ele>126</ele>
        <time>2011-12-26T09:07:26Z</time>
      </trkpt>
      <trkpt lat="44.52522" lon="0.96772">
        <ele>126</ele>
        <time>2011-12-26T09:07:26Z</time>
      </trkpt>
      <trkpt lat="44.52521" lon="0.96767">
        <ele>126</ele>
        <time>2011-12-26T09:07:27Z</time>
      </trkpt>
      <trkpt lat="44.52519" lon="0.96759">
        <ele>126</ele>
        <time>2011-12-26T09:07:33Z</time>
      </trkpt>
      <trkpt lat="44.52514" lon="0.96737">
        <ele>126</ele>
        <time>2011-12-26T09:07:33Z</time>
      </trkpt>
      <trkpt lat="44.52512" lon="0.96731">
        <ele>126</ele>
        <time>2011-12-26T09:07:34Z</time>
      </trkpt>
      <trkpt lat="44.52503" lon="0.96703">
        <ele>126</ele>
        <time>2011-12-26T09:07:39Z</time>
      </trkpt>
      <trkpt lat="44.52501" lon="0.96697">
        <ele>126</ele>
        <time>2011-12-26T09:07:40Z</time>
      </trkpt>
      <trkpt lat="44.52499" lon="0.96692">
        <ele>126</ele>
        <time>2011-12-26T09:07:41Z</time>
      </trkpt>
      <trkpt lat="44.52495" lon="0.96681">
        <ele>126</ele>
        <time>2011-12-26T09:07:46Z</time>
      </trkpt>
      <trkpt lat="44.52488" lon="0.96664">
        <ele>126</ele>
        <time>2011-12-26T09:07:46Z</time>
      </trkpt>
      <trkpt lat="44.52486" lon="0.96659">
        <ele>126</ele>
        <time>2011-12-26T09:07:47Z</time>
      </trkpt>
      <trkpt lat="44.52483" lon="0.96648">
        <ele>126</ele>
        <time>2011-12-26T09:07:53Z</time>
      </trkpt>
      <trkpt lat="44.52474" lon="0.96624">
        <ele>126</ele>
        <time>2011-12-26T09:07:53Z</time>
      </trkpt>
      <trkpt lat="44.52471" lon="0.96618">
        <ele>126</ele>
        <time>2011-12-26T09:07:54Z</time>
      </trkpt>
      <trkpt lat="44.52466" lon="0.96605">
        <ele>126</ele>
        <time>2011-12-26T09:07:59Z</time>
      </trkpt>
      <trkpt lat="44.52454" lon="0.96577">
        <ele>126</ele>
        <time>2011-12-26T09:08:00Z</time>
      </trkpt>
      <trkpt lat="44.52451" lon="0.96569">
        <ele>126</ele>
        <time>2011-12-26T09:08:01Z</time>
      </trkpt>
      <trkpt lat="44.52446" lon="0.96553">
        <ele>126</ele>
        <time>2011-12-26T09:08:06Z</time>
      </trkpt>
      <trkpt lat="44.5244" lon="0.96526">
        <ele>125</ele>
        <time>2011-12-26T09:08:06Z</time>
      </trkpt>
      <trkpt lat="44.52438" lon="0.96517">
        <ele>124</ele>
        <time>2011-12-26T09:08:07Z</time>
      </trkpt>
      <trkpt lat="44.52434" lon="0.96499">
        <ele>123</ele>
        <time>2011-12-26T09:08:13Z</time>
      </trkpt>
      <trkpt lat="44.52428" lon="0.96462">
        <ele>122</ele>
        <time>2011-12-26T09:08:13Z</time>
      </trkpt>
      <trkpt lat="44.52427" lon="0.96453">
        <ele>121</ele>
        <time>2011-12-26T09:08:14Z</time>
      </trkpt>
      <trkpt lat="44.52425" lon="0.96435">
        <ele>120</ele>
        <time>2011-12-26T09:08:19Z</time>
      </trkpt>
      <trkpt lat="44.52419" lon="0.96404">
        <ele>119</ele>
        <time>2011-12-26T09:08:20Z</time>
      </trkpt>
      <trkpt lat="44.52418" lon="0.96396">
        <ele>119</ele>
        <time>2011-12-26T09:08:21Z</time>
      </trkpt>
      <trkpt lat="44.52414" lon="0.96381">
        <ele>118</ele>
        <time>2011-12-26T09:08:26Z</time>
      </trkpt>
      <trkpt lat="44.52407" lon="0.96358">
        <ele>117</ele>
        <time>2011-12-26T09:08:26Z</time>
      </trkpt>
      <trkpt lat="44.52404" lon="0.9635">
        <ele>117</ele>
        <time>2011-12-26T09:08:27Z</time>
      </trkpt>
      <trkpt lat="44.524" lon="0.96334">
        <ele>117</ele>
        <time>2011-12-26T09:08:33Z</time>
      </trkpt>
      <trkpt lat="44.52391" lon="0.96304">
        <ele>117</ele>
        <time>2011-12-26T09:08:33Z</time>
      </trkpt>
      <trkpt lat="44.52388" lon="0.96296">
        <ele>116</ele>
        <time>2011-12-26T09:08:34Z</time>
      </trkpt>
      <trkpt lat="44.52384" lon="0.96279">
        <ele>116</ele>
        <time>2011-12-26T09:08:39Z</time>
      </trkpt>
      <trkpt lat="44.52368" lon="0.96249">
        <ele>115</ele>
        <time>2011-12-26T09:08:40Z</time>
      </trkpt>
      <trkpt lat="44.52363" lon="0.96244">
        <ele>114</ele>
        <time>2011-12-26T09:08:41Z</time>
      </trkpt>
      <trkpt lat="44.52359" lon="0.96239">
        <ele>113</ele>
        <time>2011-12-26T09:08:42Z</time>
      </trkpt>
      <trkpt lat="44.52351" lon="0.96204">
        <ele>112</ele>
        <time>2011-12-26T09:08:47Z</time>
      </trkpt>
      <trkpt lat="44.52351" lon="0.96195">
        <ele>111</ele>
        <time>2011-12-26T09:08:49Z</time>
      </trkpt>
      <trkpt lat="44.52352" lon="0.96187">
        <ele>110</ele>
        <time>2011-12-26T09:08:50Z</time>
      </trkpt>
      <trkpt lat="44.52354" lon="0.9617">
        <ele>109</ele>
        <time>2011-12-26T09:08:55Z</time>
      </trkpt>
      <trkpt lat="44.52355" lon="0.96136">
        <ele>108</ele>
        <time>2011-12-26T09:08:55Z</time>
      </trkpt>
      <trkpt lat="44.52353" lon="0.96128">
        <ele>108</ele>
        <time>2011-12-26T09:08:57Z</time>
      </trkpt>
      <trkpt lat="44.5235" lon="0.96121">
        <ele>107</ele>
        <time>2011-12-26T09:08:57Z</time>
      </trkpt>
      <trkpt lat="44.5233" lon="0.96089">
        <ele>107</ele>
        <time>2011-12-26T09:09:02Z</time>
      </trkpt>
      <trkpt lat="44.52325" lon="0.96083">
        <ele>107</ele>
        <time>2011-12-26T09:09:03Z</time>
      </trkpt>
      <trkpt lat="44.52319" lon="0.96079">
        <ele>106</ele>
        <time>2011-12-26T09:09:04Z</time>
      </trkpt>
      <trkpt lat="44.5231" lon="0.96069">
        <ele>105</ele>
        <time>2011-12-26T09:09:09Z</time>
      </trkpt>
      <trkpt lat="44.52288" lon="0.9605">
        <ele>104</ele>
        <time>2011-12-26T09:09:10Z</time>
      </trkpt>
      <trkpt lat="44.52281" lon="0.96048">
        <ele>104</ele>
        <time>2011-12-26T09:09:12Z</time>
      </trkpt>
      <trkpt lat="44.52275" lon="0.96046">
        <ele>103</ele>
        <time>2011-12-26T09:09:13Z</time>
      </trkpt>
      <trkpt lat="44.52262" lon="0.96041">
        <ele>102</ele>
        <time>2011-12-26T09:09:17Z</time>
      </trkpt>
      <trkpt lat="44.52237" lon="0.96038">
        <ele>101</ele>
        <time>2011-12-26T09:09:18Z</time>
      </trkpt>
      <trkpt lat="44.5223" lon="0.96036">
        <ele>101</ele>
        <time>2011-12-26T09:09:19Z</time>
      </trkpt>
      <trkpt lat="44.52193" lon="0.96013">
        <ele>100</ele>
        <time>2011-12-26T09:09:24Z</time>
      </trkpt>
      <trkpt lat="44.52186" lon="0.96008">
        <ele>99</ele>
        <time>2011-12-26T09:09:26Z</time>
      </trkpt>
      <trkpt lat="44.52179" lon="0.96003">
        <ele>98</ele>
        <time>2011-12-26T09:09:26Z</time>
      </trkpt>
      <trkpt lat="44.52167" lon="0.95991">
        <ele>97</ele>
        <time>2011-12-26T09:09:32Z</time>
      </trkpt>
      <trkpt lat="44.52142" lon="0.95967">
        <ele>96</ele>
        <time>2011-12-26T09:09:32Z</time>
      </trkpt>
      <trkpt lat="44.52136" lon="0.95961">
        <ele>95</ele>
        <time>2011-12-26T09:09:33Z</time>
      </trkpt>
      <trkpt lat="44.52126" lon="0.95949">
        <ele>95</ele>
        <time>2011-12-26T09:09:38Z</time>
      </trkpt>
      <trkpt lat="44.5211" lon="0.95926">
        <ele>94</ele>
        <time>2011-12-26T09:09:39Z</time>
      </trkpt>
      <trkpt lat="44.52106" lon="0.95921">
        <ele>94</ele>
        <time>2011-12-26T09:09:40Z</time>
      </trkpt>
      <trkpt lat="44.52084" lon="0.95897">
        <ele>94</ele>
        <time>2011-12-26T09:09:45Z</time>
      </trkpt>
      <trkpt lat="44.52079" lon="0.95889">
        <ele>93</ele>
        <time>2011-12-26T09:09:46Z</time>
      </trkpt>
      <trkpt lat="44.52075" lon="0.95881">
        <ele>93</ele>
        <time>2011-12-26T09:09:47Z</time>
      </trkpt>
      <trkpt lat="44.52054" lon="0.95842">
        <ele>92</ele>
        <time>2011-12-26T09:09:52Z</time>
      </trkpt>
      <trkpt lat="44.5205" lon="0.95835">
        <ele>92</ele>
        <time>2011-12-26T09:09:53Z</time>
      </trkpt>
      <trkpt lat="44.52043" lon="0.95819">
        <ele>91</ele>
        <time>2011-12-26T09:09:59Z</time>
      </trkpt>
      <trkpt lat="44.52031" lon="0.95787">
        <ele>90</ele>
        <time>2011-12-26T09:09:59Z</time>
      </trkpt>
      <trkpt lat="44.52029" lon="0.9578">
        <ele>89</ele>
        <time>2011-12-26T09:10:00Z</time>
      </trkpt>
      <trkpt lat="44.52024" lon="0.95764">
        <ele>88</ele>
        <time>2011-12-26T09:10:06Z</time>
      </trkpt>
      <trkpt lat="44.52018" lon="0.95729">
        <ele>88</ele>
        <time>2011-12-26T09:10:06Z</time>
      </trkpt>
      <trkpt lat="44.52016" lon="0.9572">
        <ele>88</ele>
        <time>2011-12-26T09:10:07Z</time>
      </trkpt>
      <trkpt lat="44.52013" lon="0.95703">
        <ele>88</ele>
        <time>2011-12-26T09:10:12Z</time>
      </trkpt>
      <trkpt lat="44.52005" lon="0.95668">
        <ele>88</ele>
        <time>2011-12-26T09:10:13Z</time>
      </trkpt>
      <trkpt lat="44.52003" lon="0.95661">
        <ele>88</ele>
        <time>2011-12-26T09:10:14Z</time>
      </trkpt>
      <trkpt lat="44.52003" lon="0.95619">
        <ele>88</ele>
        <time>2011-12-26T09:10:19Z</time>
      </trkpt>
      <trkpt lat="44.52003" lon="0.95611">
        <ele>88</ele>
        <time>2011-12-26T09:10:21Z</time>
      </trkpt>
      <trkpt lat="44.52003" lon="0.95602">
        <ele>88</ele>
        <time>2011-12-26T09:10:22Z</time>
      </trkpt>
      <trkpt lat="44.52003" lon="0.95585">
        <ele>88</ele>
        <time>2011-12-26T09:10:27Z</time>
      </trkpt>
      <trkpt lat="44.52004" lon="0.95549">
        <ele>88</ele>
        <time>2011-12-26T09:10:27Z</time>
      </trkpt>
      <trkpt lat="44.52004" lon="0.9554">
        <ele>88</ele>
        <time>2011-12-26T09:10:28Z</time>
      </trkpt>
      <trkpt lat="44.52005" lon="0.95522">
        <ele>88</ele>
        <time>2011-12-26T09:10:33Z</time>
      </trkpt>
      <trkpt lat="44.52007" lon="0.95486">
        <ele>88</ele>
        <time>2011-12-26T09:10:34Z</time>
      </trkpt>
      <trkpt lat="44.52008" lon="0.95477">
        <ele>88</ele>
        <time>2011-12-26T09:10:35Z</time>
      </trkpt>
      <trkpt lat="44.52013" lon="0.95433">
        <ele>88</ele>
        <time>2011-12-26T09:10:40Z</time>
      </trkpt>
      <trkpt lat="44.52015" lon="0.95424">
        <ele>87</ele>
        <time>2011-12-26T09:10:41Z</time>
      </trkpt>
      <trkpt lat="44.52016" lon="0.95416">
        <ele>87</ele>
        <time>2011-12-26T09:10:42Z</time>
      </trkpt>
      <trkpt lat="44.5202" lon="0.95372">
        <ele>86</ele>
        <time>2011-12-26T09:10:47Z</time>
      </trkpt>
      <trkpt lat="44.5202" lon="0.95363">
        <ele>86</ele>
        <time>2011-12-26T09:10:48Z</time>
      </trkpt>
      <trkpt lat="44.5202" lon="0.95354">
        <ele>86</ele>
        <time>2011-12-26T09:10:49Z</time>
      </trkpt>
      <trkpt lat="44.52021" lon="0.95309">
        <ele>85</ele>
        <time>2011-12-26T09:10:54Z</time>
      </trkpt>
      <trkpt lat="44.52022" lon="0.95301">
        <ele>85</ele>
        <time>2011-12-26T09:10:55Z</time>
      </trkpt>
      <trkpt lat="44.52023" lon="0.95292">
        <ele>85</ele>
        <time>2011-12-26T09:10:56Z</time>
      </trkpt>
      <trkpt lat="44.52028" lon="0.9525">
        <ele>85</ele>
        <time>2011-12-26T09:11:01Z</time>
      </trkpt>
      <trkpt lat="44.52027" lon="0.95242">
        <ele>85</ele>
        <time>2011-12-26T09:11:02Z</time>
      </trkpt>
      <trkpt lat="44.52027" lon="0.95234">
        <ele>85</ele>
        <time>2011-12-26T09:11:03Z</time>
      </trkpt>
      <trkpt lat="44.52024" lon="0.95194">
        <ele>85</ele>
        <time>2011-12-26T09:11:08Z</time>
      </trkpt>
      <trkpt lat="44.52024" lon="0.95187">
        <ele>85</ele>
        <time>2011-12-26T09:11:09Z</time>
      </trkpt>
      <trkpt lat="44.52024" lon="0.9518">
        <ele>85</ele>
        <time>2011-12-26T09:11:10Z</time>
      </trkpt>
      <trkpt lat="44.52026" lon="0.95157">
        <ele>85</ele>
        <time>2011-12-26T09:11:15Z</time>
      </trkpt>
      <trkpt lat="44.52027" lon="0.95155">
        <ele>85</ele>
        <time>2011-12-26T09:11:17Z</time>
      </trkpt>
      <trkpt lat="44.52028" lon="0.95152">
        <ele>85</ele>
        <time>2011-12-26T09:11:18Z</time>
      </trkpt>
      <trkpt lat="44.52029" lon="0.95148">
        <ele>85</ele>
        <time>2011-12-26T09:11:23Z</time>
      </trkpt>
      <trkpt lat="44.52032" lon="0.9514">
        <ele>85</ele>
        <time>2011-12-26T09:11:23Z</time>
      </trkpt>
      <trkpt lat="44.52033" lon="0.95139">
        <ele>85</ele>
        <time>2011-12-26T09:11:24Z</time>
      </trkpt>
      <trkpt lat="44.52034" lon="0.95137">
        <ele>84</ele>
        <time>2011-12-26T09:11:26Z</time>
      </trkpt>
      <trkpt lat="44.52036" lon="0.95133">
        <ele>84</ele>
        <time>2011-12-26T09:11:31Z</time>
      </trkpt>
      <trkpt lat="44.52039" lon="0.95126">
        <ele>84</ele>
        <time>2011-12-26T09:11:31Z</time>
      </trkpt>
      <trkpt lat="44.5204" lon="0.95125">
        <ele>84</ele>
        <time>2011-12-26T09:11:32Z</time>
      </trkpt>
      <trkpt lat="44.52043" lon="0.95122">
        <ele>84</ele>
        <time>2011-12-26T09:11:38Z</time>
      </trkpt>
      <trkpt lat="44.52047" lon="0.95114">
        <ele>84</ele>
        <time>2011-12-26T09:11:38Z</time>
      </trkpt>
      <trkpt lat="44.52049" lon="0.95112">
        <ele>84</ele>
        <time>2011-12-26T09:11:39Z</time>
      </trkpt>
      <trkpt lat="44.52051" lon="0.95109">
        <ele>84</ele>
        <time>2011-12-26T09:11:45Z</time>
      </trkpt>
      <trkpt lat="44.52056" lon="0.95101">
        <ele>84</ele>
        <time>2011-12-26T09:11:45Z</time>
      </trkpt>
      <trkpt lat="44.52058" lon="0.95099">
        <ele>84</ele>
        <time>2011-12-26T09:11:46Z</time>
      </trkpt>
      <trkpt lat="44.52061" lon="0.95095">
        <ele>83</ele>
        <time>2011-12-26T09:11:51Z</time>
      </trkpt>
      <trkpt lat="44.52069" lon="0.95085">
        <ele>83</ele>
        <time>2011-12-26T09:11:52Z</time>
      </trkpt>
      <trkpt lat="44.52071" lon="0.95083">
        <ele>83</ele>
        <time>2011-12-26T09:11:53Z</time>
      </trkpt>
      <trkpt lat="44.52073" lon="0.95082">
        <ele>83</ele>
        <time>2011-12-26T09:11:54Z</time>
      </trkpt>
      <trkpt lat="44.52076" lon="0.95081">
        <ele>83</ele>
        <time>2011-12-26T09:12:00Z</time>
      </trkpt>
      <trkpt lat="44.52077" lon="0.9508">
        <ele>83</ele>
        <time>2011-12-26T09:12:09Z</time>
      </trkpt>
      <trkpt lat="44.52077" lon="0.95078">
        <ele>83</ele>
        <time>2011-12-26T09:12:20Z</time>
      </trkpt>
      <trkpt lat="44.52077" lon="0.95077">
        <ele>83</ele>
        <time>2011-12-26T09:12:35Z</time>
      </trkpt>
      <trkpt lat="44.52077" lon="0.95075">
        <ele>83</ele>
        <time>2011-12-26T09:12:38Z</time>
      </trkpt>
      <trkpt lat="44.52077" lon="0.95074">
        <ele>83</ele>
        <time>2011-12-26T09:12:45Z</time>
      </trkpt>
      <trkpt lat="44.52077" lon="0.95072">
        <ele>83</ele>
        <time>2011-12-26T09:13:25Z</time>
      </trkpt>
      <trkpt lat="44.52077" lon="0.95071">
        <ele>83</ele>
        <time>2011-12-26T09:13:41Z</time>
      </trkpt>
      <trkpt lat="44.52076" lon="0.95069">
        <ele>83</ele>
        <time>2011-12-26T09:14:25Z</time>
      </trkpt>
      <trkpt lat="44.52076" lon="0.95068">
        <ele>83</ele>
        <time>2011-12-26T09:15:36Z</time>
      </trkpt>
      <trkpt lat="44.52076" lon="0.95069">
        <ele>83</ele>
        <time>2011-12-26T09:16:44Z</time>
      </trkpt>
      <trkpt lat="44.52075" lon="0.95072">
        <ele>83</ele>
        <time>2011-12-26T09:16:45Z</time>
      </trkpt>
      <trkpt lat="44.52074" lon="0.95074">
        <ele>83</ele>
        <time>2011-12-26T09:16:52Z</time>
      </trkpt>
      <trkpt lat="44.52071" lon="0.95069">
        <ele>86</ele>
        <time>2011-12-26T09:18:35Z</time>
      </trkpt>
      <trkpt lat="44.52073" lon="0.95065">
        <ele>86</ele>
        <time>2011-12-26T09:18:42Z</time>
      </trkpt>
      <trkpt lat="44.52074" lon="0.95066">
        <ele>86</ele>
        <time>2011-12-26T09:19:10Z</time>
      </trkpt>
      <trkpt lat="44.52073" lon="0.95067">
        <ele>86</ele>
        <time>2011-12-26T09:19:36Z</time>
      </trkpt>
      <trkpt lat="44.52073" lon="0.95069">
        <ele>86</ele>
        <time>2011-12-26T09:19:45Z</time>
      </trkpt>
      <trkpt lat="44.52073" lon="0.95071">
        <ele>86</ele>
        <time>2011-12-26T09:19:55Z</time>
      </trkpt>
      <trkpt lat="44.52074" lon="0.95071">
        <ele>81</ele>
        <time>2011-12-26T09:20:14Z</time>
      </trkpt>
      <trkpt lat="44.52073" lon="0.95071">
        <ele>81</ele>
        <time>2011-12-26T09:20:42Z</time>
      </trkpt>
      <trkpt lat="44.52074" lon="0.9507">
        <ele>81</ele>
        <time>2011-12-26T09:20:49Z</time>
      </trkpt>
      <trkpt lat="44.52075" lon="0.9507">
        <ele>81</ele>
        <time>2011-12-26T09:20:52Z</time>
      </trkpt>
      <trkpt lat="44.52078" lon="0.95069">
        <ele>81</ele>
        <time>2011-12-26T09:20:58Z</time>
      </trkpt>
      <trkpt lat="44.52084" lon="0.95063">
        <ele>81</ele>
        <time>2011-12-26T09:20:59Z</time>
      </trkpt>
      <trkpt lat="44.52086" lon="0.95061">
        <ele>81</ele>
        <time>2011-12-26T09:21:00Z</time>
      </trkpt>
      <trkpt lat="44.52087" lon="0.95059">
        <ele>81</ele>
        <time>2011-12-26T09:21:01Z</time>
      </trkpt>
      <trkpt lat="44.52089" lon="0.95057">
        <ele>81</ele>
        <time>2011-12-26T09:21:01Z</time>
      </trkpt>
      <trkpt lat="44.52095" lon="0.95049">
        <ele>81</ele>
        <time>2011-12-26T09:21:06Z</time>
      </trkpt>
      <trkpt lat="44.52097" lon="0.95047">
        <ele>81</ele>
        <time>2011-12-26T09:21:07Z</time>
      </trkpt>
      <trkpt lat="44.52098" lon="0.95046">
        <ele>81</ele>
        <time>2011-12-26T09:21:08Z</time>
      </trkpt>
      <trkpt lat="44.52102" lon="0.95043">
        <ele>81</ele>
        <time>2011-12-26T09:21:13Z</time>
      </trkpt>
      <trkpt lat="44.52108" lon="0.95037">
        <ele>81</ele>
        <time>2011-12-26T09:21:14Z</time>
      </trkpt>
      <trkpt lat="44.5211" lon="0.95034">
        <ele>81</ele>
        <time>2011-12-26T09:21:15Z</time>
      </trkpt>
      <trkpt lat="44.52113" lon="0.9503">
        <ele>81</ele>
        <time>2011-12-26T09:21:22Z</time>
      </trkpt>
      <trkpt lat="44.52123" lon="0.9502">
        <ele>81</ele>
        <time>2011-12-26T09:21:22Z</time>
      </trkpt>
      <trkpt lat="44.52127" lon="0.95015">
        <ele>81</ele>
        <time>2011-12-26T09:21:28Z</time>
      </trkpt>
      <trkpt lat="44.52137" lon="0.95004">
        <ele>81</ele>
        <time>2011-12-26T09:21:28Z</time>
      </trkpt>
      <trkpt lat="44.5214" lon="0.95001">
        <ele>81</ele>
        <time>2011-12-26T09:21:29Z</time>
      </trkpt>
      <trkpt lat="44.52145" lon="0.94995">
        <ele>81</ele>
        <time>2011-12-26T09:21:35Z</time>
      </trkpt>
      <trkpt lat="44.52155" lon="0.94983">
        <ele>81</ele>
        <time>2011-12-26T09:21:35Z</time>
      </trkpt>
      <trkpt lat="44.52158" lon="0.9498">
        <ele>81</ele>
        <time>2011-12-26T09:21:36Z</time>
      </trkpt>
      <trkpt lat="44.52163" lon="0.94974">
        <ele>81</ele>
        <time>2011-12-26T09:21:42Z</time>
      </trkpt>
      <trkpt lat="44.52174" lon="0.94961">
        <ele>81</ele>
        <time>2011-12-26T09:21:42Z</time>
      </trkpt>
      <trkpt lat="44.52177" lon="0.94958">
        <ele>81</ele>
        <time>2011-12-26T09:21:43Z</time>
      </trkpt>
      <trkpt lat="44.52183" lon="0.94952">
        <ele>81</ele>
        <time>2011-12-26T09:21:49Z</time>
      </trkpt>
      <trkpt lat="44.52197" lon="0.94939">
        <ele>81</ele>
        <time>2011-12-26T09:21:49Z</time>
      </trkpt>
      <trkpt lat="44.522" lon="0.94937">
        <ele>81</ele>
        <time>2011-12-26T09:21:50Z</time>
      </trkpt>
      <trkpt lat="44.52208" lon="0.94933">
        <ele>81</ele>
        <time>2011-12-26T09:21:55Z</time>
      </trkpt>
      <trkpt lat="44.52225" lon="0.94927">
        <ele>81</ele>
        <time>2011-12-26T09:21:56Z</time>
      </trkpt>
      <trkpt lat="44.5223" lon="0.94926">
        <ele>81</ele>
        <time>2011-12-26T09:21:57Z</time>
      </trkpt>
      <trkpt lat="44.52239" lon="0.94923">
        <ele>81</ele>
        <time>2011-12-26T09:22:02Z</time>
      </trkpt>
      <trkpt lat="44.52257" lon="0.94918">
        <ele>81</ele>
        <time>2011-12-26T09:22:03Z</time>
      </trkpt>
      <trkpt lat="44.52261" lon="0.94917">
        <ele>81</ele>
        <time>2011-12-26T09:22:04Z</time>
      </trkpt>
      <trkpt lat="44.5227" lon="0.94915">
        <ele>81</ele>
        <time>2011-12-26T09:22:09Z</time>
      </trkpt>
      <trkpt lat="44.52288" lon="0.94909">
        <ele>81</ele>
        <time>2011-12-26T09:22:10Z</time>
      </trkpt>
      <trkpt lat="44.52292" lon="0.94908">
        <ele>81</ele>
        <time>2011-12-26T09:22:11Z</time>
      </trkpt>
      <trkpt lat="44.52301" lon="0.94906">
        <ele>81</ele>
        <time>2011-12-26T09:22:16Z</time>
      </trkpt>
      <trkpt lat="44.52319" lon="0.94901">
        <ele>81</ele>
        <time>2011-12-26T09:22:17Z</time>
      </trkpt>
      <trkpt lat="44.52323" lon="0.949">
        <ele>81</ele>
        <time>2011-12-26T09:22:18Z</time>
      </trkpt>
      <trkpt lat="44.52331" lon="0.94898">
        <ele>81</ele>
        <time>2011-12-26T09:22:23Z</time>
      </trkpt>
      <trkpt lat="44.52347" lon="0.94891">
        <ele>82</ele>
        <time>2011-12-26T09:22:24Z</time>
      </trkpt>
      <trkpt lat="44.5235" lon="0.94889">
        <ele>82</ele>
        <time>2011-12-26T09:22:25Z</time>
      </trkpt>
      <trkpt lat="44.52353" lon="0.94886">
        <ele>82</ele>
        <time>2011-12-26T09:22:26Z</time>
      </trkpt>
      <trkpt lat="44.52359" lon="0.94878">
        <ele>82</ele>
        <time>2011-12-26T09:22:31Z</time>
      </trkpt>
      <trkpt lat="44.52367" lon="0.94859">
        <ele>82</ele>
        <time>2011-12-26T09:22:32Z</time>
      </trkpt>
      <trkpt lat="44.52369" lon="0.94854">
        <ele>82</ele>
        <time>2011-12-26T09:22:33Z</time>
      </trkpt>
      <trkpt lat="44.5237" lon="0.9485">
        <ele>82</ele>
        <time>2011-12-26T09:22:34Z</time>
      </trkpt>
      <trkpt lat="44.52372" lon="0.94842">
        <ele>82</ele>
        <time>2011-12-26T09:22:39Z</time>
      </trkpt>
      <trkpt lat="44.52374" lon="0.94824">
        <ele>82</ele>
        <time>2011-12-26T09:22:40Z</time>
      </trkpt>
      <trkpt lat="44.52374" lon="0.94819">
        <ele>82</ele>
        <time>2011-12-26T09:22:41Z</time>
      </trkpt>
      <trkpt lat="44.52376" lon="0.94807">
        <ele>82</ele>
        <time>2011-12-26T09:22:46Z</time>
      </trkpt>
      <trkpt lat="44.52378" lon="0.94779">
        <ele>82</ele>
        <time>2011-12-26T09:22:47Z</time>
      </trkpt>
      <trkpt lat="44.52379" lon="0.94772">
        <ele>82</ele>
        <time>2011-12-26T09:22:48Z</time>
      </trkpt>
      <trkpt lat="44.5238" lon="0.94757">
        <ele>82</ele>
        <time>2011-12-26T09:22:53Z</time>
      </trkpt>
      <trkpt lat="44.52388" lon="0.94728">
        <ele>82</ele>
        <time>2011-12-26T09:22:54Z</time>
      </trkpt>
      <trkpt lat="44.52391" lon="0.9472">
        <ele>82</ele>
        <time>2011-12-26T09:22:55Z</time>
      </trkpt>
      <trkpt lat="44.52394" lon="0.94713">
        <ele>82</ele>
        <time>2011-12-26T09:22:56Z</time>
      </trkpt>
      <trkpt lat="44.52401" lon="0.94699">
        <ele>82</ele>
        <time>2011-12-26T09:23:01Z</time>
      </trkpt>
      <trkpt lat="44.5242" lon="0.94678">
        <ele>82</ele>
        <time>2011-12-26T09:23:02Z</time>
      </trkpt>
      <trkpt lat="44.52425" lon="0.94673">
        <ele>82</ele>
        <time>2011-12-26T09:23:03Z</time>
      </trkpt>
      <trkpt lat="44.5243" lon="0.94669">
        <ele>82</ele>
        <time>2011-12-26T09:23:04Z</time>
      </trkpt>
      <trkpt lat="44.52441" lon="0.94661">
        <ele>82</ele>
        <time>2011-12-26T09:23:10Z</time>
      </trkpt>
      <trkpt lat="44.52461" lon="0.94646">
        <ele>82</ele>
        <time>2011-12-26T09:23:10Z</time>
      </trkpt>
      <trkpt lat="44.52466" lon="0.94642">
        <ele>82</ele>
        <time>2011-12-26T09:23:11Z</time>
      </trkpt>
      <trkpt lat="44.52476" lon="0.94634">
        <ele>82</ele>
        <time>2011-12-26T09:23:17Z</time>
      </trkpt>
      <trkpt lat="44.52494" lon="0.94621">
        <ele>82</ele>
        <time>2011-12-26T09:23:17Z</time>
      </trkpt>
      <trkpt lat="44.52499" lon="0.94617">
        <ele>82</ele>
        <time>2011-12-26T09:23:18Z</time>
      </trkpt>
      <trkpt lat="44.52507" lon="0.9461">
        <ele>82</ele>
        <time>2011-12-26T09:23:24Z</time>
      </trkpt>
      <trkpt lat="44.52523" lon="0.94598">
        <ele>82</ele>
        <time>2011-12-26T09:23:24Z</time>
      </trkpt>
      <trkpt lat="44.52528" lon="0.94595">
        <ele>82</ele>
        <time>2011-12-26T09:23:25Z</time>
      </trkpt>
      <trkpt lat="44.52536" lon="0.94588">
        <ele>82</ele>
        <time>2011-12-26T09:23:30Z</time>
      </trkpt>
      <trkpt lat="44.52552" lon="0.94574">
        <ele>82</ele>
        <time>2011-12-26T09:23:31Z</time>
      </trkpt>
      <trkpt lat="44.52556" lon="0.9457">
        <ele>82</ele>
        <time>2011-12-26T09:23:32Z</time>
      </trkpt>
      <trkpt lat="44.52563" lon="0.94561">
        <ele>82</ele>
        <time>2011-12-26T09:23:37Z</time>
      </trkpt>
      <trkpt lat="44.52579" lon="0.94539">
        <ele>82</ele>
        <time>2011-12-26T09:23:38Z</time>
      </trkpt>
      <trkpt lat="44.52583" lon="0.94533">
        <ele>82</ele>
        <time>2011-12-26T09:23:39Z</time>
      </trkpt>
      <trkpt lat="44.52591" lon="0.94519">
        <ele>82</ele>
        <time>2011-12-26T09:23:44Z</time>
      </trkpt>
      <trkpt lat="44.52608" lon="0.94489">
        <ele>82</ele>
        <time>2011-12-26T09:23:45Z</time>
      </trkpt>
      <trkpt lat="44.52612" lon="0.94481">
        <ele>82</ele>
        <time>2011-12-26T09:23:46Z</time>
      </trkpt>
      <trkpt lat="44.5262" lon="0.94466">
        <ele>82</ele>
        <time>2011-12-26T09:23:51Z</time>
      </trkpt>
      <trkpt lat="44.52636" lon="0.94434">
        <ele>82</ele>
        <time>2011-12-26T09:23:52Z</time>
      </trkpt>
      <trkpt lat="44.5264" lon="0.94426">
        <ele>82</ele>
        <time>2011-12-26T09:23:53Z</time>
      </trkpt>
      <trkpt lat="44.52649" lon="0.94411">
        <ele>82</ele>
        <time>2011-12-26T09:23:58Z</time>
      </trkpt>
      <trkpt lat="44.52668" lon="0.9439">
        <ele>82</ele>
        <time>2011-12-26T09:23:59Z</time>
      </trkpt>
      <trkpt lat="44.52672" lon="0.94385">
        <ele>82</ele>
        <time>2011-12-26T09:24:00Z</time>
      </trkpt>
      <trkpt lat="44.52679" lon="0.94372">
        <ele>82</ele>
        <time>2011-12-26T09:24:05Z</time>
      </trkpt>
      <trkpt lat="44.52689" lon="0.94334">
        <ele>82</ele>
        <time>2011-12-26T09:24:07Z</time>
      </trkpt>
      <trkpt lat="44.52691" lon="0.94324">
        <ele>82</ele>
        <time>2011-12-26T09:24:07Z</time>
      </trkpt>
      <trkpt lat="44.52693" lon="0.94314">
        <ele>81</ele>
        <time>2011-12-26T09:24:08Z</time>
      </trkpt>
      <trkpt lat="44.52695" lon="0.94295">
        <ele>80</ele>
        <time>2011-12-26T09:24:13Z</time>
      </trkpt>
      <trkpt lat="44.527" lon="0.94257">
        <ele>80</ele>
        <time>2011-12-26T09:24:14Z</time>
      </trkpt>
      <trkpt lat="44.527" lon="0.94248">
        <ele>79</ele>
        <time>2011-12-26T09:24:15Z</time>
      </trkpt>
      <trkpt lat="44.52703" lon="0.94235">
        <ele>79</ele>
        <time>2011-12-26T09:24:21Z</time>
      </trkpt>
      <trkpt lat="44.52705" lon="0.9422">
        <ele>78</ele>
        <time>2011-12-26T09:24:21Z</time>
      </trkpt>
      <trkpt lat="44.52705" lon="0.94217">
        <ele>78</ele>
        <time>2011-12-26T09:24:22Z</time>
      </trkpt>
      <trkpt lat="44.52705" lon="0.94214">
        <ele>78</ele>
        <time>2011-12-26T09:24:28Z</time>
      </trkpt>
      <trkpt lat="44.52704" lon="0.94214">
        <ele>76</ele>
        <time>2011-12-26T09:24:48Z</time>
      </trkpt>
      <trkpt lat="44.52703" lon="0.94213">
        <ele>75</ele>
        <time>2011-12-26T09:24:57Z</time>
      </trkpt>
      <trkpt lat="44.52702" lon="0.94214">
        <ele>75</ele>
        <time>2011-12-26T09:24:58Z</time>
      </trkpt>
      <trkpt lat="44.527" lon="0.94219">
        <ele>75</ele>
        <time>2011-12-26T09:25:05Z</time>
      </trkpt>
      <trkpt lat="44.52699" lon="0.94235">
        <ele>75</ele>
        <time>2011-12-26T09:25:06Z</time>
      </trkpt>
      <trkpt lat="44.52698" lon="0.9424">
        <ele>75</ele>
        <time>2011-12-26T09:25:07Z</time>
      </trkpt>
      <trkpt lat="44.52695" lon="0.94269">
        <ele>75</ele>
        <time>2011-12-26T09:25:12Z</time>
      </trkpt>
      <trkpt lat="44.52694" lon="0.94274">
        <ele>75</ele>
        <time>2011-12-26T09:25:13Z</time>
      </trkpt>
      <trkpt lat="44.52694" lon="0.94279">
        <ele>75</ele>
        <time>2011-12-26T09:25:14Z</time>
      </trkpt>
      <trkpt lat="44.52692" lon="0.94287">
        <ele>75</ele>
        <time>2011-12-26T09:25:19Z</time>
      </trkpt>
      <trkpt lat="44.52692" lon="0.94298">
        <ele>75</ele>
        <time>2011-12-26T09:25:20Z</time>
      </trkpt>
      <trkpt lat="44.52691" lon="0.943">
        <ele>75</ele>
        <time>2011-12-26T09:25:21Z</time>
      </trkpt>
      <trkpt lat="44.52691" lon="0.94305">
        <ele>75</ele>
        <time>2011-12-26T09:25:26Z</time>
      </trkpt>
      <trkpt lat="44.52689" lon="0.94319">
        <ele>75</ele>
        <time>2011-12-26T09:25:27Z</time>
      </trkpt>
      <trkpt lat="44.52689" lon="0.94323">
        <ele>75</ele>
        <time>2011-12-26T09:25:28Z</time>
      </trkpt>
      <trkpt lat="44.52687" lon="0.9433">
        <ele>75</ele>
        <time>2011-12-26T09:25:33Z</time>
      </trkpt>
      <trkpt lat="44.52684" lon="0.94344">
        <ele>75</ele>
        <time>2011-12-26T09:25:34Z</time>
      </trkpt>
      <trkpt lat="44.52684" lon="0.94348">
        <ele>75</ele>
        <time>2011-12-26T09:25:35Z</time>
      </trkpt>
      <trkpt lat="44.52681" lon="0.94357">
        <ele>75</ele>
        <time>2011-12-26T09:25:41Z</time>
      </trkpt>
      <trkpt lat="44.52674" lon="0.94377">
        <ele>75</ele>
        <time>2011-12-26T09:25:41Z</time>
      </trkpt>
      <trkpt lat="44.52672" lon="0.9438">
        <ele>75</ele>
        <time>2011-12-26T09:25:42Z</time>
      </trkpt>
      <trkpt lat="44.5267" lon="0.94383">
        <ele>75</ele>
        <time>2011-12-26T09:25:43Z</time>
      </trkpt>
      <trkpt lat="44.52667" lon="0.94387">
        <ele>75</ele>
        <time>2011-12-26T09:25:48Z</time>
      </trkpt>
      <trkpt lat="44.52666" lon="0.94388">
        <ele>75</ele>
        <time>2011-12-26T09:25:49Z</time>
      </trkpt>
      <trkpt lat="44.52665" lon="0.94387">
        <ele>75</ele>
        <time>2011-12-26T09:26:09Z</time>
      </trkpt>
      <trkpt lat="44.52663" lon="0.94386">
        <ele>75</ele>
        <time>2011-12-26T09:26:11Z</time>
      </trkpt>
      <trkpt lat="44.5266" lon="0.94383">
        <ele>75</ele>
        <time>2011-12-26T09:26:17Z</time>
      </trkpt>
      <trkpt lat="44.52645" lon="0.94375">
        <ele>75</ele>
        <time>2011-12-26T09:26:18Z</time>
      </trkpt>
      <trkpt lat="44.52638" lon="0.94371">
        <ele>75</ele>
        <time>2011-12-26T09:26:24Z</time>
      </trkpt>
      <trkpt lat="44.52625" lon="0.94363">
        <ele>75</ele>
        <time>2011-12-26T09:26:24Z</time>
      </trkpt>
      <trkpt lat="44.52622" lon="0.94362">
        <ele>75</ele>
        <time>2011-12-26T09:26:25Z</time>
      </trkpt>
      <trkpt lat="44.52617" lon="0.94359">
        <ele>75</ele>
        <time>2011-12-26T09:26:31Z</time>
      </trkpt>
      <trkpt lat="44.52606" lon="0.94352">
        <ele>75</ele>
        <time>2011-12-26T09:26:31Z</time>
      </trkpt>
      <trkpt lat="44.52603" lon="0.9435">
        <ele>75</ele>
        <time>2011-12-26T09:26:32Z</time>
      </trkpt>
      <trkpt lat="44.526" lon="0.94348">
        <ele>75</ele>
        <time>2011-12-26T09:26:33Z</time>
      </trkpt>
      <trkpt lat="44.52594" lon="0.94345">
        <ele>75</ele>
        <time>2011-12-26T09:26:38Z</time>
      </trkpt>
      <trkpt lat="44.52581" lon="0.9434">
        <ele>74</ele>
        <time>2011-12-26T09:26:39Z</time>
      </trkpt>
      <trkpt lat="44.52578" lon="0.94338">
        <ele>74</ele>
        <time>2011-12-26T09:26:40Z</time>
      </trkpt>
      <trkpt lat="44.52571" lon="0.94334">
        <ele>74</ele>
        <time>2011-12-26T09:26:46Z</time>
      </trkpt>
      <trkpt lat="44.52558" lon="0.94328">
        <ele>74</ele>
        <time>2011-12-26T09:26:46Z</time>
      </trkpt>
      <trkpt lat="44.52554" lon="0.94327">
        <ele>74</ele>
        <time>2011-12-26T09:26:47Z</time>
      </trkpt>
      <trkpt lat="44.52548" lon="0.94325">
        <ele>74</ele>
        <time>2011-12-26T09:26:53Z</time>
      </trkpt>
      <trkpt lat="44.52534" lon="0.94323">
        <ele>74</ele>
        <time>2011-12-26T09:26:53Z</time>
      </trkpt>
      <trkpt lat="44.52531" lon="0.94323">
        <ele>74</ele>
        <time>2011-12-26T09:26:54Z</time>
      </trkpt>
      <trkpt lat="44.52525" lon="0.94322">
        <ele>74</ele>
        <time>2011-12-26T09:27:00Z</time>
      </trkpt>
      <trkpt lat="44.52517" lon="0.94319">
        <ele>74</ele>
        <time>2011-12-26T09:27:00Z</time>
      </trkpt>
      <trkpt lat="44.52513" lon="0.94319">
        <ele>74</ele>
        <time>2011-12-26T09:27:01Z</time>
      </trkpt>
      <trkpt lat="44.52506" lon="0.94318">
        <ele>74</ele>
        <time>2011-12-26T09:27:07Z</time>
      </trkpt>
      <trkpt lat="44.52492" lon="0.94315">
        <ele>74</ele>
        <time>2011-12-26T09:27:07Z</time>
      </trkpt>
      <trkpt lat="44.52489" lon="0.94315">
        <ele>74</ele>
        <time>2011-12-26T09:27:08Z</time>
      </trkpt>
      <trkpt lat="44.52482" lon="0.94314">
        <ele>74</ele>
        <time>2011-12-26T09:27:14Z</time>
      </trkpt>
      <trkpt lat="44.5247" lon="0.94313">
        <ele>74</ele>
        <time>2011-12-26T09:27:14Z</time>
      </trkpt>
      <trkpt lat="44.52467" lon="0.94313">
        <ele>74</ele>
        <time>2011-12-26T09:27:15Z</time>
      </trkpt>
      <trkpt lat="44.52463" lon="0.94313">
        <ele>74</ele>
        <time>2011-12-26T09:27:21Z</time>
      </trkpt>
      <trkpt lat="44.52462" lon="0.94313">
        <ele>74</ele>
        <time>2011-12-26T09:27:31Z</time>
      </trkpt>
      <trkpt lat="44.52459" lon="0.94313">
        <ele>74</ele>
        <time>2011-12-26T09:27:32Z</time>
      </trkpt>
      <trkpt lat="44.52455" lon="0.94313">
        <ele>74</ele>
        <time>2011-12-26T09:27:41Z</time>
      </trkpt>
      <trkpt lat="44.52454" lon="0.94313">
        <ele>74</ele>
        <time>2011-12-26T09:27:41Z</time>
      </trkpt>
      <trkpt lat="44.52453" lon="0.94313">
        <ele>74</ele>
        <time>2011-12-26T09:27:43Z</time>
      </trkpt>
      <trkpt lat="44.52451" lon="0.94312">
        <ele>74</ele>
        <time>2011-12-26T09:27:44Z</time>
      </trkpt>
      <trkpt lat="44.52444" lon="0.94311">
        <ele>74</ele>
        <time>2011-12-26T09:27:49Z</time>
      </trkpt>
      <trkpt lat="44.52435" lon="0.9431">
        <ele>74</ele>
        <time>2011-12-26T09:27:50Z</time>
      </trkpt>
      <trkpt lat="44.52433" lon="0.94309">
        <ele>74</ele>
        <time>2011-12-26T09:27:51Z</time>
      </trkpt>
      <trkpt lat="44.52428" lon="0.94304">
        <ele>74</ele>
        <time>2011-12-26T09:27:59Z</time>
      </trkpt>
      <trkpt lat="44.52427" lon="0.94305">
        <ele>74</ele>
        <time>2011-12-26T09:28:01Z</time>
      </trkpt>
      <trkpt lat="44.52425" lon="0.94304">
        <ele>74</ele>
        <time>2011-12-26T09:28:08Z</time>
      </trkpt>
      <trkpt lat="44.5242" lon="0.94304">
        <ele>74</ele>
        <time>2011-12-26T09:28:09Z</time>
      </trkpt>
      <trkpt lat="44.52419" lon="0.94303">
        <ele>74</ele>
        <time>2011-12-26T09:28:17Z</time>
      </trkpt>
      <trkpt lat="44.52417" lon="0.94303">
        <ele>74</ele>
        <time>2011-12-26T09:28:25Z</time>
      </trkpt>
      <trkpt lat="44.52415" lon="0.94303">
        <ele>74</ele>
        <time>2011-12-26T09:28:36Z</time>
      </trkpt>
      <trkpt lat="44.52405" lon="0.94304">
        <ele>74</ele>
        <time>2011-12-26T09:28:37Z</time>
      </trkpt>
      <trkpt lat="44.52403" lon="0.94305">
        <ele>74</ele>
        <time>2011-12-26T09:28:37Z</time>
      </trkpt>
      <trkpt lat="44.52401" lon="0.94306">
        <ele>74</ele>
        <time>2011-12-26T09:28:38Z</time>
      </trkpt>
      <trkpt lat="44.52395" lon="0.94309">
        <ele>74</ele>
        <time>2011-12-26T09:28:43Z</time>
      </trkpt>
      <trkpt lat="44.52383" lon="0.94311">
        <ele>74</ele>
        <time>2011-12-26T09:28:44Z</time>
      </trkpt>
      <trkpt lat="44.5238" lon="0.94312">
        <ele>74</ele>
        <time>2011-12-26T09:28:45Z</time>
      </trkpt>
      <trkpt lat="44.52374" lon="0.94315">
        <ele>74</ele>
        <time>2011-12-26T09:28:51Z</time>
      </trkpt>
      <trkpt lat="44.52363" lon="0.94321">
        <ele>74</ele>
        <time>2011-12-26T09:28:51Z</time>
      </trkpt>
      <trkpt lat="44.5236" lon="0.94323">
        <ele>74</ele>
        <time>2011-12-26T09:28:52Z</time>
      </trkpt>
      <trkpt lat="44.52356" lon="0.94327">
        <ele>74</ele>
        <time>2011-12-26T09:28:58Z</time>
      </trkpt>
      <trkpt lat="44.52346" lon="0.94335">
        <ele>74</ele>
        <time>2011-12-26T09:28:58Z</time>
      </trkpt>
      <trkpt lat="44.52344" lon="0.94337">
        <ele>74</ele>
        <time>2011-12-26T09:28:59Z</time>
      </trkpt>
      <trkpt lat="44.52339" lon="0.94342">
        <ele>74</ele>
        <time>2011-12-26T09:29:05Z</time>
      </trkpt>
      <trkpt lat="44.52329" lon="0.94351">
        <ele>74</ele>
        <time>2011-12-26T09:29:05Z</time>
      </trkpt>
      <trkpt lat="44.52327" lon="0.94353">
        <ele>74</ele>
        <time>2011-12-26T09:29:06Z</time>
      </trkpt>
      <trkpt lat="44.52322" lon="0.94357">
        <ele>74</ele>
        <time>2011-12-26T09:29:12Z</time>
      </trkpt>
      <trkpt lat="44.52312" lon="0.9436">
        <ele>74</ele>
        <time>2011-12-26T09:29:12Z</time>
      </trkpt>
      <trkpt lat="44.5231" lon="0.94361">
        <ele>74</ele>
        <time>2011-12-26T09:29:14Z</time>
      </trkpt>
      <trkpt lat="44.52307" lon="0.94361">
        <ele>74</ele>
        <time>2011-12-26T09:29:15Z</time>
      </trkpt>
      <trkpt lat="44.52298" lon="0.9436">
        <ele>74</ele>
        <time>2011-12-26T09:29:20Z</time>
      </trkpt>
      <trkpt lat="44.52287" lon="0.94358">
        <ele>74</ele>
        <time>2011-12-26T09:29:21Z</time>
      </trkpt>
      <trkpt lat="44.52285" lon="0.94358">
        <ele>74</ele>
        <time>2011-12-26T09:29:22Z</time>
      </trkpt>
      <trkpt lat="44.5228" lon="0.94357">
        <ele>74</ele>
        <time>2011-12-26T09:29:27Z</time>
      </trkpt>
      <trkpt lat="44.52273" lon="0.94358">
        <ele>74</ele>
        <time>2011-12-26T09:29:28Z</time>
      </trkpt>
      <trkpt lat="44.52272" lon="0.94358">
        <ele>74</ele>
        <time>2011-12-26T09:29:37Z</time>
      </trkpt>
      <trkpt lat="44.52271" lon="0.94358">
        <ele>74</ele>
        <time>2011-12-26T09:29:39Z</time>
      </trkpt>
      <trkpt lat="44.52269" lon="0.94358">
        <ele>74</ele>
        <time>2011-12-26T09:29:46Z</time>
      </trkpt>
      <trkpt lat="44.52268" lon="0.94358">
        <ele>74</ele>
        <time>2011-12-26T09:29:47Z</time>
      </trkpt>
      <trkpt lat="44.52266" lon="0.94357">
        <ele>74</ele>
        <time>2011-12-26T09:29:56Z</time>
      </trkpt>
      <trkpt lat="44.52268" lon="0.94358">
        <ele>74</ele>
        <time>2011-12-26T09:30:07Z</time>
      </trkpt>
      <trkpt lat="44.52273" lon="0.94358">
        <ele>74</ele>
        <time>2011-12-26T09:30:32Z</time>
      </trkpt>
      <trkpt lat="44.52275" lon="0.94359">
        <ele>74</ele>
        <time>2011-12-26T09:30:33Z</time>
      </trkpt>
      <trkpt lat="44.52277" lon="0.9436">
        <ele>74</ele>
        <time>2011-12-26T09:30:34Z</time>
      </trkpt>
      <trkpt lat="44.52282" lon="0.94361">
        <ele>74</ele>
        <time>2011-12-26T09:30:39Z</time>
      </trkpt>
      <trkpt lat="44.52291" lon="0.94363">
        <ele>74</ele>
        <time>2011-12-26T09:30:40Z</time>
      </trkpt>
      <trkpt lat="44.52293" lon="0.94364">
        <ele>74</ele>
        <time>2011-12-26T09:30:41Z</time>
      </trkpt>
      <trkpt lat="44.52298" lon="0.94366">
        <ele>74</ele>
        <time>2011-12-26T09:30:47Z</time>
      </trkpt>
      <trkpt lat="44.52309" lon="0.94367">
        <ele>74</ele>
        <time>2011-12-26T09:30:47Z</time>
      </trkpt>
      <trkpt lat="44.52311" lon="0.94366">
        <ele>74</ele>
        <time>2011-12-26T09:30:49Z</time>
      </trkpt>
      <trkpt lat="44.52314" lon="0.94366">
        <ele>74</ele>
        <time>2011-12-26T09:30:50Z</time>
      </trkpt>
      <trkpt lat="44.52329" lon="0.94357">
        <ele>74</ele>
        <time>2011-12-26T09:30:55Z</time>
      </trkpt>
      <trkpt lat="44.52331" lon="0.94354">
        <ele>74</ele>
        <time>2011-12-26T09:30:56Z</time>
      </trkpt>
      <trkpt lat="44.52333" lon="0.94352">
        <ele>74</ele>
        <time>2011-12-26T09:30:57Z</time>
      </trkpt>
      <trkpt lat="44.52337" lon="0.94347">
        <ele>74</ele>
        <time>2011-12-26T09:31:03Z</time>
      </trkpt>
      <trkpt lat="44.52346" lon="0.94339">
        <ele>74</ele>
        <time>2011-12-26T09:31:03Z</time>
      </trkpt>
      <trkpt lat="44.52349" lon="0.94337">
        <ele>74</ele>
        <time>2011-12-26T09:31:04Z</time>
      </trkpt>
      <trkpt lat="44.52351" lon="0.94335">
        <ele>74</ele>
        <time>2011-12-26T09:31:05Z</time>
      </trkpt>
      <trkpt lat="44.52356" lon="0.94331">
        <ele>74</ele>
        <time>2011-12-26T09:31:10Z</time>
      </trkpt>
      <trkpt lat="44.52367" lon="0.94323">
        <ele>74</ele>
        <time>2011-12-26T09:31:11Z</time>
      </trkpt>
      <trkpt lat="44.5237" lon="0.94321">
        <ele>74</ele>
        <time>2011-12-26T09:31:12Z</time>
      </trkpt>
      <trkpt lat="44.52376" lon="0.94318">
        <ele>74</ele>
        <time>2011-12-26T09:31:18Z</time>
      </trkpt>
      <trkpt lat="44.52389" lon="0.94316">
        <ele>74</ele>
        <time>2011-12-26T09:31:18Z</time>
      </trkpt>
      <trkpt lat="44.52393" lon="0.94315">
        <ele>74</ele>
        <time>2011-12-26T09:31:19Z</time>
      </trkpt>
      <trkpt lat="44.52399" lon="0.94313">
        <ele>74</ele>
        <time>2011-12-26T09:31:25Z</time>
      </trkpt>
      <trkpt lat="44.52413" lon="0.9431">
        <ele>74</ele>
        <time>2011-12-26T09:31:25Z</time>
      </trkpt>
      <trkpt lat="44.52415" lon="0.9431">
        <ele>74</ele>
        <time>2011-12-26T09:31:26Z</time>
      </trkpt>
      <trkpt lat="44.5242" lon="0.94309">
        <ele>74</ele>
        <time>2011-12-26T09:31:32Z</time>
      </trkpt>
      <trkpt lat="44.52422" lon="0.9431">
        <ele>74</ele>
        <time>2011-12-26T09:31:32Z</time>
      </trkpt>
      <trkpt lat="44.52423" lon="0.94312">
        <ele>74</ele>
        <time>2011-12-26T09:31:34Z</time>
      </trkpt>
      <trkpt lat="44.52426" lon="0.94313">
        <ele>74</ele>
        <time>2011-12-26T09:31:41Z</time>
      </trkpt>
      <trkpt lat="44.5243" lon="0.94316">
        <ele>74</ele>
        <time>2011-12-26T09:31:42Z</time>
      </trkpt>
      <trkpt lat="44.52436" lon="0.94317">
        <ele>74</ele>
        <time>2011-12-26T09:31:50Z</time>
      </trkpt>
      <trkpt lat="44.52438" lon="0.94317">
        <ele>74</ele>
        <time>2011-12-26T09:31:51Z</time>
      </trkpt>
      <trkpt lat="44.5244" lon="0.94317">
        <ele>74</ele>
        <time>2011-12-26T09:31:52Z</time>
      </trkpt>
      <trkpt lat="44.52445" lon="0.94316">
        <ele>74</ele>
        <time>2011-12-26T09:31:57Z</time>
      </trkpt>
      <trkpt lat="44.52455" lon="0.94318">
        <ele>74</ele>
        <time>2011-12-26T09:31:58Z</time>
      </trkpt>
      <trkpt lat="44.52459" lon="0.94318">
        <ele>74</ele>
        <time>2011-12-26T09:32:08Z</time>
      </trkpt>
      <trkpt lat="44.52461" lon="0.94317">
        <ele>74</ele>
        <time>2011-12-26T09:32:16Z</time>
      </trkpt>
      <trkpt lat="44.52462" lon="0.94317">
        <ele>74</ele>
        <time>2011-12-26T09:32:17Z</time>
      </trkpt>
      <trkpt lat="44.52464" lon="0.94317">
        <ele>74</ele>
        <time>2011-12-26T09:32:18Z</time>
      </trkpt>
      <trkpt lat="44.52465" lon="0.94317">
        <ele>74</ele>
        <time>2011-12-26T09:32:19Z</time>
      </trkpt>
      <trkpt lat="44.5247" lon="0.94318">
        <ele>74</ele>
        <time>2011-12-26T09:32:25Z</time>
      </trkpt>
      <trkpt lat="44.52483" lon="0.94319">
        <ele>74</ele>
        <time>2011-12-26T09:32:26Z</time>
      </trkpt>
      <trkpt lat="44.52488" lon="0.9432">
        <ele>74</ele>
        <time>2011-12-26T09:32:32Z</time>
      </trkpt>
      <trkpt lat="44.52496" lon="0.94322">
        <ele>74</ele>
        <time>2011-12-26T09:32:32Z</time>
      </trkpt>
      <trkpt lat="44.52498" lon="0.94322">
        <ele>74</ele>
        <time>2011-12-26T09:32:33Z</time>
      </trkpt>
      <trkpt lat="44.52502" lon="0.94323">
        <ele>74</ele>
        <time>2011-12-26T09:32:39Z</time>
      </trkpt>
      <trkpt lat="44.52513" lon="0.94324">
        <ele>74</ele>
        <time>2011-12-26T09:32:39Z</time>
      </trkpt>
      <trkpt lat="44.52516" lon="0.94325">
        <ele>74</ele>
        <time>2011-12-26T09:32:40Z</time>
      </trkpt>
      <trkpt lat="44.52532" lon="0.94327">
        <ele>74</ele>
        <time>2011-12-26T09:32:46Z</time>
      </trkpt>
      <trkpt lat="44.52535" lon="0.94328">
        <ele>74</ele>
        <time>2011-12-26T09:32:47Z</time>
      </trkpt>
      <trkpt lat="44.5254" lon="0.94328">
        <ele>74</ele>
        <time>2011-12-26T09:32:53Z</time>
      </trkpt>
      <trkpt lat="44.52554" lon="0.94331">
        <ele>74</ele>
        <time>2011-12-26T09:32:54Z</time>
      </trkpt>
      <trkpt lat="44.52556" lon="0.94332">
        <ele>74</ele>
        <time>2011-12-26T09:32:55Z</time>
      </trkpt>
      <trkpt lat="44.52559" lon="0.94333">
        <ele>74</ele>
        <time>2011-12-26T09:32:56Z</time>
      </trkpt>
      <trkpt lat="44.52563" lon="0.94335">
        <ele>74</ele>
        <time>2011-12-26T09:33:02Z</time>
      </trkpt>
      <trkpt lat="44.52573" lon="0.94341">
        <ele>74</ele>
        <time>2011-12-26T09:33:02Z</time>
      </trkpt>
      <trkpt lat="44.52576" lon="0.94342">
        <ele>74</ele>
        <time>2011-12-26T09:33:03Z</time>
      </trkpt>
      <trkpt lat="44.52579" lon="0.94342">
        <ele>74</ele>
        <time>2011-12-26T09:33:09Z</time>
      </trkpt>
      <trkpt lat="44.52582" lon="0.94341">
        <ele>74</ele>
        <time>2011-12-26T09:33:19Z</time>
      </trkpt>
      <trkpt lat="44.52584" lon="0.94341">
        <ele>74</ele>
        <time>2011-12-26T09:33:21Z</time>
      </trkpt>
      <trkpt lat="44.52585" lon="0.94342">
        <ele>74</ele>
        <time>2011-12-26T09:33:21Z</time>
      </trkpt>
      <trkpt lat="44.52589" lon="0.94344">
        <ele>74</ele>
        <time>2011-12-26T09:33:27Z</time>
      </trkpt>
      <trkpt lat="44.52599" lon="0.9435">
        <ele>74</ele>
        <time>2011-12-26T09:33:27Z</time>
      </trkpt>
      <trkpt lat="44.52602" lon="0.94351">
        <ele>74</ele>
        <time>2011-12-26T09:33:28Z</time>
      </trkpt>
      <trkpt lat="44.52607" lon="0.94354">
        <ele>74</ele>
        <time>2011-12-26T09:33:34Z</time>
      </trkpt>
      <trkpt lat="44.52618" lon="0.94363">
        <ele>74</ele>
        <time>2011-12-26T09:33:34Z</time>
      </trkpt>
      <trkpt lat="44.5262" lon="0.94364">
        <ele>74</ele>
        <time>2011-12-26T09:33:35Z</time>
      </trkpt>
      <trkpt lat="44.52635" lon="0.94374">
        <ele>74</ele>
        <time>2011-12-26T09:33:41Z</time>
      </trkpt>
      <trkpt lat="44.52638" lon="0.94375">
        <ele>74</ele>
        <time>2011-12-26T09:33:42Z</time>
      </trkpt>
      <trkpt lat="44.52641" lon="0.94376">
        <ele>74</ele>
        <time>2011-12-26T09:33:43Z</time>
      </trkpt>
      <trkpt lat="44.52646" lon="0.94379">
        <ele>74</ele>
        <time>2011-12-26T09:33:49Z</time>
      </trkpt>
      <trkpt lat="44.52656" lon="0.94385">
        <ele>74</ele>
        <time>2011-12-26T09:33:49Z</time>
      </trkpt>
      <trkpt lat="44.52659" lon="0.94386">
        <ele>74</ele>
        <time>2011-12-26T09:33:50Z</time>
      </trkpt>
      <trkpt lat="44.52663" lon="0.94389">
        <ele>74</ele>
        <time>2011-12-26T09:33:56Z</time>
      </trkpt>
      <trkpt lat="44.52666" lon="0.94391">
        <ele>74</ele>
        <time>2011-12-26T09:33:56Z</time>
      </trkpt>
      <trkpt lat="44.52672" lon="0.94389">
        <ele>75</ele>
        <time>2011-12-26T09:34:24Z</time>
      </trkpt>
      <trkpt lat="44.52673" lon="0.94387">
        <ele>75</ele>
        <time>2011-12-26T09:34:25Z</time>
      </trkpt>
      <trkpt lat="44.52675" lon="0.94384">
        <ele>75</ele>
        <time>2011-12-26T09:34:26Z</time>
      </trkpt>
      <trkpt lat="44.52677" lon="0.9438">
        <ele>75</ele>
        <time>2011-12-26T09:34:27Z</time>
      </trkpt>
      <trkpt lat="44.5268" lon="0.94371">
        <ele>75</ele>
        <time>2011-12-26T09:34:33Z</time>
      </trkpt>
      <trkpt lat="44.52687" lon="0.94348">
        <ele>75</ele>
        <time>2011-12-26T09:34:33Z</time>
      </trkpt>
      <trkpt lat="44.52688" lon="0.94342">
        <ele>75</ele>
        <time>2011-12-26T09:34:34Z</time>
      </trkpt>
      <trkpt lat="44.52694" lon="0.94308">
        <ele>75</ele>
        <time>2011-12-26T09:34:40Z</time>
      </trkpt>
      <trkpt lat="44.52694" lon="0.94304">
        <ele>75</ele>
        <time>2011-12-26T09:34:41Z</time>
      </trkpt>
      <trkpt lat="44.52695" lon="0.94295">
        <ele>75</ele>
        <time>2011-12-26T09:34:47Z</time>
      </trkpt>
      <trkpt lat="44.52698" lon="0.9427">
        <ele>75</ele>
        <time>2011-12-26T09:34:48Z</time>
      </trkpt>
      <trkpt lat="44.52699" lon="0.94266">
        <ele>75</ele>
        <time>2011-12-26T09:34:49Z</time>
      </trkpt>
      <trkpt lat="44.52699" lon="0.9426">
        <ele>75</ele>
        <time>2011-12-26T09:34:54Z</time>
      </trkpt>
      <trkpt lat="44.52694" lon="0.94259">
        <ele>75</ele>
        <time>2011-12-26T09:34:55Z</time>
      </trkpt>
      <trkpt lat="44.52693" lon="0.94262">
        <ele>75</ele>
        <time>2011-12-26T09:34:56Z</time>
      </trkpt>
      <trkpt lat="44.52692" lon="0.94266">
        <ele>75</ele>
        <time>2011-12-26T09:34:58Z</time>
      </trkpt>
      <trkpt lat="44.52686" lon="0.94289">
        <ele>75</ele>
        <time>2011-12-26T09:35:03Z</time>
      </trkpt>
      <trkpt lat="44.52683" lon="0.94292">
        <ele>75</ele>
        <time>2011-12-26T09:35:05Z</time>
      </trkpt>
      <trkpt lat="44.5268" lon="0.94295">
        <ele>75</ele>
        <time>2011-12-26T09:35:06Z</time>
      </trkpt>
      <trkpt lat="44.5266" lon="0.94299">
        <ele>75</ele>
        <time>2011-12-26T09:35:11Z</time>
      </trkpt>
      <trkpt lat="44.52656" lon="0.94298">
        <ele>75</ele>
        <time>2011-12-26T09:35:13Z</time>
      </trkpt>
      <trkpt lat="44.52652" lon="0.94298">
        <ele>75</ele>
        <time>2011-12-26T09:35:14Z</time>
      </trkpt>
      <trkpt lat="44.52649" lon="0.94298">
        <ele>75</ele>
        <time>2011-12-26T09:35:14Z</time>
      </trkpt>
      <trkpt lat="44.52641" lon="0.94297">
        <ele>75</ele>
        <time>2011-12-26T09:35:20Z</time>
      </trkpt>
      <trkpt lat="44.52626" lon="0.94295">
        <ele>75</ele>
        <time>2011-12-26T09:35:20Z</time>
      </trkpt>
      <trkpt lat="44.52622" lon="0.94295">
        <ele>75</ele>
        <time>2011-12-26T09:35:21Z</time>
      </trkpt>
      <trkpt lat="44.52615" lon="0.94293">
        <ele>74</ele>
        <time>2011-12-26T09:35:27Z</time>
      </trkpt>
      <trkpt lat="44.52601" lon="0.94293">
        <ele>74</ele>
        <time>2011-12-26T09:35:27Z</time>
      </trkpt>
      <trkpt lat="44.52598" lon="0.94292">
        <ele>74</ele>
        <time>2011-12-26T09:35:28Z</time>
      </trkpt>
      <trkpt lat="44.52578" lon="0.94289">
        <ele>74</ele>
        <time>2011-12-26T09:35:34Z</time>
      </trkpt>
      <trkpt lat="44.52575" lon="0.94288">
        <ele>74</ele>
        <time>2011-12-26T09:35:35Z</time>
      </trkpt>
      <trkpt lat="44.52568" lon="0.94288">
        <ele>74</ele>
        <time>2011-12-26T09:35:41Z</time>
      </trkpt>
      <trkpt lat="44.52549" lon="0.94285">
        <ele>74</ele>
        <time>2011-12-26T09:35:42Z</time>
      </trkpt>
      <trkpt lat="44.52545" lon="0.94285">
        <ele>74</ele>
        <time>2011-12-26T09:35:43Z</time>
      </trkpt>
      <trkpt lat="44.52538" lon="0.94284">
        <ele>74</ele>
        <time>2011-12-26T09:35:49Z</time>
      </trkpt>
      <trkpt lat="44.52524" lon="0.94283">
        <ele>74</ele>
        <time>2011-12-26T09:35:49Z</time>
      </trkpt>
      <trkpt lat="44.5252" lon="0.94282">
        <ele>74</ele>
        <time>2011-12-26T09:35:50Z</time>
      </trkpt>
      <trkpt lat="44.52514" lon="0.94282">
        <ele>74</ele>
        <time>2011-12-26T09:35:56Z</time>
      </trkpt>
      <trkpt lat="44.525" lon="0.9428">
        <ele>74</ele>
        <time>2011-12-26T09:35:56Z</time>
      </trkpt>
      <trkpt lat="44.52497" lon="0.9428">
        <ele>74</ele>
        <time>2011-12-26T09:35:57Z</time>
      </trkpt>
      <trkpt lat="44.52478" lon="0.94279">
        <ele>73</ele>
        <time>2011-12-26T09:36:03Z</time>
      </trkpt>
      <trkpt lat="44.52474" lon="0.94278">
        <ele>73</ele>
        <time>2011-12-26T09:36:04Z</time>
      </trkpt>
      <trkpt lat="44.52468" lon="0.94278">
        <ele>73</ele>
        <time>2011-12-26T09:36:10Z</time>
      </trkpt>
      <trkpt lat="44.52452" lon="0.94277">
        <ele>73</ele>
        <time>2011-12-26T09:36:11Z</time>
      </trkpt>
      <trkpt lat="44.52449" lon="0.94276">
        <ele>72</ele>
        <time>2011-12-26T09:36:12Z</time>
      </trkpt>
      <trkpt lat="44.52442" lon="0.94276">
        <ele>72</ele>
        <time>2011-12-26T09:36:18Z</time>
      </trkpt>
      <trkpt lat="44.52429" lon="0.94277">
        <ele>72</ele>
        <time>2011-12-26T09:36:18Z</time>
      </trkpt>
      <trkpt lat="44.52426" lon="0.94277">
        <ele>72</ele>
        <time>2011-12-26T09:36:19Z</time>
      </trkpt>
      <trkpt lat="44.52419" lon="0.94279">
        <ele>71</ele>
        <time>2011-12-26T09:36:25Z</time>
      </trkpt>
      <trkpt lat="44.52403" lon="0.94282">
        <ele>71</ele>
        <time>2011-12-26T09:36:25Z</time>
      </trkpt>
      <trkpt lat="44.52399" lon="0.94283">
        <ele>71</ele>
        <time>2011-12-26T09:36:26Z</time>
      </trkpt>
      <trkpt lat="44.52376" lon="0.94289">
        <ele>71</ele>
        <time>2011-12-26T09:36:32Z</time>
      </trkpt>
      <trkpt lat="44.52372" lon="0.94291">
        <ele>71</ele>
        <time>2011-12-26T09:36:33Z</time>
      </trkpt>
      <trkpt lat="44.52365" lon="0.94294">
        <ele>71</ele>
        <time>2011-12-26T09:36:39Z</time>
      </trkpt>
      <trkpt lat="44.52349" lon="0.94306">
        <ele>71</ele>
        <time>2011-12-26T09:36:40Z</time>
      </trkpt>
      <trkpt lat="44.52347" lon="0.94309">
        <ele>71</ele>
        <time>2011-12-26T09:36:41Z</time>
      </trkpt>
      <trkpt lat="44.52344" lon="0.94311">
        <ele>71</ele>
        <time>2011-12-26T09:36:42Z</time>
      </trkpt>
      <trkpt lat="44.52339" lon="0.94317">
        <ele>71</ele>
        <time>2011-12-26T09:36:48Z</time>
      </trkpt>
      <trkpt lat="44.52329" lon="0.94326">
        <ele>71</ele>
        <time>2011-12-26T09:36:48Z</time>
      </trkpt>
      <trkpt lat="44.52327" lon="0.94327">
        <ele>71</ele>
        <time>2011-12-26T09:36:49Z</time>
      </trkpt>
      <trkpt lat="44.52324" lon="0.9433">
        <ele>71</ele>
        <time>2011-12-26T09:36:55Z</time>
      </trkpt>
      <trkpt lat="44.52321" lon="0.94325">
        <ele>71</ele>
        <time>2011-12-26T09:36:55Z</time>
      </trkpt>
      <trkpt lat="44.52322" lon="0.94323">
        <ele>71</ele>
        <time>2011-12-26T09:36:56Z</time>
      </trkpt>
      <trkpt lat="44.52322" lon="0.9432">
        <ele>71</ele>
        <time>2011-12-26T09:36:57Z</time>
      </trkpt>
      <trkpt lat="44.52323" lon="0.94318">
        <ele>71</ele>
        <time>2011-12-26T09:36:58Z</time>
      </trkpt>
      <trkpt lat="44.52325" lon="0.94312">
        <ele>71</ele>
        <time>2011-12-26T09:37:04Z</time>
      </trkpt>
      <trkpt lat="44.5233" lon="0.94299">
        <ele>71</ele>
        <time>2011-12-26T09:37:04Z</time>
      </trkpt>
      <trkpt lat="44.52332" lon="0.94295">
        <ele>71</ele>
        <time>2011-12-26T09:37:05Z</time>
      </trkpt>
      <trkpt lat="44.52335" lon="0.94287">
        <ele>71</ele>
        <time>2011-12-26T09:37:11Z</time>
      </trkpt>
      <trkpt lat="44.52341" lon="0.94271">
        <ele>71</ele>
        <time>2011-12-26T09:37:11Z</time>
      </trkpt>
      <trkpt lat="44.52343" lon="0.94266">
        <ele>71</ele>
        <time>2011-12-26T09:37:12Z</time>
      </trkpt>
      <trkpt lat="44.52346" lon="0.94257">
        <ele>71</ele>
        <time>2011-12-26T09:37:18Z</time>
      </trkpt>
      <trkpt lat="44.52356" lon="0.94233">
        <ele>71</ele>
        <time>2011-12-26T09:37:19Z</time>
      </trkpt>
      <trkpt lat="44.52357" lon="0.94228">
        <ele>71</ele>
        <time>2011-12-26T09:37:20Z</time>
      </trkpt>
      <trkpt lat="44.52361" lon="0.94219">
        <ele>71</ele>
        <time>2011-12-26T09:37:26Z</time>
      </trkpt>
      <trkpt lat="44.52369" lon="0.94199">
        <ele>71</ele>
        <time>2011-12-26T09:37:26Z</time>
      </trkpt>
      <trkpt lat="44.52371" lon="0.94194">
        <ele>71</ele>
        <time>2011-12-26T09:37:27Z</time>
      </trkpt>
      <trkpt lat="44.52375" lon="0.94183">
        <ele>71</ele>
        <time>2011-12-26T09:37:33Z</time>
      </trkpt>
      <trkpt lat="44.52383" lon="0.94164">
        <ele>71</ele>
        <time>2011-12-26T09:37:33Z</time>
      </trkpt>
      <trkpt lat="44.52385" lon="0.94158">
        <ele>71</ele>
        <time>2011-12-26T09:37:34Z</time>
      </trkpt>
      <trkpt lat="44.52389" lon="0.94148">
        <ele>71</ele>
        <time>2011-12-26T09:37:40Z</time>
      </trkpt>
      <trkpt lat="44.52399" lon="0.94122">
        <ele>71</ele>
        <time>2011-12-26T09:37:41Z</time>
      </trkpt>
      <trkpt lat="44.52401" lon="0.94117">
        <ele>71</ele>
        <time>2011-12-26T09:37:42Z</time>
      </trkpt>
      <trkpt lat="44.52405" lon="0.94108">
        <ele>71</ele>
        <time>2011-12-26T09:37:48Z</time>
      </trkpt>
      <trkpt lat="44.52412" lon="0.94088">
        <ele>71</ele>
        <time>2011-12-26T09:37:48Z</time>
      </trkpt>
      <trkpt lat="44.52414" lon="0.94083">
        <ele>71</ele>
        <time>2011-12-26T09:37:49Z</time>
      </trkpt>
      <trkpt lat="44.52418" lon="0.94074">
        <ele>71</ele>
        <time>2011-12-26T09:37:55Z</time>
      </trkpt>
      <trkpt lat="44.52426" lon="0.94053">
        <ele>71</ele>
        <time>2011-12-26T09:37:55Z</time>
      </trkpt>
      <trkpt lat="44.52428" lon="0.94048">
        <ele>71</ele>
        <time>2011-12-26T09:37:56Z</time>
      </trkpt>
      <trkpt lat="44.52433" lon="0.94038">
        <ele>71</ele>
        <time>2011-12-26T09:38:02Z</time>
      </trkpt>
      <trkpt lat="44.52442" lon="0.94012">
        <ele>71</ele>
        <time>2011-12-26T09:38:03Z</time>
      </trkpt>
      <trkpt lat="44.52444" lon="0.94007">
        <ele>71</ele>
        <time>2011-12-26T09:38:04Z</time>
      </trkpt>
      <trkpt lat="44.52449" lon="0.93996">
        <ele>71</ele>
        <time>2011-12-26T09:38:10Z</time>
      </trkpt>
      <trkpt lat="44.52457" lon="0.93974">
        <ele>71</ele>
        <time>2011-12-26T09:38:10Z</time>
      </trkpt>
      <trkpt lat="44.52459" lon="0.93969">
        <ele>71</ele>
        <time>2011-12-26T09:38:11Z</time>
      </trkpt>
      <trkpt lat="44.52464" lon="0.93958">
        <ele>71</ele>
        <time>2011-12-26T09:38:17Z</time>
      </trkpt>
      <trkpt lat="44.52473" lon="0.93936">
        <ele>71</ele>
        <time>2011-12-26T09:38:17Z</time>
      </trkpt>
      <trkpt lat="44.52475" lon="0.93931">
        <ele>71</ele>
        <time>2011-12-26T09:38:18Z</time>
      </trkpt>
      <trkpt lat="44.52478" lon="0.9392">
        <ele>71</ele>
        <time>2011-12-26T09:38:24Z</time>
      </trkpt>
      <trkpt lat="44.5248" lon="0.93895">
        <ele>71</ele>
        <time>2011-12-26T09:38:25Z</time>
      </trkpt>
      <trkpt lat="44.52477" lon="0.93892">
        <ele>71</ele>
        <time>2011-12-26T09:38:27Z</time>
      </trkpt>
      <trkpt lat="44.52473" lon="0.93889">
        <ele>71</ele>
        <time>2011-12-26T09:38:28Z</time>
      </trkpt>
      <trkpt lat="44.52465" lon="0.93884">
        <ele>71</ele>
        <time>2011-12-26T09:38:34Z</time>
      </trkpt>
      <trkpt lat="44.52444" lon="0.9387">
        <ele>71</ele>
        <time>2011-12-26T09:38:34Z</time>
      </trkpt>
      <trkpt lat="44.5244" lon="0.93867">
        <ele>71</ele>
        <time>2011-12-26T09:38:35Z</time>
      </trkpt>
      <trkpt lat="44.52431" lon="0.93862">
        <ele>71</ele>
        <time>2011-12-26T09:38:41Z</time>
      </trkpt>
      <trkpt lat="44.52414" lon="0.93852">
        <ele>71</ele>
        <time>2011-12-26T09:38:41Z</time>
      </trkpt>
      <trkpt lat="44.52409" lon="0.93849">
        <ele>71</ele>
        <time>2011-12-26T09:38:42Z</time>
      </trkpt>
      <trkpt lat="44.52401" lon="0.93844">
        <ele>71</ele>
        <time>2011-12-26T09:38:48Z</time>
      </trkpt>
      <trkpt lat="44.52384" lon="0.93835">
        <ele>71</ele>
        <time>2011-12-26T09:38:48Z</time>
      </trkpt>
      <trkpt lat="44.5238" lon="0.93833">
        <ele>71</ele>
        <time>2011-12-26T09:38:49Z</time>
      </trkpt>
      <trkpt lat="44.52372" lon="0.93828">
        <ele>71</ele>
        <time>2011-12-26T09:38:55Z</time>
      </trkpt>
      <trkpt lat="44.5235" lon="0.93818">
        <ele>71</ele>
        <time>2011-12-26T09:38:56Z</time>
      </trkpt>
      <trkpt lat="44.52346" lon="0.93816">
        <ele>71</ele>
        <time>2011-12-26T09:38:57Z</time>
      </trkpt>
      <trkpt lat="44.52337" lon="0.93812">
        <ele>71</ele>
        <time>2011-12-26T09:39:03Z</time>
      </trkpt>
      <trkpt lat="44.52318" lon="0.93804">
        <ele>71</ele>
        <time>2011-12-26T09:39:03Z</time>
      </trkpt>
      <trkpt lat="44.52313" lon="0.93801">
        <ele>71</ele>
        <time>2011-12-26T09:39:04Z</time>
      </trkpt>
      <trkpt lat="44.52284" lon="0.93788">
        <ele>71</ele>
        <time>2011-12-26T09:39:10Z</time>
      </trkpt>
      <trkpt lat="44.52279" lon="0.93787">
        <ele>71</ele>
        <time>2011-12-26T09:39:11Z</time>
      </trkpt>
      <trkpt lat="44.52269" lon="0.93784">
        <ele>71</ele>
        <time>2011-12-26T09:39:17Z</time>
      </trkpt>
      <trkpt lat="44.52245" lon="0.93777">
        <ele>71</ele>
        <time>2011-12-26T09:39:18Z</time>
      </trkpt>
      <trkpt lat="44.52241" lon="0.93775">
        <ele>71</ele>
        <time>2011-12-26T09:39:19Z</time>
      </trkpt>
      <trkpt lat="44.52231" lon="0.93773">
        <ele>71</ele>
        <time>2011-12-26T09:39:25Z</time>
      </trkpt>
      <trkpt lat="44.52212" lon="0.93767">
        <ele>71</ele>
        <time>2011-12-26T09:39:25Z</time>
      </trkpt>
      <trkpt lat="44.52207" lon="0.93765">
        <ele>71</ele>
        <time>2011-12-26T09:39:26Z</time>
      </trkpt>
      <trkpt lat="44.52177" lon="0.93757">
        <ele>71</ele>
        <time>2011-12-26T09:39:32Z</time>
      </trkpt>
      <trkpt lat="44.52172" lon="0.93755">
        <ele>71</ele>
        <time>2011-12-26T09:39:33Z</time>
      </trkpt>
      <trkpt lat="44.52162" lon="0.93753">
        <ele>71</ele>
        <time>2011-12-26T09:39:39Z</time>
      </trkpt>
      <trkpt lat="44.52142" lon="0.9375">
        <ele>71</ele>
        <time>2011-12-26T09:39:40Z</time>
      </trkpt>
      <trkpt lat="44.52139" lon="0.9375">
        <ele>71</ele>
        <time>2011-12-26T09:39:41Z</time>
      </trkpt>
      <trkpt lat="44.52132" lon="0.9375">
        <ele>71</ele>
        <time>2011-12-26T09:39:47Z</time>
      </trkpt>
      <trkpt lat="44.52118" lon="0.93749">
        <ele>71</ele>
        <time>2011-12-26T09:39:47Z</time>
      </trkpt>
      <trkpt lat="44.52116" lon="0.93749">
        <ele>72</ele>
        <time>2011-12-26T09:39:48Z</time>
      </trkpt>
      <trkpt lat="44.52113" lon="0.93747">
        <ele>73</ele>
        <time>2011-12-26T09:39:49Z</time>
      </trkpt>
      <trkpt lat="44.52107" lon="0.93726">
        <ele>74</ele>
        <time>2011-12-26T09:39:56Z</time>
      </trkpt>
      <trkpt lat="44.52108" lon="0.93724">
        <ele>75</ele>
        <time>2011-12-26T09:39:58Z</time>
      </trkpt>
      <trkpt lat="44.52108" lon="0.93721">
        <ele>76</ele>
        <time>2011-12-26T09:39:59Z</time>
      </trkpt>
      <trkpt lat="44.52109" lon="0.93715">
        <ele>77</ele>
        <time>2011-12-26T09:40:04Z</time>
      </trkpt>
      <trkpt lat="44.52113" lon="0.93695">
        <ele>78</ele>
        <time>2011-12-26T09:40:05Z</time>
      </trkpt>
      <trkpt lat="44.52114" lon="0.93691">
        <ele>79</ele>
        <time>2011-12-26T09:40:06Z</time>
      </trkpt>
      <trkpt lat="44.52117" lon="0.93682">
        <ele>79</ele>
        <time>2011-12-26T09:40:12Z</time>
      </trkpt>
      <trkpt lat="44.52121" lon="0.93664">
        <ele>80</ele>
        <time>2011-12-26T09:40:12Z</time>
      </trkpt>
      <trkpt lat="44.52122" lon="0.9366">
        <ele>80</ele>
        <time>2011-12-26T09:40:13Z</time>
      </trkpt>
      <trkpt lat="44.52126" lon="0.93631">
        <ele>80</ele>
        <time>2011-12-26T09:40:19Z</time>
      </trkpt>
      <trkpt lat="44.52127" lon="0.93626">
        <ele>81</ele>
        <time>2011-12-26T09:40:20Z</time>
      </trkpt>
      <trkpt lat="44.52129" lon="0.93617">
        <ele>82</ele>
        <time>2011-12-26T09:40:26Z</time>
      </trkpt>
      <trkpt lat="44.52139" lon="0.93599">
        <ele>83</ele>
        <time>2011-12-26T09:40:27Z</time>
      </trkpt>
      <trkpt lat="44.52141" lon="0.93597">
        <ele>84</ele>
        <time>2011-12-26T09:40:28Z</time>
      </trkpt>
      <trkpt lat="44.52144" lon="0.93595">
        <ele>85</ele>
        <time>2011-12-26T09:40:29Z</time>
      </trkpt>
      <trkpt lat="44.52147" lon="0.93594">
        <ele>86</ele>
        <time>2011-12-26T09:40:30Z</time>
      </trkpt>
      <trkpt lat="44.52158" lon="0.93593">
        <ele>87</ele>
        <time>2011-12-26T09:40:36Z</time>
      </trkpt>
      <trkpt lat="44.5216" lon="0.93593">
        <ele>87</ele>
        <time>2011-12-26T09:40:37Z</time>
      </trkpt>
      <trkpt lat="44.52162" lon="0.93594">
        <ele>87</ele>
        <time>2011-12-26T09:40:38Z</time>
      </trkpt>
      <trkpt lat="44.52175" lon="0.93598">
        <ele>87</ele>
        <time>2011-12-26T09:40:44Z</time>
      </trkpt>
      <trkpt lat="44.52178" lon="0.93599">
        <ele>87</ele>
        <time>2011-12-26T09:40:45Z</time>
      </trkpt>
      <trkpt lat="44.52182" lon="0.93599">
        <ele>87</ele>
        <time>2011-12-26T09:40:51Z</time>
      </trkpt>
      <trkpt lat="44.52185" lon="0.936">
        <ele>87</ele>
        <time>2011-12-26T09:40:52Z</time>
      </trkpt>
      <trkpt lat="44.52182" lon="0.93598">
        <ele>87</ele>
        <time>2011-12-26T09:40:55Z</time>
      </trkpt>
      <trkpt lat="44.52181" lon="0.93597">
        <ele>87</ele>
        <time>2011-12-26T09:40:56Z</time>
      </trkpt>
      <trkpt lat="44.52163" lon="0.93592">
        <ele>87</ele>
        <time>2011-12-26T09:41:03Z</time>
      </trkpt>
      <trkpt lat="44.5216" lon="0.93591">
        <ele>87</ele>
        <time>2011-12-26T09:41:04Z</time>
      </trkpt>
      <trkpt lat="44.52154" lon="0.93591">
        <ele>87</ele>
        <time>2011-12-26T09:41:10Z</time>
      </trkpt>
      <trkpt lat="44.52142" lon="0.93593">
        <ele>87</ele>
        <time>2011-12-26T09:41:10Z</time>
      </trkpt>
      <trkpt lat="44.52138" lon="0.93592">
        <ele>87</ele>
        <time>2011-12-26T09:41:11Z</time>
      </trkpt>
      <trkpt lat="44.52108" lon="0.9359">
        <ele>87</ele>
        <time>2011-12-26T09:41:17Z</time>
      </trkpt>
      <trkpt lat="44.52103" lon="0.9359">
        <ele>87</ele>
        <time>2011-12-26T09:41:18Z</time>
      </trkpt>
      <trkpt lat="44.52098" lon="0.9359">
        <ele>87</ele>
        <time>2011-12-26T09:41:19Z</time>
      </trkpt>
      <trkpt lat="44.52088" lon="0.9359">
        <ele>86</ele>
        <time>2011-12-26T09:41:25Z</time>
      </trkpt>
      <trkpt lat="44.52075" lon="0.93592">
        <ele>85</ele>
        <time>2011-12-26T09:41:25Z</time>
      </trkpt>
      <trkpt lat="44.52073" lon="0.93592">
        <ele>84</ele>
        <time>2011-12-26T09:41:26Z</time>
      </trkpt>
      <trkpt lat="44.52075" lon="0.93591">
        <ele>81</ele>
        <time>2011-12-26T09:41:36Z</time>
      </trkpt>
      <trkpt lat="44.52077" lon="0.93591">
        <ele>81</ele>
        <time>2011-12-26T09:41:42Z</time>
      </trkpt>
      <trkpt lat="44.52078" lon="0.9359">
        <ele>81</ele>
        <time>2011-12-26T09:41:52Z</time>
      </trkpt>
      <trkpt lat="44.52082" lon="0.9359">
        <ele>81</ele>
        <time>2011-12-26T09:41:52Z</time>
      </trkpt>
      <trkpt lat="44.52084" lon="0.9359">
        <ele>81</ele>
        <time>2011-12-26T09:41:54Z</time>
      </trkpt>
      <trkpt lat="44.52085" lon="0.9359">
        <ele>81</ele>
        <time>2011-12-26T09:41:55Z</time>
      </trkpt>
      <trkpt lat="44.52089" lon="0.93589">
        <ele>81</ele>
        <time>2011-12-26T09:42:01Z</time>
      </trkpt>
      <trkpt lat="44.52103" lon="0.9359">
        <ele>81</ele>
        <time>2011-12-26T09:42:02Z</time>
      </trkpt>
      <trkpt lat="44.52106" lon="0.9359">
        <ele>81</ele>
        <time>2011-12-26T09:42:08Z</time>
      </trkpt>
      <trkpt lat="44.52114" lon="0.9359">
        <ele>82</ele>
        <time>2011-12-26T09:42:08Z</time>
      </trkpt>
      <trkpt lat="44.52116" lon="0.9359">
        <ele>83</ele>
        <time>2011-12-26T09:42:09Z</time>
      </trkpt>
      <trkpt lat="44.52121" lon="0.9359">
        <ele>84</ele>
        <time>2011-12-26T09:42:15Z</time>
      </trkpt>
      <trkpt lat="44.52131" lon="0.93591">
        <ele>85</ele>
        <time>2011-12-26T09:42:16Z</time>
      </trkpt>
      <trkpt lat="44.52134" lon="0.93591">
        <ele>85</ele>
        <time>2011-12-26T09:42:17Z</time>
      </trkpt>
      <trkpt lat="44.52138" lon="0.93592">
        <ele>85</ele>
        <time>2011-12-26T09:42:23Z</time>
      </trkpt>
      <trkpt lat="44.52145" lon="0.93592">
        <ele>85</ele>
        <time>2011-12-26T09:42:23Z</time>
      </trkpt>
      <trkpt lat="44.52146" lon="0.9359">
        <ele>86</ele>
        <time>2011-12-26T09:42:25Z</time>
      </trkpt>
      <trkpt lat="44.52146" lon="0.93586">
        <ele>86</ele>
        <time>2011-12-26T09:42:26Z</time>
      </trkpt>
      <trkpt lat="44.52139" lon="0.93579">
        <ele>86</ele>
        <time>2011-12-26T09:42:31Z</time>
      </trkpt>
      <trkpt lat="44.52138" lon="0.93578">
        <ele>86</ele>
        <time>2011-12-26T09:42:32Z</time>
      </trkpt>
      <trkpt lat="44.52137" lon="0.93576">
        <ele>86</ele>
        <time>2011-12-26T09:42:33Z</time>
      </trkpt>
      <trkpt lat="44.52133" lon="0.93572">
        <ele>86</ele>
        <time>2011-12-26T09:42:38Z</time>
      </trkpt>
      <trkpt lat="44.52123" lon="0.93554">
        <ele>86</ele>
        <time>2011-12-26T09:42:42Z</time>
      </trkpt>
      <trkpt lat="44.52122" lon="0.9355">
        <ele>86</ele>
        <time>2011-12-26T09:42:43Z</time>
      </trkpt>
      <trkpt lat="44.52122" lon="0.93547">
        <ele>86</ele>
        <time>2011-12-26T09:42:44Z</time>
      </trkpt>
      <trkpt lat="44.5212" lon="0.93528">
        <ele>86</ele>
        <time>2011-12-26T09:42:49Z</time>
      </trkpt>
      <trkpt lat="44.5212" lon="0.93523">
        <ele>86</ele>
        <time>2011-12-26T09:42:50Z</time>
      </trkpt>
      <trkpt lat="44.52121" lon="0.93518">
        <ele>86</ele>
        <time>2011-12-26T09:42:51Z</time>
      </trkpt>
      <trkpt lat="44.52123" lon="0.93508">
        <ele>86</ele>
        <time>2011-12-26T09:42:54Z</time>
      </trkpt>
      <trkpt lat="44.52128" lon="0.93492">
        <ele>86</ele>
        <time>2011-12-26T09:43:00Z</time>
      </trkpt>
      <trkpt lat="44.52138" lon="0.93473">
        <ele>86</ele>
        <time>2011-12-26T09:43:00Z</time>
      </trkpt>
      <trkpt lat="44.52141" lon="0.93469">
        <ele>86</ele>
        <time>2011-12-26T09:43:01Z</time>
      </trkpt>
      <trkpt lat="44.52148" lon="0.93459">
        <ele>86</ele>
        <time>2011-12-26T09:43:07Z</time>
      </trkpt>
      <trkpt lat="44.52161" lon="0.93436">
        <ele>85</ele>
        <time>2011-12-26T09:43:07Z</time>
      </trkpt>
      <trkpt lat="44.52164" lon="0.9343">
        <ele>84</ele>
        <time>2011-12-26T09:43:08Z</time>
      </trkpt>
      <trkpt lat="44.52169" lon="0.93417">
        <ele>83</ele>
        <time>2011-12-26T09:43:12Z</time>
      </trkpt>
      <trkpt lat="44.52175" lon="0.93395">
        <ele>82</ele>
        <time>2011-12-26T09:43:13Z</time>
      </trkpt>
      <trkpt lat="44.52177" lon="0.93387">
        <ele>81</ele>
        <time>2011-12-26T09:43:14Z</time>
      </trkpt>
      <trkpt lat="44.52178" lon="0.93378">
        <ele>80</ele>
        <time>2011-12-26T09:43:15Z</time>
      </trkpt>
      <trkpt lat="44.5218" lon="0.93361">
        <ele>79</ele>
        <time>2011-12-26T09:43:19Z</time>
      </trkpt>
      <trkpt lat="44.52179" lon="0.93334">
        <ele>78</ele>
        <time>2011-12-26T09:43:20Z</time>
      </trkpt>
      <trkpt lat="44.52179" lon="0.93324">
        <ele>77</ele>
        <time>2011-12-26T09:43:21Z</time>
      </trkpt>
      <trkpt lat="44.52177" lon="0.93315">
        <ele>77</ele>
        <time>2011-12-26T09:43:22Z</time>
      </trkpt>
      <trkpt lat="44.52175" lon="0.93299">
        <ele>76</ele>
        <time>2011-12-26T09:43:27Z</time>
      </trkpt>
      <trkpt lat="44.52169" lon="0.93273">
        <ele>75</ele>
        <time>2011-12-26T09:43:27Z</time>
      </trkpt>
      <trkpt lat="44.52166" lon="0.93265">
        <ele>75</ele>
        <time>2011-12-26T09:43:28Z</time>
      </trkpt>
      <trkpt lat="44.52161" lon="0.93248">
        <ele>74</ele>
        <time>2011-12-26T09:43:33Z</time>
      </trkpt>
      <trkpt lat="44.52153" lon="0.93227">
        <ele>73</ele>
        <time>2011-12-26T09:43:33Z</time>
      </trkpt>
      <trkpt lat="44.5215" lon="0.93221">
        <ele>72</ele>
        <time>2011-12-26T09:43:34Z</time>
      </trkpt>
      <trkpt lat="44.52147" lon="0.93215">
        <ele>71</ele>
        <time>2011-12-26T09:43:36Z</time>
      </trkpt>
      <trkpt lat="44.52126" lon="0.9319">
        <ele>71</ele>
        <time>2011-12-26T09:43:40Z</time>
      </trkpt>
      <trkpt lat="44.52121" lon="0.93185">
        <ele>71</ele>
        <time>2011-12-26T09:43:41Z</time>
      </trkpt>
      <trkpt lat="44.52117" lon="0.93182">
        <ele>71</ele>
        <time>2011-12-26T09:43:42Z</time>
      </trkpt>
      <trkpt lat="44.5211" lon="0.93176">
        <ele>71</ele>
        <time>2011-12-26T09:43:47Z</time>
      </trkpt>
      <trkpt lat="44.52108" lon="0.93176">
        <ele>73</ele>
        <time>2011-12-26T09:43:50Z</time>
      </trkpt>
      <trkpt lat="44.52111" lon="0.93177">
        <ele>73</ele>
        <time>2011-12-26T09:44:07Z</time>
      </trkpt>
      <trkpt lat="44.52106" lon="0.93177">
        <ele>74</ele>
        <time>2011-12-26T09:44:15Z</time>
      </trkpt>
      <trkpt lat="44.52105" lon="0.93177">
        <ele>74</ele>
        <time>2011-12-26T09:44:17Z</time>
      </trkpt>
      <trkpt lat="44.52102" lon="0.93178">
        <ele>74</ele>
        <time>2011-12-26T09:44:18Z</time>
      </trkpt>
      <trkpt lat="44.52085" lon="0.93185">
        <ele>74</ele>
        <time>2011-12-26T09:44:23Z</time>
      </trkpt>
      <trkpt lat="44.52082" lon="0.93186">
        <ele>74</ele>
        <time>2011-12-26T09:44:24Z</time>
      </trkpt>
      <trkpt lat="44.52075" lon="0.9319">
        <ele>74</ele>
        <time>2011-12-26T09:44:29Z</time>
      </trkpt>
      <trkpt lat="44.52066" lon="0.93195">
        <ele>74</ele>
        <time>2011-12-26T09:44:29Z</time>
      </trkpt>
      <trkpt lat="44.52063" lon="0.93197">
        <ele>74</ele>
        <time>2011-12-26T09:44:30Z</time>
      </trkpt>
      <trkpt lat="44.52058" lon="0.932">
        <ele>74</ele>
        <time>2011-12-26T09:44:35Z</time>
      </trkpt>
      <trkpt lat="44.52048" lon="0.93204">
        <ele>74</ele>
        <time>2011-12-26T09:44:35Z</time>
      </trkpt>
      <trkpt lat="44.52045" lon="0.93206">
        <ele>74</ele>
        <time>2011-12-26T09:44:36Z</time>
      </trkpt>
      <trkpt lat="44.52028" lon="0.93213">
        <ele>74</ele>
        <time>2011-12-26T09:44:41Z</time>
      </trkpt>
      <trkpt lat="44.52024" lon="0.93214">
        <ele>74</ele>
        <time>2011-12-26T09:44:42Z</time>
      </trkpt>
      <trkpt lat="44.52016" lon="0.93217">
        <ele>74</ele>
        <time>2011-12-26T09:44:47Z</time>
      </trkpt>
      <trkpt lat="44.52004" lon="0.93223">
        <ele>75</ele>
        <time>2011-12-26T09:44:48Z</time>
      </trkpt>
      <trkpt lat="44.52001" lon="0.93225">
        <ele>76</ele>
        <time>2011-12-26T09:44:49Z</time>
      </trkpt>
      <trkpt lat="44.51995" lon="0.93227">
        <ele>77</ele>
        <time>2011-12-26T09:44:54Z</time>
      </trkpt>
      <trkpt lat="44.51986" lon="0.93231">
        <ele>78</ele>
        <time>2011-12-26T09:44:54Z</time>
      </trkpt>
      <trkpt lat="44.51984" lon="0.93232">
        <ele>79</ele>
        <time>2011-12-26T09:44:55Z</time>
      </trkpt>
      <trkpt lat="44.51982" lon="0.93231">
        <ele>79</ele>
        <time>2011-12-26T09:44:56Z</time>
      </trkpt>
      <trkpt lat="44.51981" lon="0.93229">
        <ele>80</ele>
        <time>2011-12-26T09:44:57Z</time>
      </trkpt>
      <trkpt lat="44.51981" lon="0.93224">
        <ele>80</ele>
        <time>2011-12-26T09:45:03Z</time>
      </trkpt>
      <trkpt lat="44.51981" lon="0.93211">
        <ele>80</ele>
        <time>2011-12-26T09:45:03Z</time>
      </trkpt>
      <trkpt lat="44.5198" lon="0.93203">
        <ele>81</ele>
        <time>2011-12-26T09:45:08Z</time>
      </trkpt>
      <trkpt lat="44.51978" lon="0.93185">
        <ele>81</ele>
        <time>2011-12-26T09:45:09Z</time>
      </trkpt>
      <trkpt lat="44.51976" lon="0.93181">
        <ele>82</ele>
        <time>2011-12-26T09:45:10Z</time>
      </trkpt>
      <trkpt lat="44.51973" lon="0.93171">
        <ele>82</ele>
        <time>2011-12-26T09:45:15Z</time>
      </trkpt>
      <trkpt lat="44.51968" lon="0.93155">
        <ele>83</ele>
        <time>2011-12-26T09:45:15Z</time>
      </trkpt>
      <trkpt lat="44.51968" lon="0.9315">
        <ele>83</ele>
        <time>2011-12-26T09:45:16Z</time>
      </trkpt>
      <trkpt lat="44.51965" lon="0.93141">
        <ele>84</ele>
        <time>2011-12-26T09:45:21Z</time>
      </trkpt>
      <trkpt lat="44.51964" lon="0.93129">
        <ele>85</ele>
        <time>2011-12-26T09:45:21Z</time>
      </trkpt>
      <trkpt lat="44.51963" lon="0.93124">
        <ele>86</ele>
        <time>2011-12-26T09:45:22Z</time>
      </trkpt>
      <trkpt lat="44.51962" lon="0.93119">
        <ele>87</ele>
        <time>2011-12-26T09:45:24Z</time>
      </trkpt>
      <trkpt lat="44.51961" lon="0.93114">
        <ele>88</ele>
        <time>2011-12-26T09:45:25Z</time>
      </trkpt>
      <trkpt lat="44.51957" lon="0.93088">
        <ele>89</ele>
        <time>2011-12-26T09:45:29Z</time>
      </trkpt>
      <trkpt lat="44.51957" lon="0.93083">
        <ele>90</ele>
        <time>2011-12-26T09:45:30Z</time>
      </trkpt>
      <trkpt lat="44.51957" lon="0.93078">
        <ele>91</ele>
        <time>2011-12-26T09:45:31Z</time>
      </trkpt>
      <trkpt lat="44.51955" lon="0.93068">
        <ele>92</ele>
        <time>2011-12-26T09:45:36Z</time>
      </trkpt>
      <trkpt lat="44.51952" lon="0.93052">
        <ele>93</ele>
        <time>2011-12-26T09:45:36Z</time>
      </trkpt>
      <trkpt lat="44.5195" lon="0.93046">
        <ele>94</ele>
        <time>2011-12-26T09:45:37Z</time>
      </trkpt>
      <trkpt lat="44.51947" lon="0.93034">
        <ele>95</ele>
        <time>2011-12-26T09:45:42Z</time>
      </trkpt>
      <trkpt lat="44.51946" lon="0.9302">
        <ele>95</ele>
        <time>2011-12-26T09:45:42Z</time>
      </trkpt>
      <trkpt lat="44.51947" lon="0.93015">
        <ele>95</ele>
        <time>2011-12-26T09:45:43Z</time>
      </trkpt>
      <trkpt lat="44.51947" lon="0.93009">
        <ele>96</ele>
        <time>2011-12-26T09:45:44Z</time>
      </trkpt>
      <trkpt lat="44.51949" lon="0.92999">
        <ele>96</ele>
        <time>2011-12-26T09:45:49Z</time>
      </trkpt>
      <trkpt lat="44.51951" lon="0.92985">
        <ele>96</ele>
        <time>2011-12-26T09:45:49Z</time>
      </trkpt>
      <trkpt lat="44.51952" lon="0.92979">
        <ele>97</ele>
        <time>2011-12-26T09:45:50Z</time>
      </trkpt>
      <trkpt lat="44.51953" lon="0.92968">
        <ele>97</ele>
        <time>2011-12-26T09:45:55Z</time>
      </trkpt>
      <trkpt lat="44.5195" lon="0.92949">
        <ele>97</ele>
        <time>2011-12-26T09:45:56Z</time>
      </trkpt>
      <trkpt lat="44.51949" lon="0.92944">
        <ele>98</ele>
        <time>2011-12-26T09:45:57Z</time>
      </trkpt>
      <trkpt lat="44.51947" lon="0.92938">
        <ele>99</ele>
        <time>2011-12-26T09:45:58Z</time>
      </trkpt>
      <trkpt lat="44.51946" lon="0.92929">
        <ele>100</ele>
        <time>2011-12-26T09:46:02Z</time>
      </trkpt>
      <trkpt lat="44.51945" lon="0.92914">
        <ele>101</ele>
        <time>2011-12-26T09:46:03Z</time>
      </trkpt>
      <trkpt lat="44.51945" lon="0.92909">
        <ele>102</ele>
        <time>2011-12-26T09:46:04Z</time>
      </trkpt>
      <trkpt lat="44.51944" lon="0.92905">
        <ele>102</ele>
        <time>2011-12-26T09:46:05Z</time>
      </trkpt>
      <trkpt lat="44.51945" lon="0.92899">
        <ele>102</ele>
        <time>2011-12-26T09:46:10Z</time>
      </trkpt>
      <trkpt lat="44.51952" lon="0.92896">
        <ele>102</ele>
        <time>2011-12-26T09:46:11Z</time>
      </trkpt>
      <trkpt lat="44.51954" lon="0.92896">
        <ele>102</ele>
        <time>2011-12-26T09:46:12Z</time>
      </trkpt>
      <trkpt lat="44.51957" lon="0.92896">
        <ele>102</ele>
        <time>2011-12-26T09:46:12Z</time>
      </trkpt>
      <trkpt lat="44.51974" lon="0.92895">
        <ele>102</ele>
        <time>2011-12-26T09:46:17Z</time>
      </trkpt>
      <trkpt lat="44.51976" lon="0.92895">
        <ele>102</ele>
        <time>2011-12-26T09:46:19Z</time>
      </trkpt>
      <trkpt lat="44.51978" lon="0.92894">
        <ele>102</ele>
        <time>2011-12-26T09:46:19Z</time>
      </trkpt>
      <trkpt lat="44.51979" lon="0.92894">
        <ele>102</ele>
        <time>2011-12-26T09:46:22Z</time>
      </trkpt>
      <trkpt lat="44.51981" lon="0.92894">
        <ele>102</ele>
        <time>2011-12-26T09:46:27Z</time>
      </trkpt>
      <trkpt lat="44.51989" lon="0.92893">
        <ele>102</ele>
        <time>2011-12-26T09:46:28Z</time>
      </trkpt>
      <trkpt lat="44.51992" lon="0.92892">
        <ele>102</ele>
        <time>2011-12-26T09:46:29Z</time>
      </trkpt>
      <trkpt lat="44.51994" lon="0.92892">
        <ele>102</ele>
        <time>2011-12-26T09:46:29Z</time>
      </trkpt>
      <trkpt lat="44.52001" lon="0.92894">
        <ele>102</ele>
        <time>2011-12-26T09:46:33Z</time>
      </trkpt>
      <trkpt lat="44.52011" lon="0.92895">
        <ele>102</ele>
        <time>2011-12-26T09:46:34Z</time>
      </trkpt>
      <trkpt lat="44.52013" lon="0.92893">
        <ele>102</ele>
        <time>2011-12-26T09:46:35Z</time>
      </trkpt>
      <trkpt lat="44.52016" lon="0.92891">
        <ele>102</ele>
        <time>2011-12-26T09:46:36Z</time>
      </trkpt>
      <trkpt lat="44.52021" lon="0.92888">
        <ele>102</ele>
        <time>2011-12-26T09:46:41Z</time>
      </trkpt>
      <trkpt lat="44.52028" lon="0.9288">
        <ele>102</ele>
        <time>2011-12-26T09:46:41Z</time>
      </trkpt>
      <trkpt lat="44.5203" lon="0.92878">
        <ele>102</ele>
        <time>2011-12-26T09:46:42Z</time>
      </trkpt>
      <trkpt lat="44.52042" lon="0.92865">
        <ele>102</ele>
        <time>2011-12-26T09:46:47Z</time>
      </trkpt>
      <trkpt lat="44.52045" lon="0.92862">
        <ele>102</ele>
        <time>2011-12-26T09:46:48Z</time>
      </trkpt>
      <trkpt lat="44.52049" lon="0.92858">
        <ele>102</ele>
        <time>2011-12-26T09:46:53Z</time>
      </trkpt>
      <trkpt lat="44.5206" lon="0.9284">
        <ele>102</ele>
        <time>2011-12-26T09:46:54Z</time>
      </trkpt>
      <trkpt lat="44.52063" lon="0.92835">
        <ele>102</ele>
        <time>2011-12-26T09:46:56Z</time>
      </trkpt>
      <trkpt lat="44.52065" lon="0.9283">
        <ele>102</ele>
        <time>2011-12-26T09:46:57Z</time>
      </trkpt>
      <trkpt lat="44.52076" lon="0.92801">
        <ele>102</ele>
        <time>2011-12-26T09:47:01Z</time>
      </trkpt>
      <trkpt lat="44.52078" lon="0.92796">
        <ele>102</ele>
        <time>2011-12-26T09:47:02Z</time>
      </trkpt>
      <trkpt lat="44.5208" lon="0.92791">
        <ele>102</ele>
        <time>2011-12-26T09:47:03Z</time>
      </trkpt>
      <trkpt lat="44.52084" lon="0.9278">
        <ele>102</ele>
        <time>2011-12-26T09:47:08Z</time>
      </trkpt>
      <trkpt lat="44.52092" lon="0.92764">
        <ele>102</ele>
        <time>2011-12-26T09:47:08Z</time>
      </trkpt>
      <trkpt lat="44.52095" lon="0.92759">
        <ele>102</ele>
        <time>2011-12-26T09:47:09Z</time>
      </trkpt>
      <trkpt lat="44.52098" lon="0.92754">
        <ele>101</ele>
        <time>2011-12-26T09:47:10Z</time>
      </trkpt>
      <trkpt lat="44.52106" lon="0.92744">
        <ele>100</ele>
        <time>2011-12-26T09:47:15Z</time>
      </trkpt>
      <trkpt lat="44.52114" lon="0.92734">
        <ele>99</ele>
        <time>2011-12-26T09:47:15Z</time>
      </trkpt>
      <trkpt lat="44.52117" lon="0.9273">
        <ele>98</ele>
        <time>2011-12-26T09:47:16Z</time>
      </trkpt>
      <trkpt lat="44.52137" lon="0.9272">
        <ele>97</ele>
        <time>2011-12-26T09:47:21Z</time>
      </trkpt>
      <trkpt lat="44.5214" lon="0.92718">
        <ele>96</ele>
        <time>2011-12-26T09:47:22Z</time>
      </trkpt>
      <trkpt lat="44.52142" lon="0.92715">
        <ele>95</ele>
        <time>2011-12-26T09:47:23Z</time>
      </trkpt>
      <trkpt lat="44.52143" lon="0.92712">
        <ele>94</ele>
        <time>2011-12-26T09:47:24Z</time>
      </trkpt>
      <trkpt lat="44.52147" lon="0.92704">
        <ele>93</ele>
        <time>2011-12-26T09:47:30Z</time>
      </trkpt>
      <trkpt lat="44.52162" lon="0.92694">
        <ele>93</ele>
        <time>2011-12-26T09:47:30Z</time>
      </trkpt>
      <trkpt lat="44.52166" lon="0.92691">
        <ele>93</ele>
        <time>2011-12-26T09:47:31Z</time>
      </trkpt>
      <trkpt lat="44.5217" lon="0.92688">
        <ele>92</ele>
        <time>2011-12-26T09:47:32Z</time>
      </trkpt>
      <trkpt lat="44.52177" lon="0.9268">
        <ele>92</ele>
        <time>2011-12-26T09:47:37Z</time>
      </trkpt>
      <trkpt lat="44.52184" lon="0.92669">
        <ele>92</ele>
        <time>2011-12-26T09:47:37Z</time>
      </trkpt>
      <trkpt lat="44.52185" lon="0.92665">
        <ele>92</ele>
        <time>2011-12-26T09:47:38Z</time>
      </trkpt>
      <trkpt lat="44.52188" lon="0.9266">
        <ele>92</ele>
        <time>2011-12-26T09:47:39Z</time>
      </trkpt>
      <trkpt lat="44.52192" lon="0.92653">
        <ele>92</ele>
        <time>2011-12-26T09:47:44Z</time>
      </trkpt>
      <trkpt lat="44.52192" lon="0.92637">
        <ele>92</ele>
        <time>2011-12-26T09:47:44Z</time>
      </trkpt>
      <trkpt lat="44.52192" lon="0.92631">
        <ele>92</ele>
        <time>2011-12-26T09:47:45Z</time>
      </trkpt>
      <trkpt lat="44.52193" lon="0.92626">
        <ele>92</ele>
        <time>2011-12-26T09:47:46Z</time>
      </trkpt>
      <trkpt lat="44.52194" lon="0.92616">
        <ele>92</ele>
        <time>2011-12-26T09:47:51Z</time>
      </trkpt>
      <trkpt lat="44.52195" lon="0.926">
        <ele>92</ele>
        <time>2011-12-26T09:47:52Z</time>
      </trkpt>
      <trkpt lat="44.52194" lon="0.92594">
        <ele>92</ele>
        <time>2011-12-26T09:47:53Z</time>
      </trkpt>
      <trkpt lat="44.52194" lon="0.92588">
        <ele>92</ele>
        <time>2011-12-26T09:47:53Z</time>
      </trkpt>
      <trkpt lat="44.5219" lon="0.92562">
        <ele>92</ele>
        <time>2011-12-26T09:47:58Z</time>
      </trkpt>
      <trkpt lat="44.52189" lon="0.92557">
        <ele>92</ele>
        <time>2011-12-26T09:47:59Z</time>
      </trkpt>
      <trkpt lat="44.52188" lon="0.92552">
        <ele>92</ele>
        <time>2011-12-26T09:48:00Z</time>
      </trkpt>
      <trkpt lat="44.52188" lon="0.92547">
        <ele>93</ele>
        <time>2011-12-26T09:48:01Z</time>
      </trkpt>
      <trkpt lat="44.52188" lon="0.92542">
        <ele>94</ele>
        <time>2011-12-26T09:48:02Z</time>
      </trkpt>
      <trkpt lat="44.52186" lon="0.92532">
        <ele>95</ele>
        <time>2011-12-26T09:48:07Z</time>
      </trkpt>
      <trkpt lat="44.52179" lon="0.92516">
        <ele>96</ele>
        <time>2011-12-26T09:48:07Z</time>
      </trkpt>
      <trkpt lat="44.52177" lon="0.92511">
        <ele>97</ele>
        <time>2011-12-26T09:48:08Z</time>
      </trkpt>
      <trkpt lat="44.52177" lon="0.92506">
        <ele>98</ele>
        <time>2011-12-26T09:48:09Z</time>
      </trkpt>
      <trkpt lat="44.52177" lon="0.925">
        <ele>99</ele>
        <time>2011-12-26T09:48:10Z</time>
      </trkpt>
      <trkpt lat="44.52177" lon="0.92494">
        <ele>100</ele>
        <time>2011-12-26T09:48:11Z</time>
      </trkpt>
      <trkpt lat="44.52179" lon="0.92486">
        <ele>101</ele>
        <time>2011-12-26T09:48:16Z</time>
      </trkpt>
      <trkpt lat="44.52181" lon="0.92479">
        <ele>101</ele>
        <time>2011-12-26T09:48:16Z</time>
      </trkpt>
      <trkpt lat="44.52183" lon="0.92478">
        <ele>100</ele>
        <time>2011-12-26T09:48:20Z</time>
      </trkpt>
      <trkpt lat="44.52184" lon="0.92476">
        <ele>100</ele>
        <time>2011-12-26T09:48:26Z</time>
      </trkpt>
      <trkpt lat="44.52185" lon="0.92475">
        <ele>99</ele>
        <time>2011-12-26T09:48:27Z</time>
      </trkpt>
      <trkpt lat="44.52182" lon="0.9247">
        <ele>97</ele>
        <time>2011-12-26T09:48:34Z</time>
      </trkpt>
      <trkpt lat="44.52182" lon="0.92468">
        <ele>94</ele>
        <time>2011-12-26T09:48:42Z</time>
      </trkpt>
      <trkpt lat="44.52182" lon="0.92466">
        <ele>92</ele>
        <time>2011-12-26T09:48:44Z</time>
      </trkpt>
      <trkpt lat="44.52183" lon="0.92461">
        <ele>92</ele>
        <time>2011-12-26T09:48:50Z</time>
      </trkpt>
      <trkpt lat="44.52181" lon="0.9245">
        <ele>92</ele>
        <time>2011-12-26T09:48:52Z</time>
      </trkpt>
      <trkpt lat="44.5218" lon="0.92447">
        <ele>92</ele>
        <time>2011-12-26T09:48:53Z</time>
      </trkpt>
      <trkpt lat="44.52179" lon="0.9244">
        <ele>92</ele>
        <time>2011-12-26T09:48:58Z</time>
      </trkpt>
      <trkpt lat="44.52183" lon="0.92424">
        <ele>92</ele>
        <time>2011-12-26T09:48:58Z</time>
      </trkpt>
      <trkpt lat="44.52185" lon="0.92418">
        <ele>92</ele>
        <time>2011-12-26T09:48:59Z</time>
      </trkpt>
      <trkpt lat="44.52192" lon="0.92394">
        <ele>92</ele>
        <time>2011-12-26T09:49:05Z</time>
      </trkpt>
      <trkpt lat="44.52195" lon="0.92393">
        <ele>93</ele>
        <time>2011-12-26T09:49:07Z</time>
      </trkpt>
      <trkpt lat="44.52198" lon="0.92393">
        <ele>93</ele>
        <time>2011-12-26T09:49:07Z</time>
      </trkpt>
      <trkpt lat="44.52203" lon="0.92393">
        <ele>94</ele>
        <time>2011-12-26T09:49:08Z</time>
      </trkpt>
      <trkpt lat="44.52214" lon="0.92396">
        <ele>94</ele>
        <time>2011-12-26T09:49:13Z</time>
      </trkpt>
      <trkpt lat="44.52232" lon="0.92401">
        <ele>94</ele>
        <time>2011-12-26T09:49:14Z</time>
      </trkpt>
      <trkpt lat="44.52237" lon="0.92405">
        <ele>94</ele>
        <time>2011-12-26T09:49:15Z</time>
      </trkpt>
      <trkpt lat="44.5224" lon="0.92408">
        <ele>94</ele>
        <time>2011-12-26T09:49:16Z</time>
      </trkpt>
      <trkpt lat="44.52248" lon="0.92413">
        <ele>94</ele>
        <time>2011-12-26T09:49:21Z</time>
      </trkpt>
      <trkpt lat="44.52258" lon="0.92421">
        <ele>93</ele>
        <time>2011-12-26T09:49:21Z</time>
      </trkpt>
      <trkpt lat="44.52261" lon="0.92424">
        <ele>92</ele>
        <time>2011-12-26T09:49:22Z</time>
      </trkpt>
      <trkpt lat="44.52265" lon="0.92432">
        <ele>92</ele>
        <time>2011-12-26T09:49:27Z</time>
      </trkpt>
      <trkpt lat="44.52268" lon="0.9244">
        <ele>92</ele>
        <time>2011-12-26T09:49:28Z</time>
      </trkpt>
      <trkpt lat="44.52269" lon="0.92442">
        <ele>92</ele>
        <time>2011-12-26T09:49:28Z</time>
      </trkpt>
      <trkpt lat="44.52271" lon="0.92443">
        <ele>92</ele>
        <time>2011-12-26T09:49:29Z</time>
      </trkpt>
      <trkpt lat="44.52274" lon="0.92445">
        <ele>92</ele>
        <time>2011-12-26T09:49:35Z</time>
      </trkpt>
      <trkpt lat="44.52275" lon="0.92449">
        <ele>92</ele>
        <time>2011-12-26T09:49:35Z</time>
      </trkpt>
      <trkpt lat="44.52276" lon="0.92451">
        <ele>92</ele>
        <time>2011-12-26T09:49:36Z</time>
      </trkpt>
      <trkpt lat="44.52277" lon="0.92453">
        <ele>92</ele>
        <time>2011-12-26T09:49:37Z</time>
      </trkpt>
      <trkpt lat="44.52279" lon="0.92456">
        <ele>92</ele>
        <time>2011-12-26T09:49:38Z</time>
      </trkpt>
      <trkpt lat="44.52282" lon="0.92459">
        <ele>92</ele>
        <time>2011-12-26T09:49:39Z</time>
      </trkpt>
      <trkpt lat="44.52288" lon="0.92465">
        <ele>91</ele>
        <time>2011-12-26T09:49:44Z</time>
      </trkpt>
      <trkpt lat="44.52297" lon="0.92472">
        <ele>91</ele>
        <time>2011-12-26T09:49:44Z</time>
      </trkpt>
      <trkpt lat="44.523" lon="0.92475">
        <ele>90</ele>
        <time>2011-12-26T09:49:45Z</time>
      </trkpt>
      <trkpt lat="44.52304" lon="0.92479">
        <ele>89</ele>
        <time>2011-12-26T09:49:50Z</time>
      </trkpt>
      <trkpt lat="44.52312" lon="0.92486">
        <ele>88</ele>
        <time>2011-12-26T09:49:50Z</time>
      </trkpt>
      <trkpt lat="44.52314" lon="0.92488">
        <ele>87</ele>
        <time>2011-12-26T09:49:51Z</time>
      </trkpt>
      <trkpt lat="44.52319" lon="0.92493">
        <ele>86</ele>
        <time>2011-12-26T09:49:56Z</time>
      </trkpt>
      <trkpt lat="44.52329" lon="0.92503">
        <ele>85</ele>
        <time>2011-12-26T09:49:57Z</time>
      </trkpt>
      <trkpt lat="44.5233" lon="0.92504">
        <ele>84</ele>
        <time>2011-12-26T09:49:58Z</time>
      </trkpt>
      <trkpt lat="44.52333" lon="0.92502">
        <ele>84</ele>
        <time>2011-12-26T09:50:03Z</time>
      </trkpt>
      <trkpt lat="44.52337" lon="0.92494">
        <ele>84</ele>
        <time>2011-12-26T09:50:03Z</time>
      </trkpt>
      <trkpt lat="44.52338" lon="0.92491">
        <ele>84</ele>
        <time>2011-12-26T09:50:04Z</time>
      </trkpt>
      <trkpt lat="44.52339" lon="0.92488">
        <ele>84</ele>
        <time>2011-12-26T09:50:05Z</time>
      </trkpt>
      <trkpt lat="44.52342" lon="0.92481">
        <ele>84</ele>
        <time>2011-12-26T09:50:10Z</time>
      </trkpt>
      <trkpt lat="44.52346" lon="0.92471">
        <ele>84</ele>
        <time>2011-12-26T09:50:10Z</time>
      </trkpt>
      <trkpt lat="44.52347" lon="0.92467">
        <ele>84</ele>
        <time>2011-12-26T09:50:11Z</time>
      </trkpt>
      <trkpt lat="44.52351" lon="0.9246">
        <ele>84</ele>
        <time>2011-12-26T09:50:16Z</time>
      </trkpt>
      <trkpt lat="44.52362" lon="0.92461">
        <ele>84</ele>
        <time>2011-12-26T09:50:17Z</time>
      </trkpt>
      <trkpt lat="44.52364" lon="0.92462">
        <ele>85</ele>
        <time>2011-12-26T09:50:19Z</time>
      </trkpt>
      <trkpt lat="44.52367" lon="0.92463">
        <ele>85</ele>
        <time>2011-12-26T09:50:20Z</time>
      </trkpt>
      <trkpt lat="44.5237" lon="0.92464">
        <ele>86</ele>
        <time>2011-12-26T09:50:24Z</time>
      </trkpt>
      <trkpt lat="44.52379" lon="0.9247">
        <ele>86</ele>
        <time>2011-12-26T09:50:25Z</time>
      </trkpt>
      <trkpt lat="44.52381" lon="0.92472">
        <ele>86</ele>
        <time>2011-12-26T09:50:26Z</time>
      </trkpt>
      <trkpt lat="44.52383" lon="0.92474">
        <ele>86</ele>
        <time>2011-12-26T09:50:27Z</time>
      </trkpt>
      <trkpt lat="44.52388" lon="0.92479">
        <ele>87</ele>
        <time>2011-12-26T09:50:32Z</time>
      </trkpt>
      <trkpt lat="44.52396" lon="0.92485">
        <ele>87</ele>
        <time>2011-12-26T09:50:32Z</time>
      </trkpt>
      <trkpt lat="44.52399" lon="0.92487">
        <ele>87</ele>
        <time>2011-12-26T09:50:33Z</time>
      </trkpt>
      <trkpt lat="44.52411" lon="0.92496">
        <ele>87</ele>
        <time>2011-12-26T09:50:38Z</time>
      </trkpt>
      <trkpt lat="44.52414" lon="0.92497">
        <ele>87</ele>
        <time>2011-12-26T09:50:39Z</time>
      </trkpt>
      <trkpt lat="44.52417" lon="0.92498">
        <ele>87</ele>
        <time>2011-12-26T09:50:40Z</time>
      </trkpt>
      <trkpt lat="44.52422" lon="0.925">
        <ele>87</ele>
        <time>2011-12-26T09:50:45Z</time>
      </trkpt>
      <trkpt lat="44.52433" lon="0.92503">
        <ele>87</ele>
        <time>2011-12-26T09:50:45Z</time>
      </trkpt>
      <trkpt lat="44.52436" lon="0.92504">
        <ele>87</ele>
        <time>2011-12-26T09:50:46Z</time>
      </trkpt>
      <trkpt lat="44.52449" lon="0.92511">
        <ele>87</ele>
        <time>2011-12-26T09:50:51Z</time>
      </trkpt>
      <trkpt lat="44.52452" lon="0.92512">
        <ele>88</ele>
        <time>2011-12-26T09:50:52Z</time>
      </trkpt>
      <trkpt lat="44.52457" lon="0.92515">
        <ele>88</ele>
        <time>2011-12-26T09:50:57Z</time>
      </trkpt>
      <trkpt lat="44.52467" lon="0.92519">
        <ele>89</ele>
        <time>2011-12-26T09:50:58Z</time>
      </trkpt>
      <trkpt lat="44.5247" lon="0.92519">
        <ele>89</ele>
        <time>2011-12-26T09:50:59Z</time>
      </trkpt>
      <trkpt lat="44.52472" lon="0.92518">
        <ele>90</ele>
        <time>2011-12-26T09:51:00Z</time>
      </trkpt>
      <trkpt lat="44.52476" lon="0.92515">
        <ele>90</ele>
        <time>2011-12-26T09:51:06Z</time>
      </trkpt>
      <trkpt lat="44.52486" lon="0.92512">
        <ele>91</ele>
        <time>2011-12-26T09:51:07Z</time>
      </trkpt>
      <trkpt lat="44.52488" lon="0.92513">
        <ele>92</ele>
        <time>2011-12-26T09:51:07Z</time>
      </trkpt>
      <trkpt lat="44.5249" lon="0.92513">
        <ele>93</ele>
        <time>2011-12-26T09:51:08Z</time>
      </trkpt>
      <trkpt lat="44.52497" lon="0.9252">
        <ele>93</ele>
        <time>2011-12-26T09:51:14Z</time>
      </trkpt>
      <trkpt lat="44.52499" lon="0.92522">
        <ele>94</ele>
        <time>2011-12-26T09:51:15Z</time>
      </trkpt>
      <trkpt lat="44.52503" lon="0.92525">
        <ele>94</ele>
        <time>2011-12-26T09:51:20Z</time>
      </trkpt>
      <trkpt lat="44.52508" lon="0.92528">
        <ele>94</ele>
        <time>2011-12-26T09:51:20Z</time>
      </trkpt>
      <trkpt lat="44.5251" lon="0.92529">
        <ele>94</ele>
        <time>2011-12-26T09:51:21Z</time>
      </trkpt>
      <trkpt lat="44.52519" lon="0.92533">
        <ele>94</ele>
        <time>2011-12-26T09:51:26Z</time>
      </trkpt>
      <trkpt lat="44.5252" lon="0.92534">
        <ele>95</ele>
        <time>2011-12-26T09:51:27Z</time>
      </trkpt>
      <trkpt lat="44.52524" lon="0.92536">
        <ele>95</ele>
        <time>2011-12-26T09:51:32Z</time>
      </trkpt>
      <trkpt lat="44.5253" lon="0.92541">
        <ele>95</ele>
        <time>2011-12-26T09:51:33Z</time>
      </trkpt>
      <trkpt lat="44.52532" lon="0.92542">
        <ele>95</ele>
        <time>2011-12-26T09:51:34Z</time>
      </trkpt>
      <trkpt lat="44.52535" lon="0.92544">
        <ele>95</ele>
        <time>2011-12-26T09:51:39Z</time>
      </trkpt>
      <trkpt lat="44.5254" lon="0.92549">
        <ele>95</ele>
        <time>2011-12-26T09:51:39Z</time>
      </trkpt>
      <trkpt lat="44.52542" lon="0.9255">
        <ele>95</ele>
        <time>2011-12-26T09:51:40Z</time>
      </trkpt>
      <trkpt lat="44.52545" lon="0.92553">
        <ele>95</ele>
        <time>2011-12-26T09:51:45Z</time>
      </trkpt>
      <trkpt lat="44.5255" lon="0.92558">
        <ele>95</ele>
        <time>2011-12-26T09:51:45Z</time>
      </trkpt>
      <trkpt lat="44.52551" lon="0.92559">
        <ele>95</ele>
        <time>2011-12-26T09:51:46Z</time>
      </trkpt>
      <trkpt lat="44.52555" lon="0.92563">
        <ele>96</ele>
        <time>2011-12-26T09:51:51Z</time>
      </trkpt>
      <trkpt lat="44.52563" lon="0.92568">
        <ele>96</ele>
        <time>2011-12-26T09:51:52Z</time>
      </trkpt>
      <trkpt lat="44.52566" lon="0.92569">
        <ele>97</ele>
        <time>2011-12-26T09:51:53Z</time>
      </trkpt>
      <trkpt lat="44.5257" lon="0.92573">
        <ele>97</ele>
        <time>2011-12-26T09:51:58Z</time>
      </trkpt>
      <trkpt lat="44.52576" lon="0.92577">
        <ele>98</ele>
        <time>2011-12-26T09:51:58Z</time>
      </trkpt>
      <trkpt lat="44.52578" lon="0.92579">
        <ele>99</ele>
        <time>2011-12-26T09:51:59Z</time>
      </trkpt>
      <trkpt lat="44.52588" lon="0.92586">
        <ele>99</ele>
        <time>2011-12-26T09:52:04Z</time>
      </trkpt>
      <trkpt lat="44.5259" lon="0.92587">
        <ele>99</ele>
        <time>2011-12-26T09:52:05Z</time>
      </trkpt>
      <trkpt lat="44.52592" lon="0.92588">
        <ele>99</ele>
        <time>2011-12-26T09:52:07Z</time>
      </trkpt>
      <trkpt lat="44.52595" lon="0.92588">
        <ele>99</ele>
        <time>2011-12-26T09:52:07Z</time>
      </trkpt>
      <trkpt lat="44.52605" lon="0.92585">
        <ele>99</ele>
        <time>2011-12-26T09:52:12Z</time>
      </trkpt>
      <trkpt lat="44.52607" lon="0.92585">
        <ele>100</ele>
        <time>2011-12-26T09:52:13Z</time>
      </trkpt>
      <trkpt lat="44.52612" lon="0.92583">
        <ele>101</ele>
        <time>2011-12-26T09:52:18Z</time>
      </trkpt>
      <trkpt lat="44.5262" lon="0.92581">
        <ele>101</ele>
        <time>2011-12-26T09:52:19Z</time>
      </trkpt>
      <trkpt lat="44.52622" lon="0.92581">
        <ele>102</ele>
        <time>2011-12-26T09:52:20Z</time>
      </trkpt>
      <trkpt lat="44.52626" lon="0.9258">
        <ele>103</ele>
        <time>2011-12-26T09:52:25Z</time>
      </trkpt>
      <trkpt lat="44.52632" lon="0.9258">
        <ele>103</ele>
        <time>2011-12-26T09:52:25Z</time>
      </trkpt>
      <trkpt lat="44.52634" lon="0.9258">
        <ele>104</ele>
        <time>2011-12-26T09:52:26Z</time>
      </trkpt>
      <trkpt lat="44.52643" lon="0.92581">
        <ele>105</ele>
        <time>2011-12-26T09:52:31Z</time>
      </trkpt>
      <trkpt lat="44.52645" lon="0.9258">
        <ele>105</ele>
        <time>2011-12-26T09:52:32Z</time>
      </trkpt>
      <trkpt lat="44.52649" lon="0.92581">
        <ele>106</ele>
        <time>2011-12-26T09:52:37Z</time>
      </trkpt>
      <trkpt lat="44.52657" lon="0.92581">
        <ele>107</ele>
        <time>2011-12-26T09:52:38Z</time>
      </trkpt>
      <trkpt lat="44.52658" lon="0.92581">
        <ele>108</ele>
        <time>2011-12-26T09:52:39Z</time>
      </trkpt>
      <trkpt lat="44.52662" lon="0.9258">
        <ele>108</ele>
        <time>2011-12-26T09:52:44Z</time>
      </trkpt>
      <trkpt lat="44.52668" lon="0.9258">
        <ele>109</ele>
        <time>2011-12-26T09:52:44Z</time>
      </trkpt>
      <trkpt lat="44.5267" lon="0.9258">
        <ele>109</ele>
        <time>2011-12-26T09:52:45Z</time>
      </trkpt>
      <trkpt lat="44.5268" lon="0.9258">
        <ele>109</ele>
        <time>2011-12-26T09:52:50Z</time>
      </trkpt>
      <trkpt lat="44.52682" lon="0.9258">
        <ele>110</ele>
        <time>2011-12-26T09:52:51Z</time>
      </trkpt>
      <trkpt lat="44.52684" lon="0.92581">
        <ele>111</ele>
        <time>2011-12-26T09:52:56Z</time>
      </trkpt>
      <trkpt lat="44.52686" lon="0.92581">
        <ele>111</ele>
        <time>2011-12-26T09:52:57Z</time>
      </trkpt>
      <trkpt lat="44.52686" lon="0.92583">
        <ele>115</ele>
        <time>2011-12-26T09:53:24Z</time>
      </trkpt>
      <trkpt lat="44.52688" lon="0.92583">
        <ele>115</ele>
        <time>2011-12-26T09:53:27Z</time>
      </trkpt>
      <trkpt lat="44.52687" lon="0.92583">
        <ele>116</ele>
        <time>2011-12-26T09:53:33Z</time>
      </trkpt>
      <trkpt lat="44.52686" lon="0.92583">
        <ele>117</ele>
        <time>2011-12-26T09:53:40Z</time>
      </trkpt>
      <trkpt lat="44.52685" lon="0.92582">
        <ele>117</ele>
        <time>2011-12-26T09:53:50Z</time>
      </trkpt>
      <trkpt lat="44.52686" lon="0.92582">
        <ele>117</ele>
        <time>2011-12-26T09:53:58Z</time>
      </trkpt>
      <trkpt lat="44.5269" lon="0.92581">
        <ele>118</ele>
        <time>2011-12-26T09:54:05Z</time>
      </trkpt>
      <trkpt lat="44.52692" lon="0.9258">
        <ele>119</ele>
        <time>2011-12-26T09:54:07Z</time>
      </trkpt>
      <trkpt lat="44.52694" lon="0.92579">
        <ele>119</ele>
        <time>2011-12-26T09:54:08Z</time>
      </trkpt>
      <trkpt lat="44.52695" lon="0.92577">
        <ele>120</ele>
        <time>2011-12-26T09:54:13Z</time>
      </trkpt>
      <trkpt lat="44.52697" lon="0.92569">
        <ele>120</ele>
        <time>2011-12-26T09:54:15Z</time>
      </trkpt>
      <trkpt lat="44.52697" lon="0.92567">
        <ele>120</ele>
        <time>2011-12-26T09:54:16Z</time>
      </trkpt>
      <trkpt lat="44.52698" lon="0.92563">
        <ele>121</ele>
        <time>2011-12-26T09:54:21Z</time>
      </trkpt>
      <trkpt lat="44.52702" lon="0.92554">
        <ele>122</ele>
        <time>2011-12-26T09:54:21Z</time>
      </trkpt>
      <trkpt lat="44.52703" lon="0.92551">
        <ele>122</ele>
        <time>2011-12-26T09:54:22Z</time>
      </trkpt>
      <trkpt lat="44.52702" lon="0.9253">
        <ele>123</ele>
        <time>2011-12-26T09:54:28Z</time>
      </trkpt>
      <trkpt lat="44.527" lon="0.92527">
        <ele>123</ele>
        <time>2011-12-26T09:54:29Z</time>
      </trkpt>
      <trkpt lat="44.52699" lon="0.92523">
        <ele>123</ele>
        <time>2011-12-26T09:54:30Z</time>
      </trkpt>
      <trkpt lat="44.52697" lon="0.92515">
        <ele>123</ele>
        <time>2011-12-26T09:54:35Z</time>
      </trkpt>
      <trkpt lat="44.52694" lon="0.92505">
        <ele>123</ele>
        <time>2011-12-26T09:54:35Z</time>
      </trkpt>
      <trkpt lat="44.52693" lon="0.92501">
        <ele>123</ele>
        <time>2011-12-26T09:54:36Z</time>
      </trkpt>
      <trkpt lat="44.52694" lon="0.92497">
        <ele>123</ele>
        <time>2011-12-26T09:54:37Z</time>
      </trkpt>
      <trkpt lat="44.52694" lon="0.92495">
        <ele>123</ele>
        <time>2011-12-26T09:54:38Z</time>
      </trkpt>
      <trkpt lat="44.52695" lon="0.92488">
        <ele>123</ele>
        <time>2011-12-26T09:54:43Z</time>
      </trkpt>
      <trkpt lat="44.52699" lon="0.92479">
        <ele>123</ele>
        <time>2011-12-26T09:54:43Z</time>
      </trkpt>
      <trkpt lat="44.52701" lon="0.92478">
        <ele>123</ele>
        <time>2011-12-26T09:54:44Z</time>
      </trkpt>
      <trkpt lat="44.52702" lon="0.92477">
        <ele>123</ele>
        <time>2011-12-26T09:54:45Z</time>
      </trkpt>
      <trkpt lat="44.52706" lon="0.92474">
        <ele>124</ele>
        <time>2011-12-26T09:54:50Z</time>
      </trkpt>
      <trkpt lat="44.52713" lon="0.92468">
        <ele>124</ele>
        <time>2011-12-26T09:54:50Z</time>
      </trkpt>
      <trkpt lat="44.52716" lon="0.92467">
        <ele>125</ele>
        <time>2011-12-26T09:54:51Z</time>
      </trkpt>
      <trkpt lat="44.52725" lon="0.92458">
        <ele>126</ele>
        <time>2011-12-26T09:54:56Z</time>
      </trkpt>
      <trkpt lat="44.52727" lon="0.92456">
        <ele>127</ele>
        <time>2011-12-26T09:54:58Z</time>
      </trkpt>
      <trkpt lat="44.5273" lon="0.92454">
        <ele>127</ele>
        <time>2011-12-26T09:54:58Z</time>
      </trkpt>
      <trkpt lat="44.52733" lon="0.92452">
        <ele>127</ele>
        <time>2011-12-26T09:54:59Z</time>
      </trkpt>
      <trkpt lat="44.52738" lon="0.9245">
        <ele>127</ele>
        <time>2011-12-26T09:55:04Z</time>
      </trkpt>
      <trkpt lat="44.52745" lon="0.92444">
        <ele>127</ele>
        <time>2011-12-26T09:55:04Z</time>
      </trkpt>
      <trkpt lat="44.52747" lon="0.92443">
        <ele>127</ele>
        <time>2011-12-26T09:55:05Z</time>
      </trkpt>
      <trkpt lat="44.52753" lon="0.92441">
        <ele>127</ele>
        <time>2011-12-26T09:55:10Z</time>
      </trkpt>
      <trkpt lat="44.52762" lon="0.92442">
        <ele>127</ele>
        <time>2011-12-26T09:55:11Z</time>
      </trkpt>
      <trkpt lat="44.52763" lon="0.92444">
        <ele>127</ele>
        <time>2011-12-26T09:55:12Z</time>
      </trkpt>
      <trkpt lat="44.52765" lon="0.92446">
        <ele>127</ele>
        <time>2011-12-26T09:55:13Z</time>
      </trkpt>
      <trkpt lat="44.52771" lon="0.92456">
        <ele>127</ele>
        <time>2011-12-26T09:55:18Z</time>
      </trkpt>
      <trkpt lat="44.52773" lon="0.92458">
        <ele>128</ele>
        <time>2011-12-26T09:55:19Z</time>
      </trkpt>
      <trkpt lat="44.52775" lon="0.92463">
        <ele>128</ele>
        <time>2011-12-26T09:55:24Z</time>
      </trkpt>
      <trkpt lat="44.52781" lon="0.92474">
        <ele>128</ele>
        <time>2011-12-26T09:55:25Z</time>
      </trkpt>
      <trkpt lat="44.52783" lon="0.92477">
        <ele>128</ele>
        <time>2011-12-26T09:55:26Z</time>
      </trkpt>
      <trkpt lat="44.52786" lon="0.92484">
        <ele>128</ele>
        <time>2011-12-26T09:55:31Z</time>
      </trkpt>
      <trkpt lat="44.52794" lon="0.92493">
        <ele>128</ele>
        <time>2011-12-26T09:55:31Z</time>
      </trkpt>
      <trkpt lat="44.52797" lon="0.92496">
        <ele>128</ele>
        <time>2011-12-26T09:55:32Z</time>
      </trkpt>
      <trkpt lat="44.52799" lon="0.92499">
        <ele>128</ele>
        <time>2011-12-26T09:55:33Z</time>
      </trkpt>
      <trkpt lat="44.52815" lon="0.92515">
        <ele>128</ele>
        <time>2011-12-26T09:55:38Z</time>
      </trkpt>
      <trkpt lat="44.52818" lon="0.92519">
        <ele>128</ele>
        <time>2011-12-26T09:55:39Z</time>
      </trkpt>
      <trkpt lat="44.52823" lon="0.92525">
        <ele>128</ele>
        <time>2011-12-26T09:55:44Z</time>
      </trkpt>
      <trkpt lat="44.52833" lon="0.92537">
        <ele>128</ele>
        <time>2011-12-26T09:55:45Z</time>
      </trkpt>
      <trkpt lat="44.52836" lon="0.9254">
        <ele>128</ele>
        <time>2011-12-26T09:55:46Z</time>
      </trkpt>
      <trkpt lat="44.52841" lon="0.92546">
        <ele>128</ele>
        <time>2011-12-26T09:55:51Z</time>
      </trkpt>
      <trkpt lat="44.52846" lon="0.92555">
        <ele>128</ele>
        <time>2011-12-26T09:55:51Z</time>
      </trkpt>
      <trkpt lat="44.52848" lon="0.92558">
        <ele>128</ele>
        <time>2011-12-26T09:55:52Z</time>
      </trkpt>
      <trkpt lat="44.52849" lon="0.92562">
        <ele>128</ele>
        <time>2011-12-26T09:55:54Z</time>
      </trkpt>
      <trkpt lat="44.5285" lon="0.92566">
        <ele>128</ele>
        <time>2011-12-26T09:55:54Z</time>
      </trkpt>
      <trkpt lat="44.52853" lon="0.92575">
        <ele>128</ele>
        <time>2011-12-26T09:55:59Z</time>
      </trkpt>
      <trkpt lat="44.52858" lon="0.92589">
        <ele>128</ele>
        <time>2011-12-26T09:55:59Z</time>
      </trkpt>
      <trkpt lat="44.5286" lon="0.92593">
        <ele>128</ele>
        <time>2011-12-26T09:56:00Z</time>
      </trkpt>
      <trkpt lat="44.52869" lon="0.92615">
        <ele>128</ele>
        <time>2011-12-26T09:56:05Z</time>
      </trkpt>
      <trkpt lat="44.52871" lon="0.9262">
        <ele>128</ele>
        <time>2011-12-26T09:56:06Z</time>
      </trkpt>
      <trkpt lat="44.52874" lon="0.92629">
        <ele>128</ele>
        <time>2011-12-26T09:56:11Z</time>
      </trkpt>
      <trkpt lat="44.52885" lon="0.92642">
        <ele>128</ele>
        <time>2011-12-26T09:56:12Z</time>
      </trkpt>
      <trkpt lat="44.52889" lon="0.92644">
        <ele>128</ele>
        <time>2011-12-26T09:56:14Z</time>
      </trkpt>
      <trkpt lat="44.52893" lon="0.92645">
        <ele>128</ele>
        <time>2011-12-26T09:56:14Z</time>
      </trkpt>
      <trkpt lat="44.52898" lon="0.92645">
        <ele>128</ele>
        <time>2011-12-26T09:56:15Z</time>
      </trkpt>
      <trkpt lat="44.52911" lon="0.92643">
        <ele>128</ele>
        <time>2011-12-26T09:56:20Z</time>
      </trkpt>
      <trkpt lat="44.52914" lon="0.92643">
        <ele>128</ele>
        <time>2011-12-26T09:56:21Z</time>
      </trkpt>
      <trkpt lat="44.52916" lon="0.92644">
        <ele>128</ele>
        <time>2011-12-26T09:56:22Z</time>
      </trkpt>
      <trkpt lat="44.52917" lon="0.92646">
        <ele>128</ele>
        <time>2011-12-26T09:56:23Z</time>
      </trkpt>
      <trkpt lat="44.5292" lon="0.9265">
        <ele>128</ele>
        <time>2011-12-26T09:56:28Z</time>
      </trkpt>
      <trkpt lat="44.52925" lon="0.92661">
        <ele>128</ele>
        <time>2011-12-26T09:56:30Z</time>
      </trkpt>
      <trkpt lat="44.52927" lon="0.92664">
        <ele>128</ele>
        <time>2011-12-26T09:56:31Z</time>
      </trkpt>
      <trkpt lat="44.5293" lon="0.92671">
        <ele>128</ele>
        <time>2011-12-26T09:56:36Z</time>
      </trkpt>
      <trkpt lat="44.52943" lon="0.92689">
        <ele>128</ele>
        <time>2011-12-26T09:56:37Z</time>
      </trkpt>
      <trkpt lat="44.52946" lon="0.92691">
        <ele>128</ele>
        <time>2011-12-26T09:56:39Z</time>
      </trkpt>
      <trkpt lat="44.52956" lon="0.92691">
        <ele>128</ele>
        <time>2011-12-26T09:56:44Z</time>
      </trkpt>
      <trkpt lat="44.52968" lon="0.92691">
        <ele>128</ele>
        <time>2011-12-26T09:56:46Z</time>
      </trkpt>
      <trkpt lat="44.52971" lon="0.9269">
        <ele>128</ele>
        <time>2011-12-26T09:56:47Z</time>
      </trkpt>
      <trkpt lat="44.52977" lon="0.92689">
        <ele>128</ele>
        <time>2011-12-26T09:56:51Z</time>
      </trkpt>
      <trkpt lat="44.5299" lon="0.92686">
        <ele>128</ele>
        <time>2011-12-26T09:56:52Z</time>
      </trkpt>
      <trkpt lat="44.52993" lon="0.92686">
        <ele>128</ele>
        <time>2011-12-26T09:56:53Z</time>
      </trkpt>
      <trkpt lat="44.53001" lon="0.92686">
        <ele>129</ele>
        <time>2011-12-26T09:56:58Z</time>
      </trkpt>
      <trkpt lat="44.53009" lon="0.92685">
        <ele>129</ele>
        <time>2011-12-26T09:56:58Z</time>
      </trkpt>
      <trkpt lat="44.53012" lon="0.92684">
        <ele>130</ele>
        <time>2011-12-26T09:56:59Z</time>
      </trkpt>
      <trkpt lat="44.53018" lon="0.92683">
        <ele>131</ele>
        <time>2011-12-26T09:57:04Z</time>
      </trkpt>
      <trkpt lat="44.53029" lon="0.92683">
        <ele>132</ele>
        <time>2011-12-26T09:57:05Z</time>
      </trkpt>
      <trkpt lat="44.53033" lon="0.92684">
        <ele>132</ele>
        <time>2011-12-26T09:57:06Z</time>
      </trkpt>
      <trkpt lat="44.53036" lon="0.92685">
        <ele>132</ele>
        <time>2011-12-26T09:57:08Z</time>
      </trkpt>
      <trkpt lat="44.53042" lon="0.92687">
        <ele>132</ele>
        <time>2011-12-26T09:57:12Z</time>
      </trkpt>
      <trkpt lat="44.5305" lon="0.92687">
        <ele>133</ele>
        <time>2011-12-26T09:57:13Z</time>
      </trkpt>
      <trkpt lat="44.53051" lon="0.92686">
        <ele>133</ele>
        <time>2011-12-26T09:57:14Z</time>
      </trkpt>
      <trkpt lat="44.53053" lon="0.92686">
        <ele>133</ele>
        <time>2011-12-26T09:57:15Z</time>
      </trkpt>
      <trkpt lat="44.53056" lon="0.92684">
        <ele>133</ele>
        <time>2011-12-26T09:57:20Z</time>
      </trkpt>
      <trkpt lat="44.53063" lon="0.92682">
        <ele>133</ele>
        <time>2011-12-26T09:57:20Z</time>
      </trkpt>
      <trkpt lat="44.53064" lon="0.92682">
        <ele>133</ele>
        <time>2011-12-26T09:57:21Z</time>
      </trkpt>
      <trkpt lat="44.53067" lon="0.9268">
        <ele>133</ele>
        <time>2011-12-26T09:57:26Z</time>
      </trkpt>
      <trkpt lat="44.53069" lon="0.92681">
        <ele>134</ele>
        <time>2011-12-26T09:57:44Z</time>
      </trkpt>
      <trkpt lat="44.53071" lon="0.92683">
        <ele>134</ele>
        <time>2011-12-26T09:57:52Z</time>
      </trkpt>
      <trkpt lat="44.53072" lon="0.92685">
        <ele>134</ele>
        <time>2011-12-26T09:57:53Z</time>
      </trkpt>
      <trkpt lat="44.53072" lon="0.92687">
        <ele>134</ele>
        <time>2011-12-26T09:58:00Z</time>
      </trkpt>
      <trkpt lat="44.5307" lon="0.9269">
        <ele>134</ele>
        <time>2011-12-26T09:58:01Z</time>
      </trkpt>
      <trkpt lat="44.53067" lon="0.92695">
        <ele>134</ele>
        <time>2011-12-26T09:58:08Z</time>
      </trkpt>
      <trkpt lat="44.53066" lon="0.92698">
        <ele>134</ele>
        <time>2011-12-26T09:58:17Z</time>
      </trkpt>
      <trkpt lat="44.53063" lon="0.92707">
        <ele>134</ele>
        <time>2011-12-26T09:58:23Z</time>
      </trkpt>
      <trkpt lat="44.53057" lon="0.92719">
        <ele>134</ele>
        <time>2011-12-26T09:58:24Z</time>
      </trkpt>
      <trkpt lat="44.53055" lon="0.92723">
        <ele>134</ele>
        <time>2011-12-26T09:58:26Z</time>
      </trkpt>
      <trkpt lat="44.53051" lon="0.9273">
        <ele>134</ele>
        <time>2011-12-26T09:58:30Z</time>
      </trkpt>
      <trkpt lat="44.5304" lon="0.92746">
        <ele>134</ele>
        <time>2011-12-26T09:58:31Z</time>
      </trkpt>
      <trkpt lat="44.53037" lon="0.9275">
        <ele>134</ele>
        <time>2011-12-26T09:58:32Z</time>
      </trkpt>
      <trkpt lat="44.53031" lon="0.92759">
        <ele>134</ele>
        <time>2011-12-26T09:58:37Z</time>
      </trkpt>
      <trkpt lat="44.53021" lon="0.92772">
        <ele>134</ele>
        <time>2011-12-26T09:58:37Z</time>
      </trkpt>
      <trkpt lat="44.53018" lon="0.92776">
        <ele>134</ele>
        <time>2011-12-26T09:58:38Z</time>
      </trkpt>
      <trkpt lat="44.53011" lon="0.92785">
        <ele>134</ele>
        <time>2011-12-26T09:58:43Z</time>
      </trkpt>
      <trkpt lat="44.52998" lon="0.92804">
        <ele>134</ele>
        <time>2011-12-26T09:58:44Z</time>
      </trkpt>
      <trkpt lat="44.52996" lon="0.9281">
        <ele>134</ele>
        <time>2011-12-26T09:58:45Z</time>
      </trkpt>
      <trkpt lat="44.52992" lon="0.92821">
        <ele>133</ele>
        <time>2011-12-26T09:58:50Z</time>
      </trkpt>
      <trkpt lat="44.52989" lon="0.92838">
        <ele>133</ele>
        <time>2011-12-26T09:58:50Z</time>
      </trkpt>
      <trkpt lat="44.52989" lon="0.92843">
        <ele>132</ele>
        <time>2011-12-26T09:58:51Z</time>
      </trkpt>
      <trkpt lat="44.5299" lon="0.92846">
        <ele>131</ele>
        <time>2011-12-26T09:58:52Z</time>
      </trkpt>
      <trkpt lat="44.52991" lon="0.92848">
        <ele>130</ele>
        <time>2011-12-26T09:58:54Z</time>
      </trkpt>
      <trkpt lat="44.52996" lon="0.9285">
        <ele>130</ele>
        <time>2011-12-26T09:58:59Z</time>
      </trkpt>
      <trkpt lat="44.53007" lon="0.92853">
        <ele>130</ele>
        <time>2011-12-26T09:59:00Z</time>
      </trkpt>
      <trkpt lat="44.5301" lon="0.92854">
        <ele>130</ele>
        <time>2011-12-26T09:59:00Z</time>
      </trkpt>
      <trkpt lat="44.53014" lon="0.92855">
        <ele>130</ele>
        <time>2011-12-26T09:59:01Z</time>
      </trkpt>
      <trkpt lat="44.53021" lon="0.92857">
        <ele>130</ele>
        <time>2011-12-26T09:59:06Z</time>
      </trkpt>
      <trkpt lat="44.53033" lon="0.92861">
        <ele>129</ele>
        <time>2011-12-26T09:59:06Z</time>
      </trkpt>
      <trkpt lat="44.53037" lon="0.92863">
        <ele>129</ele>
        <time>2011-12-26T09:59:07Z</time>
      </trkpt>
      <trkpt lat="44.53059" lon="0.9287">
        <ele>129</ele>
        <time>2011-12-26T09:59:12Z</time>
      </trkpt>
      <trkpt lat="44.53063" lon="0.92872">
        <ele>128</ele>
        <time>2011-12-26T09:59:13Z</time>
      </trkpt>
      <trkpt lat="44.53067" lon="0.92873">
        <ele>128</ele>
        <time>2011-12-26T09:59:14Z</time>
      </trkpt>
      <trkpt lat="44.53071" lon="0.92877">
        <ele>128</ele>
        <time>2011-12-26T09:59:19Z</time>
      </trkpt>
      <trkpt lat="44.5307" lon="0.92887">
        <ele>127</ele>
        <time>2011-12-26T09:59:19Z</time>
      </trkpt>
      <trkpt lat="44.53067" lon="0.92891">
        <ele>127</ele>
        <time>2011-12-26T09:59:20Z</time>
      </trkpt>
      <trkpt lat="44.53065" lon="0.92895">
        <ele>127</ele>
        <time>2011-12-26T09:59:21Z</time>
      </trkpt>
      <trkpt lat="44.53055" lon="0.92919">
        <ele>127</ele>
        <time>2011-12-26T09:59:26Z</time>
      </trkpt>
      <trkpt lat="44.53054" lon="0.92925">
        <ele>126</ele>
        <time>2011-12-26T09:59:27Z</time>
      </trkpt>
      <trkpt lat="44.53053" lon="0.9293">
        <ele>126</ele>
        <time>2011-12-26T09:59:28Z</time>
      </trkpt>
      <trkpt lat="44.5305" lon="0.92943">
        <ele>126</ele>
        <time>2011-12-26T09:59:33Z</time>
      </trkpt>
      <trkpt lat="44.53048" lon="0.92963">
        <ele>125</ele>
        <time>2011-12-26T09:59:33Z</time>
      </trkpt>
      <trkpt lat="44.53047" lon="0.9297">
        <ele>124</ele>
        <time>2011-12-26T09:59:34Z</time>
      </trkpt>
      <trkpt lat="44.53045" lon="0.92984">
        <ele>123</ele>
        <time>2011-12-26T09:59:39Z</time>
      </trkpt>
      <trkpt lat="44.5304" lon="0.93016">
        <ele>122</ele>
        <time>2011-12-26T09:59:40Z</time>
      </trkpt>
      <trkpt lat="44.5304" lon="0.93025">
        <ele>121</ele>
        <time>2011-12-26T09:59:41Z</time>
      </trkpt>
      <trkpt lat="44.53037" lon="0.93043">
        <ele>120</ele>
        <time>2011-12-26T09:59:46Z</time>
      </trkpt>
      <trkpt lat="44.53033" lon="0.93071">
        <ele>119</ele>
        <time>2011-12-26T09:59:46Z</time>
      </trkpt>
      <trkpt lat="44.53032" lon="0.9308">
        <ele>118</ele>
        <time>2011-12-26T09:59:47Z</time>
      </trkpt>
      <trkpt lat="44.5303" lon="0.93098">
        <ele>117</ele>
        <time>2011-12-26T09:59:52Z</time>
      </trkpt>
      <trkpt lat="44.5303" lon="0.93133">
        <ele>116</ele>
        <time>2011-12-26T09:59:53Z</time>
      </trkpt>
      <trkpt lat="44.5303" lon="0.93142">
        <ele>115</ele>
        <time>2011-12-26T09:59:54Z</time>
      </trkpt>
      <trkpt lat="44.53032" lon="0.93159">
        <ele>114</ele>
        <time>2011-12-26T09:59:59Z</time>
      </trkpt>
      <trkpt lat="44.53035" lon="0.93184">
        <ele>113</ele>
        <time>2011-12-26T09:59:59Z</time>
      </trkpt>
      <trkpt lat="44.53035" lon="0.93192">
        <ele>112</ele>
        <time>2011-12-26T10:00:00Z</time>
      </trkpt>
      <trkpt lat="44.53035" lon="0.93208">
        <ele>111</ele>
        <time>2011-12-26T10:00:05Z</time>
      </trkpt>
      <trkpt lat="44.53033" lon="0.93223">
        <ele>110</ele>
        <time>2011-12-26T10:00:06Z</time>
      </trkpt>
      <trkpt lat="44.53035" lon="0.93223">
        <ele>110</ele>
        <time>2011-12-26T10:00:25Z</time>
      </trkpt>
      <trkpt lat="44.53032" lon="0.93233">
        <ele>110</ele>
        <time>2011-12-26T10:00:27Z</time>
      </trkpt>
      <trkpt lat="44.53031" lon="0.93235">
        <ele>110</ele>
        <time>2011-12-26T10:00:28Z</time>
      </trkpt>
      <trkpt lat="44.53029" lon="0.93242">
        <ele>110</ele>
        <time>2011-12-26T10:00:33Z</time>
      </trkpt>
      <trkpt lat="44.53017" lon="0.93265">
        <ele>110</ele>
        <time>2011-12-26T10:00:34Z</time>
      </trkpt>
      <trkpt lat="44.53015" lon="0.93269">
        <ele>110</ele>
        <time>2011-12-26T10:00:35Z</time>
      </trkpt>
      <trkpt lat="44.5301" lon="0.93281">
        <ele>110</ele>
        <time>2011-12-26T10:00:40Z</time>
      </trkpt>
      <trkpt lat="44.53001" lon="0.933">
        <ele>110</ele>
        <time>2011-12-26T10:00:40Z</time>
      </trkpt>
      <trkpt lat="44.52998" lon="0.93306">
        <ele>110</ele>
        <time>2011-12-26T10:00:41Z</time>
      </trkpt>
      <trkpt lat="44.52991" lon="0.93319">
        <ele>110</ele>
        <time>2011-12-26T10:00:46Z</time>
      </trkpt>
      <trkpt lat="44.52975" lon="0.93345">
        <ele>110</ele>
        <time>2011-12-26T10:00:47Z</time>
      </trkpt>
      <trkpt lat="44.5297" lon="0.93352">
        <ele>109</ele>
        <time>2011-12-26T10:00:48Z</time>
      </trkpt>
      <trkpt lat="44.52961" lon="0.93365">
        <ele>109</ele>
        <time>2011-12-26T10:00:53Z</time>
      </trkpt>
      <trkpt lat="44.52946" lon="0.93385">
        <ele>108</ele>
        <time>2011-12-26T10:00:53Z</time>
      </trkpt>
      <trkpt lat="44.52941" lon="0.93392">
        <ele>108</ele>
        <time>2011-12-26T10:00:54Z</time>
      </trkpt>
      <trkpt lat="44.52932" lon="0.93406">
        <ele>107</ele>
        <time>2011-12-26T10:00:59Z</time>
      </trkpt>
      <trkpt lat="44.52914" lon="0.93436">
        <ele>106</ele>
        <time>2011-12-26T10:01:00Z</time>
      </trkpt>
      <trkpt lat="44.52909" lon="0.93444">
        <ele>106</ele>
        <time>2011-12-26T10:01:01Z</time>
      </trkpt>
      <trkpt lat="44.52901" lon="0.93461">
        <ele>105</ele>
        <time>2011-12-26T10:01:06Z</time>
      </trkpt>
      <trkpt lat="44.52892" lon="0.93489">
        <ele>104</ele>
        <time>2011-12-26T10:01:06Z</time>
      </trkpt>
      <trkpt lat="44.52889" lon="0.93499">
        <ele>103</ele>
        <time>2011-12-26T10:01:07Z</time>
      </trkpt>
      <trkpt lat="44.52884" lon="0.93521">
        <ele>102</ele>
        <time>2011-12-26T10:01:12Z</time>
      </trkpt>
      <trkpt lat="44.52874" lon="0.93565">
        <ele>101</ele>
        <time>2011-12-26T10:01:13Z</time>
      </trkpt>
      <trkpt lat="44.52872" lon="0.93576">
        <ele>100</ele>
        <time>2011-12-26T10:01:14Z</time>
      </trkpt>
      <trkpt lat="44.52866" lon="0.93599">
        <ele>99</ele>
        <time>2011-12-26T10:01:19Z</time>
      </trkpt>
      <trkpt lat="44.52857" lon="0.93633">
        <ele>98</ele>
        <time>2011-12-26T10:01:19Z</time>
      </trkpt>
      <trkpt lat="44.52853" lon="0.93644">
        <ele>97</ele>
        <time>2011-12-26T10:01:20Z</time>
      </trkpt>
      <trkpt lat="44.52844" lon="0.93665">
        <ele>96</ele>
        <time>2011-12-26T10:01:25Z</time>
      </trkpt>
      <trkpt lat="44.5282" lon="0.93699">
        <ele>95</ele>
        <time>2011-12-26T10:01:26Z</time>
      </trkpt>
      <trkpt lat="44.52813" lon="0.93706">
        <ele>94</ele>
        <time>2011-12-26T10:01:27Z</time>
      </trkpt>
      <trkpt lat="44.52806" lon="0.93713">
        <ele>93</ele>
        <time>2011-12-26T10:01:28Z</time>
      </trkpt>
      <trkpt lat="44.52774" lon="0.93748">
        <ele>92</ele>
        <time>2011-12-26T10:01:33Z</time>
      </trkpt>
      <trkpt lat="44.52769" lon="0.93756">
        <ele>91</ele>
        <time>2011-12-26T10:01:34Z</time>
      </trkpt>
      <trkpt lat="44.52765" lon="0.93764">
        <ele>90</ele>
        <time>2011-12-26T10:01:35Z</time>
      </trkpt>
      <trkpt lat="44.52759" lon="0.93781">
        <ele>89</ele>
        <time>2011-12-26T10:01:41Z</time>
      </trkpt>
      <trkpt lat="44.52752" lon="0.9383">
        <ele>88</ele>
        <time>2011-12-26T10:01:42Z</time>
      </trkpt>
      <trkpt lat="44.52751" lon="0.93839">
        <ele>87</ele>
        <time>2011-12-26T10:01:43Z</time>
      </trkpt>
      <trkpt lat="44.52749" lon="0.93856">
        <ele>86</ele>
        <time>2011-12-26T10:01:48Z</time>
      </trkpt>
      <trkpt lat="44.52745" lon="0.93881">
        <ele>85</ele>
        <time>2011-12-26T10:01:49Z</time>
      </trkpt>
      <trkpt lat="44.52747" lon="0.93885">
        <ele>84</ele>
        <time>2011-12-26T10:01:50Z</time>
      </trkpt>
      <trkpt lat="44.5275" lon="0.93888">
        <ele>83</ele>
        <time>2011-12-26T10:01:51Z</time>
      </trkpt>
      <trkpt lat="44.52753" lon="0.9389">
        <ele>82</ele>
        <time>2011-12-26T10:01:52Z</time>
      </trkpt>
      <trkpt lat="44.52768" lon="0.93894">
        <ele>81</ele>
        <time>2011-12-26T10:01:56Z</time>
      </trkpt>
      <trkpt lat="44.52785" lon="0.939">
        <ele>80</ele>
        <time>2011-12-26T10:02:00Z</time>
      </trkpt>
      <trkpt lat="44.52792" lon="0.93902">
        <ele>79</ele>
        <time>2011-12-26T10:02:05Z</time>
      </trkpt>
      <trkpt lat="44.52802" lon="0.93906">
        <ele>79</ele>
        <time>2011-12-26T10:02:05Z</time>
      </trkpt>
      <trkpt lat="44.52806" lon="0.93907">
        <ele>79</ele>
        <time>2011-12-26T10:02:06Z</time>
      </trkpt>
      <trkpt lat="44.52813" lon="0.93909">
        <ele>79</ele>
        <time>2011-12-26T10:02:11Z</time>
      </trkpt>
      <trkpt lat="44.52829" lon="0.93915">
        <ele>79</ele>
        <time>2011-12-26T10:02:12Z</time>
      </trkpt>
      <trkpt lat="44.52833" lon="0.93916">
        <ele>79</ele>
        <time>2011-12-26T10:02:13Z</time>
      </trkpt>
      <trkpt lat="44.52841" lon="0.9392">
        <ele>79</ele>
        <time>2011-12-26T10:02:18Z</time>
      </trkpt>
      <trkpt lat="44.52854" lon="0.93925">
        <ele>79</ele>
        <time>2011-12-26T10:02:18Z</time>
      </trkpt>
      <trkpt lat="44.52858" lon="0.93927">
        <ele>79</ele>
        <time>2011-12-26T10:02:19Z</time>
      </trkpt>
      <trkpt lat="44.52867" lon="0.93931">
        <ele>79</ele>
        <time>2011-12-26T10:02:24Z</time>
      </trkpt>
      <trkpt lat="44.52885" lon="0.93939">
        <ele>79</ele>
        <time>2011-12-26T10:02:25Z</time>
      </trkpt>
      <trkpt lat="44.5289" lon="0.93941">
        <ele>79</ele>
        <time>2011-12-26T10:02:26Z</time>
      </trkpt>
      <trkpt lat="44.529" lon="0.93945">
        <ele>79</ele>
        <time>2011-12-26T10:02:31Z</time>
      </trkpt>
      <trkpt lat="44.52915" lon="0.93951">
        <ele>79</ele>
        <time>2011-12-26T10:02:31Z</time>
      </trkpt>
      <trkpt lat="44.52921" lon="0.93954">
        <ele>79</ele>
        <time>2011-12-26T10:02:32Z</time>
      </trkpt>
      <trkpt lat="44.52932" lon="0.93958">
        <ele>79</ele>
        <time>2011-12-26T10:02:37Z</time>
      </trkpt>
      <trkpt lat="44.52953" lon="0.93967">
        <ele>79</ele>
        <time>2011-12-26T10:02:38Z</time>
      </trkpt>
      <trkpt lat="44.52959" lon="0.93969">
        <ele>79</ele>
        <time>2011-12-26T10:02:39Z</time>
      </trkpt>
      <trkpt lat="44.52969" lon="0.93973">
        <ele>79</ele>
        <time>2011-12-26T10:02:44Z</time>
      </trkpt>
      <trkpt lat="44.52985" lon="0.93981">
        <ele>79</ele>
        <time>2011-12-26T10:02:44Z</time>
      </trkpt>
      <trkpt lat="44.5299" lon="0.93984">
        <ele>79</ele>
        <time>2011-12-26T10:02:45Z</time>
      </trkpt>
      <trkpt lat="44.53" lon="0.93989">
        <ele>79</ele>
        <time>2011-12-26T10:02:50Z</time>
      </trkpt>
      <trkpt lat="44.53017" lon="0.93999">
        <ele>79</ele>
        <time>2011-12-26T10:02:51Z</time>
      </trkpt>
      <trkpt lat="44.5302" lon="0.94002">
        <ele>79</ele>
        <time>2011-12-26T10:02:52Z</time>
      </trkpt>
      <trkpt lat="44.53024" lon="0.94008">
        <ele>79</ele>
        <time>2011-12-26T10:02:57Z</time>
      </trkpt>
      <trkpt lat="44.53026" lon="0.94011">
        <ele>79</ele>
        <time>2011-12-26T10:02:58Z</time>
      </trkpt>
      <trkpt lat="44.53025" lon="0.9401">
        <ele>79</ele>
        <time>2011-12-26T10:03:15Z</time>
      </trkpt>
      <trkpt lat="44.53024" lon="0.94011">
        <ele>79</ele>
        <time>2011-12-26T10:04:10Z</time>
      </trkpt>
      <trkpt lat="44.53025" lon="0.9401">
        <ele>79</ele>
        <time>2011-12-26T10:04:42Z</time>
      </trkpt>
      <trkpt lat="44.53032" lon="0.94007">
        <ele>79</ele>
        <time>2011-12-26T10:04:52Z</time>
      </trkpt>
      <trkpt lat="44.53033" lon="0.94008">
        <ele>79</ele>
        <time>2011-12-26T10:04:53Z</time>
      </trkpt>
      <trkpt lat="44.53035" lon="0.9401">
        <ele>79</ele>
        <time>2011-12-26T10:04:54Z</time>
      </trkpt>
      <trkpt lat="44.53046" lon="0.94018">
        <ele>79</ele>
        <time>2011-12-26T10:04:59Z</time>
      </trkpt>
      <trkpt lat="44.53048" lon="0.9402">
        <ele>79</ele>
        <time>2011-12-26T10:05:00Z</time>
      </trkpt>
      <trkpt lat="44.5305" lon="0.94021">
        <ele>79</ele>
        <time>2011-12-26T10:05:01Z</time>
      </trkpt>
      <trkpt lat="44.53055" lon="0.94024">
        <ele>79</ele>
        <time>2011-12-26T10:05:06Z</time>
      </trkpt>
      <trkpt lat="44.53061" lon="0.94024">
        <ele>79</ele>
        <time>2011-12-26T10:05:06Z</time>
      </trkpt>
      <trkpt lat="44.53062" lon="0.94021">
        <ele>79</ele>
        <time>2011-12-26T10:05:07Z</time>
      </trkpt>
      <trkpt lat="44.53063" lon="0.94018">
        <ele>79</ele>
        <time>2011-12-26T10:05:08Z</time>
      </trkpt>
      <trkpt lat="44.53064" lon="0.94015">
        <ele>79</ele>
        <time>2011-12-26T10:05:09Z</time>
      </trkpt>
      <trkpt lat="44.53066" lon="0.9401">
        <ele>79</ele>
        <time>2011-12-26T10:05:14Z</time>
      </trkpt>
      <trkpt lat="44.5307" lon="0.94">
        <ele>79</ele>
        <time>2011-12-26T10:05:14Z</time>
      </trkpt>
      <trkpt lat="44.53072" lon="0.93996">
        <ele>79</ele>
        <time>2011-12-26T10:05:15Z</time>
      </trkpt>
      <trkpt lat="44.53074" lon="0.93989">
        <ele>79</ele>
        <time>2011-12-26T10:05:20Z</time>
      </trkpt>
      <trkpt lat="44.53079" lon="0.93974">
        <ele>79</ele>
        <time>2011-12-26T10:05:21Z</time>
      </trkpt>
      <trkpt lat="44.53081" lon="0.9397">
        <ele>79</ele>
        <time>2011-12-26T10:05:22Z</time>
      </trkpt>
      <trkpt lat="44.53083" lon="0.93962">
        <ele>79</ele>
        <time>2011-12-26T10:05:27Z</time>
      </trkpt>
      <trkpt lat="44.53088" lon="0.93949">
        <ele>80</ele>
        <time>2011-12-26T10:05:27Z</time>
      </trkpt>
      <trkpt lat="44.5309" lon="0.93945">
        <ele>80</ele>
        <time>2011-12-26T10:05:28Z</time>
      </trkpt>
      <trkpt lat="44.53092" lon="0.93936">
        <ele>80</ele>
        <time>2011-12-26T10:05:33Z</time>
      </trkpt>
      <trkpt lat="44.53098" lon="0.93919">
        <ele>81</ele>
        <time>2011-12-26T10:05:34Z</time>
      </trkpt>
      <trkpt lat="44.53099" lon="0.93915">
        <ele>81</ele>
        <time>2011-12-26T10:05:35Z</time>
      </trkpt>
      <trkpt lat="44.53102" lon="0.93906">
        <ele>81</ele>
        <time>2011-12-26T10:05:40Z</time>
      </trkpt>
      <trkpt lat="44.53106" lon="0.93892">
        <ele>82</ele>
        <time>2011-12-26T10:05:40Z</time>
      </trkpt>
      <trkpt lat="44.53107" lon="0.93888">
        <ele>82</ele>
        <time>2011-12-26T10:05:41Z</time>
      </trkpt>
      <trkpt lat="44.53109" lon="0.93878">
        <ele>82</ele>
        <time>2011-12-26T10:05:46Z</time>
      </trkpt>
      <trkpt lat="44.53111" lon="0.9386">
        <ele>83</ele>
        <time>2011-12-26T10:05:47Z</time>
      </trkpt>
      <trkpt lat="44.53112" lon="0.93856">
        <ele>83</ele>
        <time>2011-12-26T10:05:48Z</time>
      </trkpt>
      <trkpt lat="44.53114" lon="0.93836">
        <ele>84</ele>
        <time>2011-12-26T10:05:53Z</time>
      </trkpt>
      <trkpt lat="44.53115" lon="0.93832">
        <ele>84</ele>
        <time>2011-12-26T10:05:54Z</time>
      </trkpt>
      <trkpt lat="44.53117" lon="0.93824">
        <ele>85</ele>
        <time>2011-12-26T10:05:59Z</time>
      </trkpt>
      <trkpt lat="44.5312" lon="0.93808">
        <ele>86</ele>
        <time>2011-12-26T10:06:00Z</time>
      </trkpt>
      <trkpt lat="44.53121" lon="0.93804">
        <ele>87</ele>
        <time>2011-12-26T10:06:01Z</time>
      </trkpt>
      <trkpt lat="44.53125" lon="0.93783">
        <ele>88</ele>
        <time>2011-12-26T10:06:06Z</time>
      </trkpt>
      <trkpt lat="44.53126" lon="0.93778">
        <ele>89</ele>
        <time>2011-12-26T10:06:07Z</time>
      </trkpt>
      <trkpt lat="44.53127" lon="0.93768">
        <ele>90</ele>
        <time>2011-12-26T10:06:12Z</time>
      </trkpt>
      <trkpt lat="44.53125" lon="0.93748">
        <ele>91</ele>
        <time>2011-12-26T10:06:13Z</time>
      </trkpt>
      <trkpt lat="44.53125" lon="0.93743">
        <ele>92</ele>
        <time>2011-12-26T10:06:14Z</time>
      </trkpt>
      <trkpt lat="44.53126" lon="0.93738">
        <ele>93</ele>
        <time>2011-12-26T10:06:15Z</time>
      </trkpt>
      <trkpt lat="44.53127" lon="0.93727">
        <ele>94</ele>
        <time>2011-12-26T10:06:20Z</time>
      </trkpt>
      <trkpt lat="44.53133" lon="0.93713">
        <ele>95</ele>
        <time>2011-12-26T10:06:20Z</time>
      </trkpt>
      <trkpt lat="44.53133" lon="0.93707">
        <ele>96</ele>
        <time>2011-12-26T10:06:21Z</time>
      </trkpt>
      <trkpt lat="44.53135" lon="0.93698">
        <ele>97</ele>
        <time>2011-12-26T10:06:26Z</time>
      </trkpt>
      <trkpt lat="44.53143" lon="0.93684">
        <ele>98</ele>
        <time>2011-12-26T10:06:27Z</time>
      </trkpt>
      <trkpt lat="44.53145" lon="0.93681">
        <ele>99</ele>
        <time>2011-12-26T10:06:28Z</time>
      </trkpt>
      <trkpt lat="44.53147" lon="0.93678">
        <ele>99</ele>
        <time>2011-12-26T10:06:29Z</time>
      </trkpt>
      <trkpt lat="44.53154" lon="0.93666">
        <ele>99</ele>
        <time>2011-12-26T10:06:34Z</time>
      </trkpt>
      <trkpt lat="44.53156" lon="0.93664">
        <ele>99</ele>
        <time>2011-12-26T10:06:35Z</time>
      </trkpt>
      <trkpt lat="44.53159" lon="0.93659">
        <ele>99</ele>
        <time>2011-12-26T10:06:40Z</time>
      </trkpt>
      <trkpt lat="44.53168" lon="0.93649">
        <ele>100</ele>
        <time>2011-12-26T10:06:41Z</time>
      </trkpt>
      <trkpt lat="44.5317" lon="0.93646">
        <ele>101</ele>
        <time>2011-12-26T10:06:42Z</time>
      </trkpt>
      <trkpt lat="44.53181" lon="0.93629">
        <ele>102</ele>
        <time>2011-12-26T10:06:47Z</time>
      </trkpt>
      <trkpt lat="44.53183" lon="0.93626">
        <ele>103</ele>
        <time>2011-12-26T10:06:48Z</time>
      </trkpt>
      <trkpt lat="44.53187" lon="0.93619">
        <ele>104</ele>
        <time>2011-12-26T10:06:53Z</time>
      </trkpt>
      <trkpt lat="44.53194" lon="0.93605">
        <ele>104</ele>
        <time>2011-12-26T10:06:54Z</time>
      </trkpt>
      <trkpt lat="44.53195" lon="0.93602">
        <ele>104</ele>
        <time>2011-12-26T10:06:55Z</time>
      </trkpt>
      <trkpt lat="44.53197" lon="0.936">
        <ele>104</ele>
        <time>2011-12-26T10:06:56Z</time>
      </trkpt>
      <trkpt lat="44.53207" lon="0.93589">
        <ele>104</ele>
        <time>2011-12-26T10:07:01Z</time>
      </trkpt>
      <trkpt lat="44.5321" lon="0.93588">
        <ele>104</ele>
        <time>2011-12-26T10:07:02Z</time>
      </trkpt>
      <trkpt lat="44.53214" lon="0.93584">
        <ele>105</ele>
        <time>2011-12-26T10:07:07Z</time>
      </trkpt>
      <trkpt lat="44.53225" lon="0.93581">
        <ele>105</ele>
        <time>2011-12-26T10:07:08Z</time>
      </trkpt>
      <trkpt lat="44.53228" lon="0.93581">
        <ele>106</ele>
        <time>2011-12-26T10:07:09Z</time>
      </trkpt>
      <trkpt lat="44.53231" lon="0.9358">
        <ele>107</ele>
        <time>2011-12-26T10:07:10Z</time>
      </trkpt>
      <trkpt lat="44.53246" lon="0.93582">
        <ele>107</ele>
        <time>2011-12-26T10:07:15Z</time>
      </trkpt>
      <trkpt lat="44.53248" lon="0.93583">
        <ele>108</ele>
        <time>2011-12-26T10:07:16Z</time>
      </trkpt>
      <trkpt lat="44.53251" lon="0.93583">
        <ele>108</ele>
        <time>2011-12-26T10:07:17Z</time>
      </trkpt>
      <trkpt lat="44.53257" lon="0.93582">
        <ele>109</ele>
        <time>2011-12-26T10:07:22Z</time>
      </trkpt>
      <trkpt lat="44.53263" lon="0.93578">
        <ele>110</ele>
        <time>2011-12-26T10:07:22Z</time>
      </trkpt>
      <trkpt lat="44.53264" lon="0.93577">
        <ele>111</ele>
        <time>2011-12-26T10:07:24Z</time>
      </trkpt>
      <trkpt lat="44.53265" lon="0.93574">
        <ele>111</ele>
        <time>2011-12-26T10:07:24Z</time>
      </trkpt>
      <trkpt lat="44.53267" lon="0.93572">
        <ele>112</ele>
        <time>2011-12-26T10:07:25Z</time>
      </trkpt>
      <trkpt lat="44.5327" lon="0.93567">
        <ele>113</ele>
        <time>2011-12-26T10:07:31Z</time>
      </trkpt>
      <trkpt lat="44.53272" lon="0.93551">
        <ele>114</ele>
        <time>2011-12-26T10:07:32Z</time>
      </trkpt>
      <trkpt lat="44.53272" lon="0.93549">
        <ele>114</ele>
        <time>2011-12-26T10:07:33Z</time>
      </trkpt>
      <trkpt lat="44.53272" lon="0.93547">
        <ele>114</ele>
        <time>2011-12-26T10:07:34Z</time>
      </trkpt>
      <trkpt lat="44.53273" lon="0.93543">
        <ele>114</ele>
        <time>2011-12-26T10:07:39Z</time>
      </trkpt>
      <trkpt lat="44.53273" lon="0.93536">
        <ele>114</ele>
        <time>2011-12-26T10:07:40Z</time>
      </trkpt>
      <trkpt lat="44.53273" lon="0.93531">
        <ele>114</ele>
        <time>2011-12-26T10:07:41Z</time>
      </trkpt>
      <trkpt lat="44.53273" lon="0.93527">
        <ele>115</ele>
        <time>2011-12-26T10:07:46Z</time>
      </trkpt>
      <trkpt lat="44.53273" lon="0.93521">
        <ele>115</ele>
        <time>2011-12-26T10:07:46Z</time>
      </trkpt>
      <trkpt lat="44.53273" lon="0.93519">
        <ele>116</ele>
        <time>2011-12-26T10:07:48Z</time>
      </trkpt>
      <trkpt lat="44.53274" lon="0.93517">
        <ele>117</ele>
        <time>2011-12-26T10:07:49Z</time>
      </trkpt>
      <trkpt lat="44.53276" lon="0.93514">
        <ele>117</ele>
        <time>2011-12-26T10:07:55Z</time>
      </trkpt>
      <trkpt lat="44.53278" lon="0.93506">
        <ele>118</ele>
        <time>2011-12-26T10:07:55Z</time>
      </trkpt>
      <trkpt lat="44.53278" lon="0.93501">
        <ele>119</ele>
        <time>2011-12-26T10:08:00Z</time>
      </trkpt>
      <trkpt lat="44.53281" lon="0.93493">
        <ele>120</ele>
        <time>2011-12-26T10:08:01Z</time>
      </trkpt>
      <trkpt lat="44.53282" lon="0.93492">
        <ele>121</ele>
        <time>2011-12-26T10:08:02Z</time>
      </trkpt>
      <trkpt lat="44.53286" lon="0.93483">
        <ele>122</ele>
        <time>2011-12-26T10:08:07Z</time>
      </trkpt>
      <trkpt lat="44.53287" lon="0.93481">
        <ele>123</ele>
        <time>2011-12-26T10:08:09Z</time>
      </trkpt>
      <trkpt lat="44.53287" lon="0.93479">
        <ele>124</ele>
        <time>2011-12-26T10:08:09Z</time>
      </trkpt>
      <trkpt lat="44.53288" lon="0.93477">
        <ele>124</ele>
        <time>2011-12-26T10:08:11Z</time>
      </trkpt>
      <trkpt lat="44.53289" lon="0.93473">
        <ele>125</ele>
        <time>2011-12-26T10:08:15Z</time>
      </trkpt>
      <trkpt lat="44.53293" lon="0.93466">
        <ele>125</ele>
        <time>2011-12-26T10:08:16Z</time>
      </trkpt>
      <trkpt lat="44.53294" lon="0.93464">
        <ele>126</ele>
        <time>2011-12-26T10:08:17Z</time>
      </trkpt>
      <trkpt lat="44.53299" lon="0.93454">
        <ele>126</ele>
        <time>2011-12-26T10:08:22Z</time>
      </trkpt>
      <trkpt lat="44.53299" lon="0.93451">
        <ele>126</ele>
        <time>2011-12-26T10:08:23Z</time>
      </trkpt>
      <trkpt lat="44.53301" lon="0.93448">
        <ele>126</ele>
        <time>2011-12-26T10:08:28Z</time>
      </trkpt>
      <trkpt lat="44.53305" lon="0.9344">
        <ele>126</ele>
        <time>2011-12-26T10:08:29Z</time>
      </trkpt>
      <trkpt lat="44.53306" lon="0.93438">
        <ele>126</ele>
        <time>2011-12-26T10:08:30Z</time>
      </trkpt>
      <trkpt lat="44.53313" lon="0.93429">
        <ele>126</ele>
        <time>2011-12-26T10:08:35Z</time>
      </trkpt>
      <trkpt lat="44.53314" lon="0.93427">
        <ele>127</ele>
        <time>2011-12-26T10:08:36Z</time>
      </trkpt>
      <trkpt lat="44.53315" lon="0.93425">
        <ele>127</ele>
        <time>2011-12-26T10:08:37Z</time>
      </trkpt>
      <trkpt lat="44.53316" lon="0.93423">
        <ele>127</ele>
        <time>2011-12-26T10:08:39Z</time>
      </trkpt>
      <trkpt lat="44.53319" lon="0.9342">
        <ele>128</ele>
        <time>2011-12-26T10:08:43Z</time>
      </trkpt>
      <trkpt lat="44.53326" lon="0.93414">
        <ele>128</ele>
        <time>2011-12-26T10:08:44Z</time>
      </trkpt>
      <trkpt lat="44.53327" lon="0.93413">
        <ele>129</ele>
        <time>2011-12-26T10:08:45Z</time>
      </trkpt>
      <trkpt lat="44.53329" lon="0.93412">
        <ele>130</ele>
        <time>2011-12-26T10:08:46Z</time>
      </trkpt>
      <trkpt lat="44.53331" lon="0.9341">
        <ele>131</ele>
        <time>2011-12-26T10:08:51Z</time>
      </trkpt>
      <trkpt lat="44.53337" lon="0.93405">
        <ele>132</ele>
        <time>2011-12-26T10:08:51Z</time>
      </trkpt>
      <trkpt lat="44.53338" lon="0.93404">
        <ele>132</ele>
        <time>2011-12-26T10:08:52Z</time>
      </trkpt>
      <trkpt lat="44.53341" lon="0.93402">
        <ele>133</ele>
        <time>2011-12-26T10:08:57Z</time>
      </trkpt>
      <trkpt lat="44.53347" lon="0.934">
        <ele>133</ele>
        <time>2011-12-26T10:08:58Z</time>
      </trkpt>
      <trkpt lat="44.5335" lon="0.934">
        <ele>133</ele>
        <time>2011-12-26T10:08:59Z</time>
      </trkpt>
      <trkpt lat="44.53352" lon="0.934">
        <ele>133</ele>
        <time>2011-12-26T10:09:00Z</time>
      </trkpt>
      <trkpt lat="44.5336" lon="0.934">
        <ele>134</ele>
        <time>2011-12-26T10:09:05Z</time>
      </trkpt>
      <trkpt lat="44.53361" lon="0.93399">
        <ele>134</ele>
        <time>2011-12-26T10:09:06Z</time>
      </trkpt>
      <trkpt lat="44.53364" lon="0.93398">
        <ele>135</ele>
        <time>2011-12-26T10:09:11Z</time>
      </trkpt>
      <trkpt lat="44.5337" lon="0.93393">
        <ele>135</ele>
        <time>2011-12-26T10:09:12Z</time>
      </trkpt>
      <trkpt lat="44.53372" lon="0.93392">
        <ele>135</ele>
        <time>2011-12-26T10:09:13Z</time>
      </trkpt>
      <trkpt lat="44.53379" lon="0.93385">
        <ele>135</ele>
        <time>2011-12-26T10:09:18Z</time>
      </trkpt>
      <trkpt lat="44.5338" lon="0.93383">
        <ele>135</ele>
        <time>2011-12-26T10:09:19Z</time>
      </trkpt>
      <trkpt lat="44.53381" lon="0.93382">
        <ele>135</ele>
        <time>2011-12-26T10:09:20Z</time>
      </trkpt>
      <trkpt lat="44.53384" lon="0.93379">
        <ele>135</ele>
        <time>2011-12-26T10:09:25Z</time>
      </trkpt>
      <trkpt lat="44.53389" lon="0.93374">
        <ele>135</ele>
        <time>2011-12-26T10:09:25Z</time>
      </trkpt>
      <trkpt lat="44.5339" lon="0.93372">
        <ele>135</ele>
        <time>2011-12-26T10:09:26Z</time>
      </trkpt>
      <trkpt lat="44.53395" lon="0.93369">
        <ele>135</ele>
        <time>2011-12-26T10:09:31Z</time>
      </trkpt>
      <trkpt lat="44.534" lon="0.93365">
        <ele>135</ele>
        <time>2011-12-26T10:09:32Z</time>
      </trkpt>
      <trkpt lat="44.53401" lon="0.93366">
        <ele>135</ele>
        <time>2011-12-26T10:09:34Z</time>
      </trkpt>
      <trkpt lat="44.53403" lon="0.93363">
        <ele>135</ele>
        <time>2011-12-26T10:09:39Z</time>
      </trkpt>
      <trkpt lat="44.53403" lon="0.93361">
        <ele>135</ele>
        <time>2011-12-26T10:09:49Z</time>
      </trkpt>
      <trkpt lat="44.53402" lon="0.93359">
        <ele>135</ele>
        <time>2011-12-26T10:09:51Z</time>
      </trkpt>
      <trkpt lat="44.53401" lon="0.93357">
        <ele>135</ele>
        <time>2011-12-26T10:09:58Z</time>
      </trkpt>
      <trkpt lat="44.534" lon="0.93357">
        <ele>138</ele>
        <time>2011-12-26T10:10:09Z</time>
      </trkpt>
      <trkpt lat="44.53399" lon="0.93356">
        <ele>142</ele>
        <time>2011-12-26T10:10:18Z</time>
      </trkpt>
      <trkpt lat="44.53398" lon="0.93356">
        <ele>147</ele>
        <time>2011-12-26T10:10:33Z</time>
      </trkpt>
      <trkpt lat="44.53399" lon="0.93357">
        <ele>148</ele>
        <time>2011-12-26T10:10:42Z</time>
      </trkpt>
      <trkpt lat="44.534" lon="0.93356">
        <ele>148</ele>
        <time>2011-12-26T10:10:44Z</time>
      </trkpt>
      <trkpt lat="44.53402" lon="0.93352">
        <ele>147</ele>
        <time>2011-12-26T10:11:10Z</time>
      </trkpt>
      <trkpt lat="44.53405" lon="0.93352">
        <ele>147</ele>
        <time>2011-12-26T10:11:11Z</time>
      </trkpt>
      <trkpt lat="44.53417" lon="0.93356">
        <ele>147</ele>
        <time>2011-12-26T10:11:17Z</time>
      </trkpt>
      <trkpt lat="44.53418" lon="0.93358">
        <ele>146</ele>
        <time>2011-12-26T10:11:18Z</time>
      </trkpt>
      <trkpt lat="44.53421" lon="0.9336">
        <ele>146</ele>
        <time>2011-12-26T10:11:19Z</time>
      </trkpt>
      <trkpt lat="44.53424" lon="0.93364">
        <ele>146</ele>
        <time>2011-12-26T10:11:24Z</time>
      </trkpt>
      <trkpt lat="44.53429" lon="0.93371">
        <ele>146</ele>
        <time>2011-12-26T10:11:24Z</time>
      </trkpt>
      <trkpt lat="44.53431" lon="0.93374">
        <ele>146</ele>
        <time>2011-12-26T10:11:25Z</time>
      </trkpt>
      <trkpt lat="44.53434" lon="0.93379">
        <ele>146</ele>
        <time>2011-12-26T10:11:30Z</time>
      </trkpt>
      <trkpt lat="44.53443" lon="0.93385">
        <ele>146</ele>
        <time>2011-12-26T10:11:31Z</time>
      </trkpt>
      <trkpt lat="44.53445" lon="0.93385">
        <ele>146</ele>
        <time>2011-12-26T10:11:32Z</time>
      </trkpt>
      <trkpt lat="44.53448" lon="0.93385">
        <ele>146</ele>
        <time>2011-12-26T10:11:33Z</time>
      </trkpt>
      <trkpt lat="44.53462" lon="0.93384">
        <ele>145</ele>
        <time>2011-12-26T10:11:38Z</time>
      </trkpt>
      <trkpt lat="44.53465" lon="0.93383">
        <ele>145</ele>
        <time>2011-12-26T10:11:39Z</time>
      </trkpt>
      <trkpt lat="44.53467" lon="0.93382">
        <ele>145</ele>
        <time>2011-12-26T10:11:40Z</time>
      </trkpt>
      <trkpt lat="44.53472" lon="0.9338">
        <ele>144</ele>
        <time>2011-12-26T10:11:45Z</time>
      </trkpt>
      <trkpt lat="44.53483" lon="0.93375">
        <ele>144</ele>
        <time>2011-12-26T10:11:46Z</time>
      </trkpt>
      <trkpt lat="44.53486" lon="0.93373">
        <ele>144</ele>
        <time>2011-12-26T10:11:47Z</time>
      </trkpt>
      <trkpt lat="44.53492" lon="0.9337">
        <ele>144</ele>
        <time>2011-12-26T10:11:52Z</time>
      </trkpt>
      <trkpt lat="44.535" lon="0.93366">
        <ele>144</ele>
        <time>2011-12-26T10:11:52Z</time>
      </trkpt>
      <trkpt lat="44.53503" lon="0.93364">
        <ele>144</ele>
        <time>2011-12-26T10:11:53Z</time>
      </trkpt>
      <trkpt lat="44.5351" lon="0.93361">
        <ele>144</ele>
        <time>2011-12-26T10:11:58Z</time>
      </trkpt>
      <trkpt lat="44.53522" lon="0.93357">
        <ele>144</ele>
        <time>2011-12-26T10:11:59Z</time>
      </trkpt>
      <trkpt lat="44.53525" lon="0.93357">
        <ele>144</ele>
        <time>2011-12-26T10:12:00Z</time>
      </trkpt>
      <trkpt lat="44.53528" lon="0.93359">
        <ele>144</ele>
        <time>2011-12-26T10:12:01Z</time>
      </trkpt>
      <trkpt lat="44.53531" lon="0.93362">
        <ele>144</ele>
        <time>2011-12-26T10:12:02Z</time>
      </trkpt>
      <trkpt lat="44.53535" lon="0.93368">
        <ele>144</ele>
        <time>2011-12-26T10:12:07Z</time>
      </trkpt>
      <trkpt lat="44.53547" lon="0.93373">
        <ele>144</ele>
        <time>2011-12-26T10:12:08Z</time>
      </trkpt>
      <trkpt lat="44.5355" lon="0.93371">
        <ele>144</ele>
        <time>2011-12-26T10:12:09Z</time>
      </trkpt>
      <trkpt lat="44.53567" lon="0.93359">
        <ele>144</ele>
        <time>2011-12-26T10:12:15Z</time>
      </trkpt>
      <trkpt lat="44.53569" lon="0.93357">
        <ele>144</ele>
        <time>2011-12-26T10:12:16Z</time>
      </trkpt>
      <trkpt lat="44.53575" lon="0.93352">
        <ele>144</ele>
        <time>2011-12-26T10:12:21Z</time>
      </trkpt>
      <trkpt lat="44.53583" lon="0.93345">
        <ele>144</ele>
        <time>2011-12-26T10:12:21Z</time>
      </trkpt>
      <trkpt lat="44.53586" lon="0.93343">
        <ele>145</ele>
        <time>2011-12-26T10:12:22Z</time>
      </trkpt>
      <trkpt lat="44.53591" lon="0.93337">
        <ele>145</ele>
        <time>2011-12-26T10:12:27Z</time>
      </trkpt>
      <trkpt lat="44.53603" lon="0.93325">
        <ele>145</ele>
        <time>2011-12-26T10:12:28Z</time>
      </trkpt>
      <trkpt lat="44.53606" lon="0.93322">
        <ele>146</ele>
        <time>2011-12-26T10:12:29Z</time>
      </trkpt>
      <trkpt lat="44.53621" lon="0.93307">
        <ele>146</ele>
        <time>2011-12-26T10:12:34Z</time>
      </trkpt>
      <trkpt lat="44.53624" lon="0.93304">
        <ele>146</ele>
        <time>2011-12-26T10:12:35Z</time>
      </trkpt>
      <trkpt lat="44.53627" lon="0.93301">
        <ele>146</ele>
        <time>2011-12-26T10:12:36Z</time>
      </trkpt>
      <trkpt lat="44.53635" lon="0.93297">
        <ele>146</ele>
        <time>2011-12-26T10:12:41Z</time>
      </trkpt>
      <trkpt lat="44.53646" lon="0.93303">
        <ele>146</ele>
        <time>2011-12-26T10:12:41Z</time>
      </trkpt>
      <trkpt lat="44.53649" lon="0.93306">
        <ele>146</ele>
        <time>2011-12-26T10:12:42Z</time>
      </trkpt>
      <trkpt lat="44.53652" lon="0.9331">
        <ele>146</ele>
        <time>2011-12-26T10:12:44Z</time>
      </trkpt>
      <trkpt lat="44.53656" lon="0.93318">
        <ele>146</ele>
        <time>2011-12-26T10:12:49Z</time>
      </trkpt>
      <trkpt lat="44.53663" lon="0.93331">
        <ele>146</ele>
        <time>2011-12-26T10:12:49Z</time>
      </trkpt>
      <trkpt lat="44.53664" lon="0.93334">
        <ele>146</ele>
        <time>2011-12-26T10:12:50Z</time>
      </trkpt>
      <trkpt lat="44.53665" lon="0.93336">
        <ele>146</ele>
        <time>2011-12-26T10:12:55Z</time>
      </trkpt>
      <trkpt lat="44.53665" lon="0.93334">
        <ele>146</ele>
        <time>2011-12-26T10:13:05Z</time>
      </trkpt>
      <trkpt lat="44.53663" lon="0.93326">
        <ele>146</ele>
        <time>2011-12-26T10:13:05Z</time>
      </trkpt>
      <trkpt lat="44.53661" lon="0.93323">
        <ele>146</ele>
        <time>2011-12-26T10:13:06Z</time>
      </trkpt>
      <trkpt lat="44.5366" lon="0.93321">
        <ele>146</ele>
        <time>2011-12-26T10:13:07Z</time>
      </trkpt>
      <trkpt lat="44.53649" lon="0.93304">
        <ele>146</ele>
        <time>2011-12-26T10:13:13Z</time>
      </trkpt>
      <trkpt lat="44.53647" lon="0.93301">
        <ele>146</ele>
        <time>2011-12-26T10:13:14Z</time>
      </trkpt>
      <trkpt lat="44.53642" lon="0.93296">
        <ele>146</ele>
        <time>2011-12-26T10:13:19Z</time>
      </trkpt>
      <trkpt lat="44.53632" lon="0.93291">
        <ele>146</ele>
        <time>2011-12-26T10:13:20Z</time>
      </trkpt>
      <trkpt lat="44.5363" lon="0.9329">
        <ele>146</ele>
        <time>2011-12-26T10:13:21Z</time>
      </trkpt>
      <trkpt lat="44.5363" lon="0.93288">
        <ele>146</ele>
        <time>2011-12-26T10:13:22Z</time>
      </trkpt>
      <trkpt lat="44.53629" lon="0.93285">
        <ele>146</ele>
        <time>2011-12-26T10:13:28Z</time>
      </trkpt>
      <trkpt lat="44.53629" lon="0.93287">
        <ele>146</ele>
        <time>2011-12-26T10:13:44Z</time>
      </trkpt>
      <trkpt lat="44.5363" lon="0.93289">
        <ele>146</ele>
        <time>2011-12-26T10:13:46Z</time>
      </trkpt>
      <trkpt lat="44.53632" lon="0.93289">
        <ele>146</ele>
        <time>2011-12-26T10:13:54Z</time>
      </trkpt>
      <trkpt lat="44.53633" lon="0.93289">
        <ele>146</ele>
        <time>2011-12-26T10:13:55Z</time>
      </trkpt>
      <trkpt lat="44.53635" lon="0.93289">
        <ele>146</ele>
        <time>2011-12-26T10:14:00Z</time>
      </trkpt>
      <trkpt lat="44.53638" lon="0.93285">
        <ele>146</ele>
        <time>2011-12-26T10:14:01Z</time>
      </trkpt>
      <trkpt lat="44.5364" lon="0.93284">
        <ele>146</ele>
        <time>2011-12-26T10:14:02Z</time>
      </trkpt>
      <trkpt lat="44.53641" lon="0.93283">
        <ele>146</ele>
        <time>2011-12-26T10:14:03Z</time>
      </trkpt>
      <trkpt lat="44.53642" lon="0.93281">
        <ele>146</ele>
        <time>2011-12-26T10:14:08Z</time>
      </trkpt>
      <trkpt lat="44.5364" lon="0.93273">
        <ele>146</ele>
        <time>2011-12-26T10:14:22Z</time>
      </trkpt>
      <trkpt lat="44.53638" lon="0.9327">
        <ele>146</ele>
        <time>2011-12-26T10:14:23Z</time>
      </trkpt>
      <trkpt lat="44.53637" lon="0.93267">
        <ele>145</ele>
        <time>2011-12-26T10:14:24Z</time>
      </trkpt>
      <trkpt lat="44.5363" lon="0.93251">
        <ele>145</ele>
        <time>2011-12-26T10:14:29Z</time>
      </trkpt>
      <trkpt lat="44.53629" lon="0.93248">
        <ele>145</ele>
        <time>2011-12-26T10:14:30Z</time>
      </trkpt>
      <trkpt lat="44.53628" lon="0.93247">
        <ele>144</ele>
        <time>2011-12-26T10:14:31Z</time>
      </trkpt>
      <trkpt lat="44.53627" lon="0.93245">
        <ele>144</ele>
        <time>2011-12-26T10:14:36Z</time>
      </trkpt>
      <trkpt lat="44.53626" lon="0.93243">
        <ele>144</ele>
        <time>2011-12-26T10:14:37Z</time>
      </trkpt>
      <trkpt lat="44.53625" lon="0.93241">
        <ele>144</ele>
        <time>2011-12-26T10:14:42Z</time>
      </trkpt>
      <trkpt lat="44.53625" lon="0.9324">
        <ele>144</ele>
        <time>2011-12-26T10:14:48Z</time>
      </trkpt>
      <trkpt lat="44.53627" lon="0.93238">
        <ele>144</ele>
        <time>2011-12-26T10:14:57Z</time>
      </trkpt>
      <trkpt lat="44.53627" lon="0.93236">
        <ele>144</ele>
        <time>2011-12-26T10:14:57Z</time>
      </trkpt>
      <trkpt lat="44.53625" lon="0.93234">
        <ele>144</ele>
        <time>2011-12-26T10:14:58Z</time>
      </trkpt>
      <trkpt lat="44.53625" lon="0.93233">
        <ele>144</ele>
        <time>2011-12-26T10:14:59Z</time>
      </trkpt>
      <trkpt lat="44.5362" lon="0.93223">
        <ele>144</ele>
        <time>2011-12-26T10:15:04Z</time>
      </trkpt>
      <trkpt lat="44.53619" lon="0.9322">
        <ele>144</ele>
        <time>2011-12-26T10:15:05Z</time>
      </trkpt>
      <trkpt lat="44.53617" lon="0.93217">
        <ele>144</ele>
        <time>2011-12-26T10:15:06Z</time>
      </trkpt>
      <trkpt lat="44.53608" lon="0.93199">
        <ele>144</ele>
        <time>2011-12-26T10:15:11Z</time>
      </trkpt>
      <trkpt lat="44.53608" lon="0.93196">
        <ele>144</ele>
        <time>2011-12-26T10:15:12Z</time>
      </trkpt>
      <trkpt lat="44.53607" lon="0.93194">
        <ele>144</ele>
        <time>2011-12-26T10:15:13Z</time>
      </trkpt>
      <trkpt lat="44.53604" lon="0.93188">
        <ele>144</ele>
        <time>2011-12-26T10:15:18Z</time>
      </trkpt>
      <trkpt lat="44.53599" lon="0.93178">
        <ele>144</ele>
        <time>2011-12-26T10:15:18Z</time>
      </trkpt>
      <trkpt lat="44.53597" lon="0.93175">
        <ele>144</ele>
        <time>2011-12-26T10:15:19Z</time>
      </trkpt>
      <trkpt lat="44.53594" lon="0.93168">
        <ele>143</ele>
        <time>2011-12-26T10:15:24Z</time>
      </trkpt>
      <trkpt lat="44.53587" lon="0.93152">
        <ele>142</ele>
        <time>2011-12-26T10:15:25Z</time>
      </trkpt>
      <trkpt lat="44.53585" lon="0.93148">
        <ele>141</ele>
        <time>2011-12-26T10:15:26Z</time>
      </trkpt>
      <trkpt lat="44.53576" lon="0.93134">
        <ele>140</ele>
        <time>2011-12-26T10:15:31Z</time>
      </trkpt>
      <trkpt lat="44.53575" lon="0.93132">
        <ele>137</ele>
        <time>2011-12-26T10:15:42Z</time>
      </trkpt>
      <trkpt lat="44.53573" lon="0.93131">
        <ele>136</ele>
        <time>2011-12-26T10:15:53Z</time>
      </trkpt>
      <trkpt lat="44.53572" lon="0.93132">
        <ele>136</ele>
        <time>2011-12-26T10:16:01Z</time>
      </trkpt>
      <trkpt lat="44.53578" lon="0.93141">
        <ele>136</ele>
        <time>2011-12-26T10:16:10Z</time>
      </trkpt>
      <trkpt lat="44.53579" lon="0.93143">
        <ele>136</ele>
        <time>2011-12-26T10:16:11Z</time>
      </trkpt>
      <trkpt lat="44.53583" lon="0.93155">
        <ele>136</ele>
        <time>2011-12-26T10:16:16Z</time>
      </trkpt>
      <trkpt lat="44.53585" lon="0.93157">
        <ele>136</ele>
        <time>2011-12-26T10:16:17Z</time>
      </trkpt>
      <trkpt lat="44.53587" lon="0.93162">
        <ele>136</ele>
        <time>2011-12-26T10:16:22Z</time>
      </trkpt>
      <trkpt lat="44.53593" lon="0.93172">
        <ele>136</ele>
        <time>2011-12-26T10:16:23Z</time>
      </trkpt>
      <trkpt lat="44.53594" lon="0.93174">
        <ele>136</ele>
        <time>2011-12-26T10:16:24Z</time>
      </trkpt>
      <trkpt lat="44.53596" lon="0.9318">
        <ele>137</ele>
        <time>2011-12-26T10:16:29Z</time>
      </trkpt>
      <trkpt lat="44.536" lon="0.93189">
        <ele>138</ele>
        <time>2011-12-26T10:16:30Z</time>
      </trkpt>
      <trkpt lat="44.53601" lon="0.93191">
        <ele>139</ele>
        <time>2011-12-26T10:16:31Z</time>
      </trkpt>
      <trkpt lat="44.53602" lon="0.93195">
        <ele>140</ele>
        <time>2011-12-26T10:16:36Z</time>
      </trkpt>
      <trkpt lat="44.53606" lon="0.93204">
        <ele>141</ele>
        <time>2011-12-26T10:16:37Z</time>
      </trkpt>
      <trkpt lat="44.53607" lon="0.93206">
        <ele>142</ele>
        <time>2011-12-26T10:16:38Z</time>
      </trkpt>
      <trkpt lat="44.53608" lon="0.93208">
        <ele>143</ele>
        <time>2011-12-26T10:16:39Z</time>
      </trkpt>
      <trkpt lat="44.53611" lon="0.93212">
        <ele>144</ele>
        <time>2011-12-26T10:16:44Z</time>
      </trkpt>
      <trkpt lat="44.53614" lon="0.9322">
        <ele>145</ele>
        <time>2011-12-26T10:16:45Z</time>
      </trkpt>
      <trkpt lat="44.53616" lon="0.93221">
        <ele>145</ele>
        <time>2011-12-26T10:16:46Z</time>
      </trkpt>
      <trkpt lat="44.53621" lon="0.9323">
        <ele>146</ele>
        <time>2011-12-26T10:16:51Z</time>
      </trkpt>
      <trkpt lat="44.53622" lon="0.93232">
        <ele>146</ele>
        <time>2011-12-26T10:16:52Z</time>
      </trkpt>
      <trkpt lat="44.53622" lon="0.93235">
        <ele>146</ele>
        <time>2011-12-26T10:16:57Z</time>
      </trkpt>
      <trkpt lat="44.53625" lon="0.93241">
        <ele>146</ele>
        <time>2011-12-26T10:16:58Z</time>
      </trkpt>
      <trkpt lat="44.53624" lon="0.93243">
        <ele>146</ele>
        <time>2011-12-26T10:17:06Z</time>
      </trkpt>
      <trkpt lat="44.53624" lon="0.93246">
        <ele>146</ele>
        <time>2011-12-26T10:17:07Z</time>
      </trkpt>
      <trkpt lat="44.53625" lon="0.93249">
        <ele>146</ele>
        <time>2011-12-26T10:17:09Z</time>
      </trkpt>
      <trkpt lat="44.53627" lon="0.93252">
        <ele>146</ele>
        <time>2011-12-26T10:17:14Z</time>
      </trkpt>
      <trkpt lat="44.5363" lon="0.93258">
        <ele>146</ele>
        <time>2011-12-26T10:17:15Z</time>
      </trkpt>
      <trkpt lat="44.5363" lon="0.93261">
        <ele>146</ele>
        <time>2011-12-26T10:17:15Z</time>
      </trkpt>
      <trkpt lat="44.53631" lon="0.93263">
        <ele>146</ele>
        <time>2011-12-26T10:17:16Z</time>
      </trkpt>
      <trkpt lat="44.53633" lon="0.93267">
        <ele>147</ele>
        <time>2011-12-26T10:17:21Z</time>
      </trkpt>
      <trkpt lat="44.53636" lon="0.93274">
        <ele>147</ele>
        <time>2011-12-26T10:17:22Z</time>
      </trkpt>
      <trkpt lat="44.53637" lon="0.93276">
        <ele>148</ele>
        <time>2011-12-26T10:17:24Z</time>
      </trkpt>
      <trkpt lat="44.53634" lon="0.93279">
        <ele>148</ele>
        <time>2011-12-26T10:17:31Z</time>
      </trkpt>
      <trkpt lat="44.53633" lon="0.93282">
        <ele>148</ele>
        <time>2011-12-26T10:17:33Z</time>
      </trkpt>
      <trkpt lat="44.53634" lon="0.93285">
        <ele>148</ele>
        <time>2011-12-26T10:17:39Z</time>
      </trkpt>
      <trkpt lat="44.53635" lon="0.93288">
        <ele>148</ele>
        <time>2011-12-26T10:17:39Z</time>
      </trkpt>
      <trkpt lat="44.53646" lon="0.93298">
        <ele>148</ele>
        <time>2011-12-26T10:17:47Z</time>
      </trkpt>
      <trkpt lat="44.53647" lon="0.933">
        <ele>148</ele>
        <time>2011-12-26T10:17:48Z</time>
      </trkpt>
      <trkpt lat="44.5365" lon="0.93304">
        <ele>148</ele>
        <time>2011-12-26T10:17:53Z</time>
      </trkpt>
      <trkpt lat="44.53655" lon="0.93313">
        <ele>148</ele>
        <time>2011-12-26T10:17:54Z</time>
      </trkpt>
      <trkpt lat="44.53657" lon="0.93315">
        <ele>148</ele>
        <time>2011-12-26T10:17:55Z</time>
      </trkpt>
      <trkpt lat="44.53662" lon="0.93327">
        <ele>148</ele>
        <time>2011-12-26T10:18:00Z</time>
      </trkpt>
      <trkpt lat="44.53664" lon="0.9333">
        <ele>148</ele>
        <time>2011-12-26T10:18:01Z</time>
      </trkpt>
      <trkpt lat="44.53665" lon="0.93333">
        <ele>148</ele>
        <time>2011-12-26T10:18:02Z</time>
      </trkpt>
      <trkpt lat="44.5368" lon="0.93361">
        <ele>148</ele>
        <time>2011-12-26T10:18:07Z</time>
      </trkpt>
      <trkpt lat="44.53684" lon="0.93369">
        <ele>148</ele>
        <time>2011-12-26T10:18:08Z</time>
      </trkpt>
      <trkpt lat="44.53692" lon="0.93385">
        <ele>148</ele>
        <time>2011-12-26T10:18:13Z</time>
      </trkpt>
      <trkpt lat="44.53706" lon="0.93399">
        <ele>148</ele>
        <time>2011-12-26T10:18:14Z</time>
      </trkpt>
      <trkpt lat="44.53709" lon="0.93397">
        <ele>147</ele>
        <time>2011-12-26T10:18:15Z</time>
      </trkpt>
      <trkpt lat="44.53712" lon="0.93395">
        <ele>147</ele>
        <time>2011-12-26T10:18:16Z</time>
      </trkpt>
      <trkpt lat="44.53714" lon="0.93392">
        <ele>147</ele>
        <time>2011-12-26T10:18:17Z</time>
      </trkpt>
      <trkpt lat="44.53718" lon="0.93385">
        <ele>147</ele>
        <time>2011-12-26T10:18:22Z</time>
      </trkpt>
      <trkpt lat="44.53727" lon="0.9337">
        <ele>147</ele>
        <time>2011-12-26T10:18:23Z</time>
      </trkpt>
      <trkpt lat="44.53729" lon="0.93367">
        <ele>147</ele>
        <time>2011-12-26T10:18:24Z</time>
      </trkpt>
      <trkpt lat="44.53734" lon="0.93359">
        <ele>147</ele>
        <time>2011-12-26T10:18:29Z</time>
      </trkpt>
      <trkpt lat="44.53742" lon="0.93347">
        <ele>147</ele>
        <time>2011-12-26T10:18:29Z</time>
      </trkpt>
      <trkpt lat="44.53744" lon="0.93343">
        <ele>147</ele>
        <time>2011-12-26T10:18:30Z</time>
      </trkpt>
      <trkpt lat="44.53748" lon="0.93334">
        <ele>147</ele>
        <time>2011-12-26T10:18:35Z</time>
      </trkpt>
      <trkpt lat="44.53757" lon="0.93317">
        <ele>147</ele>
        <time>2011-12-26T10:18:36Z</time>
      </trkpt>
      <trkpt lat="44.53759" lon="0.93313">
        <ele>147</ele>
        <time>2011-12-26T10:18:37Z</time>
      </trkpt>
      <trkpt lat="44.53763" lon="0.93304">
        <ele>147</ele>
        <time>2011-12-26T10:18:42Z</time>
      </trkpt>
      <trkpt lat="44.53765" lon="0.93283">
        <ele>147</ele>
        <time>2011-12-26T10:18:43Z</time>
      </trkpt>
      <trkpt lat="44.53764" lon="0.93277">
        <ele>147</ele>
        <time>2011-12-26T10:18:44Z</time>
      </trkpt>
      <trkpt lat="44.53762" lon="0.93273">
        <ele>147</ele>
        <time>2011-12-26T10:18:45Z</time>
      </trkpt>
      <trkpt lat="44.53757" lon="0.93263">
        <ele>147</ele>
        <time>2011-12-26T10:18:50Z</time>
      </trkpt>
      <trkpt lat="44.53752" lon="0.93244">
        <ele>147</ele>
        <time>2011-12-26T10:18:51Z</time>
      </trkpt>
      <trkpt lat="44.53752" lon="0.93239">
        <ele>147</ele>
        <time>2011-12-26T10:18:52Z</time>
      </trkpt>
      <trkpt lat="44.53752" lon="0.93234">
        <ele>147</ele>
        <time>2011-12-26T10:18:53Z</time>
      </trkpt>
      <trkpt lat="44.53755" lon="0.93223">
        <ele>147</ele>
        <time>2011-12-26T10:18:59Z</time>
      </trkpt>
      <trkpt lat="44.53762" lon="0.93204">
        <ele>147</ele>
        <time>2011-12-26T10:18:59Z</time>
      </trkpt>
      <trkpt lat="44.53764" lon="0.93199">
        <ele>147</ele>
        <time>2011-12-26T10:19:00Z</time>
      </trkpt>
      <trkpt lat="44.53769" lon="0.93188">
        <ele>147</ele>
        <time>2011-12-26T10:19:05Z</time>
      </trkpt>
      <trkpt lat="44.53778" lon="0.93166">
        <ele>147</ele>
        <time>2011-12-26T10:19:06Z</time>
      </trkpt>
      <trkpt lat="44.5378" lon="0.9316">
        <ele>147</ele>
        <time>2011-12-26T10:19:07Z</time>
      </trkpt>
      <trkpt lat="44.53785" lon="0.93148">
        <ele>147</ele>
        <time>2011-12-26T10:19:12Z</time>
      </trkpt>
      <trkpt lat="44.53794" lon="0.93124">
        <ele>147</ele>
        <time>2011-12-26T10:19:13Z</time>
      </trkpt>
      <trkpt lat="44.53796" lon="0.93119">
        <ele>147</ele>
        <time>2011-12-26T10:19:14Z</time>
      </trkpt>
      <trkpt lat="44.53802" lon="0.93106">
        <ele>147</ele>
        <time>2011-12-26T10:19:19Z</time>
      </trkpt>
      <trkpt lat="44.5381" lon="0.93086">
        <ele>147</ele>
        <time>2011-12-26T10:19:19Z</time>
      </trkpt>
      <trkpt lat="44.53813" lon="0.9308">
        <ele>147</ele>
        <time>2011-12-26T10:19:20Z</time>
      </trkpt>
      <trkpt lat="44.5382" lon="0.93067">
        <ele>146</ele>
        <time>2011-12-26T10:19:25Z</time>
      </trkpt>
      <trkpt lat="44.53831" lon="0.93041">
        <ele>145</ele>
        <time>2011-12-26T10:19:26Z</time>
      </trkpt>
      <trkpt lat="44.53833" lon="0.93035">
        <ele>144</ele>
        <time>2011-12-26T10:19:27Z</time>
      </trkpt>
      <trkpt lat="44.53838" lon="0.93022">
        <ele>144</ele>
        <time>2011-12-26T10:19:32Z</time>
      </trkpt>
      <trkpt lat="44.53848" lon="0.92998">
        <ele>143</ele>
        <time>2011-12-26T10:19:33Z</time>
      </trkpt>
      <trkpt lat="44.53851" lon="0.92993">
        <ele>142</ele>
        <time>2011-12-26T10:19:34Z</time>
      </trkpt>
      <trkpt lat="44.53865" lon="0.92965">
        <ele>142</ele>
        <time>2011-12-26T10:19:39Z</time>
      </trkpt>
      <trkpt lat="44.53868" lon="0.92959">
        <ele>142</ele>
        <time>2011-12-26T10:19:40Z</time>
      </trkpt>
      <trkpt lat="44.53874" lon="0.92949">
        <ele>142</ele>
        <time>2011-12-26T10:19:45Z</time>
      </trkpt>
      <trkpt lat="44.53886" lon="0.92927">
        <ele>142</ele>
        <time>2011-12-26T10:19:46Z</time>
      </trkpt>
      <trkpt lat="44.53889" lon="0.92922">
        <ele>142</ele>
        <time>2011-12-26T10:19:47Z</time>
      </trkpt>
      <trkpt lat="44.53896" lon="0.92911">
        <ele>142</ele>
        <time>2011-12-26T10:19:52Z</time>
      </trkpt>
      <trkpt lat="44.53908" lon="0.9289">
        <ele>142</ele>
        <time>2011-12-26T10:19:53Z</time>
      </trkpt>
      <trkpt lat="44.5391" lon="0.92885">
        <ele>142</ele>
        <time>2011-12-26T10:19:54Z</time>
      </trkpt>
      <trkpt lat="44.53924" lon="0.9286">
        <ele>142</ele>
        <time>2011-12-26T10:19:59Z</time>
      </trkpt>
      <trkpt lat="44.53927" lon="0.92855">
        <ele>142</ele>
        <time>2011-12-26T10:20:00Z</time>
      </trkpt>
      <trkpt lat="44.53932" lon="0.92845">
        <ele>142</ele>
        <time>2011-12-26T10:20:05Z</time>
      </trkpt>
      <trkpt lat="44.53942" lon="0.92826">
        <ele>142</ele>
        <time>2011-12-26T10:20:06Z</time>
      </trkpt>
      <trkpt lat="44.53945" lon="0.92821">
        <ele>142</ele>
        <time>2011-12-26T10:20:07Z</time>
      </trkpt>
      <trkpt lat="44.5395" lon="0.92812">
        <ele>142</ele>
        <time>2011-12-26T10:20:12Z</time>
      </trkpt>
      <trkpt lat="44.5396" lon="0.92795">
        <ele>142</ele>
        <time>2011-12-26T10:20:13Z</time>
      </trkpt>
      <trkpt lat="44.53962" lon="0.9279">
        <ele>142</ele>
        <time>2011-12-26T10:20:14Z</time>
      </trkpt>
      <trkpt lat="44.53974" lon="0.92771">
        <ele>142</ele>
        <time>2011-12-26T10:20:19Z</time>
      </trkpt>
      <trkpt lat="44.53978" lon="0.92771">
        <ele>142</ele>
        <time>2011-12-26T10:20:20Z</time>
      </trkpt>
      <trkpt lat="44.53981" lon="0.92773">
        <ele>142</ele>
        <time>2011-12-26T10:20:21Z</time>
      </trkpt>
      <trkpt lat="44.53984" lon="0.92776">
        <ele>142</ele>
        <time>2011-12-26T10:20:22Z</time>
      </trkpt>
      <trkpt lat="44.54009" lon="0.92801">
        <ele>142</ele>
        <time>2011-12-26T10:20:28Z</time>
      </trkpt>
      <trkpt lat="44.54013" lon="0.92805">
        <ele>142</ele>
        <time>2011-12-26T10:20:29Z</time>
      </trkpt>
      <trkpt lat="44.54023" lon="0.92815">
        <ele>142</ele>
        <time>2011-12-26T10:20:34Z</time>
      </trkpt>
      <trkpt lat="44.54043" lon="0.92836">
        <ele>142</ele>
        <time>2011-12-26T10:20:35Z</time>
      </trkpt>
      <trkpt lat="44.54048" lon="0.92842">
        <ele>142</ele>
        <time>2011-12-26T10:20:36Z</time>
      </trkpt>
      <trkpt lat="44.54072" lon="0.92869">
        <ele>142</ele>
        <time>2011-12-26T10:20:41Z</time>
      </trkpt>
      <trkpt lat="44.54077" lon="0.92874">
        <ele>141</ele>
        <time>2011-12-26T10:20:42Z</time>
      </trkpt>
      <trkpt lat="44.54087" lon="0.92883">
        <ele>140</ele>
        <time>2011-12-26T10:20:47Z</time>
      </trkpt>
      <trkpt lat="44.54107" lon="0.92906">
        <ele>139</ele>
        <time>2011-12-26T10:20:48Z</time>
      </trkpt>
      <trkpt lat="44.54111" lon="0.92912">
        <ele>138</ele>
        <time>2011-12-26T10:20:49Z</time>
      </trkpt>
      <trkpt lat="44.5412" lon="0.92925">
        <ele>137</ele>
        <time>2011-12-26T10:20:54Z</time>
      </trkpt>
      <trkpt lat="44.54134" lon="0.92957">
        <ele>136</ele>
        <time>2011-12-26T10:20:55Z</time>
      </trkpt>
      <trkpt lat="44.54137" lon="0.92967">
        <ele>135</ele>
        <time>2011-12-26T10:20:56Z</time>
      </trkpt>
      <trkpt lat="44.5414" lon="0.92976">
        <ele>134</ele>
        <time>2011-12-26T10:20:57Z</time>
      </trkpt>
      <trkpt lat="44.54159" lon="0.93024">
        <ele>133</ele>
        <time>2011-12-26T10:21:02Z</time>
      </trkpt>
      <trkpt lat="44.54163" lon="0.93032">
        <ele>132</ele>
        <time>2011-12-26T10:21:03Z</time>
      </trkpt>
      <trkpt lat="44.54166" lon="0.93037">
        <ele>131</ele>
        <time>2011-12-26T10:21:04Z</time>
      </trkpt>
      <trkpt lat="44.54174" lon="0.93042">
        <ele>130</ele>
        <time>2011-12-26T10:21:09Z</time>
      </trkpt>
      <trkpt lat="44.54194" lon="0.93035">
        <ele>129</ele>
        <time>2011-12-26T10:21:10Z</time>
      </trkpt>
      <trkpt lat="44.54199" lon="0.93033">
        <ele>128</ele>
        <time>2011-12-26T10:21:11Z</time>
      </trkpt>
      <trkpt lat="44.54205" lon="0.9303">
        <ele>127</ele>
        <time>2011-12-26T10:21:12Z</time>
      </trkpt>
      <trkpt lat="44.54216" lon="0.93026">
        <ele>126</ele>
        <time>2011-12-26T10:21:17Z</time>
      </trkpt>
      <trkpt lat="44.54232" lon="0.93028">
        <ele>125</ele>
        <time>2011-12-26T10:21:18Z</time>
      </trkpt>
      <trkpt lat="44.54234" lon="0.93033">
        <ele>124</ele>
        <time>2011-12-26T10:21:19Z</time>
      </trkpt>
      <trkpt lat="44.54236" lon="0.93038">
        <ele>123</ele>
        <time>2011-12-26T10:21:20Z</time>
      </trkpt>
      <trkpt lat="44.54239" lon="0.9305">
        <ele>122</ele>
        <time>2011-12-26T10:21:26Z</time>
      </trkpt>
      <trkpt lat="44.54254" lon="0.93083">
        <ele>121</ele>
        <time>2011-12-26T10:21:27Z</time>
      </trkpt>
      <trkpt lat="44.54258" lon="0.93089">
        <ele>120</ele>
        <time>2011-12-26T10:21:28Z</time>
      </trkpt>
      <trkpt lat="44.54261" lon="0.93095">
        <ele>119</ele>
        <time>2011-12-26T10:21:29Z</time>
      </trkpt>
      <trkpt lat="44.54275" lon="0.93127">
        <ele>118</ele>
        <time>2011-12-26T10:21:34Z</time>
      </trkpt>
      <trkpt lat="44.54277" lon="0.9313">
        <ele>117</ele>
        <time>2011-12-26T10:21:35Z</time>
      </trkpt>
      <trkpt lat="44.5428" lon="0.93132">
        <ele>116</ele>
        <time>2011-12-26T10:21:36Z</time>
      </trkpt>
      <trkpt lat="44.54287" lon="0.9313">
        <ele>116</ele>
        <time>2011-12-26T10:21:42Z</time>
      </trkpt>
      <trkpt lat="44.54307" lon="0.93114">
        <ele>116</ele>
        <time>2011-12-26T10:21:43Z</time>
      </trkpt>
      <trkpt lat="44.54311" lon="0.93111">
        <ele>116</ele>
        <time>2011-12-26T10:21:44Z</time>
      </trkpt>
      <trkpt lat="44.54314" lon="0.93107">
        <ele>116</ele>
        <time>2011-12-26T10:21:45Z</time>
      </trkpt>
      <trkpt lat="44.54322" lon="0.93101">
        <ele>116</ele>
        <time>2011-12-26T10:21:50Z</time>
      </trkpt>
      <trkpt lat="44.54338" lon="0.93089">
        <ele>116</ele>
        <time>2011-12-26T10:21:51Z</time>
      </trkpt>
      <trkpt lat="44.54342" lon="0.93087">
        <ele>116</ele>
        <time>2011-12-26T10:21:52Z</time>
      </trkpt>
      <trkpt lat="44.5435" lon="0.93084">
        <ele>116</ele>
        <time>2011-12-26T10:21:57Z</time>
      </trkpt>
      <trkpt lat="44.5436" lon="0.93086">
        <ele>116</ele>
        <time>2011-12-26T10:21:58Z</time>
      </trkpt>
      <trkpt lat="44.54362" lon="0.93087">
        <ele>116</ele>
        <time>2011-12-26T10:21:59Z</time>
      </trkpt>
      <trkpt lat="44.54363" lon="0.93089">
        <ele>116</ele>
        <time>2011-12-26T10:22:00Z</time>
      </trkpt>
      <trkpt lat="44.54364" lon="0.93096">
        <ele>116</ele>
        <time>2011-12-26T10:22:06Z</time>
      </trkpt>
      <trkpt lat="44.54364" lon="0.93116">
        <ele>116</ele>
        <time>2011-12-26T10:22:07Z</time>
      </trkpt>
      <trkpt lat="44.54364" lon="0.93121">
        <ele>116</ele>
        <time>2011-12-26T10:22:08Z</time>
      </trkpt>
      <trkpt lat="44.54365" lon="0.93129">
        <ele>116</ele>
        <time>2011-12-26T10:22:13Z</time>
      </trkpt>
      <trkpt lat="44.54367" lon="0.93142">
        <ele>116</ele>
        <time>2011-12-26T10:22:14Z</time>
      </trkpt>
      <trkpt lat="44.54367" lon="0.93146">
        <ele>116</ele>
        <time>2011-12-26T10:22:15Z</time>
      </trkpt>
      <trkpt lat="44.54368" lon="0.93154">
        <ele>116</ele>
        <time>2011-12-26T10:22:20Z</time>
      </trkpt>
      <trkpt lat="44.5437" lon="0.93169">
        <ele>116</ele>
        <time>2011-12-26T10:22:21Z</time>
      </trkpt>
      <trkpt lat="44.5437" lon="0.93173">
        <ele>117</ele>
        <time>2011-12-26T10:22:22Z</time>
      </trkpt>
      <trkpt lat="44.54372" lon="0.93194">
        <ele>117</ele>
        <time>2011-12-26T10:22:27Z</time>
      </trkpt>
      <trkpt lat="44.54374" lon="0.93198">
        <ele>118</ele>
        <time>2011-12-26T10:22:28Z</time>
      </trkpt>
      <trkpt lat="44.54376" lon="0.93202">
        <ele>118</ele>
        <time>2011-12-26T10:22:29Z</time>
      </trkpt>
      <trkpt lat="44.54383" lon="0.93226">
        <ele>118</ele>
        <time>2011-12-26T10:22:34Z</time>
      </trkpt>
      <trkpt lat="44.54385" lon="0.93232">
        <ele>118</ele>
        <time>2011-12-26T10:22:35Z</time>
      </trkpt>
      <trkpt lat="44.54389" lon="0.93244">
        <ele>118</ele>
        <time>2011-12-26T10:22:41Z</time>
      </trkpt>
      <trkpt lat="44.54394" lon="0.93271">
        <ele>118</ele>
        <time>2011-12-26T10:22:41Z</time>
      </trkpt>
      <trkpt lat="44.54395" lon="0.93278">
        <ele>118</ele>
        <time>2011-12-26T10:22:42Z</time>
      </trkpt>
      <trkpt lat="44.54395" lon="0.93285">
        <ele>118</ele>
        <time>2011-12-26T10:22:43Z</time>
      </trkpt>
      <trkpt lat="44.54397" lon="0.93322">
        <ele>118</ele>
        <time>2011-12-26T10:22:48Z</time>
      </trkpt>
      <trkpt lat="44.544" lon="0.93328">
        <ele>118</ele>
        <time>2011-12-26T10:22:49Z</time>
      </trkpt>
      <trkpt lat="44.54404" lon="0.93334">
        <ele>118</ele>
        <time>2011-12-26T10:22:50Z</time>
      </trkpt>
      <trkpt lat="44.54408" lon="0.93338">
        <ele>118</ele>
        <time>2011-12-26T10:22:51Z</time>
      </trkpt>
      <trkpt lat="44.54441" lon="0.93354">
        <ele>118</ele>
        <time>2011-12-26T10:22:57Z</time>
      </trkpt>
      <trkpt lat="44.54448" lon="0.93356">
        <ele>118</ele>
        <time>2011-12-26T10:22:58Z</time>
      </trkpt>
      <trkpt lat="44.54455" lon="0.93358">
        <ele>118</ele>
        <time>2011-12-26T10:22:59Z</time>
      </trkpt>
      <trkpt lat="44.54472" lon="0.93359">
        <ele>117</ele>
        <time>2011-12-26T10:23:04Z</time>
      </trkpt>
      <trkpt lat="44.54513" lon="0.93349">
        <ele>116</ele>
        <time>2011-12-26T10:23:05Z</time>
      </trkpt>
      <trkpt lat="44.54523" lon="0.93346">
        <ele>115</ele>
        <time>2011-12-26T10:23:06Z</time>
      </trkpt>
      <trkpt lat="44.54533" lon="0.93341">
        <ele>114</ele>
        <time>2011-12-26T10:23:07Z</time>
      </trkpt>
      <trkpt lat="44.54552" lon="0.93327">
        <ele>112</ele>
        <time>2011-12-26T10:23:12Z</time>
      </trkpt>
      <trkpt lat="44.54581" lon="0.93295">
        <ele>110</ele>
        <time>2011-12-26T10:23:13Z</time>
      </trkpt>
      <trkpt lat="44.54588" lon="0.93288">
        <ele>109</ele>
        <time>2011-12-26T10:23:14Z</time>
      </trkpt>
      <trkpt lat="44.54611" lon="0.9326">
        <ele>108</ele>
        <time>2011-12-26T10:23:19Z</time>
      </trkpt>
      <trkpt lat="44.54613" lon="0.93257">
        <ele>107</ele>
        <time>2011-12-26T10:23:20Z</time>
      </trkpt>
      <trkpt lat="44.54615" lon="0.93253">
        <ele>106</ele>
        <time>2011-12-26T10:23:26Z</time>
      </trkpt>
      <trkpt lat="44.54614" lon="0.93244">
        <ele>105</ele>
        <time>2011-12-26T10:23:26Z</time>
      </trkpt>
      <trkpt lat="44.54613" lon="0.93241">
        <ele>104</ele>
        <time>2011-12-26T10:23:27Z</time>
      </trkpt>
      <trkpt lat="44.54613" lon="0.93237">
        <ele>104</ele>
        <time>2011-12-26T10:23:28Z</time>
      </trkpt>
      <trkpt lat="44.54614" lon="0.93234">
        <ele>104</ele>
        <time>2011-12-26T10:23:29Z</time>
      </trkpt>
      <trkpt lat="44.54618" lon="0.93227">
        <ele>104</ele>
        <time>2011-12-26T10:23:34Z</time>
      </trkpt>
      <trkpt lat="44.54625" lon="0.93215">
        <ele>104</ele>
        <time>2011-12-26T10:23:35Z</time>
      </trkpt>
      <trkpt lat="44.54627" lon="0.93212">
        <ele>104</ele>
        <time>2011-12-26T10:23:36Z</time>
      </trkpt>
      <trkpt lat="44.54631" lon="0.93205">
        <ele>104</ele>
        <time>2011-12-26T10:23:41Z</time>
      </trkpt>
      <trkpt lat="44.5464" lon="0.93189">
        <ele>104</ele>
        <time>2011-12-26T10:23:42Z</time>
      </trkpt>
      <trkpt lat="44.54642" lon="0.93185">
        <ele>104</ele>
        <time>2011-12-26T10:23:43Z</time>
      </trkpt>
      <trkpt lat="44.54646" lon="0.93175">
        <ele>104</ele>
        <time>2011-12-26T10:23:48Z</time>
      </trkpt>
      <trkpt lat="44.54655" lon="0.93155">
        <ele>104</ele>
        <time>2011-12-26T10:23:49Z</time>
      </trkpt>
      <trkpt lat="44.54657" lon="0.9315">
        <ele>104</ele>
        <time>2011-12-26T10:23:50Z</time>
      </trkpt>
      <trkpt lat="44.54675" lon="0.93128">
        <ele>103</ele>
        <time>2011-12-26T10:23:55Z</time>
      </trkpt>
      <trkpt lat="44.54679" lon="0.93124">
        <ele>103</ele>
        <time>2011-12-26T10:23:56Z</time>
      </trkpt>
      <trkpt lat="44.54684" lon="0.9312">
        <ele>103</ele>
        <time>2011-12-26T10:23:57Z</time>
      </trkpt>
      <trkpt lat="44.54692" lon="0.93114">
        <ele>103</ele>
        <time>2011-12-26T10:24:02Z</time>
      </trkpt>
      <trkpt lat="44.54709" lon="0.93101">
        <ele>103</ele>
        <time>2011-12-26T10:24:03Z</time>
      </trkpt>
      <trkpt lat="44.54713" lon="0.93098">
        <ele>103</ele>
        <time>2011-12-26T10:24:04Z</time>
      </trkpt>
      <trkpt lat="44.54734" lon="0.93084">
        <ele>103</ele>
        <time>2011-12-26T10:24:09Z</time>
      </trkpt>
      <trkpt lat="44.54738" lon="0.93081">
        <ele>103</ele>
        <time>2011-12-26T10:24:10Z</time>
      </trkpt>
      <trkpt lat="44.54743" lon="0.93078">
        <ele>103</ele>
        <time>2011-12-26T10:24:11Z</time>
      </trkpt>
      <trkpt lat="44.54765" lon="0.93059">
        <ele>103</ele>
        <time>2011-12-26T10:24:16Z</time>
      </trkpt>
      <trkpt lat="44.54769" lon="0.93055">
        <ele>103</ele>
        <time>2011-12-26T10:24:17Z</time>
      </trkpt>
      <trkpt lat="44.54773" lon="0.9305">
        <ele>104</ele>
        <time>2011-12-26T10:24:18Z</time>
      </trkpt>
      <trkpt lat="44.54793" lon="0.93028">
        <ele>104</ele>
        <time>2011-12-26T10:24:23Z</time>
      </trkpt>
      <trkpt lat="44.54797" lon="0.93023">
        <ele>104</ele>
        <time>2011-12-26T10:24:24Z</time>
      </trkpt>
      <trkpt lat="44.548" lon="0.93018">
        <ele>104</ele>
        <time>2011-12-26T10:24:25Z</time>
      </trkpt>
      <trkpt lat="44.54817" lon="0.92993">
        <ele>104</ele>
        <time>2011-12-26T10:24:30Z</time>
      </trkpt>
      <trkpt lat="44.54819" lon="0.92988">
        <ele>104</ele>
        <time>2011-12-26T10:24:31Z</time>
      </trkpt>
      <trkpt lat="44.54821" lon="0.92983">
        <ele>104</ele>
        <time>2011-12-26T10:24:32Z</time>
      </trkpt>
      <trkpt lat="44.54831" lon="0.92956">
        <ele>104</ele>
        <time>2011-12-26T10:24:37Z</time>
      </trkpt>
      <trkpt lat="44.54832" lon="0.92951">
        <ele>104</ele>
        <time>2011-12-26T10:24:38Z</time>
      </trkpt>
      <trkpt lat="44.54833" lon="0.92945">
        <ele>104</ele>
        <time>2011-12-26T10:24:39Z</time>
      </trkpt>
      <trkpt lat="44.54837" lon="0.92924">
        <ele>104</ele>
        <time>2011-12-26T10:24:44Z</time>
      </trkpt>
      <trkpt lat="44.54837" lon="0.92921">
        <ele>105</ele>
        <time>2011-12-26T10:24:45Z</time>
      </trkpt>
      <trkpt lat="44.54838" lon="0.92917">
        <ele>106</ele>
        <time>2011-12-26T10:24:46Z</time>
      </trkpt>
      <trkpt lat="44.54836" lon="0.92895">
        <ele>106</ele>
        <time>2011-12-26T10:24:51Z</time>
      </trkpt>
      <trkpt lat="44.54835" lon="0.92889">
        <ele>106</ele>
        <time>2011-12-26T10:24:52Z</time>
      </trkpt>
      <trkpt lat="44.54834" lon="0.92884">
        <ele>107</ele>
        <time>2011-12-26T10:24:53Z</time>
      </trkpt>
      <trkpt lat="44.54833" lon="0.92872">
        <ele>107</ele>
        <time>2011-12-26T10:24:58Z</time>
      </trkpt>
      <trkpt lat="44.54835" lon="0.92848">
        <ele>107</ele>
        <time>2011-12-26T10:24:59Z</time>
      </trkpt>
      <trkpt lat="44.54837" lon="0.92842">
        <ele>107</ele>
        <time>2011-12-26T10:25:00Z</time>
      </trkpt>
      <trkpt lat="44.54838" lon="0.92837">
        <ele>107</ele>
        <time>2011-12-26T10:25:01Z</time>
      </trkpt>
      <trkpt lat="44.54842" lon="0.92825">
        <ele>107</ele>
        <time>2011-12-26T10:25:06Z</time>
      </trkpt>
      <trkpt lat="44.54848" lon="0.92802">
        <ele>107</ele>
        <time>2011-12-26T10:25:07Z</time>
      </trkpt>
      <trkpt lat="44.5485" lon="0.92796">
        <ele>107</ele>
        <time>2011-12-26T10:25:08Z</time>
      </trkpt>
      <trkpt lat="44.54859" lon="0.92771">
        <ele>107</ele>
        <time>2011-12-26T10:25:13Z</time>
      </trkpt>
      <trkpt lat="44.54862" lon="0.92767">
        <ele>107</ele>
        <time>2011-12-26T10:25:14Z</time>
      </trkpt>
      <trkpt lat="44.54865" lon="0.92764">
        <ele>107</ele>
        <time>2011-12-26T10:25:15Z</time>
      </trkpt>
      <trkpt lat="44.54868" lon="0.9276">
        <ele>107</ele>
        <time>2011-12-26T10:25:16Z</time>
      </trkpt>
      <trkpt lat="44.54875" lon="0.92754">
        <ele>107</ele>
        <time>2011-12-26T10:25:21Z</time>
      </trkpt>
      <trkpt lat="44.54889" lon="0.92744">
        <ele>107</ele>
        <time>2011-12-26T10:25:22Z</time>
      </trkpt>
      <trkpt lat="44.54891" lon="0.92743">
        <ele>107</ele>
        <time>2011-12-26T10:25:23Z</time>
      </trkpt>
      <trkpt lat="44.54894" lon="0.92738">
        <ele>107</ele>
        <time>2011-12-26T10:25:28Z</time>
      </trkpt>
      <trkpt lat="44.54902" lon="0.92727">
        <ele>107</ele>
        <time>2011-12-26T10:25:29Z</time>
      </trkpt>
      <trkpt lat="44.54903" lon="0.92724">
        <ele>107</ele>
        <time>2011-12-26T10:25:30Z</time>
      </trkpt>
      <trkpt lat="44.54906" lon="0.92716">
        <ele>107</ele>
        <time>2011-12-26T10:25:35Z</time>
      </trkpt>
      <trkpt lat="44.54911" lon="0.927">
        <ele>107</ele>
        <time>2011-12-26T10:25:36Z</time>
      </trkpt>
      <trkpt lat="44.54912" lon="0.92697">
        <ele>107</ele>
        <time>2011-12-26T10:25:37Z</time>
      </trkpt>
      <trkpt lat="44.54915" lon="0.9269">
        <ele>107</ele>
        <time>2011-12-26T10:25:42Z</time>
      </trkpt>
      <trkpt lat="44.5492" lon="0.92675">
        <ele>107</ele>
        <time>2011-12-26T10:25:43Z</time>
      </trkpt>
      <trkpt lat="44.54922" lon="0.92671">
        <ele>107</ele>
        <time>2011-12-26T10:25:44Z</time>
      </trkpt>
      <trkpt lat="44.54924" lon="0.92663">
        <ele>107</ele>
        <time>2011-12-26T10:25:49Z</time>
      </trkpt>
      <trkpt lat="44.54924" lon="0.9265">
        <ele>107</ele>
        <time>2011-12-26T10:25:50Z</time>
      </trkpt>
      <trkpt lat="44.54924" lon="0.92646">
        <ele>107</ele>
        <time>2011-12-26T10:25:51Z</time>
      </trkpt>
      <trkpt lat="44.54924" lon="0.92642">
        <ele>107</ele>
        <time>2011-12-26T10:25:52Z</time>
      </trkpt>
      <trkpt lat="44.54925" lon="0.92639">
        <ele>107</ele>
        <time>2011-12-26T10:25:53Z</time>
      </trkpt>
      <trkpt lat="44.54927" lon="0.92633">
        <ele>107</ele>
        <time>2011-12-26T10:25:59Z</time>
      </trkpt>
      <trkpt lat="44.5493" lon="0.92622">
        <ele>107</ele>
        <time>2011-12-26T10:25:59Z</time>
      </trkpt>
      <trkpt lat="44.54931" lon="0.92619">
        <ele>107</ele>
        <time>2011-12-26T10:26:00Z</time>
      </trkpt>
      <trkpt lat="44.54934" lon="0.92611">
        <ele>107</ele>
        <time>2011-12-26T10:26:05Z</time>
      </trkpt>
      <trkpt lat="44.5494" lon="0.92596">
        <ele>107</ele>
        <time>2011-12-26T10:26:06Z</time>
      </trkpt>
      <trkpt lat="44.54941" lon="0.92593">
        <ele>107</ele>
        <time>2011-12-26T10:26:07Z</time>
      </trkpt>
      <trkpt lat="44.54944" lon="0.92586">
        <ele>107</ele>
        <time>2011-12-26T10:26:12Z</time>
      </trkpt>
      <trkpt lat="44.54949" lon="0.92574">
        <ele>107</ele>
        <time>2011-12-26T10:26:13Z</time>
      </trkpt>
      <trkpt lat="44.5495" lon="0.9257">
        <ele>107</ele>
        <time>2011-12-26T10:26:14Z</time>
      </trkpt>
      <trkpt lat="44.54954" lon="0.92563">
        <ele>107</ele>
        <time>2011-12-26T10:26:19Z</time>
      </trkpt>
      <trkpt lat="44.54961" lon="0.92546">
        <ele>107</ele>
        <time>2011-12-26T10:26:20Z</time>
      </trkpt>
      <trkpt lat="44.54963" lon="0.92542">
        <ele>107</ele>
        <time>2011-12-26T10:26:21Z</time>
      </trkpt>
      <trkpt lat="44.5497" lon="0.92522">
        <ele>107</ele>
        <time>2011-12-26T10:26:26Z</time>
      </trkpt>
      <trkpt lat="44.54971" lon="0.92518">
        <ele>107</ele>
        <time>2011-12-26T10:26:27Z</time>
      </trkpt>
      <trkpt lat="44.54973" lon="0.92514">
        <ele>107</ele>
        <time>2011-12-26T10:26:28Z</time>
      </trkpt>
      <trkpt lat="44.54979" lon="0.92497">
        <ele>107</ele>
        <time>2011-12-26T10:26:33Z</time>
      </trkpt>
      <trkpt lat="44.5498" lon="0.92493">
        <ele>107</ele>
        <time>2011-12-26T10:26:34Z</time>
      </trkpt>
      <trkpt lat="44.54982" lon="0.9249">
        <ele>107</ele>
        <time>2011-12-26T10:26:35Z</time>
      </trkpt>
      <trkpt lat="44.54984" lon="0.92484">
        <ele>107</ele>
        <time>2011-12-26T10:26:40Z</time>
      </trkpt>
      <trkpt lat="44.54988" lon="0.92472">
        <ele>107</ele>
        <time>2011-12-26T10:26:41Z</time>
      </trkpt>
      <trkpt lat="44.54989" lon="0.92469">
        <ele>107</ele>
        <time>2011-12-26T10:26:42Z</time>
      </trkpt>
      <trkpt lat="44.5499" lon="0.92461">
        <ele>107</ele>
        <time>2011-12-26T10:26:47Z</time>
      </trkpt>
      <trkpt lat="44.54994" lon="0.92444">
        <ele>107</ele>
        <time>2011-12-26T10:26:48Z</time>
      </trkpt>
      <trkpt lat="44.54995" lon="0.92439">
        <ele>107</ele>
        <time>2011-12-26T10:26:49Z</time>
      </trkpt>
      <trkpt lat="44.54998" lon="0.92428">
        <ele>107</ele>
        <time>2011-12-26T10:26:54Z</time>
      </trkpt>
      <trkpt lat="44.55002" lon="0.92407">
        <ele>107</ele>
        <time>2011-12-26T10:26:55Z</time>
      </trkpt>
      <trkpt lat="44.55002" lon="0.92402">
        <ele>107</ele>
        <time>2011-12-26T10:26:56Z</time>
      </trkpt>
      <trkpt lat="44.55001" lon="0.92397">
        <ele>107</ele>
        <time>2011-12-26T10:26:57Z</time>
      </trkpt>
      <trkpt lat="44.54998" lon="0.92374">
        <ele>107</ele>
        <time>2011-12-26T10:27:02Z</time>
      </trkpt>
      <trkpt lat="44.54998" lon="0.92369">
        <ele>107</ele>
        <time>2011-12-26T10:27:03Z</time>
      </trkpt>
      <trkpt lat="44.54997" lon="0.92365">
        <ele>107</ele>
        <time>2011-12-26T10:27:04Z</time>
      </trkpt>
      <trkpt lat="44.54997" lon="0.92357">
        <ele>107</ele>
        <time>2011-12-26T10:27:09Z</time>
      </trkpt>
      <trkpt lat="44.54996" lon="0.92338">
        <ele>107</ele>
        <time>2011-12-26T10:27:10Z</time>
      </trkpt>
      <trkpt lat="44.54996" lon="0.92334">
        <ele>107</ele>
        <time>2011-12-26T10:27:11Z</time>
      </trkpt>
      <trkpt lat="44.54995" lon="0.92323">
        <ele>107</ele>
        <time>2011-12-26T10:27:16Z</time>
      </trkpt>
      <trkpt lat="44.54994" lon="0.92304">
        <ele>107</ele>
        <time>2011-12-26T10:27:17Z</time>
      </trkpt>
      <trkpt lat="44.54994" lon="0.92301">
        <ele>107</ele>
        <time>2011-12-26T10:27:18Z</time>
      </trkpt>
      <trkpt lat="44.54994" lon="0.92294">
        <ele>107</ele>
        <time>2011-12-26T10:27:23Z</time>
      </trkpt>
      <trkpt lat="44.54993" lon="0.92282">
        <ele>107</ele>
        <time>2011-12-26T10:27:24Z</time>
      </trkpt>
      <trkpt lat="44.54993" lon="0.92278">
        <ele>107</ele>
        <time>2011-12-26T10:27:25Z</time>
      </trkpt>
      <trkpt lat="44.54991" lon="0.92258">
        <ele>107</ele>
        <time>2011-12-26T10:27:30Z</time>
      </trkpt>
      <trkpt lat="44.5499" lon="0.92255">
        <ele>107</ele>
        <time>2011-12-26T10:27:31Z</time>
      </trkpt>
      <trkpt lat="44.5499" lon="0.92251">
        <ele>107</ele>
        <time>2011-12-26T10:27:32Z</time>
      </trkpt>
      <trkpt lat="44.54991" lon="0.92233">
        <ele>107</ele>
        <time>2011-12-26T10:27:37Z</time>
      </trkpt>
      <trkpt lat="44.54991" lon="0.92228">
        <ele>107</ele>
        <time>2011-12-26T10:27:38Z</time>
      </trkpt>
      <trkpt lat="44.54991" lon="0.92224">
        <ele>107</ele>
        <time>2011-12-26T10:27:39Z</time>
      </trkpt>
      <trkpt lat="44.54991" lon="0.92204">
        <ele>107</ele>
        <time>2011-12-26T10:27:44Z</time>
      </trkpt>
      <trkpt lat="44.54991" lon="0.92202">
        <ele>107</ele>
        <time>2011-12-26T10:27:45Z</time>
      </trkpt>
      <trkpt lat="44.54991" lon="0.922">
        <ele>107</ele>
        <time>2011-12-26T10:27:46Z</time>
      </trkpt>
      <trkpt lat="44.5499" lon="0.92199">
        <ele>107</ele>
        <time>2011-12-26T10:27:47Z</time>
      </trkpt>
      <trkpt lat="44.5499" lon="0.92193">
        <ele>107</ele>
        <time>2011-12-26T10:27:52Z</time>
      </trkpt>
      <trkpt lat="44.54989" lon="0.92179">
        <ele>107</ele>
        <time>2011-12-26T10:27:53Z</time>
      </trkpt>
      <trkpt lat="44.54989" lon="0.92175">
        <ele>107</ele>
        <time>2011-12-26T10:27:54Z</time>
      </trkpt>
      <trkpt lat="44.54989" lon="0.92158">
        <ele>107</ele>
        <time>2011-12-26T10:27:59Z</time>
      </trkpt>
      <trkpt lat="44.54989" lon="0.92154">
        <ele>107</ele>
        <time>2011-12-26T10:28:00Z</time>
      </trkpt>
      <trkpt lat="44.54989" lon="0.9215">
        <ele>107</ele>
        <time>2011-12-26T10:28:01Z</time>
      </trkpt>
      <trkpt lat="44.5499" lon="0.92143">
        <ele>107</ele>
        <time>2011-12-26T10:28:06Z</time>
      </trkpt>
      <trkpt lat="44.5499" lon="0.92125">
        <ele>107</ele>
        <time>2011-12-26T10:28:07Z</time>
      </trkpt>
      <trkpt lat="44.5499" lon="0.92121">
        <ele>107</ele>
        <time>2011-12-26T10:28:08Z</time>
      </trkpt>
      <trkpt lat="44.54992" lon="0.92103">
        <ele>107</ele>
        <time>2011-12-26T10:28:13Z</time>
      </trkpt>
      <trkpt lat="44.54994" lon="0.921">
        <ele>107</ele>
        <time>2011-12-26T10:28:14Z</time>
      </trkpt>
      <trkpt lat="44.54995" lon="0.92099">
        <ele>107</ele>
        <time>2011-12-26T10:28:15Z</time>
      </trkpt>
      <trkpt lat="44.54997" lon="0.92098">
        <ele>107</ele>
        <time>2011-12-26T10:28:16Z</time>
      </trkpt>
      <trkpt lat="44.55005" lon="0.92102">
        <ele>107</ele>
        <time>2011-12-26T10:28:22Z</time>
      </trkpt>
      <trkpt lat="44.55007" lon="0.92103">
        <ele>107</ele>
        <time>2011-12-26T10:28:41Z</time>
      </trkpt>
      <trkpt lat="44.55008" lon="0.92103">
        <ele>107</ele>
        <time>2011-12-26T10:28:47Z</time>
      </trkpt>
      <trkpt lat="44.55011" lon="0.92106">
        <ele>107</ele>
        <time>2011-12-26T10:28:48Z</time>
      </trkpt>
      <trkpt lat="44.55013" lon="0.92112">
        <ele>107</ele>
        <time>2011-12-26T10:28:56Z</time>
      </trkpt>
      <trkpt lat="44.55012" lon="0.92113">
        <ele>107</ele>
        <time>2011-12-26T10:28:57Z</time>
      </trkpt>
      <trkpt lat="44.55013" lon="0.92118">
        <ele>107</ele>
        <time>2011-12-26T10:29:03Z</time>
      </trkpt>
      <trkpt lat="44.55017" lon="0.92126">
        <ele>108</ele>
        <time>2011-12-26T10:29:04Z</time>
      </trkpt>
      <trkpt lat="44.55018" lon="0.92128">
        <ele>109</ele>
        <time>2011-12-26T10:29:05Z</time>
      </trkpt>
      <trkpt lat="44.55018" lon="0.9213">
        <ele>109</ele>
        <time>2011-12-26T10:29:06Z</time>
      </trkpt>
      <trkpt lat="44.5502" lon="0.92135">
        <ele>110</ele>
        <time>2011-12-26T10:29:11Z</time>
      </trkpt>
      <trkpt lat="44.55023" lon="0.92143">
        <ele>110</ele>
        <time>2011-12-26T10:29:12Z</time>
      </trkpt>
      <trkpt lat="44.55024" lon="0.92145">
        <ele>110</ele>
        <time>2011-12-26T10:29:13Z</time>
      </trkpt>
      <trkpt lat="44.55029" lon="0.9216">
        <ele>110</ele>
        <time>2011-12-26T10:29:19Z</time>
      </trkpt>
      <trkpt lat="44.55029" lon="0.92162">
        <ele>110</ele>
        <time>2011-12-26T10:29:20Z</time>
      </trkpt>
      <trkpt lat="44.5503" lon="0.92167">
        <ele>111</ele>
        <time>2011-12-26T10:29:25Z</time>
      </trkpt>
      <trkpt lat="44.55033" lon="0.92176">
        <ele>111</ele>
        <time>2011-12-26T10:29:26Z</time>
      </trkpt>
      <trkpt lat="44.55033" lon="0.92178">
        <ele>112</ele>
        <time>2011-12-26T10:29:27Z</time>
      </trkpt>
      <trkpt lat="44.55033" lon="0.92181">
        <ele>113</ele>
        <time>2011-12-26T10:29:28Z</time>
      </trkpt>
      <trkpt lat="44.55035" lon="0.92186">
        <ele>113</ele>
        <time>2011-12-26T10:29:34Z</time>
      </trkpt>
      <trkpt lat="44.55045" lon="0.92197">
        <ele>113</ele>
        <time>2011-12-26T10:29:35Z</time>
      </trkpt>
      <trkpt lat="44.55048" lon="0.92199">
        <ele>113</ele>
        <time>2011-12-26T10:29:36Z</time>
      </trkpt>
      <trkpt lat="44.55051" lon="0.922">
        <ele>113</ele>
        <time>2011-12-26T10:29:37Z</time>
      </trkpt>
      <trkpt lat="44.55057" lon="0.92204">
        <ele>113</ele>
        <time>2011-12-26T10:29:42Z</time>
      </trkpt>
      <trkpt lat="44.5507" lon="0.92211">
        <ele>113</ele>
        <time>2011-12-26T10:29:43Z</time>
      </trkpt>
      <trkpt lat="44.55073" lon="0.92213">
        <ele>113</ele>
        <time>2011-12-26T10:29:44Z</time>
      </trkpt>
      <trkpt lat="44.55079" lon="0.92216">
        <ele>113</ele>
        <time>2011-12-26T10:29:49Z</time>
      </trkpt>
      <trkpt lat="44.55091" lon="0.92223">
        <ele>113</ele>
        <time>2011-12-26T10:29:50Z</time>
      </trkpt>
      <trkpt lat="44.55094" lon="0.92225">
        <ele>113</ele>
        <time>2011-12-26T10:29:51Z</time>
      </trkpt>
      <trkpt lat="44.551" lon="0.92229">
        <ele>113</ele>
        <time>2011-12-26T10:29:56Z</time>
      </trkpt>
      <trkpt lat="44.55111" lon="0.92235">
        <ele>113</ele>
        <time>2011-12-26T10:29:57Z</time>
      </trkpt>
      <trkpt lat="44.55113" lon="0.92237">
        <ele>112</ele>
        <time>2011-12-26T10:29:58Z</time>
      </trkpt>
      <trkpt lat="44.55119" lon="0.92239">
        <ele>112</ele>
        <time>2011-12-26T10:30:03Z</time>
      </trkpt>
      <trkpt lat="44.5513" lon="0.92244">
        <ele>112</ele>
        <time>2011-12-26T10:30:04Z</time>
      </trkpt>
      <trkpt lat="44.55133" lon="0.92245">
        <ele>111</ele>
        <time>2011-12-26T10:30:05Z</time>
      </trkpt>
      <trkpt lat="44.5514" lon="0.92247">
        <ele>111</ele>
        <time>2011-12-26T10:30:10Z</time>
      </trkpt>
      <trkpt lat="44.55146" lon="0.92259">
        <ele>111</ele>
        <time>2011-12-26T10:30:11Z</time>
      </trkpt>
      <trkpt lat="44.55146" lon="0.92263">
        <ele>111</ele>
        <time>2011-12-26T10:30:12Z</time>
      </trkpt>
      <trkpt lat="44.55146" lon="0.92268">
        <ele>111</ele>
        <time>2011-12-26T10:30:13Z</time>
      </trkpt>
      <trkpt lat="44.55146" lon="0.92277">
        <ele>111</ele>
        <time>2011-12-26T10:30:18Z</time>
      </trkpt>
      <trkpt lat="44.55138" lon="0.92292">
        <ele>111</ele>
        <time>2011-12-26T10:30:19Z</time>
      </trkpt>
      <trkpt lat="44.55135" lon="0.92296">
        <ele>111</ele>
        <time>2011-12-26T10:30:20Z</time>
      </trkpt>
      <trkpt lat="44.55133" lon="0.92299">
        <ele>111</ele>
        <time>2011-12-26T10:30:21Z</time>
      </trkpt>
      <trkpt lat="44.55127" lon="0.92305">
        <ele>111</ele>
        <time>2011-12-26T10:30:26Z</time>
      </trkpt>
      <trkpt lat="44.55116" lon="0.92318">
        <ele>111</ele>
        <time>2011-12-26T10:30:27Z</time>
      </trkpt>
      <trkpt lat="44.55113" lon="0.92321">
        <ele>111</ele>
        <time>2011-12-26T10:30:28Z</time>
      </trkpt>
      <trkpt lat="44.55107" lon="0.92327">
        <ele>111</ele>
        <time>2011-12-26T10:30:33Z</time>
      </trkpt>
      <trkpt lat="44.55097" lon="0.92342">
        <ele>111</ele>
        <time>2011-12-26T10:30:34Z</time>
      </trkpt>
      <trkpt lat="44.55095" lon="0.92347">
        <ele>111</ele>
        <time>2011-12-26T10:30:35Z</time>
      </trkpt>
      <trkpt lat="44.55095" lon="0.92352">
        <ele>111</ele>
        <time>2011-12-26T10:30:36Z</time>
      </trkpt>
      <trkpt lat="44.55095" lon="0.92363">
        <ele>111</ele>
        <time>2011-12-26T10:30:42Z</time>
      </trkpt>
      <trkpt lat="44.55092" lon="0.92392">
        <ele>111</ele>
        <time>2011-12-26T10:30:43Z</time>
      </trkpt>
      <trkpt lat="44.55093" lon="0.92403">
        <ele>111</ele>
        <time>2011-12-26T10:30:49Z</time>
      </trkpt>
      <trkpt lat="44.55091" lon="0.92421">
        <ele>111</ele>
        <time>2011-12-26T10:30:49Z</time>
      </trkpt>
      <trkpt lat="44.55092" lon="0.92425">
        <ele>111</ele>
        <time>2011-12-26T10:30:50Z</time>
      </trkpt>
      <trkpt lat="44.55093" lon="0.92436">
        <ele>112</ele>
        <time>2011-12-26T10:30:56Z</time>
      </trkpt>
      <trkpt lat="44.55094" lon="0.92457">
        <ele>112</ele>
        <time>2011-12-26T10:30:56Z</time>
      </trkpt>
      <trkpt lat="44.55095" lon="0.92463">
        <ele>113</ele>
        <time>2011-12-26T10:30:57Z</time>
      </trkpt>
      <trkpt lat="44.55094" lon="0.92474">
        <ele>113</ele>
        <time>2011-12-26T10:31:02Z</time>
      </trkpt>
      <trkpt lat="44.55094" lon="0.92498">
        <ele>113</ele>
        <time>2011-12-26T10:31:03Z</time>
      </trkpt>
      <trkpt lat="44.55094" lon="0.92504">
        <ele>113</ele>
        <time>2011-12-26T10:31:04Z</time>
      </trkpt>
      <trkpt lat="44.55095" lon="0.92516">
        <ele>113</ele>
        <time>2011-12-26T10:31:09Z</time>
      </trkpt>
      <trkpt lat="44.55098" lon="0.92538">
        <ele>113</ele>
        <time>2011-12-26T10:31:10Z</time>
      </trkpt>
      <trkpt lat="44.55099" lon="0.92544">
        <ele>114</ele>
        <time>2011-12-26T10:31:11Z</time>
      </trkpt>
      <trkpt lat="44.55101" lon="0.92555">
        <ele>115</ele>
        <time>2011-12-26T10:31:16Z</time>
      </trkpt>
      <trkpt lat="44.55102" lon="0.92575">
        <ele>116</ele>
        <time>2011-12-26T10:31:17Z</time>
      </trkpt>
      <trkpt lat="44.55102" lon="0.9258">
        <ele>117</ele>
        <time>2011-12-26T10:31:18Z</time>
      </trkpt>
      <trkpt lat="44.55102" lon="0.92591">
        <ele>117</ele>
        <time>2011-12-26T10:31:23Z</time>
      </trkpt>
      <trkpt lat="44.55101" lon="0.92612">
        <ele>118</ele>
        <time>2011-12-26T10:31:24Z</time>
      </trkpt>
      <trkpt lat="44.551" lon="0.92618">
        <ele>119</ele>
        <time>2011-12-26T10:31:25Z</time>
      </trkpt>
      <trkpt lat="44.55101" lon="0.92629">
        <ele>119</ele>
        <time>2011-12-26T10:31:30Z</time>
      </trkpt>
      <trkpt lat="44.55101" lon="0.9265">
        <ele>120</ele>
        <time>2011-12-26T10:31:31Z</time>
      </trkpt>
      <trkpt lat="44.55101" lon="0.92654">
        <ele>121</ele>
        <time>2011-12-26T10:31:32Z</time>
      </trkpt>
      <trkpt lat="44.55101" lon="0.92662">
        <ele>121</ele>
        <time>2011-12-26T10:31:37Z</time>
      </trkpt>
      <trkpt lat="44.55101" lon="0.92667">
        <ele>122</ele>
        <time>2011-12-26T10:31:38Z</time>
      </trkpt>
      <trkpt lat="44.55102" lon="0.92668">
        <ele>122</ele>
        <time>2011-12-26T10:31:46Z</time>
      </trkpt>
      <trkpt lat="44.55104" lon="0.92669">
        <ele>122</ele>
        <time>2011-12-26T10:31:52Z</time>
      </trkpt>
      <trkpt lat="44.55104" lon="0.92676">
        <ele>122</ele>
        <time>2011-12-26T10:32:13Z</time>
      </trkpt>
      <trkpt lat="44.55104" lon="0.92678">
        <ele>122</ele>
        <time>2011-12-26T10:32:18Z</time>
      </trkpt>
      <trkpt lat="44.55099" lon="0.92689">
        <ele>122</ele>
        <time>2011-12-26T10:32:24Z</time>
      </trkpt>
      <trkpt lat="44.55098" lon="0.92693">
        <ele>122</ele>
        <time>2011-12-26T10:32:25Z</time>
      </trkpt>
      <trkpt lat="44.55096" lon="0.92696">
        <ele>121</ele>
        <time>2011-12-26T10:32:26Z</time>
      </trkpt>
      <trkpt lat="44.55092" lon="0.92703">
        <ele>120</ele>
        <time>2011-12-26T10:32:31Z</time>
      </trkpt>
      <trkpt lat="44.55083" lon="0.92724">
        <ele>119</ele>
        <time>2011-12-26T10:32:32Z</time>
      </trkpt>
      <trkpt lat="44.55081" lon="0.9273">
        <ele>119</ele>
        <time>2011-12-26T10:32:33Z</time>
      </trkpt>
      <trkpt lat="44.55077" lon="0.9274">
        <ele>118</ele>
        <time>2011-12-26T10:32:38Z</time>
      </trkpt>
      <trkpt lat="44.55069" lon="0.92759">
        <ele>118</ele>
        <time>2011-12-26T10:32:39Z</time>
      </trkpt>
      <trkpt lat="44.55067" lon="0.92764">
        <ele>118</ele>
        <time>2011-12-26T10:32:40Z</time>
      </trkpt>
      <trkpt lat="44.55065" lon="0.9277">
        <ele>118</ele>
        <time>2011-12-26T10:32:45Z</time>
      </trkpt>
      <trkpt lat="44.55059" lon="0.92786">
        <ele>118</ele>
        <time>2011-12-26T10:32:46Z</time>
      </trkpt>
      <trkpt lat="44.55057" lon="0.9279">
        <ele>118</ele>
        <time>2011-12-26T10:32:47Z</time>
      </trkpt>
      <trkpt lat="44.55054" lon="0.92799">
        <ele>118</ele>
        <time>2011-12-26T10:32:52Z</time>
      </trkpt>
      <trkpt lat="44.5505" lon="0.9282">
        <ele>118</ele>
        <time>2011-12-26T10:32:53Z</time>
      </trkpt>
      <trkpt lat="44.55049" lon="0.92824">
        <ele>118</ele>
        <time>2011-12-26T10:32:54Z</time>
      </trkpt>
      <trkpt lat="44.55048" lon="0.92831">
        <ele>118</ele>
        <time>2011-12-26T10:32:59Z</time>
      </trkpt>
      <trkpt lat="44.55042" lon="0.92845">
        <ele>118</ele>
        <time>2011-12-26T10:33:00Z</time>
      </trkpt>
      <trkpt lat="44.5504" lon="0.92849">
        <ele>118</ele>
        <time>2011-12-26T10:33:01Z</time>
      </trkpt>
      <trkpt lat="44.55036" lon="0.92857">
        <ele>118</ele>
        <time>2011-12-26T10:33:07Z</time>
      </trkpt>
      <trkpt lat="44.55026" lon="0.92879">
        <ele>118</ele>
        <time>2011-12-26T10:33:08Z</time>
      </trkpt>
      <trkpt lat="44.55022" lon="0.92888">
        <ele>118</ele>
        <time>2011-12-26T10:33:13Z</time>
      </trkpt>
      <trkpt lat="44.55016" lon="0.92907">
        <ele>118</ele>
        <time>2011-12-26T10:33:14Z</time>
      </trkpt>
      <trkpt lat="44.55014" lon="0.92912">
        <ele>118</ele>
        <time>2011-12-26T10:33:15Z</time>
      </trkpt>
      <trkpt lat="44.5501" lon="0.92922">
        <ele>118</ele>
        <time>2011-12-26T10:33:20Z</time>
      </trkpt>
      <trkpt lat="44.55003" lon="0.92944">
        <ele>118</ele>
        <time>2011-12-26T10:33:21Z</time>
      </trkpt>
      <trkpt lat="44.55" lon="0.92949">
        <ele>118</ele>
        <time>2011-12-26T10:33:22Z</time>
      </trkpt>
      <trkpt lat="44.54995" lon="0.92959">
        <ele>118</ele>
        <time>2011-12-26T10:33:27Z</time>
      </trkpt>
      <trkpt lat="44.54986" lon="0.92979">
        <ele>117</ele>
        <time>2011-12-26T10:33:28Z</time>
      </trkpt>
      <trkpt lat="44.54984" lon="0.92984">
        <ele>116</ele>
        <time>2011-12-26T10:33:29Z</time>
      </trkpt>
      <trkpt lat="44.54979" lon="0.92993">
        <ele>115</ele>
        <time>2011-12-26T10:33:34Z</time>
      </trkpt>
      <trkpt lat="44.54969" lon="0.93011">
        <ele>115</ele>
        <time>2011-12-26T10:33:35Z</time>
      </trkpt>
      <trkpt lat="44.54966" lon="0.93016">
        <ele>114</ele>
        <time>2011-12-26T10:33:36Z</time>
      </trkpt>
      <trkpt lat="44.5496" lon="0.93027">
        <ele>113</ele>
        <time>2011-12-26T10:33:41Z</time>
      </trkpt>
      <trkpt lat="44.5495" lon="0.93051">
        <ele>112</ele>
        <time>2011-12-26T10:33:42Z</time>
      </trkpt>
      <trkpt lat="44.54948" lon="0.93059">
        <ele>111</ele>
        <time>2011-12-26T10:33:43Z</time>
      </trkpt>
      <trkpt lat="44.54943" lon="0.93073">
        <ele>110</ele>
        <time>2011-12-26T10:33:48Z</time>
      </trkpt>
      <trkpt lat="44.54931" lon="0.93103">
        <ele>110</ele>
        <time>2011-12-26T10:33:49Z</time>
      </trkpt>
      <trkpt lat="44.54927" lon="0.9311">
        <ele>109</ele>
        <time>2011-12-26T10:33:50Z</time>
      </trkpt>
      <trkpt lat="44.5492" lon="0.93121">
        <ele>109</ele>
        <time>2011-12-26T10:33:55Z</time>
      </trkpt>
      <trkpt lat="44.54903" lon="0.93142">
        <ele>109</ele>
        <time>2011-12-26T10:33:56Z</time>
      </trkpt>
      <trkpt lat="44.54898" lon="0.93147">
        <ele>109</ele>
        <time>2011-12-26T10:33:57Z</time>
      </trkpt>
      <trkpt lat="44.5489" lon="0.93155">
        <ele>109</ele>
        <time>2011-12-26T10:34:02Z</time>
      </trkpt>
      <trkpt lat="44.54874" lon="0.93172">
        <ele>109</ele>
        <time>2011-12-26T10:34:03Z</time>
      </trkpt>
      <trkpt lat="44.54869" lon="0.93176">
        <ele>109</ele>
        <time>2011-12-26T10:34:04Z</time>
      </trkpt>
      <trkpt lat="44.54861" lon="0.93185">
        <ele>109</ele>
        <time>2011-12-26T10:34:09Z</time>
      </trkpt>
      <trkpt lat="44.54846" lon="0.93202">
        <ele>109</ele>
        <time>2011-12-26T10:34:10Z</time>
      </trkpt>
      <trkpt lat="44.54842" lon="0.93206">
        <ele>109</ele>
        <time>2011-12-26T10:34:11Z</time>
      </trkpt>
      <trkpt lat="44.54834" lon="0.93216">
        <ele>109</ele>
        <time>2011-12-26T10:34:16Z</time>
      </trkpt>
      <trkpt lat="44.54819" lon="0.93233">
        <ele>109</ele>
        <time>2011-12-26T10:34:17Z</time>
      </trkpt>
      <trkpt lat="44.54815" lon="0.93238">
        <ele>109</ele>
        <time>2011-12-26T10:34:18Z</time>
      </trkpt>
      <trkpt lat="44.54807" lon="0.93247">
        <ele>109</ele>
        <time>2011-12-26T10:34:23Z</time>
      </trkpt>
      <trkpt lat="44.54792" lon="0.93266">
        <ele>109</ele>
        <time>2011-12-26T10:34:24Z</time>
      </trkpt>
      <trkpt lat="44.54788" lon="0.93271">
        <ele>108</ele>
        <time>2011-12-26T10:34:25Z</time>
      </trkpt>
      <trkpt lat="44.5478" lon="0.93281">
        <ele>108</ele>
        <time>2011-12-26T10:34:30Z</time>
      </trkpt>
      <trkpt lat="44.54765" lon="0.933">
        <ele>107</ele>
        <time>2011-12-26T10:34:31Z</time>
      </trkpt>
      <trkpt lat="44.54761" lon="0.93305">
        <ele>107</ele>
        <time>2011-12-26T10:34:32Z</time>
      </trkpt>
      <trkpt lat="44.54753" lon="0.93315">
        <ele>106</ele>
        <time>2011-12-26T10:34:37Z</time>
      </trkpt>
      <trkpt lat="44.54738" lon="0.93334">
        <ele>106</ele>
        <time>2011-12-26T10:34:38Z</time>
      </trkpt>
      <trkpt lat="44.54734" lon="0.93339">
        <ele>105</ele>
        <time>2011-12-26T10:34:39Z</time>
      </trkpt>
      <trkpt lat="44.54726" lon="0.93348">
        <ele>105</ele>
        <time>2011-12-26T10:34:44Z</time>
      </trkpt>
      <trkpt lat="44.5471" lon="0.93367">
        <ele>105</ele>
        <time>2011-12-26T10:34:45Z</time>
      </trkpt>
      <trkpt lat="44.54706" lon="0.93372">
        <ele>105</ele>
        <time>2011-12-26T10:34:46Z</time>
      </trkpt>
      <trkpt lat="44.54697" lon="0.93382">
        <ele>105</ele>
        <time>2011-12-26T10:34:51Z</time>
      </trkpt>
      <trkpt lat="44.54688" lon="0.93406">
        <ele>105</ele>
        <time>2011-12-26T10:34:52Z</time>
      </trkpt>
      <trkpt lat="44.54689" lon="0.93413">
        <ele>105</ele>
        <time>2011-12-26T10:34:53Z</time>
      </trkpt>
      <trkpt lat="44.54689" lon="0.9342">
        <ele>105</ele>
        <time>2011-12-26T10:34:54Z</time>
      </trkpt>
      <trkpt lat="44.54688" lon="0.93432">
        <ele>105</ele>
        <time>2011-12-26T10:34:59Z</time>
      </trkpt>
      <trkpt lat="44.54684" lon="0.93457">
        <ele>105</ele>
        <time>2011-12-26T10:35:00Z</time>
      </trkpt>
      <trkpt lat="44.54682" lon="0.93462">
        <ele>105</ele>
        <time>2011-12-26T10:35:01Z</time>
      </trkpt>
      <trkpt lat="44.54681" lon="0.93467">
        <ele>105</ele>
        <time>2011-12-26T10:35:02Z</time>
      </trkpt>
      <trkpt lat="44.54676" lon="0.93477">
        <ele>105</ele>
        <time>2011-12-26T10:35:07Z</time>
      </trkpt>
      <trkpt lat="44.54669" lon="0.93496">
        <ele>105</ele>
        <time>2011-12-26T10:35:08Z</time>
      </trkpt>
      <trkpt lat="44.54667" lon="0.93501">
        <ele>105</ele>
        <time>2011-12-26T10:35:09Z</time>
      </trkpt>
      <trkpt lat="44.54663" lon="0.9351">
        <ele>105</ele>
        <time>2011-12-26T10:35:14Z</time>
      </trkpt>
      <trkpt lat="44.54656" lon="0.93529">
        <ele>106</ele>
        <time>2011-12-26T10:35:15Z</time>
      </trkpt>
      <trkpt lat="44.54655" lon="0.93534">
        <ele>106</ele>
        <time>2011-12-26T10:35:16Z</time>
      </trkpt>
      <trkpt lat="44.54652" lon="0.93543">
        <ele>107</ele>
        <time>2011-12-26T10:35:21Z</time>
      </trkpt>
      <trkpt lat="44.54646" lon="0.93561">
        <ele>107</ele>
        <time>2011-12-26T10:35:22Z</time>
      </trkpt>
      <trkpt lat="44.54644" lon="0.93565">
        <ele>108</ele>
        <time>2011-12-26T10:35:23Z</time>
      </trkpt>
      <trkpt lat="44.54642" lon="0.93574">
        <ele>108</ele>
        <time>2011-12-26T10:35:28Z</time>
      </trkpt>
      <trkpt lat="44.54636" lon="0.93591">
        <ele>109</ele>
        <time>2011-12-26T10:35:29Z</time>
      </trkpt>
      <trkpt lat="44.54635" lon="0.93595">
        <ele>109</ele>
        <time>2011-12-26T10:35:30Z</time>
      </trkpt>
      <trkpt lat="44.54632" lon="0.93604">
        <ele>109</ele>
        <time>2011-12-26T10:35:35Z</time>
      </trkpt>
      <trkpt lat="44.54627" lon="0.93622">
        <ele>110</ele>
        <time>2011-12-26T10:35:36Z</time>
      </trkpt>
      <trkpt lat="44.54626" lon="0.93626">
        <ele>111</ele>
        <time>2011-12-26T10:35:37Z</time>
      </trkpt>
      <trkpt lat="44.54624" lon="0.93634">
        <ele>111</ele>
        <time>2011-12-26T10:35:42Z</time>
      </trkpt>
      <trkpt lat="44.54622" lon="0.93651">
        <ele>112</ele>
        <time>2011-12-26T10:35:43Z</time>
      </trkpt>
      <trkpt lat="44.54621" lon="0.93656">
        <ele>112</ele>
        <time>2011-12-26T10:35:44Z</time>
      </trkpt>
      <trkpt lat="44.54621" lon="0.93664">
        <ele>113</ele>
        <time>2011-12-26T10:35:49Z</time>
      </trkpt>
      <trkpt lat="44.5462" lon="0.93682">
        <ele>114</ele>
        <time>2011-12-26T10:35:50Z</time>
      </trkpt>
      <trkpt lat="44.5462" lon="0.93687">
        <ele>114</ele>
        <time>2011-12-26T10:35:51Z</time>
      </trkpt>
      <trkpt lat="44.5462" lon="0.93696">
        <ele>115</ele>
        <time>2011-12-26T10:35:56Z</time>
      </trkpt>
      <trkpt lat="44.5462" lon="0.93713">
        <ele>116</ele>
        <time>2011-12-26T10:35:57Z</time>
      </trkpt>
      <trkpt lat="44.5462" lon="0.93718">
        <ele>117</ele>
        <time>2011-12-26T10:35:58Z</time>
      </trkpt>
      <trkpt lat="44.5462" lon="0.93727">
        <ele>117</ele>
        <time>2011-12-26T10:36:03Z</time>
      </trkpt>
      <trkpt lat="44.5462" lon="0.93745">
        <ele>118</ele>
        <time>2011-12-26T10:36:04Z</time>
      </trkpt>
      <trkpt lat="44.5462" lon="0.93749">
        <ele>118</ele>
        <time>2011-12-26T10:36:05Z</time>
      </trkpt>
      <trkpt lat="44.54621" lon="0.93758">
        <ele>118</ele>
        <time>2011-12-26T10:36:10Z</time>
      </trkpt>
      <trkpt lat="44.54621" lon="0.93776">
        <ele>119</ele>
        <time>2011-12-26T10:36:11Z</time>
      </trkpt>
      <trkpt lat="44.54621" lon="0.9378">
        <ele>119</ele>
        <time>2011-12-26T10:36:12Z</time>
      </trkpt>
      <trkpt lat="44.54621" lon="0.9379">
        <ele>119</ele>
        <time>2011-12-26T10:36:17Z</time>
      </trkpt>
      <trkpt lat="44.54622" lon="0.93807">
        <ele>120</ele>
        <time>2011-12-26T10:36:18Z</time>
      </trkpt>
      <trkpt lat="44.54622" lon="0.93812">
        <ele>120</ele>
        <time>2011-12-26T10:36:19Z</time>
      </trkpt>
      <trkpt lat="44.54622" lon="0.93821">
        <ele>121</ele>
        <time>2011-12-26T10:36:24Z</time>
      </trkpt>
      <trkpt lat="44.54623" lon="0.93839">
        <ele>121</ele>
        <time>2011-12-26T10:36:25Z</time>
      </trkpt>
      <trkpt lat="44.54622" lon="0.93843">
        <ele>122</ele>
        <time>2011-12-26T10:36:26Z</time>
      </trkpt>
      <trkpt lat="44.54622" lon="0.93852">
        <ele>122</ele>
        <time>2011-12-26T10:36:31Z</time>
      </trkpt>
      <trkpt lat="44.54622" lon="0.93867">
        <ele>123</ele>
        <time>2011-12-26T10:36:32Z</time>
      </trkpt>
      <trkpt lat="44.54622" lon="0.93872">
        <ele>123</ele>
        <time>2011-12-26T10:36:33Z</time>
      </trkpt>
      <trkpt lat="44.54622" lon="0.93879">
        <ele>124</ele>
        <time>2011-12-26T10:36:38Z</time>
      </trkpt>
      <trkpt lat="44.54621" lon="0.93896">
        <ele>124</ele>
        <time>2011-12-26T10:36:39Z</time>
      </trkpt>
      <trkpt lat="44.54621" lon="0.939">
        <ele>125</ele>
        <time>2011-12-26T10:36:40Z</time>
      </trkpt>
      <trkpt lat="44.5462" lon="0.93909">
        <ele>125</ele>
        <time>2011-12-26T10:36:45Z</time>
      </trkpt>
      <trkpt lat="44.54619" lon="0.93926">
        <ele>126</ele>
        <time>2011-12-26T10:36:46Z</time>
      </trkpt>
      <trkpt lat="44.54619" lon="0.9393">
        <ele>126</ele>
        <time>2011-12-26T10:36:47Z</time>
      </trkpt>
      <trkpt lat="44.54619" lon="0.93938">
        <ele>126</ele>
        <time>2011-12-26T10:36:52Z</time>
      </trkpt>
      <trkpt lat="44.54617" lon="0.93955">
        <ele>127</ele>
        <time>2011-12-26T10:36:53Z</time>
      </trkpt>
      <trkpt lat="44.54617" lon="0.9396">
        <ele>127</ele>
        <time>2011-12-26T10:36:54Z</time>
      </trkpt>
      <trkpt lat="44.54617" lon="0.93968">
        <ele>127</ele>
        <time>2011-12-26T10:36:59Z</time>
      </trkpt>
      <trkpt lat="44.54615" lon="0.93982">
        <ele>128</ele>
        <time>2011-12-26T10:37:00Z</time>
      </trkpt>
      <trkpt lat="44.54614" lon="0.93985">
        <ele>128</ele>
        <time>2011-12-26T10:37:01Z</time>
      </trkpt>
      <trkpt lat="44.54613" lon="0.93992">
        <ele>129</ele>
        <time>2011-12-26T10:37:06Z</time>
      </trkpt>
      <trkpt lat="44.54613" lon="0.94005">
        <ele>129</ele>
        <time>2011-12-26T10:37:07Z</time>
      </trkpt>
      <trkpt lat="44.54612" lon="0.94009">
        <ele>129</ele>
        <time>2011-12-26T10:37:08Z</time>
      </trkpt>
      <trkpt lat="44.5461" lon="0.94019">
        <ele>129</ele>
        <time>2011-12-26T10:37:13Z</time>
      </trkpt>
      <trkpt lat="44.546" lon="0.94041">
        <ele>129</ele>
        <time>2011-12-26T10:37:14Z</time>
      </trkpt>
      <trkpt lat="44.54595" lon="0.94046">
        <ele>129</ele>
        <time>2011-12-26T10:37:15Z</time>
      </trkpt>
      <trkpt lat="44.5459" lon="0.94051">
        <ele>129</ele>
        <time>2011-12-26T10:37:16Z</time>
      </trkpt>
      <trkpt lat="44.54578" lon="0.9406">
        <ele>129</ele>
        <time>2011-12-26T10:37:22Z</time>
      </trkpt>
      <trkpt lat="44.54546" lon="0.94089">
        <ele>129</ele>
        <time>2011-12-26T10:37:23Z</time>
      </trkpt>
      <trkpt lat="44.54541" lon="0.94098">
        <ele>129</ele>
        <time>2011-12-26T10:37:24Z</time>
      </trkpt>
      <trkpt lat="44.54538" lon="0.9412">
        <ele>129</ele>
        <time>2011-12-26T10:37:30Z</time>
      </trkpt>
      <trkpt lat="44.54553" lon="0.94181">
        <ele>128</ele>
        <time>2011-12-26T10:37:31Z</time>
      </trkpt>
      <trkpt lat="44.54557" lon="0.94193">
        <ele>127</ele>
        <time>2011-12-26T10:37:32Z</time>
      </trkpt>
      <trkpt lat="44.54565" lon="0.94218">
        <ele>126</ele>
        <time>2011-12-26T10:37:38Z</time>
      </trkpt>
      <trkpt lat="44.54571" lon="0.94289">
        <ele>125</ele>
        <time>2011-12-26T10:37:39Z</time>
      </trkpt>
      <trkpt lat="44.54567" lon="0.94301">
        <ele>124</ele>
        <time>2011-12-26T10:37:40Z</time>
      </trkpt>
      <trkpt lat="44.54559" lon="0.94326">
        <ele>123</ele>
        <time>2011-12-26T10:37:46Z</time>
      </trkpt>
      <trkpt lat="44.54564" lon="0.9439">
        <ele>121</ele>
        <time>2011-12-26T10:37:47Z</time>
      </trkpt>
      <trkpt lat="44.54568" lon="0.94403">
        <ele>119</ele>
        <time>2011-12-26T10:37:48Z</time>
      </trkpt>
      <trkpt lat="44.54576" lon="0.94428">
        <ele>117</ele>
        <time>2011-12-26T10:37:54Z</time>
      </trkpt>
      <trkpt lat="44.54598" lon="0.94484">
        <ele>115</ele>
        <time>2011-12-26T10:37:55Z</time>
      </trkpt>
      <trkpt lat="44.54599" lon="0.94505">
        <ele>113</ele>
        <time>2011-12-26T10:38:01Z</time>
      </trkpt>
      <trkpt lat="44.54596" lon="0.94532">
        <ele>111</ele>
        <time>2011-12-26T10:38:01Z</time>
      </trkpt>
      <trkpt lat="44.54599" lon="0.94536">
        <ele>109</ele>
        <time>2011-12-26T10:38:02Z</time>
      </trkpt>
      <trkpt lat="44.54602" lon="0.94539">
        <ele>107</ele>
        <time>2011-12-26T10:38:03Z</time>
      </trkpt>
      <trkpt lat="44.54604" lon="0.9454">
        <ele>106</ele>
        <time>2011-12-26T10:38:04Z</time>
      </trkpt>
      <trkpt lat="44.54611" lon="0.94542">
        <ele>105</ele>
        <time>2011-12-26T10:38:10Z</time>
      </trkpt>
      <trkpt lat="44.54625" lon="0.94549">
        <ele>104</ele>
        <time>2011-12-26T10:38:11Z</time>
      </trkpt>
      <trkpt lat="44.54631" lon="0.94553">
        <ele>103</ele>
        <time>2011-12-26T10:38:17Z</time>
      </trkpt>
      <trkpt lat="44.54641" lon="0.94563">
        <ele>103</ele>
        <time>2011-12-26T10:38:17Z</time>
      </trkpt>
      <trkpt lat="44.54643" lon="0.94565">
        <ele>103</ele>
        <time>2011-12-26T10:38:18Z</time>
      </trkpt>
      <trkpt lat="44.54648" lon="0.9457">
        <ele>103</ele>
        <time>2011-12-26T10:38:24Z</time>
      </trkpt>
      <trkpt lat="44.54655" lon="0.94583">
        <ele>103</ele>
        <time>2011-12-26T10:38:24Z</time>
      </trkpt>
      <trkpt lat="44.54656" lon="0.94587">
        <ele>103</ele>
        <time>2011-12-26T10:38:25Z</time>
      </trkpt>
      <trkpt lat="44.54656" lon="0.94591">
        <ele>103</ele>
        <time>2011-12-26T10:38:26Z</time>
      </trkpt>
      <trkpt lat="44.54655" lon="0.94595">
        <ele>103</ele>
        <time>2011-12-26T10:38:27Z</time>
      </trkpt>
      <trkpt lat="44.54652" lon="0.94604">
        <ele>103</ele>
        <time>2011-12-26T10:38:33Z</time>
      </trkpt>
      <trkpt lat="44.54644" lon="0.94621">
        <ele>103</ele>
        <time>2011-12-26T10:38:33Z</time>
      </trkpt>
      <trkpt lat="44.54642" lon="0.94626">
        <ele>103</ele>
        <time>2011-12-26T10:38:34Z</time>
      </trkpt>
      <trkpt lat="44.54636" lon="0.94636">
        <ele>103</ele>
        <time>2011-12-26T10:38:40Z</time>
      </trkpt>
      <trkpt lat="44.54624" lon="0.94656">
        <ele>103</ele>
        <time>2011-12-26T10:38:40Z</time>
      </trkpt>
      <trkpt lat="44.54621" lon="0.94661">
        <ele>103</ele>
        <time>2011-12-26T10:38:41Z</time>
      </trkpt>
      <trkpt lat="44.54597" lon="0.94706">
        <ele>103</ele>
        <time>2011-12-26T10:38:47Z</time>
      </trkpt>
      <trkpt lat="44.54593" lon="0.94715">
        <ele>103</ele>
        <time>2011-12-26T10:38:48Z</time>
      </trkpt>
      <trkpt lat="44.5457" lon="0.94771">
        <ele>103</ele>
        <time>2011-12-26T10:38:54Z</time>
      </trkpt>
      <trkpt lat="44.54567" lon="0.94781">
        <ele>102</ele>
        <time>2011-12-26T10:38:55Z</time>
      </trkpt>
      <trkpt lat="44.54546" lon="0.94833">
        <ele>101</ele>
        <time>2011-12-26T10:39:01Z</time>
      </trkpt>
      <trkpt lat="44.54544" lon="0.9484">
        <ele>100</ele>
        <time>2011-12-26T10:39:02Z</time>
      </trkpt>
      <trkpt lat="44.5453" lon="0.94862">
        <ele>99</ele>
        <time>2011-12-26T10:39:08Z</time>
      </trkpt>
      <trkpt lat="44.54529" lon="0.94864">
        <ele>97</ele>
        <time>2011-12-26T10:39:09Z</time>
      </trkpt>
      <trkpt lat="44.54528" lon="0.94866">
        <ele>96</ele>
        <time>2011-12-26T10:39:10Z</time>
      </trkpt>
      <trkpt lat="44.54528" lon="0.94868">
        <ele>94</ele>
        <time>2011-12-26T10:39:12Z</time>
      </trkpt>
      <trkpt lat="44.54527" lon="0.94869">
        <ele>92</ele>
        <time>2011-12-26T10:39:19Z</time>
      </trkpt>
      <trkpt lat="44.54527" lon="0.94873">
        <ele>90</ele>
        <time>2011-12-26T10:39:26Z</time>
      </trkpt>
      <trkpt lat="44.54528" lon="0.94875">
        <ele>89</ele>
        <time>2011-12-26T10:39:43Z</time>
      </trkpt>
      <trkpt lat="44.5453" lon="0.94875">
        <ele>89</ele>
        <time>2011-12-26T10:39:50Z</time>
      </trkpt>
      <trkpt lat="44.5453" lon="0.94875">
        <ele>89</ele>
        <time>2011-12-26T10:39:50Z</time>
      </trkpt>
    </trkseg>
  </trk>
</gpx>